# Wetter Temperatur Luftdruck Luftfeuchtigkeit Sichtweite Windgeschwindigkeit Windrichtung Zeit
1 Clear 20 1016 49 10000 1.54 350 13:40 22.04.2021
2 Clear 20 1016 49 10000 1.54 350 13:20 22.04.2021
3 Clear 20 1016 49 10000 2.57 360 12:45 22.04.2021
4 Clear 20 1016 49 10000 2.57 360 12:20 22.04.2021
5 Clear 22 1016 49 10000 3.09 330 11:45 22.04.2021
6 Clear 22 1016 49 10000 3.09 330 11:23 22.04.2021
7 Clear 24 1016 33 10000 5.66 320 10:45 22.04.2021
8 Clear 24 1016 33 10000 5.66 320 10:22 22.04.2021
9 Clear 23 1015 40 10000 7.2 330 09:44 22.04.2021
10 Clear 23 1015 40 10000 7.2 330 09:19 22.04.2021
11 Clear 26 1016 31 10000 6.17 240 08:38 22.04.2021
12 Clear 26 1016 31 10000 6.17 240 08:18 22.04.2021
13 Clouds 26 1016 28 10000 2.57 290 07:40 22.04.2021
14 Clouds 26 1016 28 10000 2.57 290 07:20 22.04.2021
15 Clear 25 1017 33 10000 2.06 290 06:23 22.04.2021
16 Clear 23 1018 49 10000 1.54 300 05:25 22.04.2021
17 Clear 21 1020 60 10000 1.54 280 03:31 22.04.2021
18 Clear 16 1019 67 10000 1.03 0 00:52 22.04.2021
19 Clear 12 1019 87 10000 1.03 0 23:47 21.04.2021
20 Clear 12 1019 87 10000 1.03 0 23:25 21.04.2021
21 Clouds 18 1021 63 10000 2.04 61 22:42 21.04.2021
22 Clouds 18 1021 63 10000 2.11 51 22:23 21.04.2021
23 Clouds 18 1021 63 10000 2.11 51 21:42 21.04.2021
24 Clouds 18 1021 63 10000 2.15 42 21:23 21.04.2021
25 Clouds 18 1021 63 10000 2.15 42 20:42 21.04.2021
26 Clouds 18 1021 63 10000 1.98 43 20:19 21.04.2021
27 Clouds 18 1021 63 10000 1.98 43 19:42 21.04.2021
28 Clouds 18 1021 63 10000 1.27 29 19:23 21.04.2021
29 Clouds 18 1021 63 10000 1.27 29 18:45 21.04.2021
30 Clouds 18 1021 63 10000 0.58 29 18:26 21.04.2021
31 Clouds 18 1021 63 10000 0.58 29 17:47 21.04.2021
32 Clouds 18 1021 63 10000 0.68 334 17:24 21.04.2021
33 Clouds 18 1021 63 10000 0.68 334 16:48 21.04.2021
34 Clouds 18 1021 63 10000 0.99 282 15:57 21.04.2021
35 Clear 18 1021 63 10000 1.03 0 15:39 21.04.2021
36 Clear 18 1021 63 10000 1.03 0 14:54 21.04.2021
37 Clear 18 1021 63 10000 1.03 0 14:36 21.04.2021
38 Clear 18 1021 63 10000 1.03 0 14:18 21.04.2021
39 Clear 18 1020 55 10000 0.51 0 13:40 21.04.2021
40 Clear 18 1020 55 10000 0.51 0 13:19 21.04.2021
41 Clear 21 1020 40 10000 2.06 290 12:29 21.04.2021
42 Clear 22 1019 40 10000 1.54 300 11:49 21.04.2021
43 Clear 22 1019 40 10000 1.54 300 11:29 21.04.2021
44 Clear 23 1019 40 10000 2.06 260 10:49 21.04.2021
45 Clear 23 1019 40 10000 2.06 260 10:20 21.04.2021
46 Clear 25 1018 36 10000 5.14 250 09:42 21.04.2021
47 Clear 26 1019 25 10000 1.54 350 08:56 21.04.2021
48 Clear 26 1019 25 10000 1.54 350 08:56 21.04.2021
49 Clear 26 1019 25 10000 1.54 350 08:37 21.04.2021
50 Clear 26 1019 25 10000 1.54 350 08:18 21.04.2021
51 Clear 26 1019 31 10000 2.57 310 07:29 21.04.2021
52 Clear 24 1020 31 10000 2.57 310 06:25 21.04.2021
53 Clear 21 1021 49 10000 1.03 0 04:46 21.04.2021
54 Clear 13 1022 88 10000 1.54 90 00:51 21.04.2021
55 Clear 12 1021 82 10000 1.54 110 23:48 20.04.2021
56 Clouds 15 1020 77 10000 4.02 310 22:59 20.04.2021
57 Clouds 15 1020 77 10000 4.02 310 22:38 20.04.2021
58 Clear 15 1020 77 10000 4.02 310 22:18 20.04.2021
59 Clear 15 1020 77 10000 4.02 310 21:45 20.04.2021
60 Clear 15 1020 77 10000 4.02 310 21:24 20.04.2021
61 Clear 15 1020 77 10000 4.02 310 20:42 20.04.2021
62 Clouds 15 1020 77 10000 4.02 310 20:23 20.04.2021
63 Clouds 15 1020 77 10000 4.02 310 19:52 20.04.2021
64 Clouds 15 1020 77 10000 4.02 310 19:34 20.04.2021
65 Clouds 15 1020 77 10000 4.02 310 18:54 20.04.2021
66 Clouds 15 1020 77 10000 4.02 310 18:35 20.04.2021
67 Clouds 15 1020 77 10000 4.02 310 17:43 20.04.2021
68 Clouds 15 1020 77 10000 4.02 310 17:18 20.04.2021
69 Clouds 15 1020 77 10000 4.02 310 16:43 20.04.2021
70 Clouds 15 1020 77 10000 4.02 310 15:43 20.04.2021
71 Clear 15 1020 77 10000 4.12 310 15:25 20.04.2021
72 Clear 15 1020 77 10000 4.12 310 14:52 20.04.2021
73 Clear 15 1020 77 10000 4.12 310 14:27 20.04.2021
74 Clear 17 1019 63 10000 5.66 330 13:32 20.04.2021
75 Clear 18 1018 55 10000 4.12 320 12:55 20.04.2021
76 Clear 18 1018 55 10000 4.12 320 12:34 20.04.2021
77 Clear 21 1018 49 10000 3.09 330 11:58 20.04.2021
78 Clear 21 1018 49 10000 3.09 330 11:38 20.04.2021
79 Clear 21 1018 49 10000 3.09 330 11:19 20.04.2021
80 Clear 22 1017 46 10000 4.12 310 10:42 20.04.2021
81 Clear 22 1017 46 10000 4.12 310 10:20 20.04.2021
82 Clear 22 1017 46 10000 5.14 330 09:20 20.04.2021
83 Clear 22 1017 46 10000 3.6 330 08:54 20.04.2021
84 Clear 22 1017 46 10000 3.6 330 08:19 20.04.2021
85 Clouds 22 1018 26 10000 2.57 300 07:35 20.04.2021
86 Clouds 19 1020 55 10000 1.03 280 05:56 20.04.2021
87 Clouds 19 1020 55 10000 1.03 280 05:31 20.04.2021
88 Clouds 19 1020 55 10000 2.57 360 04:40 20.04.2021
89 Clear 11 1020 76 10000 1.54 110 00:52 20.04.2021
90 Clear 11 1020 76 10000 1.54 110 00:27 20.04.2021
91 Clear 10 1019 87 10000 2.06 140 23:32 19.04.2021
92 Clear 12 1018 66 10000 1.79 310 22:46 19.04.2021
93 Clear 12 1018 66 10000 1.79 310 22:26 19.04.2021
94 Clear 12 1018 66 10000 1.79 310 21:46 19.04.2021
95 Clear 12 1018 66 10000 1.79 310 21:20 19.04.2021
96 Clear 12 1018 66 10000 1.79 310 20:41 19.04.2021
97 Clear 12 1018 66 10000 1.79 310 20:21 19.04.2021
98 Clear 12 1018 66 10000 1.79 310 19:50 19.04.2021
99 Clear 12 1018 66 10000 1.79 310 19:27 19.04.2021
100 Clear 12 1018 66 10000 1.79 310 18:59 19.04.2021
101 Clear 12 1018 66 10000 1.79 310 18:40 19.04.2021
102 Clear 12 1018 66 10000 1.79 310 18:19 19.04.2021
103 Clear 12 1018 66 10000 1.79 310 18:19 19.04.2021
104 Clear 12 1018 66 10000 1.79 310 17:43 19.04.2021
105 Clear 12 1018 66 10000 1.79 310 17:23 19.04.2021
106 Clear 12 1018 66 10000 1.79 310 16:43 19.04.2021
107 Clear 12 1018 66 10000 1.79 310 16:24 19.04.2021
108 Clear 12 1018 66 10000 1.79 310 15:42 19.04.2021
109 Clear 12 1018 66 10000 2.06 310 15:23 19.04.2021
110 Clear 12 1018 66 10000 2.06 310 14:51 19.04.2021
111 Clear 12 1018 66 10000 2.06 310 14:30 19.04.2021
112 Clear 13 1017 58 10000 3.09 300 13:50 19.04.2021
113 Clear 13 1017 58 10000 3.09 300 13:28 19.04.2021
114 Clear 15 1017 47 10000 6.17 310 12:48 19.04.2021
115 Clear 15 1017 47 10000 6.17 310 12:48 19.04.2021
116 Clear 15 1017 47 10000 6.17 310 12:27 19.04.2021
117 Clear 17 1016 42 10000 5.14 310 11:58 19.04.2021
118 Clear 17 1016 42 10000 5.14 310 11:27 19.04.2021
119 Clear 18 1016 36 10000 5.14 270 10:55 19.04.2021
120 Clear 18 1016 36 10000 5.14 270 10:36 19.04.2021
121 Clear 18 1016 36 10000 5.14 270 10:18 19.04.2021
122 Clear 18 1016 36 10000 5.14 270 10:18 19.04.2021
123 Clear 18 1016 36 10000 5.14 270 10:18 19.04.2021
124 Clouds 19 1016 37 10000 5.66 330 09:38 19.04.2021
125 Clouds 19 1016 37 10000 5.66 330 09:20 19.04.2021
126 Clouds 19 1016 42 10000 6.69 340 08:32 19.04.2021
127 Clouds 19 1016 45 10000 2.06 320 07:49 19.04.2021
128 Clouds 19 1016 45 10000 2.06 320 07:20 19.04.2021
129 Clouds 18 1017 52 10000 1.54 300 06:44 19.04.2021
130 Clouds 13 1018 71 10000 2.57 140 02:38 19.04.2021
131 Clear 12 1018 71 10000 1.54 120 01:30 19.04.2021
132 Clouds 10 1018 81 10000 2.06 140 00:30 19.04.2021
133 Clear 11 1018 57 10000 1.79 80 23:19 18.04.2021
134 Clear 11 1018 57 10000 1.79 80 22:52 18.04.2021
135 Clear 11 1018 57 10000 1.79 80 22:31 18.04.2021
136 Clear 11 1018 57 10000 1.79 80 21:45 18.04.2021
137 Clear 11 1018 57 10000 1.79 80 21:23 18.04.2021
138 Clear 11 1018 57 10000 1.79 80 21:23 18.04.2021
139 Clear 11 1018 57 10000 1.79 80 20:40 18.04.2021
140 Clouds 11 1018 57 10000 1.79 80 20:21 18.04.2021
141 Clouds 11 1018 57 10000 1.79 80 19:49 18.04.2021
142 Clouds 11 1018 57 10000 1.79 80 19:30 18.04.2021
143 Clouds 11 1018 57 10000 1.79 80 18:54 18.04.2021
144 Clouds 11 1018 57 10000 1.79 80 18:31 18.04.2021
145 Clouds 11 1018 57 10000 1.79 80 17:57 18.04.2021
146 Clouds 11 1018 57 10000 1.79 80 17:38 18.04.2021
147 Clouds 11 1018 57 10000 1.79 80 17:19 18.04.2021
148 Clouds 11 1018 57 10000 1.79 80 16:41 18.04.2021
149 Clouds 11 1018 57 10000 1.79 80 15:59 18.04.2021
150 Clear 11 1018 58 10000 2.06 80 15:39 18.04.2021
151 Clear 11 1018 58 10000 2.06 80 15:19 18.04.2021
152 Clear 11 1018 58 10000 2.06 80 14:42 18.04.2021
153 Clear 11 1018 58 10000 2.06 80 14:19 18.04.2021
154 Clouds 12 1017 54 10000 3.09 30 13:50 18.04.2021
155 Clouds 12 1017 54 10000 3.09 30 13:30 18.04.2021
156 Clouds 13 1016 50 10000 6.69 300 12:39 18.04.2021
157 Clouds 14 1015 47 10000 7.2 310 11:59 18.04.2021
158 Clouds 14 1015 47 10000 7.2 310 11:40 18.04.2021
159 Clouds 15 1015 47 10000 7.2 310 11:20 18.04.2021
160 Clouds 15 1015 44 10000 7.2 310 10:44 18.04.2021
161 Clouds 15 1015 44 10000 7.2 310 10:19 18.04.2021
162 Clouds 15 1015 47 10000 8.75 310 09:39 18.04.2021
163 Clouds 15 1015 47 10000 8.75 310 09:21 18.04.2021
164 Clouds 16 1015 44 10000 9.26 320 08:46 18.04.2021
165 Clouds 16 1015 44 10000 9.26 320 08:26 18.04.2021
166 Clouds 16 1015 44 10000 9.26 310 07:40 18.04.2021
167 Clouds 16 1016 48 10000 8.23 320 06:54 18.04.2021
168 Clouds 16 1016 41 10000 8.75 320 05:26 18.04.2021
169 Clouds 15 1016 44 10000 9.26 320 04:31 18.04.2021
170 Clouds 14 1016 51 10000 9.77 300 02:23 18.04.2021
171 Clouds 12 1016 47 10000 8.23 300 00:56 18.04.2021
172 Clouds 11 1016 50 10000 6.69 300 23:52 17.04.2021
173 Clouds 11 1016 50 10000 6.69 300 23:22 17.04.2021
174 Clear 10 1017 54 10000 7.04 311 22:43 17.04.2021
175 Clear 10 1016 52 10000 7.2 312 22:21 17.04.2021
176 Clear 10 1016 52 10000 7.2 312 21:43 17.04.2021
177 Clear 11 1016 49 10000 7.77 309 21:21 17.04.2021
178 Clouds 11 1016 50 10000 8.09 307 20:29 17.04.2021
179 Clouds 11 1016 50 10000 8.09 307 19:46 17.04.2021
180 Clouds 11 1016 50 10000 8.09 307 19:46 17.04.2021
181 Clouds 11 1016 49 10000 8.19 308 19:23 17.04.2021
182 Clouds 11 1016 49 10000 8.19 308 18:59 17.04.2021
183 Clouds 11 1016 49 10000 8.19 308 18:40 17.04.2021
184 Clouds 11 1017 48 10000 8.11 309 18:20 17.04.2021
185 Clouds 11 1017 48 10000 8.11 309 17:41 17.04.2021
186 Clouds 12 1014 47 10000 7.72 280 16:56 17.04.2021
187 Clouds 12 1014 47 10000 7.72 280 16:34 17.04.2021
188 Clouds 13 1015 47 10000 6.69 280 15:56 17.04.2021
189 Clouds 14 1015 44 10000 6.69 300 14:51 17.04.2021
190 Clouds 14 1015 44 10000 6.69 300 14:33 17.04.2021
191 Clouds 14 1014 44 10000 8.23 310 13:50 17.04.2021
192 Clouds 14 1014 44 10000 8.23 310 13:27 17.04.2021
193 Clouds 15 1014 47 10000 8.23 300 12:42 17.04.2021
194 Clouds 15 1014 47 10000 8.23 300 12:21 17.04.2021
195 Clouds 16 1013 51 10000 6.69 300 11:50 17.04.2021
196 Clouds 16 1013 51 10000 6.69 300 11:30 17.04.2021
197 Clouds 17 1013 48 10000 6.69 310 10:46 17.04.2021
198 Clouds 17 1013 48 10000 6.69 310 10:27 17.04.2021
199 Clouds 16 1012 67 10000 11.83 310 09:44 17.04.2021
200 Clouds 19 1012 72 10000 7.2 310 08:41 17.04.2021
201 Clouds 20 1012 72 10000 7.2 310 08:21 17.04.2021
202 Clouds 21 1013 60 10000 2.57 360 06:47 17.04.2021
203 Clouds 16 1014 94 10000 4.63 160 03:55 17.04.2021
204 Rain 16 1014 94 10000 4.63 160 03:37 17.04.2021
205 Rain 15 1015 94 8000 5.66 130 00:48 17.04.2021
206 Rain 15 1015 100 5000 4.12 130 00:27 17.04.2021
207 Rain 15 1015 94 8000 7.2 180 23:48 16.04.2021
208 Rain 15 1015 94 8000 7.2 180 23:48 16.04.2021
209 Clouds 15 1015 94 8000 7.2 180 23:25 16.04.2021
210 Rain 16 1018 82 3022 2.24 160 22:46 16.04.2021
211 Rain 16 1018 82 2731 2.24 160 22:21 16.04.2021
212 Rain 16 1018 82 2731 2.24 160 21:50 16.04.2021
213 Clouds 16 1018 82 2731 2.24 160 21:30 16.04.2021
214 Rain 16 1017 82 5246 2.24 160 20:50 16.04.2021
215 Rain 16 1018 82 5782 2.24 160 20:24 16.04.2021
216 Rain 16 1018 82 5782 2.24 160 19:52 16.04.2021
217 Clouds 16 1017 82 10000 2.24 160 19:28 16.04.2021
218 Rain 16 1018 82 10000 2.24 160 18:36 16.04.2021
219 Rain 16 1017 82 8623 2.24 160 18:18 16.04.2021
220 Rain 16 1018 82 8623 2.24 160 17:37 16.04.2021
221 Rain 16 1018 82 10000 2.24 160 17:18 16.04.2021
222 Rain 16 1017 82 10000 2.24 160 16:41 16.04.2021
223 Clouds 16 1017 82 10000 2.24 160 16:22 16.04.2021
224 Clouds 16 1017 82 10000 2.24 160 15:43 16.04.2021
225 Clouds 16 1017 82 10000 2.57 160 15:18 16.04.2021
226 Clouds 16 1017 82 10000 2.57 160 14:41 16.04.2021
227 Clouds 17 1017 72 10000 4.12 140 13:59 16.04.2021
228 Clouds 17 1017 72 10000 4.12 140 13:41 16.04.2021
229 Clouds 17 1017 72 10000 4.12 140 13:19 16.04.2021
230 Rain 17 1016 67 10000 3.09 130 12:46 16.04.2021
231 Clouds 17 1016 67 10000 3.09 130 12:25 16.04.2021
232 Clouds 17 1016 67 10000 2.57 140 11:43 16.04.2021
233 Clouds 17 1016 67 10000 2.57 140 11:25 16.04.2021
234 Clouds 17 1016 72 10000 0.51 0 10:46 16.04.2021
235 Clouds 17 1016 72 10000 0.51 0 10:25 16.04.2021
236 Clouds 17 1016 63 10000 3.09 160 09:52 16.04.2021
237 Clouds 17 1016 63 10000 3.09 160 09:24 16.04.2021
238 Clouds 18 1017 55 10000 3.6 150 08:46 16.04.2021
239 Clouds 18 1017 55 10000 3.6 150 08:27 16.04.2021
240 Clouds 17 1017 59 10000 3.6 0 07:47 16.04.2021
241 Clouds 17 1017 59 10000 3.6 0 07:28 16.04.2021
242 Clouds 17 1017 67 10000 4.12 150 06:47 16.04.2021
243 Clouds 16 1018 77 10000 4.12 150 05:33 16.04.2021
244 Clouds 16 1018 77 10000 4.12 150 05:33 16.04.2021
245 Clouds 16 1018 72 10000 4.63 130 04:18 16.04.2021
246 Clouds 15 1018 77 10000 2.06 100 00:49 16.04.2021
247 Clouds 14 1018 77 10000 2.06 100 00:22 16.04.2021
248 Clouds 14 1017 72 10000 1.03 0 23:58 15.04.2021
249 Clouds 14 1017 72 10000 1.03 0 23:35 15.04.2021
250 Clouds 15 1017 58 10000 1.79 80 22:52 15.04.2021
251 Clouds 15 1017 58 10000 1.79 80 22:26 15.04.2021
252 Clouds 15 1017 58 10000 1.79 80 21:56 15.04.2021
253 Clouds 15 1017 58 10000 1.79 80 21:37 15.04.2021
254 Clouds 15 1017 58 10000 1.79 80 21:19 15.04.2021
255 Clouds 14 1018 73 10000 2.24 109 20:38 15.04.2021
256 Clouds 13 1019 71 10000 0.98 114 20:20 15.04.2021
257 Clouds 13 1019 71 10000 0.98 114 19:42 15.04.2021
258 Clouds 15 1017 58 10000 1.79 80 19:23 15.04.2021
259 Clouds 15 1017 58 10000 1.79 80 18:41 15.04.2021
260 Clouds 15 1017 58 10000 1.79 80 18:20 15.04.2021
261 Clouds 15 1017 58 10000 1.79 80 17:54 15.04.2021
262 Clouds 15 1017 58 10000 1.79 80 17:36 15.04.2021
263 Clouds 15 1017 58 10000 1.79 80 16:47 15.04.2021
264 Clear 15 1017 58 10000 1.79 80 16:25 15.04.2021
265 Clear 15 1017 58 10000 1.79 80 15:51 15.04.2021
266 Clouds 15 1017 58 10000 2.06 80 15:31 15.04.2021
267 Clouds 15 1017 58 10000 2.06 80 14:57 15.04.2021
268 Clouds 15 1017 58 10000 2.06 80 14:38 15.04.2021
269 Clouds 15 1017 58 10000 2.06 80 14:19 15.04.2021
270 Clouds 14 1017 67 10000 1.03 0 13:41 15.04.2021
271 Clear 16 1017 55 10000 1.54 360 12:59 15.04.2021
272 Clear 16 1017 55 10000 1.54 360 12:38 15.04.2021
273 Clear 16 1017 55 10000 1.54 360 12:20 15.04.2021
274 Clear 17 1017 48 10000 1.03 0 11:42 15.04.2021
275 Clear 17 1017 48 10000 1.03 0 11:22 15.04.2021
276 Clear 19 1017 30 10000 2.57 280 10:46 15.04.2021
277 Clear 19 1017 30 10000 2.57 280 10:26 15.04.2021
278 Clear 18 1017 48 10000 6.17 230 09:35 15.04.2021
279 Clear 19 1017 30 10000 2.06 280 08:58 15.04.2021
280 Clear 19 1017 30 10000 2.06 280 08:38 15.04.2021
281 Clear 18 1017 29 10000 2.06 290 07:48 15.04.2021
282 Clear 18 1017 29 10000 2.06 290 07:22 15.04.2021
283 Clear 18 1017 27 10000 2.57 280 06:37 15.04.2021
284 Clear 18 1017 27 10000 2.57 280 06:19 15.04.2021
285 Clear 16 1019 36 10000 3.09 280 04:23 15.04.2021
286 Clear 9 1018 81 10000 6.17 360 00:23 15.04.2021
287 Clouds 7 1018 81 10000 2.06 70 23:36 14.04.2021
288 Clouds 9 1018 68 10000 4.26 21 22:59 14.04.2021
289 Clouds 9 1018 68 10000 4.26 21 22:41 14.04.2021
290 Clouds 10 1018 69 10000 3.89 12 22:21 14.04.2021
291 Clouds 10 1018 69 10000 3.89 12 21:42 14.04.2021
292 Clouds 10 1018 69 10000 3.58 11 21:22 14.04.2021
293 Clouds 10 1018 69 10000 3.58 11 20:54 14.04.2021
294 Clouds 9 1018 71 10000 3.74 13 20:31 14.04.2021
295 Clouds 9 1018 71 10000 3.74 13 20:31 14.04.2021
296 Clouds 10 1019 72 10000 3.83 18 19:48 14.04.2021
297 Clouds 12 1017 58 10000 4.92 10 19:19 14.04.2021
298 Clouds 12 1017 58 10000 4.92 10 19:19 14.04.2021
299 Clouds 12 1017 58 10000 4.92 10 18:55 14.04.2021
300 Clouds 12 1017 58 10000 4.92 10 18:21 14.04.2021
301 Clouds 12 1017 58 10000 4.92 10 17:57 14.04.2021
302 Clouds 12 1017 58 10000 4.92 10 17:24 14.04.2021
303 Clouds 12 1017 58 10000 4.92 10 16:52 14.04.2021
304 Clouds 12 1017 58 10000 4.92 10 16:24 14.04.2021
305 Clouds 12 1017 58 10000 4.92 10 15:42 14.04.2021
306 Clear 12 1017 58 10000 5.14 10 15:22 14.04.2021
307 Clear 12 1017 58 10000 5.14 10 14:46 14.04.2021
308 Clear 12 1017 58 10000 5.14 10 14:24 14.04.2021
309 Clouds 13 1017 62 10000 6.69 360 13:54 14.04.2021
310 Clouds 13 1017 62 10000 6.69 360 13:19 14.04.2021
311 Clouds 13 1016 58 10000 7.2 360 12:37 14.04.2021
312 Clouds 14 1016 54 10000 8.75 360 11:43 14.04.2021
313 Clouds 14 1016 54 10000 8.75 360 11:25 14.04.2021
314 Clouds 15 1015 47 10000 9.77 360 10:38 14.04.2021
315 Clouds 16 1015 44 10000 8.75 360 09:59 14.04.2021
316 Clouds 16 1015 44 10000 8.75 360 09:59 14.04.2021
317 Clouds 16 1015 44 10000 8.75 360 09:41 14.04.2021
318 Clouds 16 1015 44 10000 8.75 360 09:20 14.04.2021
319 Clouds 17 1015 45 10000 8.23 360 08:43 14.04.2021
320 Clouds 17 1015 45 10000 8.23 360 08:20 14.04.2021
321 Clouds 17 1015 48 10000 8.75 310 06:55 14.04.2021
322 Clouds 17 1015 48 10000 8.75 310 06:24 14.04.2021
323 Clouds 17 1015 45 10000 6.69 320 04:34 14.04.2021
324 Clouds 12 1015 66 10000 4.12 360 01:42 14.04.2021
325 Clouds 12 1015 66 10000 4.12 360 01:42 14.04.2021
326 Clouds 12 1015 66 10000 4.12 360 01:42 14.04.2021
327 Clouds 11 1014 71 10000 7.2 330 00:37 14.04.2021
328 Clouds 11 1014 76 10000 6.69 300 23:46 13.04.2021
329 Clouds 11 1014 76 10000 6.69 300 23:21 13.04.2021
330 Clouds 11 1015 63 10000 6.36 327 22:41 13.04.2021
331 Clouds 11 1015 63 10000 6.58 322 22:19 13.04.2021
332 Clouds 11 1015 63 10000 6.58 322 21:45 13.04.2021
333 Clouds 11 1015 63 10000 6.96 320 21:27 13.04.2021
334 Clouds 11 1015 64 10000 6.62 319 20:42 13.04.2021
335 Clouds 11 1015 62 10000 6.74 321 20:21 13.04.2021
336 Clouds 11 1015 62 10000 6.74 321 19:43 13.04.2021
337 Clouds 12 1015 61 10000 6.01 322 19:23 13.04.2021
338 Clouds 12 1015 61 10000 6.01 322 18:37 13.04.2021
339 Clouds 12 1016 63 10000 5.11 320 17:54 13.04.2021
340 Clouds 14 1014 82 10000 3.09 260 17:36 13.04.2021
341 Clouds 15 1014 77 10000 4.47 290 17:18 13.04.2021
342 Clouds 15 1014 77 10000 4.47 290 16:42 13.04.2021
343 Clouds 15 1014 77 10000 4.47 290 16:20 13.04.2021
344 Clouds 15 1014 77 10000 4.47 290 15:41 13.04.2021
345 Clouds 15 1014 77 10000 4.63 290 15:21 13.04.2021
346 Clouds 15 1014 77 10000 4.63 290 14:41 13.04.2021
347 Clouds 15 1014 77 10000 4.63 290 14:41 13.04.2021
348 Clouds 15 1014 77 10000 4.63 290 14:18 13.04.2021
349 Clouds 15 1013 77 10000 4.12 280 13:45 13.04.2021
350 Clouds 15 1013 77 10000 4.12 280 13:23 13.04.2021
351 Clouds 15 1012 77 10000 4.63 300 12:53 13.04.2021
352 Clouds 15 1012 77 10000 4.63 300 12:24 13.04.2021
353 Clouds 15 1012 77 10000 4.63 300 12:24 13.04.2021
354 Clouds 16 1012 77 10000 4.12 310 11:50 13.04.2021
355 Clouds 16 1012 77 10000 4.12 310 11:29 13.04.2021
356 Clouds 16 1012 77 10000 6.17 320 10:45 13.04.2021
357 Clouds 16 1012 77 10000 6.17 320 10:20 13.04.2021
358 Clouds 16 1012 77 10000 6.17 320 10:20 13.04.2021
359 Clouds 17 1012 77 10000 5.14 330 09:53 13.04.2021
360 Clouds 17 1012 77 10000 5.14 330 09:34 13.04.2021
361 Clouds 19 1012 68 10000 6.69 300 08:51 13.04.2021
362 Clouds 19 1012 68 10000 6.69 300 08:25 13.04.2021
363 Clouds 19 1012 68 10000 6.69 320 07:52 13.04.2021
364 Clouds 19 1012 68 10000 6.69 320 07:32 13.04.2021
365 Clouds 18 1012 72 10000 6.17 320 06:28 13.04.2021
366 Clouds 16 1013 88 10000 7.2 310 03:55 13.04.2021
367 Mist 17 1012 100 5000 4.12 130 01:37 13.04.2021
368 Clouds 17 1011 94 8000 5.14 140 23:58 12.04.2021
369 Clouds 17 1011 94 8000 5.14 140 23:33 12.04.2021
370 Clouds 17 1017 93 3030 7.15 140 22:59 12.04.2021
371 Clouds 17 1017 93 3030 7.15 140 22:37 12.04.2021
372 Clouds 17 1017 93 3701 7.15 140 21:55 12.04.2021
373 Rain 17 1019 93 3701 7.15 140 21:36 12.04.2021
374 Clouds 17 1019 93 8305 7.15 140 21:18 12.04.2021
375 Clouds 17 1017 93 4600 7.15 140 20:36 12.04.2021
376 Clouds 17 1017 93 5195 7.15 140 20:18 12.04.2021
377 Rain 17 1017 93 5195 7.15 140 19:41 12.04.2021
378 Rain 17 1017 93 7756 7.15 140 19:21 12.04.2021
379 Rain 17 1017 93 7756 7.15 140 18:52 12.04.2021
380 Clouds 17 1017 93 7756 7.15 140 18:34 12.04.2021
381 Rain 17 1017 93 9385 7.15 140 17:59 12.04.2021
382 Clouds 17 1019 93 9385 7.15 140 17:41 12.04.2021
383 Clouds 17 1019 93 6519 7.15 140 17:19 12.04.2021
384 Rain 17 1017 93 6519 7.15 140 16:41 12.04.2021
385 Rain 17 1017 93 7675 7.15 140 16:23 12.04.2021
386 Rain 17 1017 93 7675 7.15 140 15:45 12.04.2021
387 Rain 17 1017 94 10000 7.2 140 14:59 12.04.2021
388 Rain 17 1017 94 10000 7.2 140 14:40 12.04.2021
389 Rain 17 1017 94 10000 7.2 140 14:22 12.04.2021
390 Rain 17 1017 94 10000 5.66 150 13:41 12.04.2021
391 Rain 17 1017 94 10000 5.66 150 13:20 12.04.2021
392 Rain 18 1017 88 10000 7.2 140 12:44 12.04.2021
393 Rain 18 1017 88 10000 7.2 140 12:23 12.04.2021
394 Rain 18 1017 88 10000 6.17 130 11:43 12.04.2021
395 Rain 18 1018 88 10000 5.66 130 10:52 12.04.2021
396 Rain 18 1018 88 10000 5.66 130 10:28 12.04.2021
397 Rain 18 1018 88 10000 6.17 140 09:53 12.04.2021
398 Rain 18 1018 88 10000 6.17 140 09:31 12.04.2021
399 Rain 19 1019 72 10000 6.69 130 08:58 12.04.2021
400 Rain 19 1019 72 10000 6.69 130 08:22 12.04.2021
401 Rain 20 1019 64 10000 6.69 130 07:30 12.04.2021
402 Rain 20 1021 60 10000 3.6 120 06:47 12.04.2021
403 Rain 19 1022 63 10000 1.03 0 05:48 12.04.2021
404 Rain 16 1024 63 10000 1.54 290 03:33 12.04.2021
405 Clouds 14 1024 77 10000 1.54 90 00:43 12.04.2021
406 Rain 14 1024 77 10000 1.54 90 00:22 12.04.2021
407 Clear 12 1025 82 10000 1.03 0 23:44 11.04.2021
408 Clear 13 1025 82 10000 1.03 0 23:22 11.04.2021
409 Clouds 14 1027 62 10000 2.57 61 22:39 11.04.2021
410 Clouds 14 1027 62 10000 2.39 72 22:19 11.04.2021
411 Clouds 14 1027 62 10000 2.39 72 21:44 11.04.2021
412 Clouds 14 1027 62 10000 2.66 84 21:24 11.04.2021
413 Clouds 14 1027 62 10000 2.66 84 21:24 11.04.2021
414 Clouds 14 1027 62 10000 2.89 53 20:46 11.04.2021
415 Clouds 14 1027 62 10000 2.15 95 20:25 11.04.2021
416 Clouds 14 1027 62 10000 2.15 95 19:43 11.04.2021
417 Clouds 14 1027 62 10000 2.37 113 19:21 11.04.2021
418 Clouds 14 1027 62 10000 2.37 113 18:58 11.04.2021
419 Clouds 14 1027 62 10000 2.37 113 18:40 11.04.2021
420 Clouds 14 1027 62 10000 2.32 122 18:20 11.04.2021
421 Clouds 14 1027 62 10000 2.32 122 17:40 11.04.2021
422 Clouds 14 1027 62 10000 2.32 122 17:40 11.04.2021
423 Clouds 14 1027 62 10000 2.19 128 17:19 11.04.2021
424 Clouds 14 1027 62 10000 2.19 128 16:42 11.04.2021
425 Clouds 14 1027 62 10000 1.54 109 16:20 11.04.2021
426 Clouds 14 1027 62 10000 1.54 109 15:45 11.04.2021
427 Clear 14 1027 62 10000 1.03 0 15:24 11.04.2021
428 Clear 14 1027 62 10000 1.03 0 14:51 11.04.2021
429 Clear 14 1027 62 10000 1.03 0 14:51 11.04.2021
430 Clear 14 1027 62 10000 1.03 0 14:22 11.04.2021
431 Clear 15 1027 63 10000 4.12 340 13:42 11.04.2021
432 Clear 15 1027 63 10000 4.12 340 13:23 11.04.2021
433 Clear 15 1026 51 10000 4.63 320 12:26 11.04.2021
434 Clear 18 1026 48 10000 6.17 340 11:57 11.04.2021
435 Clear 18 1026 48 10000 6.17 340 11:38 11.04.2021
436 Clear 18 1026 48 10000 6.17 340 11:19 11.04.2021
437 Clear 20 1026 42 10000 3.6 310 10:44 11.04.2021
438 Clear 20 1026 42 10000 3.6 310 10:22 11.04.2021
439 Clear 21 1026 26 10000 2.57 310 09:49 11.04.2021
440 Clear 21 1026 26 10000 2.57 310 09:26 11.04.2021
441 Clear 21 1026 26 10000 3.6 270 08:40 11.04.2021
442 Clear 21 1027 30 10000 3.6 310 07:41 11.04.2021
443 Clear 21 1027 30 10000 3.6 310 07:19 11.04.2021
444 Clear 18 1029 34 10000 1.54 240 05:47 11.04.2021
445 Clear 18 1029 34 10000 1.54 240 05:23 11.04.2021
446 Clear 18 1030 36 10000 2.06 200 04:36 11.04.2021
447 Clear 15 1030 51 10000 1.54 280 03:35 11.04.2021
448 Clear 11 1030 62 10000 1.54 120 00:55 11.04.2021
449 Clear 11 1030 62 10000 1.54 120 00:32 11.04.2021
450 Clear 9 1029 66 10000 2.57 120 23:45 10.04.2021
451 Clouds 11 1030 47 10000 2.67 65 22:55 10.04.2021
452 Clouds 11 1029 45 10000 2.65 63 22:28 10.04.2021
453 Clouds 11 1029 45 10000 2.65 63 21:54 10.04.2021
454 Clouds 11 1029 43 10000 2.64 62 21:25 10.04.2021
455 Clouds 11 1029 43 10000 2.64 62 20:56 10.04.2021
456 Clouds 11 1029 43 10000 2.64 62 20:36 10.04.2021
457 Clear 11 1030 43 10000 2.2 64 19:59 10.04.2021
458 Clear 11 1030 43 10000 2.2 64 19:41 10.04.2021
459 Clear 12 1029 43 10000 2.29 63 19:23 10.04.2021
460 Clear 12 1029 43 10000 2.29 63 18:41 10.04.2021
461 Clear 12 1029 44 10000 2.42 73 18:23 10.04.2021
462 Clear 9 1029 61 10000 3.09 340 17:35 10.04.2021
463 Clear 9 1029 61 10000 3.09 340 16:42 10.04.2021
464 Clear 9 1029 61 10000 3.09 340 16:21 10.04.2021
465 Clear 10 1029 62 10000 2.06 330 15:44 10.04.2021
466 Clear 15 1028 38 10000 7.2 350 14:54 10.04.2021
467 Clear 15 1028 38 10000 7.2 350 14:33 10.04.2021
468 Clear 14 1027 62 10000 7.72 350 13:55 10.04.2021
469 Clear 14 1027 62 10000 7.72 350 13:36 10.04.2021
470 Clear 16 1026 48 10000 6.69 350 12:41 10.04.2021
471 Clear 16 1026 48 10000 6.69 350 12:20 10.04.2021
472 Clear 17 1026 48 10000 6.69 350 11:45 10.04.2021
473 Clear 17 1026 48 10000 6.69 350 11:45 10.04.2021
474 Clear 17 1026 48 10000 6.69 350 11:21 10.04.2021
475 Clear 19 1025 32 10000 1.54 260 10:50 10.04.2021
476 Clear 19 1025 32 10000 1.54 260 10:30 10.04.2021
477 Clear 20 1025 30 10000 2.06 250 09:37 10.04.2021
478 Clear 20 1025 30 10000 2.06 250 09:18 10.04.2021
479 Clear 19 1026 26 10000 2.06 220 08:34 10.04.2021
480 Clear 20 1027 30 10000 3.09 230 07:55 10.04.2021
481 Clear 20 1027 30 10000 3.09 230 07:25 10.04.2021
482 Clear 20 1027 28 10000 3.6 330 06:27 10.04.2021
483 Clouds 18 1028 27 10000 2.06 290 04:49 10.04.2021
484 Clear 17 1028 34 10000 1.54 220 03:19 10.04.2021
485 Clear 15 1028 51 10000 1.54 260 02:42 10.04.2021
486 Clear 11 1027 82 10000 1.03 110 00:59 10.04.2021
487 Clear 11 1027 82 10000 1.03 110 00:30 10.04.2021
488 Clear 10 1026 81 10000 2.06 150 23:49 09.04.2021
489 Clear 10 1026 81 10000 2.06 150 23:27 09.04.2021
490 Clear 10 1027 64 10000 3.95 37 22:44 09.04.2021
491 Clear 10 1027 64 10000 3.95 37 22:44 09.04.2021
492 Clear 10 1026 65 10000 3.85 37 22:26 09.04.2021
493 Clear 10 1026 65 10000 3.85 37 21:39 09.04.2021
494 Clear 10 1026 65 10000 3.85 37 21:39 09.04.2021
495 Clouds 11 1026 65 10000 3.78 39 21:20 09.04.2021
496 Clouds 11 1026 65 10000 3.78 39 21:20 09.04.2021
497 Clouds 11 1026 65 10000 3.78 39 20:46 09.04.2021
498 Clouds 11 1025 65 10000 4.17 39 20:23 09.04.2021
499 Clouds 11 1025 65 10000 4.17 39 19:58 09.04.2021
500 Clouds 11 1025 65 10000 4.17 39 19:39 09.04.2021
501 Clear 12 1025 63 10000 4.34 47 19:20 09.04.2021
502 Clear 12 1025 63 10000 4.34 47 18:41 09.04.2021
503 Clear 14 1024 58 10000 8.05 350 18:22 09.04.2021
504 Clear 14 1024 58 10000 8.05 350 17:44 09.04.2021
505 Clear 14 1024 58 10000 8.05 350 17:22 09.04.2021
506 Clear 14 1024 58 10000 8.05 350 16:41 09.04.2021
507 Clear 14 1024 58 10000 8.05 350 16:19 09.04.2021
508 Clear 14 1024 58 10000 8.05 350 15:40 09.04.2021
509 Clouds 14 1024 58 10000 8.23 350 15:20 09.04.2021
510 Clouds 14 1024 58 10000 8.23 350 14:46 09.04.2021
511 Clouds 15 1022 51 10000 7.72 360 13:57 09.04.2021
512 Clouds 15 1022 51 10000 7.72 360 13:39 09.04.2021
513 Clouds 15 1022 51 10000 7.72 360 13:21 09.04.2021
514 Clouds 15 1021 47 10000 7.72 360 12:46 09.04.2021
515 Clouds 18 1021 45 10000 7.72 360 11:52 09.04.2021
516 Clouds 18 1021 45 10000 7.72 360 11:23 09.04.2021
517 Clouds 19 1020 42 10000 8.23 10 10:50 09.04.2021
518 Clouds 19 1020 42 10000 8.23 10 10:30 09.04.2021
519 Clouds 20 1020 45 10000 7.72 360 09:51 09.04.2021
520 Clouds 20 1020 45 10000 7.72 360 09:26 09.04.2021
521 Clouds 21 1020 23 10000 2.06 280 08:54 09.04.2021
522 Clouds 21 1020 23 10000 2.06 280 08:22 09.04.2021
523 Clouds 21 1020 24 10000 3.09 280 07:21 09.04.2021
524 Clouds 21 1020 32 10000 4.12 280 06:21 09.04.2021
525 Clear 16 1020 63 10000 1.54 220 03:54 09.04.2021
526 Clear 14 1020 72 10000 0.51 0 02:27 09.04.2021
527 Clear 11 1019 87 10000 1.54 120 00:38 09.04.2021
528 Clear 11 1019 87 10000 1.54 120 00:19 09.04.2021
529 Clear 10 1018 87 10000 1.54 90 23:30 08.04.2021
530 Clouds 12 1018 78 10000 3.25 35 22:46 08.04.2021
531 Clouds 12 1018 78 10000 3.09 26 22:26 08.04.2021
532 Clouds 12 1018 78 10000 3.09 26 21:57 08.04.2021
533 Clouds 12 1018 78 10000 3.09 26 21:37 08.04.2021
534 Clouds 12 1018 77 10000 2.74 25 21:19 08.04.2021
535 Clouds 12 1018 77 10000 2.74 25 20:52 08.04.2021
536 Clouds 14 1017 76 10000 2.24 320 20:31 08.04.2021
537 Clouds 12 1018 79 10000 2.67 19 19:49 08.04.2021
538 Clear 14 1017 76 10000 2.24 320 19:20 08.04.2021
539 Clear 14 1017 76 10000 2.24 320 18:51 08.04.2021
540 Clear 14 1017 76 10000 2.24 320 18:21 08.04.2021
541 Clear 14 1017 76 10000 2.24 320 17:50 08.04.2021
542 Clear 14 1017 76 10000 2.24 320 17:26 08.04.2021
543 Clear 14 1017 76 10000 2.24 320 16:54 08.04.2021
544 Clear 14 1017 76 10000 2.24 320 16:34 08.04.2021
545 Clear 14 1017 76 10000 2.24 320 15:49 08.04.2021
546 Clear 14 1017 77 10000 2.57 320 15:31 08.04.2021
547 Clear 14 1017 77 10000 2.57 320 14:58 08.04.2021
548 Clear 14 1017 77 10000 2.57 320 14:36 08.04.2021
549 Clear 14 1017 77 10000 2.57 320 14:18 08.04.2021
550 Clear 13 1016 76 10000 2.57 310 13:43 08.04.2021
551 Clear 13 1016 76 10000 2.57 310 13:23 08.04.2021
552 Clouds 16 1015 63 10000 4.12 300 12:44 08.04.2021
553 Clouds 16 1015 63 10000 4.12 300 12:25 08.04.2021
554 Clouds 18 1015 55 10000 1.54 300 11:43 08.04.2021
555 Clouds 18 1015 55 10000 1.54 300 11:18 08.04.2021
556 Clouds 19 1015 55 10000 1.03 0 10:42 08.04.2021
557 Clouds 19 1015 55 10000 1.03 0 10:19 08.04.2021
558 Clouds 19 1015 37 10000 2.06 300 09:43 08.04.2021
559 Clouds 20 1015 40 10000 3.09 10 08:47 08.04.2021
560 Clouds 20 1015 40 10000 3.09 10 08:47 08.04.2021
561 Clouds 20 1015 40 10000 3.09 10 08:28 08.04.2021
562 Clouds 20 1016 32 10000 2.57 20 07:59 08.04.2021
563 Clouds 20 1016 32 10000 2.57 20 07:35 08.04.2021
564 Clear 17 1017 55 10000 1.54 300 04:18 08.04.2021
565 Clear 14 1017 67 10000 2.06 130 01:20 08.04.2021
566 Rain 13 1017 76 10000 1.54 130 00:21 08.04.2021
567 Clear 12 1017 76 10000 1.03 0 23:42 07.04.2021
568 Clear 13 1017 76 10000 1.03 0 23:22 07.04.2021
569 Clouds 14 1017 62 10000 4.92 330 22:50 07.04.2021
570 Clouds 14 1017 62 10000 4.92 330 22:32 07.04.2021
571 Clouds 14 1017 62 10000 4.92 330 21:46 07.04.2021
572 Clouds 14 1017 62 10000 4.92 330 21:24 07.04.2021
573 Clouds 14 1017 62 10000 4.92 330 20:45 07.04.2021
574 Clouds 14 1017 62 10000 4.92 330 20:21 07.04.2021
575 Clouds 14 1017 62 10000 4.92 330 19:45 07.04.2021
576 Clouds 14 1017 62 10000 4.92 330 19:26 07.04.2021
577 Clouds 14 1017 62 10000 4.92 330 18:48 07.04.2021
578 Clouds 14 1017 62 10000 4.92 330 18:20 07.04.2021
579 Clouds 14 1017 62 10000 4.92 330 17:55 07.04.2021
580 Clouds 14 1017 62 10000 4.92 330 17:37 07.04.2021
581 Clouds 14 1017 62 10000 4.92 330 16:58 07.04.2021
582 Clouds 14 1017 62 10000 4.92 330 16:38 07.04.2021
583 Clouds 14 1017 62 10000 4.92 330 16:19 07.04.2021
584 Clear 14 1017 62 10000 5.14 330 15:39 07.04.2021
585 Clear 14 1017 62 10000 5.14 330 14:57 07.04.2021
586 Clear 14 1017 62 10000 5.14 330 14:32 07.04.2021
587 Clear 15 1017 63 10000 3.6 350 13:52 07.04.2021
588 Clear 15 1017 63 10000 3.6 350 13:24 07.04.2021
589 Clouds 17 1016 59 10000 6.17 10 12:53 07.04.2021
590 Clouds 17 1016 59 10000 6.17 10 12:25 07.04.2021
591 Clouds 19 1015 48 10000 6.17 340 11:55 07.04.2021
592 Clouds 19 1015 48 10000 6.17 340 11:26 07.04.2021
593 Clouds 20 1015 45 10000 8.75 340 10:52 07.04.2021
594 Clouds 20 1015 45 10000 8.75 340 10:20 07.04.2021
595 Clouds 22 1015 37 10000 6.17 340 09:42 07.04.2021
596 Clouds 22 1015 37 10000 6.17 340 09:23 07.04.2021
597 Clouds 21 1015 37 10000 4.12 310 08:41 07.04.2021
598 Clouds 21 1015 37 10000 4.12 310 08:18 07.04.2021
599 Clouds 21 1016 35 10000 3.09 210 07:42 07.04.2021
600 Clouds 21 1016 35 10000 3.09 210 07:21 07.04.2021
601 Clouds 20 1017 42 10000 3.6 200 06:24 07.04.2021
602 Clouds 18 1018 48 10000 2.57 210 04:23 07.04.2021
603 Clear 10 1018 87 10000 3.09 120 00:20 07.04.2021
604 Clear 9 1018 87 10000 1.54 110 23:46 06.04.2021
605 Clouds 12 1018 54 10000 4.02 350 23:18 06.04.2021
606 Clouds 12 1018 54 10000 4.02 350 22:39 06.04.2021
607 Clouds 12 1018 54 10000 4.02 350 22:19 06.04.2021
608 Clouds 12 1018 54 10000 4.02 350 21:40 06.04.2021
609 Clouds 12 1018 54 10000 4.02 350 21:21 06.04.2021
610 Clouds 12 1018 54 10000 4.02 350 20:53 06.04.2021
611 Clouds 12 1018 54 10000 4.02 350 20:24 06.04.2021
612 Clouds 12 1018 54 10000 4.02 350 19:52 06.04.2021
613 Clouds 12 1018 54 10000 4.02 350 19:34 06.04.2021
614 Clouds 12 1018 54 10000 4.02 350 18:52 06.04.2021
615 Clouds 12 1018 54 10000 4.02 350 18:33 06.04.2021
616 Clouds 12 1018 54 10000 4.02 350 17:57 06.04.2021
617 Clouds 12 1018 54 10000 4.02 350 17:38 06.04.2021
618 Clouds 12 1018 54 10000 4.02 350 17:18 06.04.2021
619 Clouds 12 1018 54 10000 4.02 350 16:41 06.04.2021
620 Clouds 12 1018 54 10000 4.02 350 15:49 06.04.2021
621 Clear 12 1018 54 10000 4.12 350 15:24 06.04.2021
622 Clear 12 1018 54 10000 4.12 350 14:40 06.04.2021
623 Clear 12 1018 54 10000 4.12 350 14:21 06.04.2021
624 Clear 13 1017 54 10000 6.17 340 13:46 06.04.2021
625 Clear 13 1017 54 10000 6.17 340 13:25 06.04.2021
626 Clear 14 1017 44 10000 6.17 350 12:43 06.04.2021
627 Clear 14 1017 44 10000 6.17 350 12:24 06.04.2021
628 Clear 16 1016 41 10000 6.17 10 11:54 06.04.2021
629 Clear 16 1016 41 10000 6.17 10 11:36 06.04.2021
630 Clear 16 1016 41 10000 6.17 10 11:18 06.04.2021
631 Clear 17 1016 48 10000 7.2 350 10:38 06.04.2021
632 Clear 17 1016 48 10000 7.2 350 10:19 06.04.2021
633 Clouds 18 1015 52 10000 8.75 340 09:42 06.04.2021
634 Clouds 19 1015 45 10000 9.26 340 08:48 06.04.2021
635 Clouds 19 1015 45 10000 9.26 340 08:19 06.04.2021
636 Clouds 19 1016 34 10000 5.66 320 06:56 06.04.2021
637 Clouds 19 1016 34 10000 5.66 320 06:23 06.04.2021
638 Clouds 16 1018 36 10000 6.17 330 03:43 06.04.2021
639 Clouds 11 1017 71 10000 5.14 10 00:47 06.04.2021
640 Clouds 11 1017 71 10000 5.14 10 00:21 06.04.2021
641 Clouds 10 1017 71 10000 5.66 350 23:48 05.04.2021
642 Clouds 10 1017 71 10000 5.66 350 23:24 05.04.2021
643 Clouds 9 1017 67 10000 3.81 39 22:53 05.04.2021
644 Clouds 9 1017 67 10000 3.81 39 22:32 05.04.2021
645 Clouds 9 1017 67 10000 4.05 32 21:45 05.04.2021
646 Clouds 9 1016 67 10000 4.42 30 21:23 05.04.2021
647 Clouds 9 1016 67 10000 4.42 30 20:48 05.04.2021
648 Clear 9 1017 67 10000 4.66 28 20:30 05.04.2021
649 Clear 9 1016 66 10000 4.55 35 19:44 05.04.2021
650 Clear 9 1017 67 10000 4.93 35 19:25 05.04.2021
651 Clear 9 1017 67 10000 4.93 35 18:55 05.04.2021
652 Clear 9 1017 67 10000 4.93 35 18:37 05.04.2021
653 Clear 10 1017 67 10000 5.14 30 18:18 05.04.2021
654 Clear 10 1017 67 10000 5.14 30 17:45 05.04.2021
655 Clear 12 1016 62 10000 11.18 10 17:21 05.04.2021
656 Clear 12 1016 62 10000 11.18 10 16:44 05.04.2021
657 Clear 12 1016 62 10000 11.18 10 16:21 05.04.2021
658 Clear 12 1016 62 10000 11.18 10 15:54 05.04.2021
659 Clouds 12 1016 62 10000 11.32 10 15:30 05.04.2021
660 Clouds 12 1016 62 10000 11.32 10 14:54 05.04.2021
661 Clouds 12 1016 62 10000 11.32 10 14:34 05.04.2021
662 Clouds 12 1015 62 10000 11.32 10 13:32 05.04.2021
663 Clouds 13 1015 50 10000 11.83 10 12:51 05.04.2021
664 Clouds 13 1015 50 10000 11.83 10 12:28 05.04.2021
665 Clouds 14 1014 47 10000 11.32 10 11:56 05.04.2021
666 Clouds 14 1014 47 10000 11.32 10 11:36 05.04.2021
667 Clouds 14 1014 47 10000 11.32 10 11:18 05.04.2021
668 Clouds 15 1015 44 10000 10.29 360 10:41 05.04.2021
669 Clouds 15 1015 44 10000 10.29 360 10:22 05.04.2021
670 Clouds 16 1014 48 10000 9.77 350 09:47 05.04.2021
671 Clouds 16 1014 48 10000 9.77 350 09:22 05.04.2021
672 Clouds 17 1014 45 10000 9.77 350 08:43 05.04.2021
673 Clouds 17 1014 45 10000 9.77 350 08:24 05.04.2021
674 Clouds 17 1015 45 10000 8.75 340 07:36 05.04.2021
675 Clouds 16 1016 48 10000 8.23 10 05:23 05.04.2021
676 Clouds 13 1016 62 10000 9.77 10 01:35 05.04.2021
677 Clouds 12 1016 66 10000 8.75 360 00:38 05.04.2021
678 Clouds 12 1015 66 10000 8.75 360 23:47 04.04.2021
679 Clouds 12 1015 66 10000 8.75 360 23:23 04.04.2021
680 Clouds 11 1016 70 10000 8.24 24 22:50 04.04.2021
681 Clouds 12 1015 72 10000 8.16 27 22:29 04.04.2021
682 Clouds 14 1012 76 10000 8.94 10 21:27 04.04.2021
683 Clouds 14 1012 76 10000 8.94 10 20:56 04.04.2021
684 Clouds 14 1012 76 10000 8.94 10 20:30 04.04.2021
685 Clouds 14 1012 76 10000 8.94 10 20:30 04.04.2021
686 Clouds 14 1012 76 10000 8.94 10 19:54 04.04.2021
687 Clouds 14 1012 76 10000 8.94 10 19:36 04.04.2021
688 Clouds 14 1012 76 10000 8.94 10 19:18 04.04.2021
689 Clouds 14 1012 76 10000 8.94 10 18:41 04.04.2021
690 Clouds 14 1012 76 10000 8.94 10 18:20 04.04.2021
691 Clouds 14 1012 76 10000 8.94 10 17:44 04.04.2021
692 Clouds 14 1012 76 10000 8.94 10 17:23 04.04.2021
693 Clouds 14 1012 76 10000 8.94 10 16:43 04.04.2021
694 Clouds 14 1012 76 10000 8.94 10 16:18 04.04.2021
695 Clouds 14 1012 77 10000 9.26 10 15:34 04.04.2021
696 Clouds 14 1012 77 10000 9.26 10 14:46 04.04.2021
697 Clouds 14 1012 77 10000 9.26 10 14:27 04.04.2021
698 Clouds 14 1011 82 10000 7.72 10 13:47 04.04.2021
699 Clouds 14 1011 82 10000 7.72 10 13:23 04.04.2021
700 Clouds 14 1011 82 10000 7.2 20 12:41 04.04.2021
701 Clouds 14 1011 82 10000 7.2 20 12:23 04.04.2021
702 Clouds 15 1010 77 10000 9.26 10 11:42 04.04.2021
703 Clouds 15 1010 77 10000 9.26 10 11:23 04.04.2021
704 Clouds 16 1010 77 10000 8.75 360 10:43 04.04.2021
705 Clouds 16 1009 82 10000 7.72 360 09:55 04.04.2021
706 Clouds 16 1009 82 10000 7.72 360 09:26 04.04.2021
707 Clouds 17 1009 82 10000 6.17 350 08:53 04.04.2021
708 Clouds 17 1009 82 10000 6.17 350 08:35 04.04.2021
709 Clouds 18 1009 82 10000 7.2 350 07:55 04.04.2021
710 Clouds 18 1010 82 10000 2.57 330 06:38 04.04.2021
711 Clouds 16 1011 94 10000 2.57 330 05:33 04.04.2021
712 Clouds 17 1010 100 10000 3.09 240 01:29 04.04.2021
713 Mist 19 1010 94 4500 5.66 210 00:20 04.04.2021
714 Mist 19 1010 100 2500 6.69 230 23:48 03.04.2021
715 Mist 19 1009 100 3500 3.09 170 23:29 03.04.2021
716 Clouds 21 1012 68 1453 4.92 160 22:52 03.04.2021
717 Clouds 21 1012 68 4380 4.92 160 22:22 03.04.2021
718 Clouds 21 1012 68 4380 4.92 160 21:52 03.04.2021
719 Clouds 21 1012 68 10000 4.92 160 21:24 03.04.2021
720 Clouds 21 1013 68 10000 4.92 160 20:51 03.04.2021
721 Clouds 21 1013 68 10000 4.92 160 20:28 03.04.2021
722 Clouds 21 1013 68 10000 4.92 160 19:51 03.04.2021
723 Clouds 21 1012 68 10000 4.92 160 19:25 03.04.2021
724 Clouds 21 1012 68 10000 4.92 160 18:52 03.04.2021
725 Clouds 21 1012 68 10000 4.92 160 18:33 03.04.2021
726 Clouds 21 1012 68 10000 4.92 160 17:55 03.04.2021
727 Clouds 21 1012 68 10000 4.92 160 17:26 03.04.2021
728 Clouds 21 1012 68 10000 4.92 160 16:54 03.04.2021
729 Clouds 21 1012 68 10000 4.92 160 16:25 03.04.2021
730 Clouds 21 1012 68 10000 4.92 160 15:51 03.04.2021
731 Clouds 21 1012 68 10000 5.14 160 15:30 03.04.2021
732 Clouds 21 1012 68 10000 5.14 160 14:45 03.04.2021
733 Clouds 21 1012 68 10000 5.14 160 14:25 03.04.2021
734 Clouds 20 1012 77 10000 5.14 160 13:54 03.04.2021
735 Clouds 20 1012 77 10000 5.14 160 13:29 03.04.2021
736 Clouds 21 1011 73 10000 5.14 160 12:57 03.04.2021
737 Clouds 21 1011 73 10000 5.14 160 12:33 03.04.2021
738 Clouds 21 1011 78 10000 2.57 200 11:41 03.04.2021
739 Clouds 21 1011 78 10000 2.57 200 11:19 03.04.2021
740 Clouds 22 1011 73 10000 5.14 250 10:45 03.04.2021
741 Clouds 22 1011 73 10000 5.14 250 10:25 03.04.2021
742 Clouds 22 1011 73 10000 6.17 240 09:29 03.04.2021
743 Clouds 24 1012 57 10000 3.6 230 08:59 03.04.2021
744 Clouds 24 1012 57 10000 3.6 230 08:32 03.04.2021
745 Clouds 24 1012 53 10000 2.06 240 07:30 03.04.2021
746 Clouds 24 1013 57 10000 2.06 50 06:53 03.04.2021
747 Clouds 20 1015 73 10000 3.09 20 03:54 03.04.2021
748 Clouds 21 1015 68 10000 2.06 300 02:54 03.04.2021
749 Clouds 19 1015 68 10000 2.06 300 02:27 03.04.2021
750 Clouds 16 1015 77 10000 2.06 60 00:32 03.04.2021
751 Clear 15 1015 88 10000 2.57 320 23:59 02.04.2021
752 Clear 15 1015 88 10000 2.57 320 23:29 02.04.2021
753 Clouds 17 1016 83 10000 2.83 62 22:56 02.04.2021
754 Clouds 17 1016 83 10000 2.83 62 22:37 02.04.2021
755 Clouds 17 1016 83 10000 2.22 66 21:56 02.04.2021
756 Clouds 17 1016 83 10000 2.22 66 21:38 02.04.2021
757 Clouds 17 1016 83 10000 2.24 70 21:18 02.04.2021
758 Clouds 17 1016 82 10000 3.07 67 20:38 02.04.2021
759 Clouds 17 1016 83 10000 2.24 70 20:38 02.04.2021
760 Clouds 17 1016 81 10000 2.84 56 20:18 02.04.2021
761 Clouds 17 1016 81 10000 2.84 56 19:40 02.04.2021
762 Clouds 17 1017 81 10000 2.68 45 19:22 02.04.2021
763 Clouds 17 1017 81 10000 2.68 45 18:43 02.04.2021
764 Clouds 20 1017 60 10000 5.81 110 18:23 02.04.2021
765 Clouds 20 1017 60 10000 5.81 110 17:54 02.04.2021
766 Clear 16 1018 82 10000 2.06 40 17:22 02.04.2021
767 Clear 16 1018 82 10000 2.06 40 16:23 02.04.2021
768 Clear 17 1018 77 10000 1.03 0 15:43 02.04.2021
769 Clouds 20 1017 60 10000 6.17 110 15:19 02.04.2021
770 Clouds 20 1017 60 10000 6.17 110 14:33 02.04.2021
771 Clouds 21 1016 56 10000 6.69 100 13:47 02.04.2021
772 Clouds 21 1016 56 10000 6.69 100 13:27 02.04.2021
773 Clouds 21 1016 56 10000 7.2 100 12:47 02.04.2021
774 Clouds 21 1016 56 10000 7.2 100 12:20 02.04.2021
775 Clouds 22 1015 53 10000 7.72 100 11:58 02.04.2021
776 Clouds 22 1015 53 10000 7.72 100 11:21 02.04.2021
777 Clouds 22 1015 56 10000 8.23 100 10:51 02.04.2021
778 Clouds 22 1015 56 10000 8.23 100 10:32 02.04.2021
779 Clouds 22 1015 56 10000 8.23 100 10:32 02.04.2021
780 Clouds 23 1015 49 10000 6.69 100 09:55 02.04.2021
781 Clouds 23 1015 49 10000 6.69 100 09:37 02.04.2021
782 Clouds 23 1015 49 10000 6.69 100 09:18 02.04.2021
783 Clouds 24 1015 46 10000 5.14 90 08:34 02.04.2021
784 Clouds 24 1015 46 10000 4.12 110 07:42 02.04.2021
785 Clouds 24 1015 46 10000 4.12 110 07:18 02.04.2021
786 Clouds 22 1016 60 10000 4.12 150 06:22 02.04.2021
787 Clouds 18 1017 63 10000 1.03 0 02:51 02.04.2021
788 Clouds 16 1017 88 10000 1.54 150 00:54 02.04.2021
789 Clouds 16 1017 88 10000 1.54 150 00:33 02.04.2021
790 Clouds 15 1016 82 10000 0.51 0 23:41 01.04.2021
791 Clouds 18 1015 67 10000 3.23 38 23:21 01.04.2021
792 Clouds 18 1015 67 10000 2.89 50 22:22 01.04.2021
793 Clouds 18 1015 67 10000 2.89 50 22:22 01.04.2021
794 Clouds 18 1015 67 10000 2.89 50 21:51 01.04.2021
795 Clouds 18 1015 67 10000 2.25 56 21:29 01.04.2021
796 Clouds 18 1015 67 10000 2.25 56 20:58 01.04.2021
797 Clouds 18 1015 67 10000 2.83 48 20:29 01.04.2021
798 Clouds 18 1015 67 10000 2.83 48 19:57 01.04.2021
799 Clouds 18 1015 67 10000 2.83 48 19:37 01.04.2021
800 Clouds 18 1015 67 10000 2.3 58 18:49 01.04.2021
801 Clouds 18 1015 67 10000 1.79 76 18:19 01.04.2021
802 Rain 18 1015 67 10000 1.79 76 17:57 01.04.2021
803 Clouds 18 1015 67 10000 1.79 76 17:38 01.04.2021
804 Clouds 18 1015 67 10000 0.64 127 17:19 01.04.2021
805 Clouds 18 1015 67 10000 0.64 127 16:41 01.04.2021
806 Clouds 18 1015 67 10000 0.93 171 15:49 01.04.2021
807 Clear 18 1015 68 10000 1.03 0 15:21 01.04.2021
808 Clear 18 1015 68 10000 1.03 0 14:48 01.04.2021
809 Rain 18 1015 68 10000 1.03 0 14:28 01.04.2021
810 Clear 19 1014 63 10000 4.63 360 13:58 01.04.2021
811 Clear 19 1014 63 10000 4.63 360 13:31 01.04.2021
812 Rain 19 1014 68 10000 4.12 360 12:56 01.04.2021
813 Rain 19 1014 68 10000 4.12 360 12:34 01.04.2021
814 Clear 20 1014 64 10000 6.17 360 11:58 01.04.2021
815 Clear 20 1014 64 10000 6.17 360 11:40 01.04.2021
816 Clear 20 1014 64 10000 6.17 360 11:18 01.04.2021
817 Rain 21 1014 49 10000 2.57 340 10:45 01.04.2021
818 Clear 21 1014 49 10000 2.57 340 10:22 01.04.2021
819 Rain 23 1013 38 10000 2.06 350 09:31 01.04.2021
820 Clear 24 1013 35 10000 2.06 290 08:43 01.04.2021
821 Clear 24 1013 35 10000 2.06 290 08:24 01.04.2021
822 Clear 23 1013 35 10000 1.54 280 07:21 01.04.2021
823 Clear 23 1014 38 10000 2.06 260 06:55 01.04.2021
824 Clear 21 1014 43 10000 1.54 300 05:33 01.04.2021
825 Clear 17 1015 59 10000 1.54 290 03:18 01.04.2021
826 Clear 11 1014 87 10000 1.54 130 23:52 31.03.2021
827 Clear 11 1014 87 10000 1.54 130 23:34 31.03.2021
828 Clouds 16 1012 72 10000 5.81 340 22:43 31.03.2021
829 Clouds 16 1012 72 10000 5.81 340 22:22 31.03.2021
830 Clouds 16 1012 72 10000 5.81 340 21:48 31.03.2021
831 Clouds 16 1012 72 10000 5.81 340 21:24 31.03.2021
832 Clouds 16 1012 72 10000 5.81 340 20:59 31.03.2021
833 Clouds 16 1012 72 10000 5.81 340 20:40 31.03.2021
834 Clouds 16 1012 72 10000 5.81 340 20:19 31.03.2021
835 Clouds 16 1012 72 10000 5.81 340 19:42 31.03.2021
836 Clouds 16 1012 72 10000 5.81 340 19:20 31.03.2021
837 Clouds 16 1012 72 10000 5.81 340 18:53 31.03.2021
838 Clouds 16 1012 72 10000 5.81 340 18:34 31.03.2021
839 Clouds 16 1012 72 10000 5.81 340 17:38 31.03.2021
840 Clouds 16 1012 72 10000 5.81 340 17:19 31.03.2021
841 Clouds 16 1012 72 10000 5.81 340 16:50 31.03.2021
842 Clouds 16 1012 72 10000 5.81 340 16:50 31.03.2021
843 Clouds 16 1012 72 10000 5.81 340 16:31 31.03.2021
844 Clouds 16 1012 72 10000 5.81 340 15:53 31.03.2021
845 Clear 16 1012 72 10000 6.17 340 15:20 31.03.2021
846 Clear 16 1012 72 10000 6.17 340 14:49 31.03.2021
847 Clear 16 1012 72 10000 6.17 340 14:24 31.03.2021
848 Clear 16 1012 72 10000 6.17 340 14:24 31.03.2021
849 Clear 16 1012 72 10000 5.66 340 13:54 31.03.2021
850 Clear 16 1012 72 10000 5.66 340 13:22 31.03.2021
851 Clear 17 1011 67 10000 5.66 330 12:40 31.03.2021
852 Clear 17 1011 67 10000 5.66 330 12:18 31.03.2021
853 Clear 19 1011 37 10000 2.57 330 11:22 31.03.2021
854 Rain 20 1011 30 10000 1.54 30 10:48 31.03.2021
855 Clear 20 1011 30 10000 1.54 30 10:27 31.03.2021
856 Clear 22 1011 21 10000 3.09 230 09:46 31.03.2021
857 Clear 22 1011 21 10000 3.09 230 09:27 31.03.2021
858 Clear 22 1010 24 10000 2.06 20 08:43 31.03.2021
859 Clear 22 1010 24 10000 2.06 20 08:25 31.03.2021
860 Clear 22 1011 28 10000 1.54 260 07:33 31.03.2021
861 Clear 17 1013 48 10000 2.57 190 04:34 31.03.2021
862 Clear 14 1013 67 10000 1.54 190 02:37 31.03.2021
863 Clear 11 1013 87 10000 1.54 100 00:54 31.03.2021
864 Clear 11 1013 87 10000 1.54 100 00:22 31.03.2021
865 Clouds 11 1012 87 10000 3.09 120 23:54 30.03.2021
866 Clouds 14 1010 76 10000 3.58 320 23:22 30.03.2021
867 Clouds 14 1010 76 10000 3.58 320 22:49 30.03.2021
868 Clouds 14 1010 76 10000 3.58 320 22:49 30.03.2021
869 Clouds 14 1010 76 10000 3.58 320 22:30 30.03.2021
870 Clouds 14 1010 76 10000 3.58 320 21:56 30.03.2021
871 Clouds 14 1010 76 10000 3.58 320 21:25 30.03.2021
872 Clouds 14 1010 76 10000 3.58 320 20:58 30.03.2021
873 Clouds 14 1010 76 10000 3.58 320 20:30 30.03.2021
874 Clouds 14 1010 76 10000 3.58 320 19:55 30.03.2021
875 Clouds 14 1010 76 10000 3.58 320 19:36 30.03.2021
876 Clouds 14 1010 76 10000 3.58 320 18:47 30.03.2021
877 Clouds 14 1010 76 10000 3.58 320 18:24 30.03.2021
878 Clouds 14 1010 76 10000 3.58 320 17:45 30.03.2021
879 Clouds 14 1010 76 10000 3.58 320 17:26 30.03.2021
880 Clouds 14 1010 76 10000 3.58 320 16:47 30.03.2021
881 Clouds 14 1010 76 10000 3.58 320 16:25 30.03.2021
882 Clouds 14 1010 77 10000 3.6 320 15:36 30.03.2021
883 Clouds 14 1010 77 10000 3.6 320 15:18 30.03.2021
884 Clouds 14 1010 77 10000 3.6 320 14:43 30.03.2021
885 Clouds 14 1010 77 10000 3.6 320 14:19 30.03.2021
886 Clouds 15 1010 72 9000 6.17 330 13:44 30.03.2021
887 Clouds 18 1009 55 8000 5.66 360 12:58 30.03.2021
888 Clouds 18 1009 55 8000 5.66 360 12:39 30.03.2021
889 Clouds 18 1009 55 8000 5.66 360 12:20 30.03.2021
890 Clouds 20 1009 45 8000 3.6 310 11:40 30.03.2021
891 Clouds 20 1009 45 8000 3.6 310 11:18 30.03.2021
892 Clouds 20 1008 52 7000 1.54 180 10:40 30.03.2021
893 Clouds 20 1008 52 7000 1.54 180 10:18 30.03.2021
894 Clouds 22 1008 43 6000 4.12 320 09:38 30.03.2021
895 Clouds 22 1008 43 6000 4.12 320 09:20 30.03.2021
896 Clouds 21 1008 52 6000 4.63 320 08:41 30.03.2021
897 Clouds 20 1009 60 9000 2.06 260 07:53 30.03.2021
898 Clouds 20 1009 60 9000 2.06 260 07:23 30.03.2021
899 Clouds 17 1009 52 8000 3.09 300 06:19 30.03.2021
900 Clouds 17 1009 52 7000 1.54 280 05:24 30.03.2021
901 Mist 13 1009 94 4500 1.03 0 01:37 30.03.2021
902 Mist 12 1009 100 3000 1.54 130 23:52 29.03.2021
903 Mist 13 1009 100 3000 1.54 130 23:18 29.03.2021
904 Clouds 14 1009 93 10000 0.76 37 22:35 29.03.2021
905 Clouds 14 1009 93 10000 1.1 18 21:55 29.03.2021
906 Clouds 14 1009 93 10000 1.1 18 21:33 29.03.2021
907 Clouds 14 1009 93 10000 1.21 360 20:50 29.03.2021
908 Clouds 14 1009 93 10000 0.36 312 20:29 29.03.2021
909 Clouds 14 1009 93 10000 0.36 312 19:52 29.03.2021
910 Clear 14 1009 93 10000 1.14 306 19:27 29.03.2021
911 Clear 14 1009 93 10000 1.14 306 18:51 29.03.2021
912 Clear 14 1009 93 10000 0.71 309 18:27 29.03.2021
913 Clear 14 1009 93 10000 0.71 309 17:52 29.03.2021
914 Clear 14 1009 93 10000 0.71 309 17:33 29.03.2021
915 Clear 14 1009 93 10000 0.47 227 16:50 29.03.2021
916 Clear 14 1009 93 10000 0.81 290 16:24 29.03.2021
917 Clear 14 1009 93 10000 0.81 290 15:40 29.03.2021
918 Clouds 14 1009 94 6000 0.51 0 15:22 29.03.2021
919 Clouds 14 1009 94 6000 0.51 0 14:46 29.03.2021
920 Clouds 16 1009 82 7000 2.57 240 13:56 29.03.2021
921 Clouds 16 1009 82 7000 2.57 240 13:36 29.03.2021
922 Clouds 17 1008 77 8000 4.12 230 12:57 29.03.2021
923 Clouds 17 1008 77 8000 4.12 230 12:39 29.03.2021
924 Clouds 17 1008 82 9000 5.66 240 11:43 29.03.2021
925 Clouds 17 1008 82 9000 5.66 240 11:25 29.03.2021
926 Clouds 18 1008 72 10000 7.2 230 10:45 29.03.2021
927 Clouds 18 1008 72 10000 7.2 230 10:19 29.03.2021
928 Clouds 19 1008 68 10000 6.17 230 09:31 29.03.2021
929 Clouds 20 1008 64 8000 5.66 230 08:34 29.03.2021
930 Clouds 20 1009 64 9000 4.63 240 07:54 29.03.2021
931 Clouds 20 1009 60 9000 3.09 240 06:57 29.03.2021
932 Clouds 19 1009 60 9000 3.09 240 06:22 29.03.2021
933 Clouds 15 1011 88 6000 3.09 130 02:32 29.03.2021
934 Mist 12 1010 100 5000 2.57 130 00:27 29.03.2021
935 Mist 12 1009 100 5000 3.6 130 23:58 28.03.2021
936 Mist 12 1009 100 5000 3.6 130 23:25 28.03.2021
937 Mist 12 1009 100 5000 3.6 130 23:25 28.03.2021
938 Clear 12 1009 93 10000 1.34 220 22:43 28.03.2021
939 Clear 12 1009 93 10000 1.34 220 22:25 28.03.2021
940 Clear 12 1009 93 10000 1.34 220 21:47 28.03.2021
941 Clear 12 1009 93 10000 1.34 220 21:24 28.03.2021
942 Clear 12 1009 93 10000 1.34 220 20:53 28.03.2021
943 Clear 12 1009 93 10000 1.34 220 20:35 28.03.2021
944 Clear 12 1009 93 10000 1.34 220 19:56 28.03.2021
945 Clear 12 1009 93 10000 1.34 220 19:38 28.03.2021
946 Clear 12 1009 93 10000 1.34 220 19:20 28.03.2021
947 Clear 12 1009 93 10000 1.34 220 18:41 28.03.2021
948 Clear 12 1009 93 10000 1.34 220 18:18 28.03.2021
949 Clear 12 1009 93 10000 1.34 220 17:37 28.03.2021
950 Clear 12 1009 93 10000 1.34 220 16:56 28.03.2021
951 Clear 12 1009 93 10000 1.34 220 16:28 28.03.2021
952 Clear 12 1009 93 10000 1.34 220 15:57 28.03.2021
953 Clouds 12 1009 94 10000 1.54 220 15:24 28.03.2021
954 Clouds 12 1009 94 10000 1.54 220 14:46 28.03.2021
955 Clouds 12 1009 94 10000 1.54 220 14:18 28.03.2021
956 Clouds 13 1008 82 10000 1.03 300 13:35 28.03.2021
957 Clouds 14 1007 77 10000 2.06 310 12:56 28.03.2021
958 Clouds 14 1007 77 10000 2.06 310 12:34 28.03.2021
959 Clouds 16 1007 67 10000 4.63 300 11:52 28.03.2021
960 Clouds 16 1007 67 10000 4.63 300 11:32 28.03.2021
961 Clouds 17 1006 67 10000 1.54 300 10:48 28.03.2021
962 Clouds 17 1006 67 10000 1.54 300 10:29 28.03.2021
963 Clouds 17 1006 72 10000 1.03 0 09:51 28.03.2021
964 Clouds 17 1006 72 10000 1.03 0 09:27 28.03.2021
965 Clouds 16 1006 82 10000 0.51 0 08:49 28.03.2021
966 Clouds 16 1006 82 10000 0.51 0 08:30 28.03.2021
967 Clouds 15 1006 88 10000 1.54 360 07:39 28.03.2021
968 Clouds 14 1007 94 10000 2.06 360 05:39 28.03.2021
969 Rain 17 1006 94 10000 3.6 230 03:28 28.03.2021
970 Rain 18 1006 82 10000 3.09 170 00:35 28.03.2021
971 Clouds 17 1006 94 6000 6.69 220 23:51 27.03.2021
972 Rain 17 1006 94 4000 7.2 220 23:33 27.03.2021
973 Mist 17 1004 94 4000 11.32 170 22:40 27.03.2021
974 Rain 17 1004 94 4000 11.32 170 22:21 27.03.2021
975 Rain 17 1012 77 2556 4.02 130 21:42 27.03.2021
976 Rain 17 1012 77 4058 4.02 130 21:21 27.03.2021
977 Rain 17 1012 77 4058 4.02 130 20:55 27.03.2021
978 Clouds 17 1012 77 4058 4.02 130 20:37 27.03.2021
979 Clouds 17 1012 77 5541 4.02 130 19:46 27.03.2021
980 Clouds 17 1012 77 3646 4.02 130 19:24 27.03.2021
981 Clouds 17 1012 77 3646 4.02 130 18:57 27.03.2021
982 Clouds 17 1013 77 3646 4.02 130 18:38 27.03.2021
983 Clouds 17 1013 77 10000 4.02 130 18:19 27.03.2021
984 Clouds 17 1012 77 9983 4.02 130 17:28 27.03.2021
985 Rain 17 1013 77 9983 4.02 130 16:54 27.03.2021
986 Clouds 17 1012 77 9983 4.02 130 16:36 27.03.2021
987 Clouds 17 1012 77 8704 4.02 130 16:18 27.03.2021
988 Rain 17 1012 77 8704 4.02 130 15:36 27.03.2021
989 Clouds 17 1012 77 10000 4.02 130 14:55 27.03.2021
990 Clouds 17 1012 77 10000 4.12 130 14:22 27.03.2021
991 Rain 17 1012 77 10000 4.12 130 13:27 27.03.2021
992 Rain 17 1012 77 10000 6.17 130 13:00 27.03.2021
993 Clouds 17 1012 77 10000 6.17 130 12:33 27.03.2021
994 Clouds 18 1012 72 10000 7.72 160 11:47 27.03.2021
995 Clouds 18 1012 72 10000 7.72 160 11:27 27.03.2021
996 Rain 20 1012 52 10000 11.83 190 10:48 27.03.2021
997 Clouds 20 1012 52 10000 11.83 190 10:25 27.03.2021
998 Rain 21 1012 49 10000 9.77 190 09:34 27.03.2021
999 Clear 21 1012 49 10000 10.8 210 08:49 27.03.2021
1000 Clear 21 1012 49 10000 10.8 210 08:31 27.03.2021
1001 Clouds 22 1013 46 10000 9.26 230 07:36 27.03.2021
1002 Clouds 22 1014 37 10000 5.14 200 06:58 27.03.2021
1003 Clouds 22 1014 37 10000 5.14 200 06:34 27.03.2021
1004 Clear 21 1016 40 10000 5.14 160 04:40 27.03.2021
1005 Clouds 14 1018 88 10000 4.63 150 00:56 27.03.2021
1006 Clouds 14 1018 88 10000 4.63 150 00:31 27.03.2021
1007 Clouds 13 1018 88 10000 5.14 140 23:55 26.03.2021
1008 Clouds 13 1018 88 10000 5.14 140 23:22 26.03.2021
1009 Clouds 12 1019 94 10000 4.63 140 22:35 26.03.2021
1010 Clear 14 1019 71 10000 1.79 230 21:38 26.03.2021
1011 Clear 14 1019 71 10000 1.79 230 21:20 26.03.2021
1012 Clear 14 1019 71 10000 1.79 230 20:39 26.03.2021
1013 Clear 14 1019 71 10000 1.79 230 20:20 26.03.2021
1014 Clear 14 1019 71 10000 1.79 230 19:48 26.03.2021
1015 Clouds 14 1019 71 10000 1.79 230 19:29 26.03.2021
1016 Clouds 14 1019 71 10000 1.79 230 18:44 26.03.2021
1017 Clouds 14 1019 71 10000 1.79 230 18:26 26.03.2021
1018 Clouds 14 1019 71 10000 1.79 230 17:47 26.03.2021
1019 Clouds 14 1019 71 10000 1.79 230 16:57 26.03.2021
1020 Clouds 14 1019 71 10000 1.79 230 16:33 26.03.2021
1021 Clouds 14 1019 71 10000 1.79 230 15:57 26.03.2021
1022 Clouds 14 1019 71 10000 1.79 230 15:23 26.03.2021
1023 Clear 14 1019 72 10000 2.06 230 14:33 26.03.2021
1024 Clear 14 1019 72 10000 2.06 230 13:41 26.03.2021
1025 Clear 16 1019 72 10000 2.06 230 12:56 26.03.2021
1026 Clear 16 1019 72 10000 2.06 230 12:33 26.03.2021
1027 Clear 17 1018 48 10000 1.54 20 11:35 26.03.2021
1028 Clear 21 1018 30 10000 2.06 360 10:58 26.03.2021
1029 Clear 21 1018 30 10000 2.06 360 10:39 26.03.2021
1030 Clear 22 1018 26 10000 2.57 10 09:54 26.03.2021
1031 Clear 22 1018 26 10000 2.57 10 09:35 26.03.2021
1032 Clear 22 1019 26 10000 2.57 10 08:42 26.03.2021
1033 Clear 22 1019 26 10000 2.57 10 08:22 26.03.2021
1034 Clear 22 1019 27 10000 2.06 300 07:24 26.03.2021
1035 Clear 22 1019 24 10000 1.54 260 06:58 26.03.2021
1036 Clear 22 1019 24 10000 1.54 260 06:35 26.03.2021
1037 Clear 22 1020 28 10000 1.03 240 05:31 26.03.2021
1038 Clear 14 1023 62 10000 2.06 250 02:22 26.03.2021
1039 Clear 11 1022 76 10000 1.03 0 00:32 26.03.2021
1040 Clear 9 1021 81 10000 0.51 0 23:44 25.03.2021
1041 Clear 9 1021 81 10000 0.51 0 23:20 25.03.2021
1042 Clear 8 1021 93 10000 2.06 110 22:36 25.03.2021
1043 Clouds 11 1021 56 10000 2.67 52 21:53 25.03.2021
1044 Clouds 11 1021 56 10000 2.67 52 21:34 25.03.2021
1045 Clouds 11 1021 57 10000 2.23 41 20:45 25.03.2021
1046 Clouds 12 1021 58 10000 2.06 22 20:25 25.03.2021
1047 Clouds 12 1021 58 10000 2.06 22 19:48 25.03.2021
1048 Clouds 12 1021 58 10000 2.06 22 19:30 25.03.2021
1049 Clouds 12 1021 63 10000 1.98 12 18:49 25.03.2021
1050 Clouds 12 1021 65 10000 1.81 10 18:27 25.03.2021
1051 Clouds 12 1021 65 10000 1.81 10 17:52 25.03.2021
1052 Clouds 12 1021 65 10000 1.81 10 17:33 25.03.2021
1053 Clear 12 1021 66 10000 1.39 17 16:52 25.03.2021
1054 Clear 14 1020 71 10000 4.02 330 16:31 25.03.2021
1055 Clear 14 1020 71 10000 4.02 330 15:45 25.03.2021
1056 Clear 14 1020 71 10000 4.02 330 15:22 25.03.2021
1057 Clear 14 1020 71 10000 4.02 330 14:46 25.03.2021
1058 Clear 14 1020 72 10000 4.12 330 13:56 25.03.2021
1059 Clear 14 1020 72 10000 4.12 330 13:24 25.03.2021
1060 Clear 14 1019 67 10000 4.63 330 12:45 25.03.2021
1061 Clear 14 1019 67 10000 4.63 330 12:21 25.03.2021
1062 Clear 16 1019 48 10000 6.17 320 11:52 25.03.2021
1063 Clear 16 1019 48 10000 6.17 320 11:30 25.03.2021
1064 Clear 17 1019 45 10000 6.69 320 10:55 25.03.2021
1065 Clear 17 1019 45 10000 6.69 320 10:27 25.03.2021
1066 Clear 19 1018 42 10000 6.69 320 09:57 25.03.2021
1067 Clear 19 1018 42 10000 6.69 320 09:38 25.03.2021
1068 Clouds 20 1018 45 10000 6.69 310 08:57 25.03.2021
1069 Clouds 20 1018 45 10000 6.69 310 08:29 25.03.2021
1070 Clouds 21 1018 46 10000 7.2 310 07:23 25.03.2021
1071 Clouds 21 1018 49 10000 4.63 310 06:26 25.03.2021
1072 Clouds 20 1019 42 10000 2.06 250 05:49 25.03.2021
1073 Clouds 18 1020 52 10000 3.09 260 03:59 25.03.2021
1074 Clear 13 1019 82 10000 1.03 0 00:35 25.03.2021
1075 Clear 13 1019 82 10000 1.03 0 00:35 25.03.2021
1076 Clear 12 1019 94 10000 1.03 170 23:55 24.03.2021
1077 Clear 12 1019 94 10000 1.03 170 23:30 24.03.2021
1078 Rain 12 1019 94 10000 0.51 260 22:50 24.03.2021
1079 Clouds 12 1019 94 10000 0.51 260 22:30 24.03.2021
1080 Rain 15 1020 62 10000 1.34 60 21:47 24.03.2021
1081 Rain 15 1020 62 10000 1.34 60 21:25 24.03.2021
1082 Clouds 15 1020 62 10000 1.34 60 20:45 24.03.2021
1083 Clouds 15 1020 62 10000 1.34 60 20:20 24.03.2021
1084 Clouds 15 1020 62 10000 1.34 60 19:52 24.03.2021
1085 Clouds 15 1020 62 10000 1.34 60 19:31 24.03.2021
1086 Rain 15 1020 62 10000 1.34 60 18:51 24.03.2021
1087 Rain 15 1020 62 10000 1.34 60 18:51 24.03.2021
1088 Rain 15 1020 62 10000 1.34 60 18:24 24.03.2021
1089 Rain 15 1020 62 10000 1.34 60 17:52 24.03.2021
1090 Clouds 15 1020 62 10000 1.34 60 17:32 24.03.2021
1091 Clouds 15 1020 62 10000 1.34 60 17:32 24.03.2021
1092 Clouds 15 1020 62 10000 1.34 60 16:53 24.03.2021
1093 Clouds 15 1020 62 10000 1.34 60 16:31 24.03.2021
1094 Rain 15 1020 62 10000 1.34 60 15:55 24.03.2021
1095 Clouds 15 1020 62 10000 1.34 60 15:33 24.03.2021
1096 Rain 15 1020 62 10000 1.34 60 14:48 24.03.2021
1097 Clouds 15 1020 63 10000 1.54 60 14:27 24.03.2021
1098 Rain 15 1020 63 10000 1.54 60 13:57 24.03.2021
1099 Rain 15 1020 63 10000 1.54 60 13:28 24.03.2021
1100 Rain 15 1020 63 10000 2.06 10 12:45 24.03.2021
1101 Rain 15 1020 63 10000 2.06 10 12:23 24.03.2021
1102 Clouds 16 1019 55 10000 0.51 0 11:49 24.03.2021
1103 Rain 16 1020 55 10000 3.6 230 10:59 24.03.2021
1104 Clouds 16 1020 55 10000 3.6 230 10:41 24.03.2021
1105 Rain 16 1020 55 10000 3.6 230 10:22 24.03.2021
1106 Rain 16 1019 63 10000 3.6 160 09:53 24.03.2021
1107 Rain 16 1019 63 10000 3.6 160 09:22 24.03.2021
1108 Clouds 17 1019 51 10000 6.17 140 08:52 24.03.2021
1109 Clouds 17 1019 51 10000 6.17 140 08:26 24.03.2021
1110 Clouds 18 1020 45 10000 4.63 130 07:41 24.03.2021
1111 Clouds 18 1020 48 10000 3.09 90 06:54 24.03.2021
1112 Clouds 18 1022 48 10000 4.12 100 05:35 24.03.2021
1113 Clouds 10 1023 87 10000 4.63 130 00:55 24.03.2021
1114 Clouds 10 1023 87 10000 4.63 130 00:25 24.03.2021
1115 Clouds 9 1023 87 10000 2.06 120 23:22 23.03.2021
1116 Clear 8 1023 87 10000 3.6 140 22:55 23.03.2021
1117 Clear 8 1023 87 10000 3.6 140 22:36 23.03.2021
1118 Clouds 10 1023 71 10000 1.79 70 21:54 23.03.2021
1119 Clouds 10 1023 71 10000 1.79 70 21:34 23.03.2021
1120 Clouds 10 1023 71 10000 1.79 70 20:57 23.03.2021
1121 Clouds 10 1023 71 10000 1.79 70 20:39 23.03.2021
1122 Clouds 10 1023 71 10000 1.79 70 20:21 23.03.2021
1123 Clouds 10 1023 71 10000 1.79 70 19:44 23.03.2021
1124 Clouds 10 1023 71 10000 1.79 70 19:23 23.03.2021
1125 Clouds 10 1023 71 10000 1.79 70 18:41 23.03.2021
1126 Clouds 10 1023 71 10000 1.79 70 18:19 23.03.2021
1127 Clouds 10 1023 71 10000 1.79 70 18:19 23.03.2021
1128 Clouds 10 1023 71 10000 1.79 70 17:43 23.03.2021
1129 Clear 10 1023 71 10000 1.79 70 17:21 23.03.2021
1130 Clear 10 1023 71 10000 1.79 70 16:26 23.03.2021
1131 Clear 10 1023 71 10000 1.79 70 15:51 23.03.2021
1132 Clear 10 1023 71 10000 1.79 70 15:24 23.03.2021
1133 Clear 10 1023 71 10000 1.79 70 14:49 23.03.2021
1134 Clear 10 1023 71 10000 2.06 70 14:20 23.03.2021
1135 Clear 10 1023 71 10000 2.06 70 13:47 23.03.2021
1136 Clear 10 1023 71 10000 2.06 70 13:25 23.03.2021
1137 Clear 11 1023 66 10000 1.03 270 12:46 23.03.2021
1138 Clear 11 1023 66 10000 1.03 270 12:26 23.03.2021
1139 Clear 13 1022 54 10000 3.6 290 11:49 23.03.2021
1140 Clear 13 1022 54 10000 3.6 290 11:26 23.03.2021
1141 Clear 14 1022 54 10000 3.6 320 10:42 23.03.2021
1142 Clear 14 1022 54 10000 3.6 320 10:21 23.03.2021
1143 Clear 15 1022 44 10000 4.63 340 09:51 23.03.2021
1144 Clear 15 1022 44 10000 4.63 340 09:23 23.03.2021
1145 Clear 16 1022 41 10000 5.14 340 08:55 23.03.2021
1146 Clear 16 1022 41 10000 5.14 340 08:37 23.03.2021
1147 Clear 16 1022 41 10000 5.14 340 08:37 23.03.2021
1148 Clear 16 1022 41 10000 5.14 340 08:19 23.03.2021
1149 Clear 16 1023 39 10000 5.66 340 07:27 23.03.2021
1150 Clear 16 1023 36 10000 2.06 360 06:53 23.03.2021
1151 Clouds 14 1025 44 10000 2.06 50 03:25 23.03.2021
1152 Clouds 13 1025 47 10000 1.54 80 02:46 23.03.2021
1153 Clouds 8 1024 81 10000 2.57 160 23:47 22.03.2021
1154 Clouds 8 1024 81 10000 2.57 160 23:18 22.03.2021
1155 Clouds 7 1023 81 10000 3.09 130 22:42 22.03.2021
1156 Clear 9 1022 57 10000 2.24 120 22:20 22.03.2021
1157 Clear 9 1022 57 10000 2.24 120 21:47 22.03.2021
1158 Clear 9 1022 57 10000 2.24 120 21:26 22.03.2021
1159 Clear 9 1022 57 10000 2.24 120 20:44 22.03.2021
1160 Clear 9 1022 57 10000 2.24 120 20:25 22.03.2021
1161 Clear 9 1022 57 10000 2.24 120 19:58 22.03.2021
1162 Clear 9 1022 57 10000 2.24 120 19:58 22.03.2021
1163 Clear 9 1022 57 10000 2.24 120 19:38 22.03.2021
1164 Clouds 9 1022 57 10000 2.24 120 19:19 22.03.2021
1165 Clouds 9 1022 57 10000 2.24 120 18:41 22.03.2021
1166 Clouds 9 1022 57 10000 2.24 120 18:22 22.03.2021
1167 Clouds 9 1022 57 10000 2.24 120 18:22 22.03.2021
1168 Clouds 9 1022 57 10000 2.24 120 17:49 22.03.2021
1169 Clouds 9 1022 57 10000 2.24 120 17:22 22.03.2021
1170 Clouds 9 1022 57 10000 2.24 120 16:49 22.03.2021
1171 Clouds 9 1022 57 10000 2.24 120 16:49 22.03.2021
1172 Clouds 9 1022 57 10000 2.24 120 16:22 22.03.2021
1173 Clouds 9 1022 57 10000 2.24 120 15:42 22.03.2021
1174 Clouds 9 1022 57 10000 2.24 120 15:42 22.03.2021
1175 Clouds 9 1022 57 10000 2.24 120 15:22 22.03.2021
1176 Clouds 9 1022 57 10000 2.24 120 14:57 22.03.2021
1177 Clouds 9 1022 57 10000 2.57 120 14:34 22.03.2021
1178 Clouds 9 1022 57 10000 2.57 120 13:50 22.03.2021
1179 Clouds 9 1022 57 10000 2.57 120 13:29 22.03.2021
1180 Clouds 9 1022 49 10000 3.6 330 12:57 22.03.2021
1181 Clouds 9 1022 49 10000 3.6 330 12:26 22.03.2021
1182 Clouds 9 1021 49 10000 6.69 310 11:51 22.03.2021
1183 Clouds 9 1021 49 10000 6.69 310 11:51 22.03.2021
1184 Clouds 9 1021 49 10000 6.69 310 11:29 22.03.2021
1185 Clouds 10 1021 43 10000 8.75 310 10:46 22.03.2021
1186 Clouds 10 1021 43 10000 8.75 310 10:26 22.03.2021
1187 Clouds 11 1020 40 10000 9.26 310 09:56 22.03.2021
1188 Clouds 11 1020 40 10000 9.26 310 09:34 22.03.2021
1189 Clouds 11 1020 40 10000 10.29 310 08:47 22.03.2021
1190 Clouds 11 1020 40 10000 10.29 310 08:47 22.03.2021
1191 Clouds 11 1020 40 10000 10.29 310 08:28 22.03.2021
1192 Clouds 11 1019 37 10000 10.8 310 07:54 22.03.2021
1193 Clouds 11 1019 37 10000 10.8 310 07:34 22.03.2021
1194 Clouds 12 1020 40 10000 8.23 310 06:51 22.03.2021
1195 Clouds 11 1020 43 10000 8.23 310 02:51 22.03.2021
1196 Clouds 9 1020 61 10000 7.2 330 00:49 22.03.2021
1197 Clouds 9 1019 57 10000 7.2 340 23:59 21.03.2021
1198 Clouds 9 1019 57 10000 7.2 340 23:39 21.03.2021
1199 Clouds 9 1019 57 10000 7.2 340 23:18 21.03.2021
1200 Clouds 8 1018 61 10000 8.75 320 22:41 21.03.2021
1201 Clouds 7 1020 71 10000 6.65 334 21:43 21.03.2021
1202 Clouds 7 1019 71 10000 6.96 335 21:25 21.03.2021
1203 Clouds 7 1019 71 10000 6.96 335 20:56 21.03.2021
1204 Clouds 7 1019 71 10000 6.96 335 20:38 21.03.2021
1205 Clouds 8 1019 69 10000 7.24 336 20:19 21.03.2021
1206 Clouds 8 1019 69 10000 7.24 336 19:39 21.03.2021
1207 Clouds 8 1018 67 10000 7.68 333 19:19 21.03.2021
1208 Clouds 8 1019 70 10000 7.38 331 18:41 21.03.2021
1209 Clouds 8 1018 70 10000 7.96 330 18:18 21.03.2021
1210 Clouds 8 1018 70 10000 7.96 330 17:41 21.03.2021
1211 Clouds 8 1019 70 10000 8.7 327 17:18 21.03.2021
1212 Clouds 8 1019 70 10000 8.7 327 16:49 21.03.2021
1213 Clouds 11 1015 57 10000 8.49 300 16:23 21.03.2021
1214 Clouds 11 1015 57 10000 8.49 300 15:42 21.03.2021
1215 Clouds 11 1015 57 10000 8.49 300 15:21 21.03.2021
1216 Clouds 11 1015 57 10000 8.49 300 14:47 21.03.2021
1217 Clouds 11 1015 58 10000 8.75 300 14:27 21.03.2021
1218 Clouds 11 1015 58 10000 8.75 300 13:57 21.03.2021
1219 Clouds 11 1015 58 10000 8.75 300 13:38 21.03.2021
1220 Clouds 12 1014 54 10000 9.26 300 12:43 21.03.2021
1221 Clouds 12 1014 54 10000 9.26 300 12:25 21.03.2021
1222 Clouds 12 1014 54 10000 9.26 300 12:25 21.03.2021
1223 Clouds 12 1014 58 10000 9.26 310 11:41 21.03.2021
1224 Clouds 12 1014 58 10000 9.26 310 11:20 21.03.2021
1225 Rain 12 1013 58 10000 9.26 300 10:44 21.03.2021
1226 Clouds 12 1013 58 10000 9.26 300 10:26 21.03.2021
1227 Clouds 12 1012 58 10000 10.29 300 09:49 21.03.2021
1228 Clouds 12 1012 58 10000 10.29 300 09:30 21.03.2021
1229 Clouds 13 1012 58 10000 7.72 320 08:56 21.03.2021
1230 Clouds 13 1012 58 10000 7.72 320 08:31 21.03.2021
1231 Clouds 13 1012 67 10000 9.26 320 07:50 21.03.2021
1232 Clouds 13 1012 67 10000 9.26 320 07:23 21.03.2021
1233 Clouds 12 1010 82 10000 8.75 300 05:59 21.03.2021
1234 Clouds 13 1010 88 10000 9.26 310 02:48 21.03.2021
1235 Rain 14 1010 94 8000 7.72 320 00:56 21.03.2021
1236 Clouds 14 1010 94 8000 7.72 320 00:36 21.03.2021
1237 Rain 14 1010 94 8000 7.72 320 00:18 21.03.2021
1238 Clouds 14 1009 94 6000 8.23 310 23:40 20.03.2021
1239 Clouds 14 1009 94 6000 8.23 310 23:18 20.03.2021
1240 Rain 14 1008 100 6000 5.66 320 22:24 20.03.2021
1241 Clouds 17 1008 93 10000 4.02 120 21:48 20.03.2021
1242 Rain 17 1010 93 10000 4.02 120 21:26 20.03.2021
1243 Clouds 17 1008 93 10000 4.02 120 20:49 20.03.2021
1244 Clouds 17 1008 93 10000 4.02 120 20:24 20.03.2021
1245 Clouds 17 1008 93 10000 4.02 120 19:52 20.03.2021
1246 Clouds 17 1010 93 10000 4.02 120 19:29 20.03.2021
1247 Clouds 17 1008 93 10000 4.02 120 18:52 20.03.2021
1248 Clouds 17 1008 93 10000 4.02 120 18:29 20.03.2021
1249 Clouds 17 1008 93 10000 4.02 120 17:58 20.03.2021
1250 Clouds 17 1008 93 10000 4.02 120 17:40 20.03.2021
1251 Clouds 17 1008 93 10000 4.02 120 17:20 20.03.2021
1252 Clouds 17 1008 93 10000 4.02 120 16:40 20.03.2021
1253 Clouds 17 1008 93 10000 4.02 120 16:18 20.03.2021
1254 Clouds 17 1010 93 10000 4.02 120 15:42 20.03.2021
1255 Clouds 17 1010 93 10000 4.02 120 15:24 20.03.2021
1256 Clouds 17 1008 94 10000 4.12 120 14:32 20.03.2021
1257 Clouds 17 1008 94 10000 4.12 120 13:59 20.03.2021
1258 Clouds 17 1008 94 10000 4.12 120 13:30 20.03.2021
1259 Clouds 17 1007 94 8000 3.09 140 12:39 20.03.2021
1260 Rain 17 1007 94 8000 3.09 140 12:20 20.03.2021
1261 Rain 17 1007 94 10000 4.12 140 11:43 20.03.2021
1262 Rain 17 1007 94 10000 4.12 140 11:22 20.03.2021
1263 Clouds 17 1007 94 10000 4.12 120 10:45 20.03.2021
1264 Rain 17 1007 94 10000 4.12 120 10:23 20.03.2021
1265 Clouds 17 1007 94 8000 4.63 110 09:44 20.03.2021
1266 Mist 17 1007 94 4000 5.66 140 09:22 20.03.2021
1267 Rain 17 1007 94 10000 6.17 130 08:51 20.03.2021
1268 Rain 17 1007 94 10000 6.17 130 08:19 20.03.2021
1269 Clouds 17 1008 94 7000 5.14 130 07:47 20.03.2021
1270 Rain 17 1008 94 7000 5.14 130 07:29 20.03.2021
1271 Rain 17 1008 88 9000 6.17 130 06:40 20.03.2021
1272 Rain 18 1009 82 10000 8.75 130 05:28 20.03.2021
1273 Rain 18 1011 72 10000 7.2 130 03:44 20.03.2021
1274 Clouds 16 1012 82 10000 5.14 140 01:42 20.03.2021
1275 Clouds 15 1012 88 10000 1.95 94 23:46 19.03.2021
1276 Clouds 15 1012 88 10000 3.28 112 23:19 19.03.2021
1277 Clouds 14 1012 94 10000 1.03 20 22:43 19.03.2021
1278 Clouds 14 1015 87 10000 3.58 330 22:22 19.03.2021
1279 Clouds 14 1015 87 10000 3.58 330 21:42 19.03.2021
1280 Rain 14 1015 87 10000 3.58 330 21:20 19.03.2021
1281 Clouds 14 1015 87 10000 3.58 330 20:45 19.03.2021
1282 Clouds 14 1015 87 9088 3.58 330 20:26 19.03.2021
1283 Rain 14 1015 87 9088 3.58 330 19:48 19.03.2021
1284 Clouds 14 1015 87 10000 3.58 330 19:23 19.03.2021
1285 Rain 14 1015 87 10000 3.58 330 18:49 19.03.2021
1286 Clouds 14 1015 87 10000 3.58 330 18:30 19.03.2021
1287 Rain 14 1015 87 10000 3.58 330 17:58 19.03.2021
1288 Rain 14 1015 87 10000 3.58 330 17:38 19.03.2021
1289 Rain 14 1015 87 10000 3.58 330 17:18 19.03.2021
1290 Rain 14 1015 87 10000 3.58 330 16:44 19.03.2021
1291 Clouds 14 1015 87 10000 3.58 330 16:25 19.03.2021
1292 Clouds 14 1015 87 10000 3.58 330 15:34 19.03.2021
1293 Clouds 14 1015 87 10000 3.58 330 14:53 19.03.2021
1294 Clouds 14 1015 88 10000 3.6 330 14:33 19.03.2021
1295 Rain 14 1015 88 10000 3.6 330 13:50 19.03.2021
1296 Rain 14 1015 88 10000 3.6 330 13:19 19.03.2021
1297 Rain 15 1015 82 10000 5.14 330 12:42 19.03.2021
1298 Rain 15 1015 82 10000 5.14 330 12:18 19.03.2021
1299 Clouds 16 1014 82 10000 2.57 290 11:33 19.03.2021
1300 Clear 17 1014 77 10000 3.09 330 10:47 19.03.2021
1301 Clear 17 1014 77 10000 3.09 330 10:22 19.03.2021
1302 Clouds 19 1014 63 10000 2.06 310 09:44 19.03.2021
1303 Clouds 19 1014 63 10000 2.06 310 09:25 19.03.2021
1304 Clouds 19 1014 63 10000 1.03 220 08:52 19.03.2021
1305 Clouds 19 1014 63 10000 1.03 220 08:28 19.03.2021
1306 Clouds 17 1015 67 10000 2.06 190 07:50 19.03.2021
1307 Clouds 17 1015 67 10000 2.06 190 07:31 19.03.2021
1308 Clouds 17 1015 72 10000 2.06 190 05:28 19.03.2021
1309 Clouds 14 1017 77 10000 1.03 0 01:58 19.03.2021
1310 Clouds 13 1017 88 10000 1.54 360 23:55 18.03.2021
1311 Clouds 13 1017 88 10000 1.54 360 23:29 18.03.2021
1312 Clouds 13 1016 88 10000 1.54 350 22:46 18.03.2021
1313 Clouds 13 1016 88 10000 1.54 350 22:25 18.03.2021
1314 Clouds 14 1017 82 10000 5.36 320 21:48 18.03.2021
1315 Clouds 14 1017 82 10000 5.36 320 21:30 18.03.2021
1316 Clouds 14 1016 82 10000 5.36 320 20:42 18.03.2021
1317 Clouds 14 1016 82 10000 5.36 320 20:22 18.03.2021
1318 Clouds 14 1017 82 10000 5.36 320 19:42 18.03.2021
1319 Clouds 14 1017 82 10000 5.36 320 19:23 18.03.2021
1320 Clouds 14 1017 82 10000 5.36 320 18:41 18.03.2021
1321 Clouds 14 1017 82 10000 5.36 320 17:56 18.03.2021
1322 Clouds 14 1017 82 10000 5.36 320 17:27 18.03.2021
1323 Clouds 14 1017 82 10000 5.36 320 16:59 18.03.2021
1324 Clouds 14 1017 82 10000 5.36 320 16:36 18.03.2021
1325 Clouds 14 1017 82 10000 5.36 320 15:59 18.03.2021
1326 Clouds 14 1017 82 10000 5.36 320 15:41 18.03.2021
1327 Clouds 14 1017 82 10000 5.36 320 15:18 18.03.2021
1328 Clouds 14 1017 82 10000 5.36 320 14:45 18.03.2021
1329 Clouds 14 1017 82 10000 5.66 320 14:19 18.03.2021
1330 Clouds 15 1017 82 10000 5.66 320 13:37 18.03.2021
1331 Clouds 14 1017 82 10000 5.66 320 13:19 18.03.2021
1332 Clouds 15 1016 77 10000 5.14 340 12:37 18.03.2021
1333 Clouds 15 1016 77 10000 5.14 340 12:37 18.03.2021
1334 Clouds 15 1016 77 10000 5.14 340 12:19 18.03.2021
1335 Clear 15 1015 82 10000 6.17 350 11:44 18.03.2021
1336 Clear 16 1015 82 10000 6.17 350 11:20 18.03.2021
1337 Clear 17 1015 72 10000 6.17 340 10:41 18.03.2021
1338 Clear 17 1015 72 10000 6.17 340 10:23 18.03.2021
1339 Clouds 19 1014 63 10000 5.66 340 09:45 18.03.2021
1340 Clouds 20 1014 63 10000 5.66 340 09:26 18.03.2021
1341 Clouds 21 1015 52 10000 4.12 330 08:45 18.03.2021
1342 Clouds 21 1015 52 10000 4.12 330 08:23 18.03.2021
1343 Clouds 21 1015 49 10000 2.06 310 07:45 18.03.2021
1344 Clouds 21 1015 52 10000 2.57 320 06:44 18.03.2021
1345 Clouds 20 1015 52 10000 2.57 320 06:25 18.03.2021
1346 Clouds 19 1016 52 10000 1.54 270 05:26 18.03.2021
1347 Clouds 12 1018 82 10000 0.51 0 00:44 18.03.2021
1348 Clouds 10 1017 93 10000 1.03 100 23:25 17.03.2021
1349 Clouds 11 1017 93 10000 1.54 110 22:39 17.03.2021
1350 Clear 12 1016 76 10000 4.02 10 22:21 17.03.2021
1351 Clear 12 1016 76 10000 4.02 10 21:51 17.03.2021
1352 Clear 12 1016 76 10000 4.02 10 21:31 17.03.2021
1353 Clear 12 1016 76 10000 4.02 10 20:49 17.03.2021
1354 Clear 12 1016 76 10000 4.02 10 20:27 17.03.2021
1355 Clear 12 1016 76 10000 4.02 10 19:59 17.03.2021
1356 Clear 12 1016 76 10000 4.02 10 19:39 17.03.2021
1357 Clouds 12 1016 76 10000 4.02 10 19:19 17.03.2021
1358 Clouds 12 1016 76 10000 4.02 10 18:47 17.03.2021
1359 Clouds 12 1016 76 10000 4.02 10 18:29 17.03.2021
1360 Clouds 12 1016 76 10000 4.02 10 17:33 17.03.2021
1361 Clouds 12 1016 76 10000 4.02 10 16:58 17.03.2021
1362 Clouds 12 1016 76 10000 4.02 10 16:39 17.03.2021
1363 Clouds 12 1016 76 10000 4.02 10 16:20 17.03.2021
1364 Clouds 12 1016 76 10000 4.02 10 15:44 17.03.2021
1365 Clouds 12 1016 76 10000 4.02 10 15:25 17.03.2021
1366 Clear 12 1016 76 10000 4.12 10 14:37 17.03.2021
1367 Clear 12 1016 76 10000 4.12 10 14:19 17.03.2021
1368 Clear 12 1016 76 10000 4.12 10 13:52 17.03.2021
1369 Clear 12 1016 76 10000 4.12 10 13:24 17.03.2021
1370 Clear 13 1016 71 10000 8.23 360 12:37 17.03.2021
1371 Clear 13 1016 71 10000 8.23 360 12:19 17.03.2021
1372 Clear 14 1015 72 10000 8.75 10 11:40 17.03.2021
1373 Clear 14 1015 72 10000 8.75 10 11:20 17.03.2021
1374 Clear 17 1014 67 10000 7.72 350 10:50 17.03.2021
1375 Clear 17 1014 67 10000 7.72 350 10:22 17.03.2021
1376 Clouds 18 1014 59 10000 7.2 330 09:43 17.03.2021
1377 Clouds 18 1014 59 10000 7.2 330 09:20 17.03.2021
1378 Clouds 19 1014 52 10000 4.63 320 08:46 17.03.2021
1379 Clouds 19 1014 52 10000 4.63 320 08:26 17.03.2021
1380 Clear 20 1014 49 10000 2.06 180 07:39 17.03.2021
1381 Clouds 20 1014 49 10000 2.06 230 06:52 17.03.2021
1382 Clouds 20 1014 49 10000 2.06 230 06:27 17.03.2021
1383 Clouds 14 1016 72 10000 1.54 230 03:32 17.03.2021
1384 Clouds 14 1016 72 10000 1.54 230 03:32 17.03.2021
1385 Fog 11 1016 100 700 1.03 210 01:58 17.03.2021
1386 Fog 10 1016 100 500 0.51 0 00:33 17.03.2021
1387 Fog 10 1015 100 200 0.51 0 23:27 16.03.2021
1388 Fog 10 1015 100 500 1.03 50 22:45 16.03.2021
1389 Fog 11 1015 93 6000 1.03 70 22:26 16.03.2021
1390 Clouds 12 1015 84 10000 1.57 354 21:44 16.03.2021
1391 Clouds 13 1014 84 10000 1.89 346 21:26 16.03.2021
1392 Clouds 13 1014 84 10000 1.89 346 20:57 16.03.2021
1393 Clouds 15 1014 100 10000 1.79 350 20:19 16.03.2021
1394 Clouds 15 1014 100 10000 1.79 350 19:48 16.03.2021
1395 Clouds 15 1014 100 10000 1.79 350 19:28 16.03.2021
1396 Clouds 15 1014 100 10000 1.79 350 18:56 16.03.2021
1397 Clouds 13 1014 87 10000 1.88 331 18:36 16.03.2021
1398 Clouds 15 1014 100 10000 1.79 350 17:55 16.03.2021
1399 Clouds 15 1014 100 10000 1.79 350 17:36 16.03.2021
1400 Clouds 15 1014 100 10000 1.79 350 16:58 16.03.2021
1401 Clouds 15 1014 100 10000 1.79 350 16:38 16.03.2021
1402 Clouds 15 1014 100 10000 1.79 350 16:19 16.03.2021
1403 Clouds 15 1014 100 10000 1.79 350 15:40 16.03.2021
1404 Clouds 15 1014 100 10000 1.79 350 15:19 16.03.2021
1405 Clouds 15 1014 100 10000 1.79 350 14:56 16.03.2021
1406 Clouds 15 1014 100 10000 2.06 350 14:37 16.03.2021
1407 Clouds 15 1014 100 10000 2.06 350 14:18 16.03.2021
1408 Clouds 14 1014 100 10000 2.06 350 13:41 16.03.2021
1409 Clouds 14 1014 100 10000 2.06 350 13:19 16.03.2021
1410 Clouds 15 1013 100 10000 1.54 310 12:40 16.03.2021
1411 Clouds 15 1013 100 10000 1.54 310 12:19 16.03.2021
1412 Clouds 15 1013 100 10000 1.03 0 11:35 16.03.2021
1413 Clouds 16 1012 94 10000 1.03 0 10:50 16.03.2021
1414 Clouds 16 1012 94 10000 1.03 0 10:21 16.03.2021
1415 Clouds 16 1012 94 10000 1.03 0 10:21 16.03.2021
1416 Clouds 15 1012 100 6000 3.09 50 09:41 16.03.2021
1417 Clouds 15 1012 100 6000 3.09 50 09:21 16.03.2021
1418 Mist 15 1013 100 4000 2.06 10 08:56 16.03.2021
1419 Mist 15 1013 100 4000 2.06 10 08:37 16.03.2021
1420 Clouds 15 1013 100 6000 4.63 340 07:55 16.03.2021
1421 Mist 16 1013 94 5000 4.12 350 07:27 16.03.2021
1422 Mist 18 1012 88 5000 9.26 220 06:38 16.03.2021
1423 Mist 18 1013 88 4000 9.26 220 05:37 16.03.2021
1424 Mist 17 1014 94 4000 7.2 220 04:28 16.03.2021
1425 Clouds 18 1015 72 8000 9.77 210 02:27 16.03.2021
1426 Clouds 18 1014 72 10000 11.32 200 00:47 16.03.2021
1427 Clouds 18 1014 72 10000 8.75 200 23:54 15.03.2021
1428 Clouds 18 1014 72 10000 8.75 200 23:19 15.03.2021
1429 Clouds 15 1014 72 10000 7.72 200 22:43 15.03.2021
1430 Clouds 15 1014 72 10000 7.72 200 22:25 15.03.2021
1431 Clouds 12 1018 71 10000 2.68 140 21:51 15.03.2021
1432 Clouds 12 1018 71 10000 2.68 140 21:29 15.03.2021
1433 Clouds 12 1018 71 10000 2.68 140 20:55 15.03.2021
1434 Clouds 12 1018 71 10000 2.68 140 20:37 15.03.2021
1435 Clouds 12 1018 71 10000 2.68 140 20:19 15.03.2021
1436 Clouds 12 1018 71 10000 2.68 140 20:19 15.03.2021
1437 Clouds 12 1018 71 10000 2.68 140 19:43 15.03.2021
1438 Clouds 12 1018 71 10000 2.68 140 19:24 15.03.2021
1439 Clouds 12 1018 71 10000 2.68 140 18:47 15.03.2021
1440 Clouds 12 1018 71 10000 2.68 140 18:23 15.03.2021
1441 Clouds 12 1018 71 10000 2.68 140 17:55 15.03.2021
1442 Clouds 12 1018 71 10000 2.68 140 17:28 15.03.2021
1443 Clouds 12 1018 71 10000 2.68 140 16:50 15.03.2021
1444 Clouds 12 1018 71 10000 2.68 140 16:25 15.03.2021
1445 Clouds 12 1018 71 10000 2.68 140 15:44 15.03.2021
1446 Clear 12 1018 71 10000 2.68 140 15:25 15.03.2021
1447 Clear 12 1018 71 10000 2.68 140 14:42 15.03.2021
1448 Clear 12 1018 71 10000 3.09 140 14:21 15.03.2021
1449 Clear 12 1018 71 10000 3.09 140 13:46 15.03.2021
1450 Clear 12 1018 71 10000 3.09 140 13:24 15.03.2021
1451 Clear 13 1017 58 10000 3.09 120 12:47 15.03.2021
1452 Clear 13 1017 58 10000 3.09 120 12:18 15.03.2021
1453 Clear 14 1017 62 10000 2.57 140 11:47 15.03.2021
1454 Clear 14 1017 62 10000 2.57 140 11:29 15.03.2021
1455 Clear 16 1016 55 10000 4.63 150 10:45 15.03.2021
1456 Clear 16 1016 55 10000 4.63 150 10:26 15.03.2021
1457 Clear 17 1017 42 10000 1.03 230 09:49 15.03.2021
1458 Clear 17 1017 42 10000 1.03 230 09:30 15.03.2021
1459 Clear 17 1017 48 10000 4.12 240 08:48 15.03.2021
1460 Clear 17 1017 48 10000 4.12 240 08:27 15.03.2021
1461 Clear 17 1018 42 10000 5.14 240 07:43 15.03.2021
1462 Clear 16 1018 42 10000 5.14 240 07:24 15.03.2021
1463 Clear 16 1018 48 10000 1.03 0 06:21 15.03.2021
1464 Clouds 13 1020 67 10000 2.57 200 03:59 15.03.2021
1465 Clear 10 1021 81 9000 1.54 140 01:20 15.03.2021
1466 Clouds 7 1020 87 9000 0.51 40 23:24 14.03.2021
1467 Clear 8 1019 87 8000 1.54 100 22:59 14.03.2021
1468 Clear 10 1019 87 8000 1.54 100 22:38 14.03.2021
1469 Clear 10 1019 87 8000 1.54 100 22:18 14.03.2021
1470 Clear 12 1019 76 10000 2.24 340 21:39 14.03.2021
1471 Clear 12 1019 76 10000 2.24 340 21:18 14.03.2021
1472 Clear 12 1019 76 10000 2.24 340 20:42 14.03.2021
1473 Clear 12 1019 76 10000 2.24 340 20:23 14.03.2021
1474 Clear 12 1019 76 10000 2.24 340 19:42 14.03.2021
1475 Clear 12 1019 76 10000 2.24 340 19:20 14.03.2021
1476 Clear 12 1019 76 10000 2.24 340 18:41 14.03.2021
1477 Clear 12 1019 76 10000 2.24 340 17:56 14.03.2021
1478 Clear 12 1019 76 10000 2.24 340 17:37 14.03.2021
1479 Clear 12 1019 76 10000 2.24 340 17:19 14.03.2021
1480 Clear 12 1019 76 10000 2.24 340 16:41 14.03.2021
1481 Clear 12 1019 76 10000 2.24 340 16:21 14.03.2021
1482 Clear 12 1019 76 10000 2.24 340 15:48 14.03.2021
1483 Clear 12 1019 76 10000 2.24 340 14:59 14.03.2021
1484 Clear 12 1019 76 10000 2.24 340 14:40 14.03.2021
1485 Clear 12 1019 76 10000 2.57 340 14:20 14.03.2021
1486 Clear 12 1019 76 10000 2.57 340 13:43 14.03.2021
1487 Clear 12 1019 76 10000 2.57 340 13:24 14.03.2021
1488 Clear 12 1019 76 10000 3.6 310 12:42 14.03.2021
1489 Clear 12 1019 76 10000 3.6 310 12:23 14.03.2021
1490 Clouds 13 1018 71 10000 4.63 300 11:40 14.03.2021
1491 Clouds 13 1018 71 10000 4.63 300 11:22 14.03.2021
1492 Clouds 14 1018 62 10000 6.69 300 10:38 14.03.2021
1493 Clouds 14 1018 62 10000 6.69 300 10:20 14.03.2021
1494 Clouds 16 1017 51 10000 5.66 300 09:57 14.03.2021
1495 Clouds 16 1017 51 10000 5.66 300 09:39 14.03.2021
1496 Clouds 16 1017 51 10000 5.66 300 09:20 14.03.2021
1497 Clouds 16 1017 51 10000 1.54 290 08:37 14.03.2021
1498 Clouds 16 1018 55 10000 1.54 340 07:58 14.03.2021
1499 Clouds 16 1018 55 10000 1.54 340 07:28 14.03.2021
1500 Clouds 16 1019 55 10000 3.09 10 05:38 14.03.2021
1501 Clouds 11 1021 87 9000 2.06 220 01:27 14.03.2021
1502 Clear 9 1020 87 8000 1.03 120 00:20 14.03.2021
1503 Clear 7 1020 93 8000 1.54 70 23:59 13.03.2021
1504 Clear 7 1020 93 8000 1.54 70 23:39 13.03.2021
1505 Clear 7 1020 93 8000 1.54 70 23:18 13.03.2021
1506 Clouds 7 1019 93 7000 2.57 110 22:46 13.03.2021
1507 Clear 10 1019 76 10000 2.68 30 22:18 13.03.2021
1508 Clear 10 1019 76 10000 2.68 30 21:35 13.03.2021
1509 Clear 10 1019 76 10000 2.68 30 20:57 13.03.2021
1510 Clear 10 1019 76 10000 2.68 30 20:37 13.03.2021
1511 Clear 10 1019 76 10000 2.68 30 20:19 13.03.2021
1512 Clear 10 1019 76 10000 2.68 30 19:38 13.03.2021
1513 Clouds 10 1019 76 10000 2.68 30 19:19 13.03.2021
1514 Clouds 10 1019 76 10000 2.68 30 18:40 13.03.2021
1515 Clouds 10 1019 76 10000 2.68 30 18:19 13.03.2021
1516 Clouds 10 1019 76 10000 2.68 30 17:46 13.03.2021
1517 Clouds 10 1019 76 10000 2.68 30 17:27 13.03.2021
1518 Clouds 10 1019 76 10000 2.68 30 16:51 13.03.2021
1519 Clouds 10 1019 76 10000 2.68 30 16:31 13.03.2021
1520 Clouds 10 1019 76 10000 2.68 30 15:47 13.03.2021
1521 Clouds 10 1019 76 10000 2.68 30 14:56 13.03.2021
1522 Clouds 10 1019 76 10000 3.09 30 14:38 13.03.2021
1523 Clouds 10 1019 76 10000 3.09 30 13:55 13.03.2021
1524 Clouds 10 1019 76 10000 3.09 30 13:26 13.03.2021
1525 Clouds 11 1018 76 10000 5.14 10 12:48 13.03.2021
1526 Clouds 11 1018 76 10000 5.14 10 12:28 13.03.2021
1527 Clouds 12 1018 66 10000 5.14 360 11:51 13.03.2021
1528 Clouds 12 1018 66 10000 5.14 360 11:31 13.03.2021
1529 Clouds 13 1018 58 10000 6.69 360 10:51 13.03.2021
1530 Clouds 13 1018 58 10000 6.69 360 10:30 13.03.2021
1531 Clouds 14 1018 58 10000 6.69 350 09:48 13.03.2021
1532 Clouds 14 1018 58 10000 6.69 350 09:24 13.03.2021
1533 Clouds 15 1018 55 10000 6.17 350 08:44 13.03.2021
1534 Clouds 15 1018 55 10000 6.17 350 08:20 13.03.2021
1535 Clouds 16 1017 55 10000 6.69 340 07:54 13.03.2021
1536 Clouds 17 1018 51 10000 5.66 350 06:54 13.03.2021
1537 Clouds 14 1019 67 10000 6.17 360 02:56 13.03.2021
1538 Clouds 14 1019 67 10000 6.17 360 02:56 13.03.2021
1539 Clouds 13 1019 72 10000 5.66 10 01:20 13.03.2021
1540 Clouds 12 1018 76 10000 5.14 360 23:59 12.03.2021
1541 Clouds 12 1018 76 10000 5.14 360 23:32 12.03.2021
1542 Clouds 12 1017 76 10000 5.66 360 22:46 12.03.2021
1543 Clouds 13 1017 76 10000 5.66 360 22:28 12.03.2021
1544 Clouds 14 1013 87 10000 7.15 310 21:45 12.03.2021
1545 Clouds 11 1016 82 10000 4.69 351 21:27 12.03.2021
1546 Clouds 11 1016 82 10000 4.69 351 21:27 12.03.2021
1547 Clouds 11 1016 82 10000 4.69 351 20:56 12.03.2021
1548 Clouds 14 1013 87 10000 7.15 310 20:36 12.03.2021
1549 Clouds 14 1013 87 10000 7.15 310 19:59 12.03.2021
1550 Clouds 14 1013 87 10000 7.15 310 19:40 12.03.2021
1551 Clouds 14 1013 87 10000 7.15 310 19:22 12.03.2021
1552 Clouds 14 1013 87 10000 7.15 310 18:36 12.03.2021
1553 Clouds 14 1013 87 10000 7.15 310 17:58 12.03.2021
1554 Clouds 14 1013 87 10000 7.15 310 17:38 12.03.2021
1555 Clouds 14 1013 87 10000 7.15 310 17:18 12.03.2021
1556 Clouds 14 1013 87 10000 7.15 310 16:40 12.03.2021
1557 Clouds 14 1013 87 10000 7.15 310 15:52 12.03.2021
1558 Clouds 14 1013 87 10000 7.15 310 15:31 12.03.2021
1559 Clouds 14 1013 87 10000 7.15 310 14:48 12.03.2021
1560 Clouds 14 1013 88 10000 7.2 310 14:21 12.03.2021
1561 Clouds 14 1013 88 10000 7.2 310 14:21 12.03.2021
1562 Clouds 14 1013 88 10000 7.2 310 13:44 12.03.2021
1563 Clouds 14 1013 88 10000 7.2 310 13:23 12.03.2021
1564 Clouds 15 1012 88 10000 3.6 240 12:57 12.03.2021
1565 Clouds 15 1012 88 10000 3.6 240 12:38 12.03.2021
1566 Clouds 15 1012 88 10000 3.6 240 12:19 12.03.2021
1567 Clouds 16 1012 82 10000 4.12 230 11:49 12.03.2021
1568 Clouds 16 1012 82 10000 4.12 230 11:21 12.03.2021
1569 Clouds 16 1011 82 10000 4.63 220 10:48 12.03.2021
1570 Clouds 16 1011 82 10000 4.63 220 10:24 12.03.2021
1571 Clouds 17 1011 77 10000 7.2 230 09:52 12.03.2021
1572 Clouds 16 1011 77 10000 7.2 230 09:20 12.03.2021
1573 Clouds 16 1011 88 10000 6.69 240 08:44 12.03.2021
1574 Clouds 16 1011 88 10000 6.69 240 07:56 12.03.2021
1575 Clouds 16 1011 88 10000 6.69 240 07:31 12.03.2021
1576 Clouds 14 1012 94 10000 4.63 140 06:46 12.03.2021
1577 Clouds 14 1014 100 6000 4.63 130 05:57 12.03.2021
1578 Clouds 13 1016 88 10000 4.12 150 01:42 12.03.2021
1579 Rain 14 1016 72 10000 5.14 170 23:59 11.03.2021
1580 Clouds 13 1016 72 10000 5.14 170 23:19 11.03.2021
1581 Clouds 13 1017 82 10000 4.63 140 22:41 11.03.2021
1582 Clouds 13 1017 82 10000 4.63 140 22:21 11.03.2021
1583 Clouds 14 1022 67 10000 1.79 90 21:46 11.03.2021
1584 Clouds 14 1022 67 10000 1.79 90 21:26 11.03.2021
1585 Clouds 14 1022 67 10000 1.79 90 20:49 11.03.2021
1586 Clouds 14 1022 67 10000 1.79 90 20:23 11.03.2021
1587 Clouds 14 1022 67 10000 1.79 90 19:56 11.03.2021
1588 Clouds 14 1022 67 10000 1.79 90 19:36 11.03.2021
1589 Clouds 14 1022 67 10000 1.79 90 18:54 11.03.2021
1590 Clouds 14 1022 67 10000 1.79 90 18:35 11.03.2021
1591 Clouds 14 1023 67 10000 1.79 90 17:54 11.03.2021
1592 Clouds 14 1022 67 10000 1.79 90 17:36 11.03.2021
1593 Rain 14 1022 67 10000 1.79 90 16:38 11.03.2021
1594 Clouds 14 1022 67 10000 1.79 90 16:19 11.03.2021
1595 Rain 14 1022 67 10000 1.79 90 15:44 11.03.2021
1596 Rain 14 1022 67 10000 1.79 90 15:20 11.03.2021
1597 Clouds 14 1022 67 10000 1.79 90 14:45 11.03.2021
1598 Clouds 15 1022 67 10000 2.06 90 14:18 11.03.2021
1599 Rain 15 1022 67 10000 2.06 90 13:45 11.03.2021
1600 Rain 15 1022 67 10000 2.06 90 13:22 11.03.2021
1601 Rain 15 1022 58 10000 1.54 240 12:55 11.03.2021
1602 Rain 15 1022 58 10000 1.54 240 12:30 11.03.2021
1603 Clear 15 1022 67 10000 1.54 50 11:48 11.03.2021
1604 Rain 15 1022 67 10000 1.54 50 11:30 11.03.2021
1605 Clear 16 1022 55 10000 0.51 0 10:56 11.03.2021
1606 Clear 16 1022 55 10000 0.51 0 10:27 11.03.2021
1607 Clear 16 1022 63 10000 2.06 230 09:52 11.03.2021
1608 Clear 16 1022 63 10000 2.06 230 09:32 11.03.2021
1609 Clear 16 1022 63 10000 2.06 230 09:32 11.03.2021
1610 Clear 17 1023 55 10000 2.57 350 08:50 11.03.2021
1611 Clear 17 1023 55 10000 2.57 350 08:32 11.03.2021
1612 Clouds 18 1023 45 10000 2.57 360 07:47 11.03.2021
1613 Clouds 18 1023 45 10000 2.57 360 07:20 11.03.2021
1614 Clouds 18 1024 48 10000 2.06 310 06:40 11.03.2021
1615 Clouds 17 1024 48 10000 2.06 310 06:21 11.03.2021
1616 Clear 14 1028 67 10000 2.06 100 02:25 11.03.2021
1617 Clear 10 1028 81 10000 1.54 100 00:23 11.03.2021
1618 Clear 8 1027 93 10000 2.57 130 23:22 10.03.2021
1619 Clear 7 1026 87 10000 2.06 100 22:42 10.03.2021
1620 Clouds 12 1026 76 10000 5.81 340 22:19 10.03.2021
1621 Clouds 12 1026 76 10000 5.81 340 21:41 10.03.2021
1622 Clouds 12 1026 76 10000 5.81 340 21:21 10.03.2021
1623 Clouds 12 1026 76 10000 5.81 340 21:21 10.03.2021
1624 Clouds 12 1026 76 10000 5.81 340 20:44 10.03.2021
1625 Clouds 12 1026 76 10000 5.81 340 20:26 10.03.2021
1626 Clouds 12 1026 76 10000 5.81 340 19:41 10.03.2021
1627 Clear 12 1026 76 10000 5.81 340 19:21 10.03.2021
1628 Clear 12 1026 76 10000 5.81 340 18:44 10.03.2021
1629 Clear 12 1026 76 10000 5.81 340 18:24 10.03.2021
1630 Clear 12 1026 76 10000 5.81 340 17:43 10.03.2021
1631 Clear 12 1026 76 10000 5.81 340 17:21 10.03.2021
1632 Clear 12 1026 76 10000 5.81 340 16:55 10.03.2021
1633 Clear 12 1026 76 10000 5.81 340 16:37 10.03.2021
1634 Clear 12 1026 76 10000 5.81 340 16:18 10.03.2021
1635 Clear 12 1026 76 10000 5.81 340 15:40 10.03.2021
1636 Clear 12 1026 76 10000 5.81 340 15:21 10.03.2021
1637 Clear 12 1026 76 10000 5.81 340 14:40 10.03.2021
1638 Clear 12 1026 76 10000 6.17 340 14:19 10.03.2021
1639 Clear 12 1026 76 10000 6.17 340 13:43 10.03.2021
1640 Clear 12 1026 76 10000 6.17 340 13:18 10.03.2021
1641 Clear 13 1025 76 10000 6.17 350 12:41 10.03.2021
1642 Clear 14 1024 67 10000 7.72 360 11:59 10.03.2021
1643 Clear 14 1024 67 10000 7.72 360 11:31 10.03.2021
1644 Clear 14 1023 67 10000 9.26 350 10:57 10.03.2021
1645 Clear 14 1023 67 10000 9.26 350 10:34 10.03.2021
1646 Clear 16 1023 63 10000 7.72 350 09:58 10.03.2021
1647 Clear 17 1023 63 10000 7.72 350 09:40 10.03.2021
1648 Clear 17 1023 63 10000 7.72 350 09:20 10.03.2021
1649 Clear 18 1023 48 10000 4.63 350 08:46 10.03.2021
1650 Clear 18 1023 48 10000 4.63 350 08:28 10.03.2021
1651 Clear 18 1023 48 10000 4.63 350 08:28 10.03.2021
1652 Clear 19 1023 45 10000 4.63 310 07:48 10.03.2021
1653 Clear 19 1023 45 10000 4.63 310 07:29 10.03.2021
1654 Clear 19 1023 45 10000 4.63 310 07:29 10.03.2021
1655 Clouds 19 1023 42 10000 6.17 10 06:52 10.03.2021
1656 Clouds 15 1025 47 10000 4.63 20 03:29 10.03.2021
1657 Clear 8 1025 87 10000 1.03 0 00:42 10.03.2021
1658 Clear 6 1024 93 10000 2.06 90 23:47 09.03.2021
1659 Clear 6 1023 93 10000 1.54 110 22:58 09.03.2021
1660 Clear 8 1023 93 10000 1.54 110 22:38 09.03.2021
1661 Clear 10 1023 76 10000 4.92 340 22:18 09.03.2021
1662 Clear 10 1023 76 10000 4.92 340 21:42 09.03.2021
1663 Clear 10 1023 76 10000 4.92 340 21:22 09.03.2021
1664 Clear 10 1023 76 10000 4.92 340 20:56 09.03.2021
1665 Clear 10 1023 76 10000 4.92 340 20:37 09.03.2021
1666 Clear 10 1023 76 10000 4.92 340 20:18 09.03.2021
1667 Clear 10 1023 76 10000 4.92 340 19:43 09.03.2021
1668 Clear 10 1023 76 10000 4.92 340 19:24 09.03.2021
1669 Clear 10 1023 76 10000 4.92 340 18:42 09.03.2021
1670 Clouds 10 1023 76 10000 4.92 340 18:19 09.03.2021
1671 Clouds 10 1023 76 10000 4.92 340 17:46 09.03.2021
1672 Clouds 10 1023 76 10000 4.92 340 17:26 09.03.2021
1673 Clouds 10 1023 76 10000 4.92 340 16:41 09.03.2021
1674 Clouds 10 1023 76 10000 4.92 340 16:21 09.03.2021
1675 Clouds 10 1023 76 10000 4.92 340 15:56 09.03.2021
1676 Clouds 10 1023 76 10000 4.92 340 15:25 09.03.2021
1677 Clouds 10 1023 76 10000 4.92 340 14:52 09.03.2021
1678 Clear 10 1023 76 10000 5.14 340 14:26 09.03.2021
1679 Clear 10 1023 76 10000 5.14 340 13:42 09.03.2021
1680 Clear 10 1023 76 10000 5.14 340 13:21 09.03.2021
1681 Clear 11 1022 71 10000 5.14 360 12:54 09.03.2021
1682 Clear 11 1022 71 10000 5.14 360 12:35 09.03.2021
1683 Clouds 12 1021 76 10000 6.17 350 11:44 09.03.2021
1684 Clouds 12 1021 76 10000 6.17 350 11:22 09.03.2021
1685 Clouds 13 1020 67 10000 5.66 330 10:59 09.03.2021
1686 Clouds 13 1020 67 10000 5.66 330 10:39 09.03.2021
1687 Clouds 14 1020 67 10000 5.66 330 10:20 09.03.2021
1688 Clouds 15 1020 55 10000 2.57 300 09:46 09.03.2021
1689 Clouds 14 1020 55 10000 2.57 300 09:26 09.03.2021
1690 Clouds 14 1020 58 10000 3.6 310 08:49 09.03.2021
1691 Clouds 14 1020 58 10000 3.6 310 08:30 09.03.2021
1692 Clouds 14 1020 58 10000 2.06 220 07:46 09.03.2021
1693 Clouds 14 1020 58 10000 2.06 220 07:23 09.03.2021
1694 Clouds 14 1021 58 10000 3.09 310 06:44 09.03.2021
1695 Clouds 15 1022 55 10000 3.6 320 05:48 09.03.2021
1696 Clouds 9 1023 76 10000 1.54 290 00:59 09.03.2021
1697 Clouds 8 1022 81 10000 2.57 130 23:45 08.03.2021
1698 Clouds 8 1022 81 10000 2.57 130 23:27 08.03.2021
1699 Clouds 8 1022 76 10000 1.54 110 22:58 08.03.2021
1700 Clouds 8 1022 76 10000 1.54 110 22:40 08.03.2021
1701 Clouds 10 1023 61 10000 8.49 360 22:21 08.03.2021
1702 Clouds 10 1023 61 10000 8.49 360 21:43 08.03.2021
1703 Clouds 10 1023 61 10000 8.49 360 21:24 08.03.2021
1704 Clouds 10 1023 61 10000 8.49 360 20:39 08.03.2021
1705 Clouds 10 1023 61 10000 8.49 360 20:19 08.03.2021
1706 Clouds 10 1023 61 10000 8.49 360 19:38 08.03.2021
1707 Clouds 10 1023 61 10000 8.49 360 18:48 08.03.2021
1708 Clouds 10 1023 61 10000 8.49 360 18:23 08.03.2021
1709 Clouds 10 1023 61 10000 8.49 360 17:59 08.03.2021
1710 Clouds 10 1023 61 10000 8.49 360 17:39 08.03.2021
1711 Clouds 10 1023 61 10000 8.49 360 16:59 08.03.2021
1712 Clouds 10 1023 61 10000 8.49 360 16:40 08.03.2021
1713 Clouds 10 1023 61 10000 8.49 360 16:21 08.03.2021
1714 Clouds 10 1023 61 10000 8.49 360 15:38 08.03.2021
1715 Clear 10 1023 61 10000 8.49 360 15:20 08.03.2021
1716 Clear 10 1023 62 10000 8.75 360 14:21 08.03.2021
1717 Clear 10 1023 62 10000 8.75 360 13:48 08.03.2021
1718 Clear 10 1023 62 10000 8.75 360 13:23 08.03.2021
1719 Clear 10 1022 66 10000 7.72 360 12:56 08.03.2021
1720 Clear 10 1022 66 10000 7.72 360 12:29 08.03.2021
1721 Clear 11 1022 66 10000 7.72 360 11:45 08.03.2021
1722 Clear 12 1022 66 10000 7.72 360 11:22 08.03.2021
1723 Clear 13 1022 62 10000 7.2 350 10:47 08.03.2021
1724 Clear 13 1022 62 10000 7.2 350 10:28 08.03.2021
1725 Clear 15 1021 55 10000 7.72 360 09:50 08.03.2021
1726 Clear 15 1021 55 10000 7.72 360 09:25 08.03.2021
1727 Clear 16 1021 51 10000 7.2 340 08:32 08.03.2021
1728 Clear 17 1021 51 10000 6.17 340 07:51 08.03.2021
1729 Clear 17 1021 51 10000 6.17 340 07:21 08.03.2021
1730 Clouds 15 1023 55 10000 2.57 220 05:20 08.03.2021
1731 Clouds 10 1024 81 10000 6.69 360 01:45 08.03.2021
1732 Clouds 10 1023 81 10000 7.2 360 00:41 08.03.2021
1733 Clouds 8 1023 93 10000 5.66 20 23:53 07.03.2021
1734 Clouds 8 1023 93 10000 5.66 20 23:20 07.03.2021
1735 Clouds 9 1023 87 10000 2.57 110 22:45 07.03.2021
1736 Clouds 9 1023 87 10000 2.57 110 22:45 07.03.2021
1737 Clouds 9 1023 87 10000 2.57 110 22:26 07.03.2021
1738 Clouds 9 1023 93 10000 3.64 35 21:49 07.03.2021
1739 Clouds 9 1023 93 10000 3.64 35 21:30 07.03.2021
1740 Clouds 9 1023 93 10000 3.61 30 20:50 07.03.2021
1741 Clouds 9 1023 93 10000 3.61 30 20:32 07.03.2021
1742 Clouds 9 1023 93 10000 3.64 25 19:59 07.03.2021
1743 Clouds 9 1023 93 10000 3.64 25 19:39 07.03.2021
1744 Clouds 9 1022 93 10000 3.55 17 19:21 07.03.2021
1745 Clouds 9 1022 93 10000 3.62 17 18:48 07.03.2021
1746 Clouds 9 1022 93 10000 3.72 11 18:20 07.03.2021
1747 Clouds 9 1022 93 10000 3.72 11 17:45 07.03.2021
1748 Clouds 9 1022 93 10000 3.17 15 17:21 07.03.2021
1749 Clouds 9 1023 93 10000 3.17 15 16:59 07.03.2021
1750 Clouds 9 1023 93 10000 3.17 15 16:39 07.03.2021
1751 Clouds 9 1023 93 10000 3.11 21 16:20 07.03.2021
1752 Clouds 9 1023 93 10000 3.11 21 16:20 07.03.2021
1753 Clouds 9 1022 93 10000 3.11 21 15:46 07.03.2021
1754 Clouds 9 1023 93 10000 2.87 26 15:28 07.03.2021
1755 Clouds 9 1023 93 10000 0.51 0 14:39 07.03.2021
1756 Clouds 9 1023 93 10000 0.51 0 14:21 07.03.2021
1757 Clouds 9 1023 93 10000 0.51 0 13:42 07.03.2021
1758 Clouds 9 1023 93 10000 0.51 0 13:23 07.03.2021
1759 Clouds 9 1023 93 10000 1.54 40 12:47 07.03.2021
1760 Clouds 9 1023 93 10000 1.54 40 12:29 07.03.2021
1761 Clouds 9 1022 87 10000 1.03 0 11:49 07.03.2021
1762 Clouds 9 1022 87 10000 1.03 0 11:22 07.03.2021
1763 Clouds 9 1022 87 10000 3.09 200 10:49 07.03.2021
1764 Clouds 9 1022 87 10000 3.09 200 10:30 07.03.2021
1765 Clouds 9 1022 87 10000 1.54 260 09:46 07.03.2021
1766 Clouds 9 1022 87 10000 1.54 260 09:25 07.03.2021
1767 Clouds 9 1022 87 10000 1.54 130 08:46 07.03.2021
1768 Clouds 9 1022 87 10000 1.54 130 08:25 07.03.2021
1769 Rain 9 1022 87 10000 1.03 0 07:51 07.03.2021
1770 Clouds 9 1024 76 10000 1.54 150 02:43 07.03.2021
1771 Clouds 10 1024 57 10000 1.54 110 01:42 07.03.2021
1772 Clouds 10 1023 62 10000 6.17 80 23:54 06.03.2021
1773 Clouds 10 1023 62 10000 6.17 80 23:35 06.03.2021
1774 Clear 10 1023 66 10000 5.66 60 22:48 06.03.2021
1775 Clear 10 1023 66 10000 5.66 60 22:29 06.03.2021
1776 Clouds 11 1023 71 10000 8.94 360 21:59 06.03.2021
1777 Clouds 11 1023 71 10000 8.94 360 21:24 06.03.2021
1778 Clouds 11 1023 71 10000 8.94 360 20:54 06.03.2021
1779 Clouds 11 1023 71 10000 8.94 360 20:34 06.03.2021
1780 Clouds 11 1023 71 10000 8.94 360 19:50 06.03.2021
1781 Clouds 11 1023 71 10000 8.94 360 19:23 06.03.2021
1782 Clouds 11 1023 71 10000 8.94 360 18:56 06.03.2021
1783 Clouds 11 1023 71 10000 8.94 360 18:56 06.03.2021
1784 Clouds 11 1023 71 10000 8.94 360 18:38 06.03.2021
1785 Clouds 11 1023 71 10000 8.94 360 18:18 06.03.2021
1786 Clouds 11 1023 71 10000 8.94 360 17:44 06.03.2021
1787 Clouds 11 1023 71 10000 8.94 360 17:24 06.03.2021
1788 Clouds 11 1023 71 10000 8.94 360 16:52 06.03.2021
1789 Clouds 11 1023 71 10000 8.94 360 16:29 06.03.2021
1790 Clouds 11 1023 71 10000 8.94 360 15:54 06.03.2021
1791 Clouds 11 1023 71 10000 8.94 360 15:32 06.03.2021
1792 Clouds 11 1023 71 10000 8.94 360 15:32 06.03.2021
1793 Clouds 11 1023 71 10000 8.94 360 14:54 06.03.2021
1794 Clouds 11 1023 71 10000 9.26 360 14:30 06.03.2021
1795 Clouds 11 1023 71 10000 9.26 360 13:42 06.03.2021
1796 Clouds 11 1023 71 10000 9.26 360 13:21 06.03.2021
1797 Clouds 11 1023 71 10000 10.29 360 12:44 06.03.2021
1798 Clouds 11 1023 71 10000 10.29 360 12:20 06.03.2021
1799 Clouds 11 1022 76 10000 9.77 360 11:55 06.03.2021
1800 Clouds 11 1022 76 10000 9.77 360 11:22 06.03.2021
1801 Clouds 12 1021 71 10000 9.26 10 10:49 06.03.2021
1802 Clouds 12 1021 71 10000 9.26 10 10:24 06.03.2021
1803 Clouds 13 1021 71 10000 9.77 10 09:47 06.03.2021
1804 Clouds 13 1021 71 10000 9.77 10 09:20 06.03.2021
1805 Rain 14 1020 72 10000 10.29 360 08:51 06.03.2021
1806 Clouds 15 1020 67 10000 8.23 350 07:59 06.03.2021
1807 Rain 15 1020 67 10000 8.23 350 07:41 06.03.2021
1808 Clouds 16 1020 67 10000 8.23 350 07:20 06.03.2021
1809 Clouds 17 1020 51 10000 9.26 20 05:38 06.03.2021
1810 Clouds 16 1020 63 10000 5.14 360 02:39 06.03.2021
1811 Clouds 14 1020 72 10000 6.17 360 01:20 06.03.2021
1812 Clouds 13 1020 76 10000 6.69 350 00:36 06.03.2021
1813 Clouds 13 1019 82 10000 5.66 360 23:31 05.03.2021
1814 Clouds 12 1018 87 10000 7.2 340 22:49 05.03.2021
1815 Clouds 12 1018 87 10000 7.2 340 22:25 05.03.2021
1816 Clouds 12 1020 84 10000 2.92 9 21:54 05.03.2021
1817 Clouds 12 1020 84 10000 2.92 9 21:36 05.03.2021
1818 Clouds 13 1019 84 10000 2.48 14 20:58 05.03.2021
1819 Clouds 13 1017 87 10000 5.81 350 20:40 05.03.2021
1820 Clouds 13 1017 87 10000 5.81 350 20:22 05.03.2021
1821 Clouds 13 1017 87 10000 5.81 350 19:41 05.03.2021
1822 Clouds 13 1017 87 10000 5.81 350 19:20 05.03.2021
1823 Clouds 13 1019 85 10000 2.98 5 18:42 05.03.2021
1824 Clouds 13 1019 85 10000 2.98 5 18:42 05.03.2021
1825 Clouds 13 1019 85 10000 3.35 3 18:23 05.03.2021
1826 Clouds 13 1019 85 10000 3.35 3 17:37 05.03.2021
1827 Clouds 13 1019 85 10000 2.82 6 16:58 05.03.2021
1828 Clouds 13 1018 82 10000 1.54 30 16:38 05.03.2021
1829 Clouds 13 1018 82 10000 1.54 30 16:20 05.03.2021
1830 Clouds 13 1018 82 10000 1.54 30 15:46 05.03.2021
1831 Clouds 13 1017 87 10000 5.81 350 15:23 05.03.2021
1832 Clouds 13 1017 88 10000 6.17 350 14:39 05.03.2021
1833 Clouds 13 1017 88 10000 6.17 350 13:59 05.03.2021
1834 Clouds 13 1017 88 10000 6.17 350 13:22 05.03.2021
1835 Clouds 13 1017 88 10000 6.17 330 13:00 05.03.2021
1836 Clouds 13 1017 88 10000 6.17 330 12:27 05.03.2021
1837 Clouds 14 1015 82 10000 6.69 350 11:37 05.03.2021
1838 Clouds 14 1015 82 10000 6.69 350 11:18 05.03.2021
1839 Clouds 14 1014 82 10000 6.17 360 10:41 05.03.2021
1840 Clouds 14 1014 82 10000 6.17 360 10:23 05.03.2021
1841 Clouds 15 1014 77 10000 6.17 340 09:49 05.03.2021
1842 Clouds 15 1014 77 10000 6.17 340 09:27 05.03.2021
1843 Clouds 16 1014 72 10000 5.14 340 08:45 05.03.2021
1844 Clouds 16 1014 72 10000 5.14 340 08:26 05.03.2021
1845 Clouds 16 1014 72 10000 5.14 360 07:44 05.03.2021
1846 Clouds 16 1014 72 10000 5.14 360 07:24 05.03.2021
1847 Clouds 15 1014 77 10000 6.17 340 06:32 05.03.2021
1848 Clouds 14 1014 88 10000 3.09 300 02:51 05.03.2021
1849 Clouds 12 1014 94 10000 2.57 240 00:46 05.03.2021
1850 Clouds 13 1013 94 10000 3.09 360 23:37 04.03.2021
1851 Clouds 13 1013 94 10000 3.6 10 22:40 04.03.2021
1852 Clouds 14 1013 94 10000 4.23 40 22:22 04.03.2021
1853 Clouds 14 1013 94 10000 4.23 40 21:47 04.03.2021
1854 Clouds 15 1012 95 7554 1.39 99 21:27 04.03.2021
1855 Clouds 15 1012 95 7554 1.39 99 20:41 04.03.2021
1856 Clouds 15 1012 94 3780 3.41 148 20:22 04.03.2021
1857 Clouds 15 1012 94 3780 3.41 148 19:54 04.03.2021
1858 Clouds 15 1012 94 3780 3.41 148 19:31 04.03.2021
1859 Clouds 16 1012 93 9891 6.98 158 18:59 04.03.2021
1860 Clouds 16 1012 93 9891 6.98 158 18:38 04.03.2021
1861 Clouds 15 1013 94 4697 5.33 166 18:19 04.03.2021
1862 Clouds 15 1013 94 4697 5.33 166 17:42 04.03.2021
1863 Clouds 15 1014 93 10000 6.15 162 17:20 04.03.2021
1864 Clouds 15 1014 93 10000 6.15 162 16:44 04.03.2021
1865 Clouds 12 1016 94 10000 3.09 30 16:24 04.03.2021
1866 Clouds 12 1016 94 10000 3.09 30 15:48 04.03.2021
1867 Clouds 12 1016 94 10000 3.09 30 15:30 04.03.2021
1868 Rain 12 1018 94 10000 3.09 40 14:45 04.03.2021
1869 Clouds 11 1018 93 10000 2.06 150 14:22 04.03.2021
1870 Rain 11 1018 93 10000 2.06 150 13:45 04.03.2021
1871 Clouds 11 1018 93 10000 2.06 150 13:23 04.03.2021
1872 Clouds 11 1018 93 10000 2.06 150 12:44 04.03.2021
1873 Clouds 11 1018 93 10000 2.06 150 12:20 04.03.2021
1874 Clouds 11 1019 93 10000 3.09 180 11:42 04.03.2021
1875 Rain 11 1019 93 10000 3.09 180 11:20 04.03.2021
1876 Rain 11 1018 93 10000 2.06 170 10:37 04.03.2021
1877 Rain 11 1018 93 10000 2.06 170 10:18 04.03.2021
1878 Clouds 12 1019 87 10000 1.03 0 09:36 04.03.2021
1879 Clouds 13 1019 76 10000 1.54 100 08:56 04.03.2021
1880 Rain 13 1019 76 10000 1.54 100 08:32 04.03.2021
1881 Clouds 14 1020 58 10000 2.57 130 07:49 04.03.2021
1882 Clouds 14 1020 54 10000 4.63 150 06:52 04.03.2021
1883 Clouds 14 1020 54 10000 4.63 150 06:23 04.03.2021
1884 Clouds 10 1025 71 10000 7.2 140 02:39 04.03.2021
1885 Clouds 8 1026 81 10000 5.66 140 00:41 04.03.2021
1886 Clouds 7 1026 81 10000 6.17 140 22:41 03.03.2021
1887 Clouds 7 1026 81 10000 6.17 140 22:23 03.03.2021
1888 Clouds 9 1026 67 10000 1.88 99 21:43 03.03.2021
1889 Clouds 10 1026 66 10000 1.92 129 21:24 03.03.2021
1890 Clouds 10 1026 66 10000 1.92 129 20:55 03.03.2021
1891 Clouds 8 1026 70 10000 2.24 120 20:37 03.03.2021
1892 Clouds 8 1026 70 10000 2.24 120 19:54 03.03.2021
1893 Clouds 8 1026 70 10000 2.24 120 19:36 03.03.2021
1894 Clouds 8 1026 70 10000 2.24 120 19:18 03.03.2021
1895 Clouds 10 1027 68 10000 1.93 181 18:40 03.03.2021
1896 Clouds 10 1027 67 10000 2.31 170 17:58 03.03.2021
1897 Clouds 10 1027 65 10000 2.49 170 17:23 03.03.2021
1898 Clouds 10 1027 65 10000 2.49 170 16:58 03.03.2021
1899 Clear 5 1027 81 10000 3.09 350 16:28 03.03.2021
1900 Clouds 8 1026 70 10000 2.24 120 15:59 03.03.2021
1901 Clouds 8 1026 70 10000 2.24 120 15:33 03.03.2021
1902 Clouds 8 1026 70 10000 2.24 120 14:52 03.03.2021
1903 Clear 8 1026 71 10000 2.57 120 14:28 03.03.2021
1904 Clear 8 1026 71 10000 2.57 120 13:48 03.03.2021
1905 Clear 8 1026 71 10000 2.57 120 13:29 03.03.2021
1906 Clear 9 1026 76 10000 3.6 130 12:43 03.03.2021
1907 Clear 9 1026 76 10000 3.6 130 12:23 03.03.2021
1908 Clear 10 1026 50 10000 2.57 130 11:46 03.03.2021
1909 Clear 10 1026 50 10000 2.57 130 11:27 03.03.2021
1910 Clear 11 1025 50 10000 3.09 170 10:46 03.03.2021
1911 Clear 11 1025 50 10000 3.09 170 10:23 03.03.2021
1912 Clear 13 1025 38 10000 1.03 0 09:45 03.03.2021
1913 Clear 13 1025 38 10000 3.09 290 08:57 03.03.2021
1914 Clear 13 1025 38 10000 3.09 290 08:39 03.03.2021
1915 Clear 12 1025 38 10000 3.09 290 08:18 03.03.2021
1916 Clear 12 1025 43 10000 3.09 270 07:39 03.03.2021
1917 Clear 11 1026 43 10000 3.6 290 06:46 03.03.2021
1918 Clear 10 1026 46 10000 3.09 250 05:45 03.03.2021
1919 Clouds 10 1027 46 10000 2.06 290 04:50 03.03.2021
1920 Clouds 10 1027 46 10000 2.06 290 04:24 03.03.2021
1921 Clouds 6 1028 49 10000 8.23 20 00:39 03.03.2021
1922 Clouds 5 1028 60 10000 7.72 30 23:44 02.03.2021
1923 Clouds 6 1027 56 10000 7.72 30 22:54 02.03.2021
1924 Clouds 6 1027 56 10000 7.72 30 22:24 02.03.2021
1925 Clear 5 1028 68 10000 5.6 32 21:59 02.03.2021
1926 Clear 5 1028 68 10000 5.6 32 21:37 02.03.2021
1927 Clear 5 1027 68 10000 5.6 37 21:18 02.03.2021
1928 Clear 5 1027 68 10000 5.6 37 20:42 02.03.2021
1929 Clear 6 1027 67 10000 5.88 39 20:21 02.03.2021
1930 Clear 6 1027 67 10000 5.88 39 19:49 02.03.2021
1931 Clear 8 1025 61 10000 7.6 10 19:30 02.03.2021
1932 Clear 5 1027 67 10000 6.42 38 18:55 02.03.2021
1933 Clear 5 1027 67 10000 6.42 38 18:36 02.03.2021
1934 Clear 8 1025 61 10000 7.6 10 18:18 02.03.2021
1935 Clear 8 1025 61 10000 7.6 10 17:39 02.03.2021
1936 Clear 8 1025 61 10000 7.6 10 17:20 02.03.2021
1937 Clear 8 1025 61 10000 7.6 10 16:47 02.03.2021
1938 Clear 8 1025 61 10000 7.6 10 15:55 02.03.2021
1939 Clear 8 1025 61 10000 7.6 10 15:27 02.03.2021
1940 Clear 8 1025 61 10000 7.6 10 15:27 02.03.2021
1941 Clear 8 1025 61 10000 7.6 10 15:27 02.03.2021
1942 Clear 8 1025 61 10000 7.6 10 14:50 02.03.2021
1943 Clouds 8 1025 61 10000 7.72 10 14:19 02.03.2021
1944 Clouds 8 1025 61 10000 7.72 10 13:47 02.03.2021
1945 Clouds 7 1025 61 10000 7.72 10 13:25 02.03.2021
1946 Clouds 7 1024 66 10000 10.29 360 12:47 02.03.2021
1947 Clouds 7 1024 66 10000 10.29 360 12:25 02.03.2021
1948 Clouds 7 1023 81 10000 8.23 360 11:45 02.03.2021
1949 Clouds 7 1023 81 10000 8.23 360 11:23 02.03.2021
1950 Clouds 8 1022 76 10000 9.26 10 10:49 02.03.2021
1951 Clouds 8 1022 76 10000 9.26 10 10:29 02.03.2021
1952 Clouds 9 1021 71 10000 10.29 360 09:41 02.03.2021
1953 Clouds 9 1021 71 10000 10.29 360 09:22 02.03.2021
1954 Clouds 11 1020 66 10000 9.77 360 08:43 02.03.2021
1955 Clouds 11 1020 66 10000 9.77 360 08:25 02.03.2021
1956 Clouds 11 1019 71 10000 9.26 360 07:41 02.03.2021
1957 Clouds 12 1018 71 10000 9.26 340 06:37 02.03.2021
1958 Clouds 12 1018 76 10000 8.23 350 05:47 02.03.2021
1959 Clouds 12 1018 76 10000 8.23 350 05:29 02.03.2021
1960 Clouds 11 1017 82 10000 9.77 360 02:35 02.03.2021
1961 Clouds 10 1016 81 10000 8.75 350 01:42 02.03.2021
1962 Rain 10 1016 81 10000 8.75 350 01:18 02.03.2021
1963 Clouds 10 1014 93 10000 7.2 350 23:29 01.03.2021
1964 Rain 11 1013 93 9000 7.72 330 22:43 01.03.2021
1965 Clouds 11 1013 93 9000 7.72 330 22:24 01.03.2021
1966 Clouds 11 1013 88 10000 8.03 309 21:51 01.03.2021
1967 Rain 12 1012 86 10000 9.08 310 21:24 01.03.2021
1968 Clouds 12 1012 86 10000 9.08 310 20:49 01.03.2021
1969 Clouds 12 1011 87 10000 9.27 307 20:28 01.03.2021
1970 Clouds 12 1011 87 10000 9.27 307 19:56 01.03.2021
1971 Rain 13 1011 88 10000 8.1 309 19:34 01.03.2021
1972 Rain 13 1011 90 10000 7.21 303 18:59 01.03.2021
1973 Rain 13 1011 90 10000 7.21 303 18:36 01.03.2021
1974 Rain 14 1011 91 6254 7.4 302 18:18 01.03.2021
1975 Clouds 14 1011 91 6254 7.4 302 17:41 01.03.2021
1976 Rain 16 1011 94 2497 7.48 269 17:19 01.03.2021
1977 Rain 19 1011 68 2497 11.62 180 16:43 01.03.2021
1978 Rain 19 1011 68 5464 11.62 180 16:24 01.03.2021
1979 Clouds 19 1011 68 5464 11.62 180 15:41 01.03.2021
1980 Clouds 19 1011 68 10000 11.62 180 15:20 01.03.2021
1981 Clouds 19 1011 68 10000 11.62 180 14:47 01.03.2021
1982 Clouds 19 1011 68 10000 11.83 180 14:29 01.03.2021
1983 Clouds 18 1011 68 10000 11.83 180 13:40 01.03.2021
1984 Clouds 18 1011 68 10000 11.83 180 13:22 01.03.2021
1985 Clouds 18 1012 77 10000 10.29 170 12:52 01.03.2021
1986 Clouds 18 1012 77 10000 10.29 170 12:32 01.03.2021
1987 Clouds 19 1012 68 10000 10.29 180 11:59 01.03.2021
1988 Clouds 19 1012 68 10000 10.29 180 11:40 01.03.2021
1989 Clouds 20 1012 64 10000 10.29 190 10:44 01.03.2021
1990 Clouds 20 1012 64 10000 10.29 190 10:23 01.03.2021
1991 Clouds 20 1013 60 10000 8.23 200 09:58 01.03.2021
1992 Clouds 20 1013 60 10000 8.23 200 09:40 01.03.2021
1993 Clouds 19 1013 60 10000 8.23 200 09:20 01.03.2021
1994 Clouds 19 1013 63 10000 4.63 200 08:47 01.03.2021
1995 Clouds 19 1014 63 10000 6.17 150 07:50 01.03.2021
1996 Clouds 21 1015 56 10000 5.66 170 06:51 01.03.2021
1997 Clouds 17 1020 67 10000 5.14 150 02:49 01.03.2021
1998 Clouds 11 1020 87 10000 1.54 180 00:37 01.03.2021
1999 Clouds 10 1021 93 10000 1.54 40 23:26 28.02.2021
2000 Clouds 10 1020 93 10000 2.06 110 22:45 28.02.2021
2001 Clouds 10 1020 93 10000 2.06 110 22:21 28.02.2021
2002 Clouds 10 1020 93 10000 2.06 110 22:21 28.02.2021
2003 Clear 14 1023 71 10000 4.47 170 21:49 28.02.2021
2004 Clear 14 1023 71 10000 4.47 170 21:27 28.02.2021
2005 Clear 14 1023 71 10000 4.47 170 20:55 28.02.2021
2006 Clear 14 1023 71 10000 4.47 170 20:35 28.02.2021
2007 Clear 14 1023 71 10000 4.47 170 19:47 28.02.2021
2008 Clear 14 1023 71 10000 4.47 170 19:28 28.02.2021
2009 Clear 14 1023 71 10000 4.47 170 18:49 28.02.2021
2010 Clear 14 1023 71 10000 4.47 170 18:28 28.02.2021
2011 Clear 14 1023 71 10000 4.47 170 17:59 28.02.2021
2012 Clear 14 1023 71 10000 4.47 170 17:40 28.02.2021
2013 Clear 14 1023 71 10000 4.47 170 17:21 28.02.2021
2014 Clear 14 1023 71 10000 4.47 170 16:48 28.02.2021
2015 Clear 14 1023 71 10000 4.47 170 16:30 28.02.2021
2016 Clear 14 1023 71 10000 4.47 170 15:52 28.02.2021
2017 Clear 14 1023 71 10000 4.47 170 15:28 28.02.2021
2018 Clear 14 1023 71 10000 4.47 170 14:58 28.02.2021
2019 Clear 14 1023 72 10000 4.63 170 14:39 28.02.2021
2020 Clear 14 1023 72 10000 4.63 170 13:59 28.02.2021
2021 Clear 14 1023 72 10000 4.63 170 13:38 28.02.2021
2022 Clear 14 1023 72 10000 4.63 170 13:19 28.02.2021
2023 Clear 14 1023 72 10000 3.6 110 12:53 28.02.2021
2024 Clear 14 1023 72 10000 3.6 110 12:35 28.02.2021
2025 Clouds 16 1023 59 10000 4.12 100 11:58 28.02.2021
2026 Clouds 16 1023 59 10000 4.12 100 11:40 28.02.2021
2027 Clouds 16 1023 59 10000 4.12 100 11:21 28.02.2021
2028 Clouds 17 1022 55 10000 4.63 110 10:43 28.02.2021
2029 Clouds 17 1022 55 10000 4.63 110 10:25 28.02.2021
2030 Clouds 19 1022 52 10000 6.69 140 09:40 28.02.2021
2031 Clouds 19 1022 52 10000 6.69 140 09:20 28.02.2021
2032 Clouds 20 1022 49 10000 7.2 140 08:45 28.02.2021
2033 Clouds 19 1022 49 10000 7.2 140 08:25 28.02.2021
2034 Clouds 19 1022 52 10000 1.54 320 07:46 28.02.2021
2035 Clouds 19 1022 52 10000 1.54 320 07:25 28.02.2021
2036 Clouds 17 1022 59 10000 3.09 290 06:24 28.02.2021
2037 Clouds 17 1023 52 10000 1.03 0 05:20 28.02.2021
2038 Clear 12 1025 62 10000 0.51 280 02:29 28.02.2021
2039 Clouds 11 1025 76 10000 1.03 0 01:28 28.02.2021
2040 Clear 10 1025 71 10000 1.54 200 00:40 28.02.2021
2041 Clouds 8 1024 76 10000 1.54 60 23:51 27.02.2021
2042 Clouds 8 1024 76 10000 1.54 60 23:22 27.02.2021
2043 Clouds 9 1024 76 10000 1.03 0 22:50 27.02.2021
2044 Clouds 10 1024 43 10000 4.02 40 22:25 27.02.2021
2045 Clouds 10 1024 43 10000 4.02 40 21:59 27.02.2021
2046 Clouds 10 1024 43 10000 4.02 40 21:38 27.02.2021
2047 Clouds 10 1024 43 10000 4.02 40 20:58 27.02.2021
2048 Clouds 10 1024 43 10000 4.02 40 20:39 27.02.2021
2049 Rain 10 1024 43 10000 4.02 40 20:21 27.02.2021
2050 Rain 10 1024 43 10000 4.02 40 19:43 27.02.2021
2051 Rain 10 1024 43 10000 4.02 40 19:43 27.02.2021
2052 Rain 10 1024 43 10000 4.02 40 19:23 27.02.2021
2053 Clouds 10 1024 43 10000 4.02 40 18:41 27.02.2021
2054 Clouds 10 1024 43 10000 4.02 40 18:20 27.02.2021
2055 Clouds 10 1024 43 10000 4.02 40 17:44 27.02.2021
2056 Clouds 10 1024 43 10000 4.02 40 17:20 27.02.2021
2057 Clouds 10 1024 43 10000 4.02 40 16:53 27.02.2021
2058 Clouds 10 1024 43 10000 4.02 40 16:32 27.02.2021
2059 Rain 10 1024 43 10000 4.02 40 15:57 27.02.2021
2060 Clouds 10 1024 43 10000 4.02 40 15:38 27.02.2021
2061 Clouds 10 1024 43 10000 4.02 40 14:49 27.02.2021
2062 Clear 10 1024 43 10000 4.12 40 14:30 27.02.2021
2063 Clear 10 1024 43 10000 4.12 40 13:50 27.02.2021
2064 Clear 10 1024 43 10000 4.12 40 13:27 27.02.2021
2065 Clear 10 1024 46 10000 5.14 80 12:56 27.02.2021
2066 Clear 10 1024 46 10000 5.14 80 12:30 27.02.2021
2067 Clear 11 1024 37 10000 7.2 40 11:57 27.02.2021
2068 Clear 11 1024 37 10000 7.2 40 11:38 27.02.2021
2069 Clear 11 1024 37 10000 7.2 40 11:19 27.02.2021
2070 Clear 12 1023 37 10000 7.72 40 10:42 27.02.2021
2071 Clear 12 1023 37 10000 7.72 40 10:19 27.02.2021
2072 Clear 12 1022 37 10000 5.14 30 09:44 27.02.2021
2073 Clear 12 1022 37 10000 5.14 30 09:25 27.02.2021
2074 Clear 13 1022 38 10000 5.66 40 08:39 27.02.2021
2075 Clear 13 1022 38 10000 5.66 40 08:20 27.02.2021
2076 Clear 13 1022 35 10000 6.69 30 07:36 27.02.2021
2077 Clouds 12 1024 35 10000 3.6 0 03:28 27.02.2021
2078 Clouds 8 1022 49 10000 2.57 20 00:37 27.02.2021
2079 Clouds 8 1022 49 10000 6.17 30 23:51 26.02.2021
2080 Clouds 8 1022 49 10000 6.17 30 23:26 26.02.2021
2081 Clouds 8 1021 53 10000 5.66 40 22:44 26.02.2021
2082 Clouds 8 1021 52 10000 5.36 40 22:23 26.02.2021
2083 Clouds 9 1022 56 10000 9.01 43 21:39 26.02.2021
2084 Clouds 9 1021 56 10000 8.34 40 21:18 26.02.2021
2085 Clouds 9 1021 56 10000 8.34 40 20:43 26.02.2021
2086 Clouds 9 1020 57 10000 7.95 44 20:20 26.02.2021
2087 Clouds 9 1020 57 10000 7.95 44 19:40 26.02.2021
2088 Clouds 10 1020 57 10000 8.19 37 19:18 26.02.2021
2089 Clouds 10 1020 57 10000 8.19 37 18:41 26.02.2021
2090 Rain 10 1020 58 10000 8.35 36 18:21 26.02.2021
2091 Rain 10 1020 58 10000 8.35 36 17:39 26.02.2021
2092 Clouds 10 1019 56 10000 9.18 45 17:20 26.02.2021
2093 Clouds 10 1019 56 10000 9.18 45 16:49 26.02.2021
2094 Rain 8 1019 71 10000 7.2 40 16:30 26.02.2021
2095 Clouds 8 1019 71 10000 7.2 40 15:51 26.02.2021
2096 Rain 8 1019 71 10000 7.2 40 15:30 26.02.2021
2097 Rain 8 1018 71 10000 8.23 30 14:59 26.02.2021
2098 Rain 8 1018 71 10000 8.23 30 14:41 26.02.2021
2099 Rain 13 1015 30 10000 9.77 80 14:23 26.02.2021
2100 Rain 13 1015 30 10000 9.77 80 13:39 26.02.2021
2101 Rain 13 1015 30 10000 9.77 80 13:20 26.02.2021
2102 Rain 12 1015 43 10000 9.77 70 12:34 26.02.2021
2103 Clouds 11 1014 58 10000 3.09 0 11:50 26.02.2021
2104 Clouds 11 1014 58 10000 3.09 0 11:32 26.02.2021
2105 Rain 11 1013 62 10000 3.09 360 10:45 26.02.2021
2106 Rain 11 1012 66 10000 9.26 70 09:50 26.02.2021
2107 Rain 11 1012 66 10000 9.26 70 09:30 26.02.2021
2108 Rain 12 1012 66 10000 9.26 70 08:53 26.02.2021
2109 Rain 11 1012 66 10000 9.26 70 08:19 26.02.2021
2110 Rain 10 1013 76 10000 8.23 70 07:48 26.02.2021
2111 Rain 11 1014 66 10000 4.12 90 06:36 26.02.2021
2112 Rain 10 1014 76 10000 5.14 100 05:26 26.02.2021
2113 Rain 9 1015 81 10000 4.12 70 03:28 26.02.2021
2114 Clouds 9 1014 93 10000 6.17 10 01:29 26.02.2021
2115 Rain 10 1013 93 8000 4.63 50 23:44 25.02.2021
2116 Clouds 10 1013 93 8000 3.6 40 23:25 25.02.2021
2117 Clouds 11 1013 93 7000 3.6 30 22:47 25.02.2021
2118 Rain 12 1017 71 10000 1.79 150 21:58 25.02.2021
2119 Rain 12 1017 71 10000 1.79 150 21:36 25.02.2021
2120 Rain 12 1018 71 10000 1.79 150 21:18 25.02.2021
2121 Clouds 12 1018 71 10000 1.79 150 20:40 25.02.2021
2122 Rain 12 1018 71 10000 1.79 150 20:21 25.02.2021
2123 Rain 12 1017 71 10000 1.79 150 19:51 25.02.2021
2124 Rain 12 1017 71 10000 1.79 150 19:21 25.02.2021
2125 Clouds 12 1018 71 10000 1.79 150 18:56 25.02.2021
2126 Clouds 12 1018 71 10000 1.79 150 18:20 25.02.2021
2127 Clouds 12 1018 71 10000 1.79 150 18:20 25.02.2021
2128 Rain 12 1017 71 10000 1.79 150 17:46 25.02.2021
2129 Clouds 12 1017 71 10000 1.79 150 17:25 25.02.2021
2130 Clouds 12 1017 71 10000 1.79 150 16:42 25.02.2021
2131 Rain 12 1017 71 10000 1.79 150 16:24 25.02.2021
2132 Rain 12 1017 71 10000 1.79 150 15:29 25.02.2021
2133 Rain 12 1018 71 10000 1.79 150 14:41 25.02.2021
2134 Rain 12 1017 71 10000 2.06 150 14:21 25.02.2021
2135 Clouds 12 1017 71 10000 2.06 150 13:49 25.02.2021
2136 Clouds 12 1017 71 10000 2.06 150 13:24 25.02.2021
2137 Clouds 12 1017 66 10000 0.51 0 12:46 25.02.2021
2138 Rain 12 1017 66 10000 0.51 0 12:21 25.02.2021
2139 Rain 12 1017 66 10000 0.51 0 12:21 25.02.2021
2140 Clouds 13 1018 58 10000 3.6 340 11:43 25.02.2021
2141 Clouds 13 1018 58 10000 3.6 340 11:18 25.02.2021
2142 Clouds 13 1017 71 10000 7.72 10 10:38 25.02.2021
2143 Rain 14 1017 62 10000 5.66 330 09:56 25.02.2021
2144 Clouds 14 1017 62 10000 5.66 330 09:38 25.02.2021
2145 Clear 16 1018 55 10000 5.66 320 08:50 25.02.2021
2146 Clear 16 1018 55 10000 5.66 320 08:22 25.02.2021
2147 Clear 16 1018 44 10000 3.09 10 07:50 25.02.2021
2148 Clear 16 1018 44 10000 3.09 10 07:19 25.02.2021
2149 Clouds 16 1018 48 10000 3.09 20 06:35 25.02.2021
2150 Clouds 8 1022 76 10000 2.06 130 01:52 25.02.2021
2151 Clouds 8 1022 76 10000 2.06 130 01:34 25.02.2021
2152 Clear 7 1022 87 10000 1.54 130 00:38 25.02.2021
2153 Clear 6 1022 87 10000 2.06 120 23:46 24.02.2021
2154 Clouds 6 1022 87 10000 2.06 110 22:59 24.02.2021
2155 Clouds 7 1022 87 10000 2.06 110 22:31 24.02.2021
2156 Clouds 7 1022 87 10000 2.06 110 22:31 24.02.2021
2157 Clear 9 1021 66 10000 4.47 10 21:57 24.02.2021
2158 Clear 9 1021 66 10000 4.47 10 21:36 24.02.2021
2159 Clear 9 1021 66 10000 4.47 10 20:52 24.02.2021
2160 Clouds 9 1021 66 10000 4.47 10 20:29 24.02.2021
2161 Clouds 9 1021 66 10000 4.47 10 19:52 24.02.2021
2162 Clear 9 1021 66 10000 4.47 10 19:26 24.02.2021
2163 Clear 9 1021 66 10000 4.47 10 18:55 24.02.2021
2164 Clear 9 1021 66 10000 4.47 10 18:33 24.02.2021
2165 Clear 9 1021 66 10000 4.47 10 17:45 24.02.2021
2166 Clear 9 1021 66 10000 4.47 10 17:25 24.02.2021
2167 Clear 9 1021 66 10000 4.47 10 16:49 24.02.2021
2168 Clear 9 1021 66 10000 4.47 10 16:22 24.02.2021
2169 Clear 9 1021 66 10000 4.47 10 15:56 24.02.2021
2170 Clear 9 1021 66 10000 4.47 10 15:35 24.02.2021
2171 Clear 9 1021 66 10000 4.47 10 14:52 24.02.2021
2172 Clear 9 1021 66 10000 4.63 10 14:31 24.02.2021
2173 Clear 10 1021 66 10000 4.63 10 13:55 24.02.2021
2174 Clear 10 1021 66 10000 4.63 10 13:37 24.02.2021
2175 Clear 10 1021 66 10000 4.63 10 13:19 24.02.2021
2176 Clear 11 1021 62 10000 6.69 10 12:42 24.02.2021
2177 Clear 11 1021 62 10000 6.69 10 12:23 24.02.2021
2178 Clear 12 1021 58 10000 6.17 10 11:39 24.02.2021
2179 Clear 13 1020 54 10000 5.66 360 10:47 24.02.2021
2180 Clear 13 1020 54 10000 5.66 360 10:26 24.02.2021
2181 Clouds 14 1020 44 10000 6.17 340 09:30 24.02.2021
2182 Clouds 15 1020 38 10000 2.06 200 08:52 24.02.2021
2183 Clouds 15 1020 38 10000 2.06 200 08:33 24.02.2021
2184 Clouds 14 1020 38 10000 1.54 260 07:42 24.02.2021
2185 Clouds 14 1020 38 10000 1.54 260 07:18 24.02.2021
2186 Clouds 13 1021 44 10000 2.06 280 05:27 24.02.2021
2187 Clear 10 1023 66 10000 1.54 280 02:35 24.02.2021
2188 Clear 6 1022 87 10000 2.06 80 23:39 23.02.2021
2189 Clear 6 1022 87 10000 1.54 110 22:51 23.02.2021
2190 Clear 6 1022 87 10000 1.54 110 22:23 23.02.2021
2191 Clear 8 1022 63 10000 2.7 32 21:49 23.02.2021
2192 Clouds 11 1021 62 10000 4.02 10 21:27 23.02.2021
2193 Clouds 11 1021 62 10000 4.02 10 20:59 23.02.2021
2194 Clouds 11 1021 62 10000 4.02 10 20:39 23.02.2021
2195 Clouds 11 1021 62 10000 4.02 10 20:20 23.02.2021
2196 Clouds 11 1021 62 10000 4.02 10 19:46 23.02.2021
2197 Clouds 11 1021 62 10000 4.02 10 19:26 23.02.2021
2198 Clouds 11 1021 62 10000 4.02 10 18:44 23.02.2021
2199 Clouds 11 1021 62 10000 4.02 10 18:26 23.02.2021
2200 Clouds 11 1021 62 10000 4.02 10 17:53 23.02.2021
2201 Clouds 11 1021 62 10000 4.02 10 17:27 23.02.2021
2202 Clouds 11 1021 62 10000 4.02 10 16:46 23.02.2021
2203 Clouds 11 1021 62 10000 4.02 10 16:23 23.02.2021
2204 Clouds 11 1021 62 10000 4.02 10 15:49 23.02.2021
2205 Clouds 11 1021 62 10000 4.02 10 15:29 23.02.2021
2206 Clouds 11 1021 62 10000 4.02 10 14:50 23.02.2021
2207 Clear 11 1021 62 10000 4.12 10 14:28 23.02.2021
2208 Clear 11 1021 62 10000 4.12 10 13:59 23.02.2021
2209 Clear 11 1021 62 10000 4.12 10 13:36 23.02.2021
2210 Clear 11 1020 66 10000 5.14 360 12:57 23.02.2021
2211 Clear 11 1020 66 10000 5.14 360 12:34 23.02.2021
2212 Clear 12 1019 58 10000 6.17 350 11:59 23.02.2021
2213 Clear 12 1019 58 10000 6.17 350 11:28 23.02.2021
2214 Clear 12 1018 58 10000 6.69 350 10:56 23.02.2021
2215 Clear 12 1018 58 10000 6.69 350 10:38 23.02.2021
2216 Clear 15 1018 47 10000 6.17 340 09:58 23.02.2021
2217 Clear 15 1018 47 10000 6.17 340 09:38 23.02.2021
2218 Clear 15 1018 47 10000 6.17 340 09:20 23.02.2021
2219 Clear 15 1018 47 10000 6.17 340 09:20 23.02.2021
2220 Clear 15 1018 55 10000 6.17 340 08:44 23.02.2021
2221 Clear 15 1018 55 10000 6.17 340 08:20 23.02.2021
2222 Clear 17 1018 36 10000 4.63 330 06:56 23.02.2021
2223 Clouds 15 1019 47 10000 4.12 250 05:25 23.02.2021
2224 Clouds 12 1020 51 10000 6.17 20 02:37 23.02.2021
2225 Clouds 12 1020 62 10000 6.69 20 01:55 23.02.2021
2226 Clouds 11 1019 87 10000 4.63 350 00:19 23.02.2021
2227 Clouds 10 1018 81 10000 3.09 350 23:28 22.02.2021
2228 Clouds 10 1018 81 10000 3.6 360 22:42 22.02.2021
2229 Clouds 12 1019 72 10000 3.84 3 22:22 22.02.2021
2230 Clouds 12 1019 72 10000 3.84 3 21:56 22.02.2021
2231 Clouds 14 1016 93 10000 1.79 150 21:38 22.02.2021
2232 Clouds 14 1016 93 10000 1.79 150 21:37 22.02.2021
2233 Clouds 14 1016 93 10000 1.79 150 21:19 22.02.2021
2234 Clouds 14 1016 93 10000 1.79 150 20:43 22.02.2021
2235 Clouds 14 1016 93 10000 1.79 150 20:23 22.02.2021
2236 Clouds 14 1016 93 10000 1.79 150 19:39 22.02.2021
2237 Clouds 14 1016 93 10000 1.79 150 19:21 22.02.2021
2238 Clouds 14 1016 93 10000 1.79 150 18:46 22.02.2021
2239 Clouds 14 1016 93 10000 1.79 150 18:28 22.02.2021
2240 Clouds 14 1016 93 10000 1.79 150 17:43 22.02.2021
2241 Clouds 14 1016 93 10000 1.79 150 17:18 22.02.2021
2242 Clouds 14 1016 93 10000 1.79 150 16:47 22.02.2021
2243 Clouds 14 1016 93 10000 1.79 150 16:25 22.02.2021
2244 Clouds 14 1016 93 10000 1.79 150 15:31 22.02.2021
2245 Clouds 14 1016 93 10000 1.79 150 14:49 22.02.2021
2246 Clouds 14 1016 94 10000 2.06 150 14:30 22.02.2021
2247 Clouds 15 1016 94 10000 2.06 150 13:51 22.02.2021
2248 Clouds 15 1016 94 10000 2.06 150 13:25 22.02.2021
2249 Clouds 16 1015 82 10000 2.57 170 12:44 22.02.2021
2250 Clouds 16 1015 82 10000 2.57 170 12:22 22.02.2021
2251 Clouds 16 1014 82 10000 2.06 170 11:45 22.02.2021
2252 Clouds 16 1014 82 10000 2.06 170 11:25 22.02.2021
2253 Clouds 17 1013 82 10000 3.6 190 10:50 22.02.2021
2254 Clouds 17 1013 82 10000 3.6 190 10:28 22.02.2021
2255 Clouds 18 1013 72 10000 1.03 0 09:50 22.02.2021
2256 Clouds 18 1013 72 10000 1.03 0 09:30 22.02.2021
2257 Clouds 19 1013 72 10000 6.17 220 08:57 22.02.2021
2258 Clouds 19 1013 72 10000 6.17 220 08:38 22.02.2021
2259 Clouds 19 1013 68 10000 7.2 210 07:58 22.02.2021
2260 Clouds 19 1013 68 10000 7.2 210 07:27 22.02.2021
2261 Clouds 19 1013 72 10000 5.66 220 06:46 22.02.2021
2262 Clouds 18 1014 72 10000 8.23 230 05:45 22.02.2021
2263 Clouds 19 1015 68 10000 6.69 230 03:29 22.02.2021
2264 Clouds 19 1015 72 10000 7.72 220 02:51 22.02.2021
2265 Clouds 13 1015 88 10000 4.12 130 00:46 22.02.2021
2266 Clouds 13 1015 88 10000 4.12 130 00:23 22.02.2021
2267 Clouds 14 1015 87 10000 4.12 140 23:33 21.02.2021
2268 Clear 15 1017 72 10000 2.68 180 22:54 21.02.2021
2269 Clear 15 1017 72 10000 2.68 180 22:24 21.02.2021
2270 Clear 15 1017 72 10000 2.68 180 21:45 21.02.2021
2271 Clear 15 1017 72 10000 2.68 180 21:27 21.02.2021
2272 Clear 15 1017 72 10000 2.68 180 20:44 21.02.2021
2273 Clear 15 1017 72 10000 2.68 180 20:20 21.02.2021
2274 Clear 15 1017 72 10000 2.68 180 19:53 21.02.2021
2275 Clear 15 1017 72 10000 2.68 180 19:33 21.02.2021
2276 Clear 15 1017 72 10000 2.68 180 18:52 21.02.2021
2277 Clear 15 1017 72 10000 2.68 180 18:26 21.02.2021
2278 Clear 15 1017 72 10000 2.68 180 18:26 21.02.2021
2279 Clear 15 1017 72 10000 2.68 180 17:30 21.02.2021
2280 Clear 15 1017 72 10000 2.68 180 16:59 21.02.2021
2281 Clear 15 1017 72 10000 2.68 180 16:39 21.02.2021
2282 Clear 15 1017 72 10000 2.68 180 16:20 21.02.2021
2283 Clear 15 1017 72 10000 2.68 180 15:23 21.02.2021
2284 Clear 15 1017 72 10000 2.68 180 14:54 21.02.2021
2285 Clouds 15 1017 72 10000 3.09 180 14:35 21.02.2021
2286 Clouds 15 1017 72 10000 3.09 180 13:48 21.02.2021
2287 Clouds 15 1017 72 10000 3.09 180 13:25 21.02.2021
2288 Clouds 16 1017 67 10000 4.12 200 12:32 21.02.2021
2289 Clouds 16 1017 67 10000 6.17 210 11:58 21.02.2021
2290 Clouds 16 1017 67 10000 6.17 210 11:40 21.02.2021
2291 Clouds 17 1017 67 10000 7.72 220 10:40 21.02.2021
2292 Clouds 17 1017 67 10000 7.72 220 10:21 21.02.2021
2293 Clouds 17 1017 67 10000 5.66 220 09:42 21.02.2021
2294 Clouds 17 1017 67 10000 5.66 220 09:23 21.02.2021
2295 Clouds 18 1017 63 10000 8.75 220 08:33 21.02.2021
2296 Clouds 19 1017 59 10000 8.75 220 07:44 21.02.2021
2297 Clouds 19 1017 59 10000 8.75 220 07:21 21.02.2021
2298 Clouds 19 1017 55 10000 7.72 220 05:28 21.02.2021
2299 Clouds 18 1017 63 10000 8.23 230 02:40 21.02.2021
2300 Clouds 16 1017 72 10000 5.66 200 00:55 21.02.2021
2301 Clouds 16 1017 72 10000 5.66 200 00:20 21.02.2021
2302 Clouds 15 1017 77 10000 4.63 200 23:31 20.02.2021
2303 Clear 15 1017 77 10000 4.47 200 22:54 20.02.2021
2304 Clear 15 1017 77 10000 4.47 200 22:31 20.02.2021
2305 Clear 15 1017 77 10000 4.47 200 21:47 20.02.2021
2306 Clear 15 1017 77 10000 4.47 200 21:27 20.02.2021
2307 Clear 15 1017 77 10000 4.47 200 20:54 20.02.2021
2308 Clear 15 1017 77 10000 4.47 200 20:35 20.02.2021
2309 Clear 15 1017 77 10000 4.47 200 19:59 20.02.2021
2310 Clear 15 1017 77 10000 4.47 200 19:36 20.02.2021
2311 Clear 15 1017 77 10000 4.47 200 18:47 20.02.2021
2312 Clear 15 1017 77 10000 4.47 200 18:27 20.02.2021
2313 Clear 15 1017 77 10000 4.47 200 17:43 20.02.2021
2314 Clear 15 1017 77 10000 4.47 200 17:25 20.02.2021
2315 Clear 15 1017 77 10000 4.47 200 16:44 20.02.2021
2316 Clear 15 1017 77 10000 4.47 200 16:22 20.02.2021
2317 Clear 15 1017 77 10000 4.47 200 15:38 20.02.2021
2318 Clear 15 1017 77 10000 4.47 200 14:50 20.02.2021
2319 Clouds 15 1017 77 10000 4.63 200 14:25 20.02.2021
2320 Clouds 15 1017 77 10000 4.63 200 13:53 20.02.2021
2321 Clouds 15 1017 77 10000 4.63 200 13:28 20.02.2021
2322 Clouds 15 1016 77 10000 6.17 220 12:53 20.02.2021
2323 Clouds 15 1016 77 10000 6.17 220 12:32 20.02.2021
2324 Clouds 15 1016 77 10000 6.17 210 11:48 20.02.2021
2325 Clouds 15 1016 77 10000 6.17 210 11:30 20.02.2021
2326 Clouds 16 1015 72 10000 8.23 220 10:50 20.02.2021
2327 Clouds 16 1015 72 10000 8.23 220 10:21 20.02.2021
2328 Clouds 16 1015 67 10000 10.29 220 09:41 20.02.2021
2329 Clouds 16 1014 67 10000 11.32 230 08:49 20.02.2021
2330 Clouds 16 1014 67 10000 11.32 230 08:22 20.02.2021
2331 Clouds 16 1017 59 10000 9.77 230 03:41 20.02.2021
2332 Clouds 15 1017 58 10000 8.75 220 02:31 20.02.2021
2333 Clouds 13 1017 71 10000 3.6 120 01:51 20.02.2021
2334 Clouds 9 1017 87 10000 4.63 130 00:48 20.02.2021
2335 Clouds 9 1017 87 10000 4.63 130 00:24 20.02.2021
2336 Clouds 7 1017 87 10000 4.12 120 23:19 19.02.2021
2337 Clear 7 1020 75 10000 3.58 140 22:37 19.02.2021
2338 Clear 7 1020 75 10000 3.58 140 22:19 19.02.2021
2339 Clear 7 1020 75 10000 3.58 140 21:36 19.02.2021
2340 Clear 7 1020 75 10000 3.58 140 20:58 19.02.2021
2341 Clear 7 1020 75 10000 3.58 140 20:40 19.02.2021
2342 Clear 7 1020 75 10000 3.58 140 20:22 19.02.2021
2343 Clear 7 1020 75 10000 3.58 140 19:41 19.02.2021
2344 Clear 7 1020 75 10000 3.58 140 19:19 19.02.2021
2345 Clear 7 1020 75 10000 3.58 140 18:42 19.02.2021
2346 Clear 7 1020 75 10000 3.58 140 18:23 19.02.2021
2347 Clear 7 1020 75 10000 3.58 140 17:24 19.02.2021
2348 Clear 7 1020 75 10000 3.58 140 16:40 19.02.2021
2349 Clear 7 1020 75 10000 3.58 140 16:21 19.02.2021
2350 Clear 7 1020 75 10000 3.58 140 15:49 19.02.2021
2351 Clear 7 1020 75 10000 3.58 140 15:27 19.02.2021
2352 Clear 7 1020 75 10000 3.58 140 14:44 19.02.2021
2353 Clouds 7 1020 76 10000 3.6 140 14:26 19.02.2021
2354 Clouds 7 1020 76 10000 3.6 140 13:53 19.02.2021
2355 Clouds 7 1020 76 10000 3.6 140 13:25 19.02.2021
2356 Clouds 7 1019 81 10000 3.6 140 12:52 19.02.2021
2357 Clouds 7 1019 81 10000 3.6 140 12:24 19.02.2021
2358 Clouds 7 1020 70 10000 2.06 250 11:53 19.02.2021
2359 Clouds 7 1020 70 10000 2.06 250 11:26 19.02.2021
2360 Clouds 9 1019 66 10000 5.66 250 10:54 19.02.2021
2361 Clouds 9 1019 66 10000 5.66 250 10:30 19.02.2021
2362 Clouds 10 1019 57 10000 4.63 250 09:51 19.02.2021
2363 Clouds 10 1019 57 10000 4.63 250 09:26 19.02.2021
2364 Clouds 11 1019 54 10000 1.03 0 08:54 19.02.2021
2365 Clouds 11 1019 54 10000 1.03 0 08:25 19.02.2021
2366 Clouds 10 1019 53 10000 1.03 0 07:49 19.02.2021
2367 Clouds 10 1019 53 10000 1.03 0 07:30 19.02.2021
2368 Clouds 10 1019 50 10000 2.06 0 06:54 19.02.2021
2369 Clouds 10 1020 53 10000 0.51 0 05:30 19.02.2021
2370 Clouds 9 1021 53 10000 0.51 0 04:41 19.02.2021
2371 Clouds 5 1022 65 10000 3.09 120 01:48 19.02.2021
2372 Clouds 3 1022 70 10000 3.6 130 00:37 19.02.2021
2373 Clouds 3 1021 75 10000 2.57 130 23:56 18.02.2021
2374 Clouds 3 1021 75 10000 2.57 130 23:35 18.02.2021
2375 Clouds 3 1021 70 10000 3.09 130 22:50 18.02.2021
2376 Clouds 3 1021 70 10000 3.09 130 22:30 18.02.2021
2377 Clouds 4 1020 60 10000 6.71 330 21:51 18.02.2021
2378 Clouds 4 1020 60 10000 6.71 330 21:25 18.02.2021
2379 Clouds 4 1020 60 10000 6.71 330 20:44 18.02.2021
2380 Clouds 4 1020 60 10000 6.71 330 20:24 18.02.2021
2381 Clouds 4 1020 60 10000 6.71 330 19:47 18.02.2021
2382 Clouds 4 1020 60 10000 6.71 330 19:28 18.02.2021
2383 Clouds 4 1020 60 10000 6.71 330 18:54 18.02.2021
2384 Clouds 4 1020 60 10000 6.71 330 18:31 18.02.2021
2385 Clouds 4 1020 60 10000 6.71 330 17:53 18.02.2021
2386 Clouds 4 1017 60 10000 6.71 330 17:28 18.02.2021
2387 Clouds 4 1017 60 10000 6.71 330 16:59 18.02.2021
2388 Clouds 4 1017 60 10000 6.71 330 16:40 18.02.2021
2389 Clouds 4 1017 60 10000 6.71 330 16:19 18.02.2021
2390 Clouds 4 1020 60 10000 6.71 330 15:38 18.02.2021
2391 Clouds 4 1020 60 10000 6.71 330 15:20 18.02.2021
2392 Clouds 4 1020 60 10000 6.71 330 14:48 18.02.2021
2393 Clouds 4 1020 60 10000 6.69 330 14:29 18.02.2021
2394 Clouds 3 1020 60 10000 6.69 330 13:45 18.02.2021
2395 Clouds 3 1020 60 10000 6.69 330 13:45 18.02.2021
2396 Clouds 3 1020 60 10000 6.69 330 13:18 18.02.2021
2397 Clouds 3 1020 65 10000 7.72 350 12:44 18.02.2021
2398 Clouds 3 1020 65 10000 7.72 350 12:22 18.02.2021
2399 Clouds 3 1019 70 10000 6.69 350 11:46 18.02.2021
2400 Clouds 3 1019 70 10000 6.69 350 11:25 18.02.2021
2401 Clouds 3 1019 70 10000 6.69 350 10:45 18.02.2021
2402 Clouds 3 1019 70 10000 6.69 350 10:27 18.02.2021
2403 Clouds 3 1018 65 10000 9.26 330 09:46 18.02.2021
2404 Clouds 3 1018 65 10000 9.26 330 09:24 18.02.2021
2405 Snow 4 1018 60 10000 12.35 310 08:41 18.02.2021
2406 Snow 4 1018 60 10000 12.35 310 08:23 18.02.2021
2407 Clouds 2 1018 65 10000 9.77 310 07:32 18.02.2021
2408 Clouds 2 1018 70 10000 10.8 300 06:50 18.02.2021
2409 Rain 0 1019 93 900 11.83 330 02:33 18.02.2021
2410 Snow 1 1018 80 9000 10.8 330 23:55 17.02.2021
2411 Snow 1 1018 80 9000 10.8 330 23:22 17.02.2021
2412 Snow 0 1018 86 5000 11.83 290 22:51 17.02.2021
2413 Snow 0 1018 86 5000 11.83 290 22:26 17.02.2021
2414 Snow 0 1017 87 3336 12.96 310 21:50 17.02.2021
2415 Snow 0 1017 87 2251 12.96 310 21:22 17.02.2021
2416 Snow 0 1017 87 2251 12.96 310 20:47 17.02.2021
2417 Snow 1 1018 87 2638 9.14 310 20:29 17.02.2021
2418 Snow 1 1018 87 2638 9.14 310 19:49 17.02.2021
2419 Snow 0 1017 87 2638 12.96 310 19:30 17.02.2021
2420 Snow 0 1017 90 3530 12.96 310 18:45 17.02.2021
2421 Snow 0 1017 90 10000 12.96 310 18:25 17.02.2021
2422 Snow 0 1017 90 10000 12.96 310 17:41 17.02.2021
2423 Snow 0 1017 90 10000 12.96 310 17:41 17.02.2021
2424 Snow 0 1017 87 8745 12.96 310 17:19 17.02.2021
2425 Snow 0 1017 87 8745 12.96 310 16:46 17.02.2021
2426 Snow 0 1017 88 10000 12.96 310 16:25 17.02.2021
2427 Snow 0 1017 88 10000 12.96 310 15:44 17.02.2021
2428 Snow 0 1017 86 7070 12.96 310 15:25 17.02.2021
2429 Snow 0 1017 74 6000 13.38 310 14:48 17.02.2021
2430 Snow 0 1017 74 6000 13.38 310 14:29 17.02.2021
2431 Snow 0 1017 74 6000 13.38 310 13:48 17.02.2021
2432 Snow -1 1017 86 3000 14.92 320 13:29 17.02.2021
2433 Snow 1 1017 80 6000 13.38 330 12:47 17.02.2021
2434 Snow 1 1017 80 6000 13.38 330 12:24 17.02.2021
2435 Snow 1 1016 80 4000 12.86 300 11:44 17.02.2021
2436 Snow 1 1016 80 4000 12.35 290 11:22 17.02.2021
2437 Snow 2 1016 69 6000 13.38 310 10:49 17.02.2021
2438 Snow 2 1016 69 6000 11.83 300 10:31 17.02.2021
2439 Snow 2 1015 80 6000 12.35 290 09:52 17.02.2021
2440 Snow 4 1015 60 10000 13.38 310 09:29 17.02.2021
2441 Snow 2 1015 87 6000 12.35 310 08:45 17.02.2021
2442 Snow 4 1015 65 3000 12.35 310 08:22 17.02.2021
2443 Clouds 5 1015 70 8000 12.35 310 07:34 17.02.2021
2444 Snow 1 1015 93 8000 9.26 320 06:35 17.02.2021
2445 Clouds 3 1017 60 10000 10.29 310 03:40 17.02.2021
2446 Rain 4 1017 56 10000 10.29 310 02:30 17.02.2021
2447 Clouds 2 1017 69 10000 11.83 300 01:30 17.02.2021
2448 Snow 3 1016 65 10000 12.35 310 00:24 17.02.2021
2449 Clouds 4 1016 60 10000 11.32 320 23:38 16.02.2021
2450 Snow 5 1015 56 10000 13.89 290 22:45 16.02.2021
2451 Clouds 5 1015 56 10000 13.89 290 22:26 16.02.2021
2452 Clouds 4 1017 75 7436 9.88 300 21:58 16.02.2021
2453 Clouds 4 1017 75 7436 9.88 300 21:39 16.02.2021
2454 Rain 4 1017 79 7990 9.4 307 21:20 16.02.2021
2455 Clouds 4 1017 79 7990 9.4 307 20:45 16.02.2021
2456 Clouds 4 1016 72 10000 8.73 308 20:21 16.02.2021
2457 Clouds 4 1016 72 10000 8.73 308 19:47 16.02.2021
2458 Clouds 5 1016 73 10000 9.49 313 19:27 16.02.2021
2459 Clouds 4 1016 74 10000 9.46 319 18:42 16.02.2021
2460 Clouds 5 1016 70 10000 10.16 318 18:23 16.02.2021
2461 Clouds 5 1016 70 10000 10.16 318 17:53 16.02.2021
2462 Clouds 6 1016 68 10000 10.73 318 17:27 16.02.2021
2463 Clouds 6 1016 68 10000 10.73 318 16:52 16.02.2021
2464 Rain 8 1013 76 10000 3.6 250 16:30 16.02.2021
2465 Rain 8 1013 76 10000 3.6 250 16:30 16.02.2021
2466 Rain 8 1013 76 10000 3.6 250 15:56 16.02.2021
2467 Rain 8 1013 76 10000 3.6 250 15:33 16.02.2021
2468 Clouds 7 1013 76 10000 3.6 240 14:58 16.02.2021
2469 Clouds 8 1014 76 10000 2.57 230 14:38 16.02.2021
2470 Clouds 8 1014 76 10000 2.57 230 14:19 16.02.2021
2471 Clouds 8 1014 76 10000 2.57 230 13:40 16.02.2021
2472 Clouds 8 1014 71 10000 5.66 260 12:53 16.02.2021
2473 Rain 8 1014 71 10000 5.66 260 12:30 16.02.2021
2474 Rain 8 1014 57 10000 3.6 260 11:58 16.02.2021
2475 Clouds 8 1014 57 10000 3.6 260 11:39 16.02.2021
2476 Clouds 8 1014 57 10000 3.6 260 11:19 16.02.2021
2477 Clouds 8 1015 53 10000 6.17 280 10:45 16.02.2021
2478 Clouds 8 1015 53 10000 6.17 280 10:27 16.02.2021
2479 Clouds 8 1014 57 10000 8.23 280 09:52 16.02.2021
2480 Clouds 8 1014 57 10000 8.23 280 09:26 16.02.2021
2481 Clouds 9 1014 49 10000 8.23 290 08:51 16.02.2021
2482 Clouds 9 1014 49 10000 8.23 290 08:28 16.02.2021
2483 Clouds 10 1014 46 10000 4.63 290 07:44 16.02.2021
2484 Clouds 9 1014 53 10000 4.12 350 06:49 16.02.2021
2485 Clouds 7 1017 57 10000 3.09 320 02:38 16.02.2021
2486 Clouds 5 1016 60 10000 7.2 330 23:52 15.02.2021
2487 Clouds 5 1016 60 10000 7.2 330 23:27 15.02.2021
2488 Clouds 5 1016 65 10000 6.69 330 22:47 15.02.2021
2489 Clouds 5 1016 65 10000 6.69 330 22:26 15.02.2021
2490 Clouds 7 1013 56 10000 8.49 300 21:43 15.02.2021
2491 Clear 7 1013 56 10000 8.49 300 21:24 15.02.2021
2492 Clear 7 1013 56 10000 8.49 300 20:53 15.02.2021
2493 Clear 7 1013 56 10000 8.49 300 20:35 15.02.2021
2494 Clear 7 1013 56 10000 8.49 300 19:50 15.02.2021
2495 Clear 7 1013 56 10000 8.49 300 19:50 15.02.2021
2496 Clear 7 1012 56 10000 8.49 300 19:25 15.02.2021
2497 Clear 7 1013 56 10000 8.49 300 18:51 15.02.2021
2498 Clear 7 1012 56 10000 8.49 300 18:27 15.02.2021
2499 Clear 7 1013 56 10000 8.49 300 17:51 15.02.2021
2500 Clear 7 1013 56 10000 8.49 300 17:28 15.02.2021
2501 Clear 7 1013 56 10000 8.49 300 16:59 15.02.2021
2502 Clear 7 1013 56 10000 8.49 300 16:37 15.02.2021
2503 Clear 7 1013 56 10000 8.49 300 16:18 15.02.2021
2504 Clear 7 1013 56 10000 8.49 300 15:41 15.02.2021
2505 Clear 7 1013 56 10000 8.49 300 15:18 15.02.2021
2506 Clear 7 1013 56 10000 8.49 300 14:43 15.02.2021
2507 Clouds 7 1013 57 10000 8.75 300 14:20 15.02.2021
2508 Clouds 7 1013 57 10000 8.75 300 13:48 15.02.2021
2509 Clouds 8 1013 57 10000 8.75 300 13:20 15.02.2021
2510 Clouds 9 1012 57 10000 7.2 300 12:45 15.02.2021
2511 Clouds 9 1012 57 10000 7.2 300 12:22 15.02.2021
2512 Clouds 9 1011 57 10000 7.2 290 11:50 15.02.2021
2513 Clouds 9 1011 57 10000 7.2 290 11:23 15.02.2021
2514 Clouds 10 1011 62 10000 10.29 300 10:50 15.02.2021
2515 Clouds 10 1011 62 10000 10.29 300 10:25 15.02.2021
2516 Clouds 11 1010 66 10000 11.32 290 09:56 15.02.2021
2517 Clouds 11 1010 66 10000 11.32 290 09:36 15.02.2021
2518 Clouds 12 1009 66 10000 12.86 280 08:57 15.02.2021
2519 Clouds 13 1008 67 10000 9.77 290 07:55 15.02.2021
2520 Clouds 13 1008 67 10000 9.26 310 06:59 15.02.2021
2521 Clouds 13 1008 67 10000 9.26 310 06:40 15.02.2021
2522 Clouds 15 1007 72 10000 9.26 300 02:34 15.02.2021
2523 Clouds 13 1007 82 10000 8.23 310 01:27 15.02.2021
2524 Clouds 12 1005 94 10000 4.63 330 23:58 14.02.2021
2525 Clouds 12 1005 94 10000 4.63 330 23:23 14.02.2021
2526 Clouds 12 1005 94 10000 5.66 330 22:40 14.02.2021
2527 Clouds 12 1005 94 10000 5.66 330 22:21 14.02.2021
2528 Clouds 13 1008 93 10000 5.49 324 21:48 14.02.2021
2529 Clouds 13 1008 93 10000 3.66 339 21:29 14.02.2021
2530 Clouds 13 1008 93 10000 3.66 339 20:46 14.02.2021
2531 Clouds 13 1008 93 10000 3.4 327 20:26 14.02.2021
2532 Clouds 13 1008 93 10000 3.4 327 19:47 14.02.2021
2533 Rain 13 1008 93 10000 2.87 321 18:52 14.02.2021
2534 Rain 13 1008 93 10000 2.87 321 18:34 14.02.2021
2535 Rain 13 1008 93 10000 1.36 5 17:56 14.02.2021
2536 Rain 13 1008 93 10000 1.36 5 17:35 14.02.2021
2537 Rain 13 1008 93 10000 4.29 48 16:52 14.02.2021
2538 Rain 13 1008 93 10000 3.65 15 16:27 14.02.2021
2539 Rain 13 1008 93 10000 3.65 15 15:49 14.02.2021
2540 Rain 13 1008 93 10000 3.65 15 15:30 14.02.2021
2541 Rain 13 1008 94 4000 1.03 0 14:48 14.02.2021
2542 Mist 13 1008 94 4000 1.03 0 14:27 14.02.2021
2543 Rain 13 1008 94 4000 1.03 0 13:48 14.02.2021
2544 Rain 13 1008 94 4000 1.03 100 13:27 14.02.2021
2545 Rain 13 1009 100 8000 3.6 310 12:38 14.02.2021
2546 Rain 13 1009 100 8000 3.6 310 12:18 14.02.2021
2547 Rain 13 1010 94 10000 0.51 0 11:47 14.02.2021
2548 Rain 13 1010 94 10000 0.51 0 11:20 14.02.2021
2549 Rain 13 1011 94 10000 0.51 0 10:34 14.02.2021
2550 Rain 13 1011 100 10000 2.57 320 09:54 14.02.2021
2551 Rain 13 1011 100 10000 2.57 320 09:36 14.02.2021
2552 Rain 13 1011 100 10000 2.57 320 09:18 14.02.2021
2553 Rain 15 1012 88 10000 2.57 350 08:25 14.02.2021
2554 Rain 15 1013 88 10000 2.06 10 07:48 14.02.2021
2555 Rain 15 1013 77 10000 1.54 20 06:37 14.02.2021
2556 Rain 14 1015 82 10000 3.6 340 04:35 14.02.2021
2557 Clear 13 1017 82 10000 3.09 130 02:50 14.02.2021
2558 Rain 11 1017 93 10000 1.54 80 01:29 14.02.2021
2559 Rain 10 1018 93 10000 1.03 230 00:42 14.02.2021
2560 Rain 9 1017 93 10000 1.54 120 23:58 13.02.2021
2561 Rain 9 1017 93 10000 1.54 120 23:25 13.02.2021
2562 Clouds 10 1017 93 10000 1.54 160 22:59 13.02.2021
2563 Clouds 10 1017 93 10000 1.54 160 22:26 13.02.2021
2564 Clouds 16 1020 63 10000 4.47 130 21:49 13.02.2021
2565 Clouds 16 1020 63 10000 4.47 130 21:27 13.02.2021
2566 Clouds 16 1020 63 10000 4.47 130 20:45 13.02.2021
2567 Clouds 16 1021 63 10000 4.47 130 20:26 13.02.2021
2568 Clouds 16 1021 63 10000 4.47 130 19:48 13.02.2021
2569 Clouds 16 1020 63 10000 4.47 130 19:24 13.02.2021
2570 Clouds 16 1020 63 10000 4.47 130 18:50 13.02.2021
2571 Clouds 16 1021 63 10000 4.47 130 18:27 13.02.2021
2572 Clouds 16 1021 63 10000 4.47 130 18:27 13.02.2021
2573 Clouds 16 1020 63 10000 4.47 130 17:44 13.02.2021
2574 Clouds 16 1020 63 10000 4.47 130 17:25 13.02.2021
2575 Clouds 16 1020 63 10000 4.47 130 16:52 13.02.2021
2576 Clouds 16 1020 63 10000 4.47 130 16:31 13.02.2021
2577 Clouds 16 1020 63 10000 4.47 130 15:43 13.02.2021
2578 Clouds 16 1020 63 10000 4.47 130 15:24 13.02.2021
2579 Clouds 17 1020 59 10000 2.68 140 14:40 13.02.2021
2580 Clouds 16 1020 63 10000 4.63 130 13:49 13.02.2021
2581 Clouds 16 1020 63 10000 4.63 130 13:27 13.02.2021
2582 Clouds 17 1020 59 10000 3.09 140 12:52 13.02.2021
2583 Clouds 17 1020 59 10000 3.09 140 12:21 13.02.2021
2584 Clouds 17 1020 63 10000 3.6 130 11:55 13.02.2021
2585 Clouds 17 1020 63 10000 3.6 130 11:22 13.02.2021
2586 Clouds 17 1020 63 10000 1.54 80 10:58 13.02.2021
2587 Clouds 17 1020 63 10000 1.54 80 10:40 13.02.2021
2588 Clouds 17 1020 63 10000 1.54 80 10:21 13.02.2021
2589 Clouds 19 1020 52 10000 1.54 90 09:45 13.02.2021
2590 Clouds 19 1020 52 10000 1.54 90 09:22 13.02.2021
2591 Clouds 20 1019 52 10000 2.06 320 08:42 13.02.2021
2592 Clouds 20 1020 49 10000 1.03 0 07:56 13.02.2021
2593 Clouds 19 1020 52 10000 1.54 240 06:44 13.02.2021
2594 Clouds 19 1020 52 10000 1.54 240 06:19 13.02.2021
2595 Clouds 18 1022 48 10000 1.54 240 04:26 13.02.2021
2596 Clouds 14 1023 58 10000 2.06 250 02:25 13.02.2021
2597 Clear 10 1023 93 10000 0.51 0 00:52 13.02.2021
2598 Clear 9 1023 93 10000 1.54 110 23:55 12.02.2021
2599 Clear 9 1023 93 10000 1.54 110 23:32 12.02.2021
2600 Clouds 10 1023 81 10000 1.54 220 22:59 12.02.2021
2601 Clouds 10 1023 81 10000 1.54 220 22:30 12.02.2021
2602 Clouds 12 1023 54 10000 1.76 63 21:53 12.02.2021
2603 Clouds 12 1023 54 10000 1.76 63 21:34 12.02.2021
2604 Clouds 12 1023 54 10000 2.28 40 20:57 12.02.2021
2605 Clouds 12 1023 54 10000 2.28 40 20:38 12.02.2021
2606 Clouds 12 1023 54 10000 2.38 42 20:19 12.02.2021
2607 Clouds 12 1023 54 10000 2.38 42 19:47 12.02.2021
2608 Clouds 12 1023 54 10000 2.83 42 19:25 12.02.2021
2609 Clouds 12 1023 54 10000 2.42 57 18:30 12.02.2021
2610 Clouds 12 1023 54 10000 2.33 62 17:49 12.02.2021
2611 Clouds 12 1023 54 10000 2.47 55 17:29 12.02.2021
2612 Clouds 12 1023 54 10000 2.47 55 16:39 12.02.2021
2613 Clouds 12 1023 54 10000 2.51 61 15:47 12.02.2021
2614 Clouds 12 1023 54 10000 2.44 44 15:21 12.02.2021
2615 Clouds 12 1023 54 10000 2.44 44 14:53 12.02.2021
2616 Clear 12 1023 54 10000 2.44 44 14:30 12.02.2021
2617 Clear 12 1023 54 10000 2.44 44 14:30 12.02.2021
2618 Clear 12 1023 54 10000 2.34 51 13:41 12.02.2021
2619 Clear 12 1023 54 10000 2.3 57 13:22 12.02.2021
2620 Clear 11 1022 66 10000 1.03 0 12:49 12.02.2021
2621 Rain 11 1022 66 10000 1.03 0 12:31 12.02.2021
2622 Clear 11 1022 58 10000 0.51 240 11:43 12.02.2021
2623 Clear 11 1022 58 10000 0.51 240 11:20 12.02.2021
2624 Clear 12 1022 58 10000 2.06 10 10:46 12.02.2021
2625 Clear 13 1022 54 10000 1.03 280 09:52 12.02.2021
2626 Clear 13 1022 54 10000 1.03 280 09:29 12.02.2021
2627 Clear 14 1021 47 10000 1.03 220 08:51 12.02.2021
2628 Clear 14 1021 47 10000 1.03 220 08:29 12.02.2021
2629 Clear 14 1021 47 10000 1.03 220 08:29 12.02.2021
2630 Clear 14 1021 44 10000 1.54 290 07:58 12.02.2021
2631 Rain 14 1021 44 10000 1.54 290 07:35 12.02.2021
2632 Clear 13 1021 47 10000 1.03 0 06:55 12.02.2021
2633 Clear 13 1022 50 10000 1.03 210 05:49 12.02.2021
2634 Clear 13 1022 50 10000 1.03 210 05:23 12.02.2021
2635 Clear 13 1022 50 10000 1.03 210 05:23 12.02.2021
2636 Clouds 10 1022 71 10000 1.03 0 01:56 12.02.2021
2637 Clouds 8 1022 81 10000 3.09 130 23:44 11.02.2021
2638 Clouds 8 1022 81 10000 3.09 130 23:22 11.02.2021
2639 Clouds 9 1022 76 10000 3.6 140 22:58 11.02.2021
2640 Clouds 9 1022 76 10000 3.6 140 22:39 11.02.2021
2641 Clouds 9 1022 76 10000 3.6 140 22:20 11.02.2021
2642 Rain 9 1022 81 10000 0.89 190 21:39 11.02.2021
2643 Clouds 9 1022 81 10000 0.89 190 21:19 11.02.2021
2644 Clouds 9 1022 81 10000 0.89 190 20:46 11.02.2021
2645 Rain 9 1022 81 10000 0.89 190 20:22 11.02.2021
2646 Clouds 9 1022 81 10000 0.89 190 19:48 11.02.2021
2647 Rain 9 1022 81 10000 0.89 190 19:29 11.02.2021
2648 Clouds 9 1022 81 10000 0.89 190 18:55 11.02.2021
2649 Clouds 9 1022 81 10000 0.89 190 18:29 11.02.2021
2650 Clouds 9 1022 81 10000 0.89 190 17:54 11.02.2021
2651 Clouds 9 1022 81 10000 0.89 190 17:22 11.02.2021
2652 Clouds 9 1022 81 10000 0.89 190 17:22 11.02.2021
2653 Clouds 9 1022 81 10000 0.89 190 16:58 11.02.2021
2654 Clouds 9 1022 81 10000 0.89 190 16:40 11.02.2021
2655 Clouds 9 1022 81 10000 0.89 190 16:21 11.02.2021
2656 Clouds 9 1022 81 10000 0.89 190 15:42 11.02.2021
2657 Clouds 9 1022 81 10000 0.89 190 15:24 11.02.2021
2658 Clouds 9 1022 81 10000 0.89 190 14:44 11.02.2021
2659 Clear 9 1022 81 10000 1.03 190 14:25 11.02.2021
2660 Clear 9 1022 81 10000 1.03 190 13:41 11.02.2021
2661 Clear 9 1022 81 10000 1.03 190 13:19 11.02.2021
2662 Rain 9 1022 81 10000 2.06 70 12:47 11.02.2021
2663 Clear 9 1022 81 10000 2.06 70 12:23 11.02.2021
2664 Clear 11 1022 62 10000 3.09 310 11:45 11.02.2021
2665 Clear 11 1022 62 10000 3.09 310 11:21 11.02.2021
2666 Clear 10 1021 66 10000 2.06 340 10:44 11.02.2021
2667 Clear 10 1021 66 10000 2.06 340 10:25 11.02.2021
2668 Clear 12 1021 54 10000 3.6 10 09:53 11.02.2021
2669 Clear 12 1021 54 10000 3.6 10 09:19 11.02.2021
2670 Clear 12 1021 58 10000 2.57 10 08:50 11.02.2021
2671 Clear 12 1021 58 10000 2.57 10 08:18 11.02.2021
2672 Clear 12 1022 54 10000 2.06 260 06:51 11.02.2021
2673 Clear 12 1022 54 10000 2.06 260 06:32 11.02.2021
2674 Clear 10 1024 62 10000 0.51 0 03:54 11.02.2021
2675 Clear 8 1024 71 10000 1.03 0 02:28 11.02.2021
2676 Clear 6 1024 81 10000 1.03 0 00:46 11.02.2021
2677 Clear 6 1024 81 10000 1.03 0 00:18 11.02.2021
2678 Clear 6 1024 75 10000 1.54 110 23:35 10.02.2021
2679 Clouds 5 1024 81 10000 1.03 0 22:49 10.02.2021
2680 Clouds 5 1024 81 10000 1.03 0 22:26 10.02.2021
2681 Clouds 6 1024 70 10000 2.83 48 21:41 10.02.2021
2682 Clouds 6 1024 70 10000 1.96 41 21:22 10.02.2021
2683 Clouds 6 1024 70 10000 1.96 41 20:59 10.02.2021
2684 Clouds 6 1024 70 10000 1.96 41 20:39 10.02.2021
2685 Clouds 6 1024 70 10000 1.65 57 20:19 10.02.2021
2686 Clouds 6 1024 70 10000 1.65 57 19:43 10.02.2021
2687 Clouds 6 1024 70 10000 2.66 38 19:21 10.02.2021
2688 Clouds 6 1024 70 10000 2.81 29 18:39 10.02.2021
2689 Clouds 6 1024 70 10000 2.18 9 18:18 10.02.2021
2690 Clouds 6 1024 70 10000 2.18 9 17:49 10.02.2021
2691 Clouds 6 1024 70 10000 2.01 1 17:22 10.02.2021
2692 Clouds 6 1024 70 10000 2.01 1 16:50 10.02.2021
2693 Clouds 6 1024 70 10000 1.94 346 16:29 10.02.2021
2694 Clouds 6 1024 70 10000 1.94 346 15:44 10.02.2021
2695 Clouds 6 1024 70 10000 2.32 343 15:21 10.02.2021
2696 Clouds 6 1024 70 10000 2.32 343 14:41 10.02.2021
2697 Clear 6 1024 70 10000 1.03 0 14:18 10.02.2021
2698 Clear 6 1024 70 10000 1.03 0 13:40 10.02.2021
2699 Clear 6 1024 70 10000 1.03 0 13:21 10.02.2021
2700 Clear 9 1024 61 10000 3.09 340 12:44 10.02.2021
2701 Clear 9 1024 61 10000 3.09 340 12:26 10.02.2021
2702 Clear 10 1023 57 10000 4.12 310 11:41 10.02.2021
2703 Clear 10 1023 57 10000 4.12 310 11:23 10.02.2021
2704 Clear 10 1023 57 10000 3.6 300 10:43 10.02.2021
2705 Clear 10 1023 57 10000 3.6 300 10:19 10.02.2021
2706 Clear 12 1022 43 10000 4.12 310 09:43 10.02.2021
2707 Clear 12 1022 43 10000 4.12 310 09:21 10.02.2021
2708 Clear 12 1022 54 10000 3.6 350 08:43 10.02.2021
2709 Clear 13 1022 50 10000 3.6 10 07:55 10.02.2021
2710 Clear 13 1022 50 10000 3.6 10 07:18 10.02.2021
2711 Clouds 9 1025 57 10000 2.06 20 03:45 10.02.2021
2712 Clouds 4 1025 81 10000 3.6 140 00:51 10.02.2021
2713 Clear 2 1025 93 10000 3.6 130 23:36 09.02.2021
2714 Clouds 1 1024 86 10000 2.06 120 22:55 09.02.2021
2715 Clouds 1 1024 86 10000 2.06 120 22:25 09.02.2021
2716 Clouds 5 1026 65 10000 1.34 360 21:53 09.02.2021
2717 Clouds 5 1026 65 10000 1.34 360 21:34 09.02.2021
2718 Clouds 5 1026 65 10000 1.34 360 20:50 09.02.2021
2719 Clouds 5 1026 65 10000 1.34 360 20:27 09.02.2021
2720 Clouds 5 1026 65 10000 1.34 360 19:59 09.02.2021
2721 Clouds 5 1026 65 10000 1.34 360 19:39 09.02.2021
2722 Clouds 5 1026 65 10000 1.34 360 19:00 09.02.2021
2723 Clear 5 1026 65 10000 1.34 360 18:39 09.02.2021
2724 Clear 5 1026 65 10000 1.34 360 17:58 09.02.2021
2725 Clear 5 1026 65 10000 1.34 360 17:40 09.02.2021
2726 Clear 5 1026 65 10000 1.34 360 17:21 09.02.2021
2727 Clear 5 1026 65 10000 1.34 360 16:42 09.02.2021
2728 Clear 5 1026 65 10000 1.34 360 16:19 09.02.2021
2729 Clear 5 1026 65 10000 1.34 360 15:50 09.02.2021
2730 Clear 5 1026 65 10000 1.34 360 15:26 09.02.2021
2731 Clear 5 1026 65 10000 1.34 360 14:55 09.02.2021
2732 Clear 5 1026 65 10000 1.54 360 14:28 09.02.2021
2733 Clear 5 1026 65 10000 1.54 360 13:52 09.02.2021
2734 Clear 5 1026 65 10000 1.54 360 13:26 09.02.2021
2735 Clear 5 1025 60 10000 4.12 350 12:54 09.02.2021
2736 Clear 5 1025 60 10000 4.12 350 12:36 09.02.2021
2737 Clear 7 1025 57 10000 5.66 350 11:57 09.02.2021
2738 Clear 7 1025 57 10000 5.66 350 11:38 09.02.2021
2739 Clear 7 1025 57 10000 5.66 350 11:20 09.02.2021
2740 Clear 7 1025 57 10000 5.66 350 11:20 09.02.2021
2741 Clear 8 1025 49 10000 6.69 310 10:43 09.02.2021
2742 Clear 8 1025 49 10000 6.69 310 10:18 09.02.2021
2743 Clear 9 1024 49 10000 7.2 320 09:42 09.02.2021
2744 Clear 9 1024 49 10000 7.2 320 09:24 09.02.2021
2745 Clear 10 1024 43 10000 6.17 310 08:44 09.02.2021
2746 Clear 10 1024 43 10000 6.17 310 08:25 09.02.2021
2747 Clear 11 1024 35 10000 5.14 310 06:20 09.02.2021
2748 Clear 8 1026 49 10000 3.09 290 04:18 09.02.2021
2749 Clouds 7 1027 49 10000 3.6 320 03:34 09.02.2021
2750 Clouds 4 1027 56 10000 4.63 40 00:33 09.02.2021
2751 Clouds 3 1026 60 10000 4.12 30 23:57 08.02.2021
2752 Clouds 3 1026 60 10000 4.12 30 23:21 08.02.2021
2753 Clouds 3 1025 56 10000 4.63 30 22:44 08.02.2021
2754 Clouds 3 1025 56 10000 4.63 30 22:24 08.02.2021
2755 Clouds 3 1025 56 10000 4.63 30 22:24 08.02.2021
2756 Clear 4 1026 70 10000 3.57 6 21:55 08.02.2021
2757 Clear 6 1024 60 10000 4.47 340 21:32 08.02.2021
2758 Clear 6 1024 60 10000 4.47 340 20:59 08.02.2021
2759 Clear 6 1024 60 10000 4.47 340 20:39 08.02.2021
2760 Clear 6 1024 60 10000 4.47 340 20:20 08.02.2021
2761 Clear 6 1024 60 10000 4.47 340 19:42 08.02.2021
2762 Clear 6 1024 60 10000 4.47 340 19:22 08.02.2021
2763 Clear 6 1024 60 10000 4.47 340 18:48 08.02.2021
2764 Clear 6 1024 60 10000 4.47 340 18:23 08.02.2021
2765 Clear 6 1024 60 10000 4.47 340 17:45 08.02.2021
2766 Clear 6 1024 60 10000 4.47 340 17:25 08.02.2021
2767 Clear 6 1024 60 10000 4.47 340 16:44 08.02.2021
2768 Clear 6 1024 60 10000 4.47 340 16:21 08.02.2021
2769 Clear 6 1024 60 10000 4.47 340 15:43 08.02.2021
2770 Clear 6 1024 60 10000 4.47 340 15:20 08.02.2021
2771 Clear 6 1024 60 10000 4.47 340 14:52 08.02.2021
2772 Clear 6 1024 60 10000 4.47 340 14:52 08.02.2021
2773 Clouds 6 1024 61 10000 4.63 340 14:32 08.02.2021
2774 Clouds 6 1024 61 10000 4.63 340 13:57 08.02.2021
2775 Clouds 6 1024 61 10000 4.63 340 13:33 08.02.2021
2776 Clouds 6 1024 61 10000 6.69 330 12:55 08.02.2021
2777 Clouds 6 1024 61 10000 6.69 330 12:37 08.02.2021
2778 Clouds 6 1023 61 10000 8.23 330 11:49 08.02.2021
2779 Clouds 6 1023 61 10000 8.23 330 11:22 08.02.2021
2780 Clouds 7 1023 61 10000 9.26 320 10:45 08.02.2021
2781 Clouds 7 1023 61 10000 9.26 320 10:24 08.02.2021
2782 Clouds 8 1022 49 10000 8.75 310 09:53 08.02.2021
2783 Clouds 8 1022 49 10000 8.75 310 09:35 08.02.2021
2784 Clouds 10 1022 43 10000 9.77 310 08:46 08.02.2021
2785 Clouds 10 1022 43 10000 9.77 310 08:20 08.02.2021
2786 Clouds 10 1022 37 10000 9.26 310 07:22 08.02.2021
2787 Clouds 12 1021 35 10000 8.75 310 05:59 08.02.2021
2788 Clouds 11 1022 46 10000 7.72 320 02:29 08.02.2021
2789 Clouds 10 1021 53 10000 7.2 330 01:18 08.02.2021
2790 Clouds 9 1021 53 10000 9.26 320 00:21 08.02.2021
2791 Clouds 9 1020 57 10000 7.2 300 23:48 07.02.2021
2792 Clouds 8 1020 57 10000 7.2 300 23:20 07.02.2021
2793 Clouds 8 1019 81 10000 5.14 320 22:45 07.02.2021
2794 Clouds 8 1019 81 10000 5.14 320 22:26 07.02.2021
2795 Clouds 9 1020 93 10000 2.24 80 21:53 07.02.2021
2796 Clouds 9 1020 93 10000 2.24 80 21:28 07.02.2021
2797 Clouds 9 1020 93 10000 2.24 80 20:54 07.02.2021
2798 Clouds 9 1020 93 10000 2.24 80 20:34 07.02.2021
2799 Clear 9 1020 93 10000 2.24 80 19:55 07.02.2021
2800 Clear 9 1020 93 10000 2.24 80 19:31 07.02.2021
2801 Clouds 9 1020 93 10000 2.24 80 18:56 07.02.2021
2802 Clouds 9 1020 93 10000 2.24 80 18:36 07.02.2021
2803 Clouds 9 1020 93 10000 2.24 80 18:36 07.02.2021
2804 Clouds 9 1020 93 10000 2.24 80 18:18 07.02.2021
2805 Clouds 9 1020 93 10000 2.24 80 17:44 07.02.2021
2806 Clear 9 1020 93 10000 2.24 80 17:20 07.02.2021
2807 Clear 9 1020 93 10000 2.24 80 17:20 07.02.2021
2808 Clear 9 1020 93 10000 2.24 80 16:47 07.02.2021
2809 Clear 9 1020 93 10000 2.24 80 16:27 07.02.2021
2810 Clear 9 1020 93 10000 2.24 80 15:55 07.02.2021
2811 Clear 9 1020 93 10000 2.24 80 15:37 07.02.2021
2812 Clear 9 1020 93 10000 2.24 80 15:18 07.02.2021
2813 Clouds 9 1020 93 6000 2.57 80 14:39 07.02.2021
2814 Clouds 9 1020 93 6000 2.57 80 14:19 07.02.2021
2815 Clouds 9 1020 93 6000 2.57 80 13:36 07.02.2021
2816 Clear 10 1020 81 6000 1.03 0 12:57 07.02.2021
2817 Clear 10 1020 81 6000 1.03 0 12:37 07.02.2021
2818 Clear 10 1020 81 6000 1.03 0 12:18 07.02.2021
2819 Clear 11 1019 76 6000 4.12 290 11:28 07.02.2021
2820 Clouds 12 1018 71 8000 5.14 310 10:57 07.02.2021
2821 Clouds 12 1018 71 8000 5.14 310 10:27 07.02.2021
2822 Clouds 14 1018 62 8000 3.09 320 09:50 07.02.2021
2823 Clouds 14 1018 62 8000 3.09 320 09:25 07.02.2021
2824 Clouds 15 1018 63 8000 5.66 330 08:38 07.02.2021
2825 Clouds 15 1017 58 8000 3.09 320 07:47 07.02.2021
2826 Clouds 14 1018 63 8000 2.06 360 05:58 07.02.2021
2827 Clouds 12 1020 76 10000 2.06 30 03:59 07.02.2021
2828 Clouds 9 1019 87 10000 1.54 40 01:51 07.02.2021
2829 Clouds 8 1019 93 10000 1.54 120 00:36 07.02.2021
2830 Clouds 7 1018 93 10000 3.09 140 23:48 06.02.2021
2831 Clouds 7 1018 100 10000 0.51 0 22:50 06.02.2021
2832 Clouds 8 1017 93 10000 1.79 180 21:45 06.02.2021
2833 Clouds 8 1017 93 10000 1.79 180 21:24 06.02.2021
2834 Clouds 8 1017 93 10000 1.79 180 20:53 06.02.2021
2835 Clouds 8 1017 93 10000 1.79 180 20:26 06.02.2021
2836 Clouds 8 1017 93 10000 1.79 180 19:59 06.02.2021
2837 Clear 8 1017 93 10000 1.79 180 19:35 06.02.2021
2838 Clear 8 1017 93 10000 1.79 180 18:59 06.02.2021
2839 Clear 8 1017 93 10000 1.79 180 18:41 06.02.2021
2840 Clear 8 1017 93 10000 1.79 180 18:20 06.02.2021
2841 Clear 8 1017 93 10000 1.79 180 17:40 06.02.2021
2842 Clear 8 1017 93 10000 1.79 180 17:20 06.02.2021
2843 Clear 8 1017 93 10000 1.79 180 16:42 06.02.2021
2844 Clear 8 1017 93 10000 1.79 180 16:24 06.02.2021
2845 Clear 8 1017 93 10000 1.79 180 15:50 06.02.2021
2846 Clear 8 1017 93 10000 1.79 180 15:29 06.02.2021
2847 Clear 8 1017 93 10000 1.79 180 14:47 06.02.2021
2848 Clouds 8 1017 93 10000 2.06 180 14:28 06.02.2021
2849 Clouds 8 1017 93 10000 2.06 180 13:53 06.02.2021
2850 Clouds 8 1017 93 10000 2.06 180 13:35 06.02.2021
2851 Clouds 10 1017 81 10000 2.06 80 12:23 06.02.2021
2852 Clouds 10 1017 81 10000 1.54 30 11:57 06.02.2021
2853 Clouds 10 1017 81 10000 1.54 30 11:38 06.02.2021
2854 Clouds 10 1017 81 10000 1.54 30 11:19 06.02.2021
2855 Clouds 12 1017 76 10000 3.09 300 10:44 06.02.2021
2856 Clouds 12 1017 76 10000 3.09 300 10:24 06.02.2021
2857 Clouds 14 1016 67 10000 2.57 320 09:37 06.02.2021
2858 Clouds 14 1016 67 10000 2.57 320 09:18 06.02.2021
2859 Clouds 14 1016 67 10000 2.06 360 08:49 06.02.2021
2860 Clouds 14 1016 67 10000 2.06 360 08:28 06.02.2021
2861 Clouds 13 1016 67 10000 2.06 290 06:40 06.02.2021
2862 Clouds 12 1017 76 10000 1.54 300 04:45 06.02.2021
2863 Clouds 10 1017 87 10000 1.54 0 02:39 06.02.2021
2864 Clouds 8 1017 93 10000 1.03 120 00:49 06.02.2021
2865 Clouds 8 1017 93 10000 1.03 120 00:21 06.02.2021
2866 Clouds 7 1017 93 10000 0.51 0 23:50 05.02.2021
2867 Clouds 7 1017 93 10000 0.51 0 23:27 05.02.2021
2868 Clouds 8 1017 93 10000 3.09 350 22:48 05.02.2021
2869 Clouds 8 1017 93 10000 3.09 350 22:24 05.02.2021
2870 Clouds 9 1020 81 10000 2.68 150 21:51 05.02.2021
2871 Clouds 9 1020 81 10000 2.68 150 21:29 05.02.2021
2872 Rain 9 1020 81 10000 2.68 150 20:48 05.02.2021
2873 Rain 9 1020 81 10000 2.68 150 19:53 05.02.2021
2874 Rain 9 1020 81 10000 2.68 150 19:22 05.02.2021
2875 Rain 9 1020 81 10000 2.68 150 19:22 05.02.2021
2876 Rain 9 1020 81 10000 2.68 150 18:54 05.02.2021
2877 Rain 9 1020 81 10000 2.68 150 18:28 05.02.2021
2878 Rain 9 1020 81 10000 2.68 150 17:47 05.02.2021
2879 Rain 9 1020 81 10000 2.68 150 17:27 05.02.2021
2880 Rain 9 1020 81 10000 2.68 150 16:51 05.02.2021
2881 Rain 9 1020 81 10000 2.68 150 16:28 05.02.2021
2882 Rain 9 1020 81 10000 2.68 150 15:58 05.02.2021
2883 Rain 9 1020 81 10000 2.68 150 15:27 05.02.2021
2884 Rain 9 1020 81 10000 2.68 150 14:55 05.02.2021
2885 Rain 9 1020 81 10000 3.09 150 14:36 05.02.2021
2886 Rain 9 1020 81 10000 3.09 150 14:18 05.02.2021
2887 Rain 9 1020 81 10000 3.09 150 14:18 05.02.2021
2888 Rain 9 1020 81 10000 3.09 150 13:39 05.02.2021
2889 Rain 9 1020 81 10000 3.09 150 13:18 05.02.2021
2890 Rain 9 1020 76 10000 3.09 130 12:40 05.02.2021
2891 Rain 9 1020 76 10000 2.57 120 11:58 05.02.2021
2892 Rain 9 1020 76 10000 2.57 120 11:37 05.02.2021
2893 Rain 9 1020 76 10000 2.57 120 11:18 05.02.2021
2894 Rain 9 1020 76 10000 2.06 140 10:41 05.02.2021
2895 Clouds 9 1020 76 10000 2.06 140 10:21 05.02.2021
2896 Clouds 10 1020 71 10000 3.09 150 09:41 05.02.2021
2897 Clouds 10 1020 71 10000 3.09 150 09:21 05.02.2021
2898 Clouds 10 1021 71 10000 2.06 120 08:36 05.02.2021
2899 Clouds 10 1021 71 10000 2.06 110 07:39 05.02.2021
2900 Clouds 10 1021 58 10000 2.06 170 06:58 05.02.2021
2901 Clouds 10 1021 62 10000 1.54 40 05:40 05.02.2021
2902 Clouds 9 1023 66 10000 2.57 130 04:50 05.02.2021
2903 Clouds 7 1024 81 10000 3.09 130 02:25 05.02.2021
2904 Clouds 4 1024 93 10000 3.6 100 00:41 05.02.2021
2905 Clouds 4 1024 93 10000 3.6 100 00:21 05.02.2021
2906 Clouds 4 1024 87 10000 3.6 140 23:59 04.02.2021
2907 Clouds 4 1024 87 10000 3.6 140 23:40 04.02.2021
2908 Clouds 4 1024 87 10000 3.6 140 23:21 04.02.2021
2909 Clouds 2 1024 87 10000 1.54 140 22:52 04.02.2021
2910 Clouds 2 1024 87 10000 1.54 140 22:28 04.02.2021
2911 Clouds 6 1025 70 10000 2.24 350 21:42 04.02.2021
2912 Clouds 6 1025 70 10000 2.24 350 21:22 04.02.2021
2913 Clouds 6 1025 70 10000 2.24 350 20:53 04.02.2021
2914 Clouds 6 1025 70 10000 2.24 350 20:34 04.02.2021
2915 Clouds 6 1025 70 10000 2.24 350 19:47 04.02.2021
2916 Clouds 6 1025 70 10000 2.24 350 18:59 04.02.2021
2917 Clouds 6 1025 70 10000 2.24 350 18:36 04.02.2021
2918 Clear 6 1025 70 10000 2.24 350 18:18 04.02.2021
2919 Clear 6 1025 70 10000 2.24 350 17:41 04.02.2021
2920 Clear 6 1025 70 10000 2.24 350 17:20 04.02.2021
2921 Clear 6 1025 70 10000 2.24 350 16:41 04.02.2021
2922 Clear 6 1025 70 10000 2.24 350 16:19 04.02.2021
2923 Clear 6 1025 70 10000 2.24 350 15:40 04.02.2021
2924 Clear 6 1025 70 10000 2.24 350 15:21 04.02.2021
2925 Clear 6 1025 70 10000 2.24 350 14:49 04.02.2021
2926 Clear 6 1025 70 10000 2.57 350 14:21 04.02.2021
2927 Clear 6 1025 70 10000 2.57 350 13:48 04.02.2021
2928 Clear 6 1025 70 10000 2.57 350 13:28 04.02.2021
2929 Clear 7 1024 61 10000 4.12 350 12:54 04.02.2021
2930 Clear 8 1024 57 10000 6.17 310 11:57 04.02.2021
2931 Clear 8 1024 57 10000 6.17 310 11:37 04.02.2021
2932 Clear 8 1024 57 10000 6.17 310 11:18 04.02.2021
2933 Clear 9 1024 49 10000 6.69 290 10:35 04.02.2021
2934 Clouds 10 1024 43 10000 5.66 330 09:46 04.02.2021
2935 Clouds 10 1024 43 10000 5.66 330 09:23 04.02.2021
2936 Clear 11 1024 43 10000 6.69 330 08:57 04.02.2021
2937 Clear 11 1024 43 10000 6.69 330 08:26 04.02.2021
2938 Clouds 12 1023 47 10000 5.66 340 07:57 04.02.2021
2939 Clouds 12 1023 47 10000 5.66 340 07:34 04.02.2021
2940 Clouds 12 1024 50 10000 5.66 320 06:52 04.02.2021
2941 Clouds 12 1024 50 10000 5.66 320 06:34 04.02.2021
2942 Rain 8 1025 87 8000 3.09 60 02:40 04.02.2021
2943 Clouds 8 1025 87 8000 3.09 60 02:21 04.02.2021
2944 Clouds 7 1024 76 10000 5.66 120 00:29 04.02.2021
2945 Clouds 5 1024 81 10000 3.6 130 23:34 03.02.2021
2946 Clouds 5 1024 70 10000 2.57 150 22:40 03.02.2021
2947 Clouds 9 1024 67 10000 4.31 276 22:21 03.02.2021
2948 Clouds 9 1024 67 10000 4.31 276 22:21 03.02.2021
2949 Clouds 9 1024 67 10000 4.31 276 21:51 03.02.2021
2950 Clouds 7 1024 67 10000 3.39 271 21:24 03.02.2021
2951 Clouds 7 1024 67 10000 3.39 271 20:54 03.02.2021
2952 Clouds 7 1024 67 10000 3.39 271 20:35 03.02.2021
2953 Clear 3 1025 74 10000 2.24 80 19:55 03.02.2021
2954 Clear 3 1025 74 10000 2.24 80 19:27 03.02.2021
2955 Clear 3 1025 74 10000 2.24 80 18:58 03.02.2021
2956 Clear 3 1025 74 10000 2.24 80 18:38 03.02.2021
2957 Clear 3 1025 74 10000 2.24 80 18:19 03.02.2021
2958 Clear 3 1025 74 10000 2.24 80 17:44 03.02.2021
2959 Clear 3 1025 74 10000 2.24 80 17:24 03.02.2021
2960 Clear 3 1025 74 10000 2.24 80 16:42 03.02.2021
2961 Clear 3 1025 74 10000 2.24 80 16:22 03.02.2021
2962 Clear 3 1025 74 10000 2.24 80 15:40 03.02.2021
2963 Clear 3 1025 74 10000 2.24 80 15:22 03.02.2021
2964 Clear 3 1025 74 10000 2.24 80 14:45 03.02.2021
2965 Clouds 3 1025 75 10000 2.57 80 14:23 03.02.2021
2966 Clouds 3 1025 75 10000 2.57 80 13:47 03.02.2021
2967 Clouds 3 1025 75 10000 2.57 80 13:21 03.02.2021
2968 Clouds 4 1025 65 10000 2.57 280 12:42 03.02.2021
2969 Clouds 4 1025 65 10000 2.57 280 12:21 03.02.2021
2970 Clouds 4 1025 65 10000 3.09 310 11:42 03.02.2021
2971 Clouds 4 1025 65 10000 3.09 310 11:23 03.02.2021
2972 Clouds 5 1024 60 10000 3.6 300 10:41 03.02.2021
2973 Clouds 5 1024 60 10000 3.6 300 10:19 03.02.2021
2974 Clouds 7 1024 53 10000 4.63 330 09:40 03.02.2021
2975 Clouds 7 1024 53 10000 4.63 330 09:20 03.02.2021
2976 Clouds 7 1024 53 10000 6.17 310 08:46 03.02.2021
2977 Clouds 8 1024 53 10000 6.17 320 07:58 03.02.2021
2978 Clouds 8 1024 49 10000 6.17 320 06:43 03.02.2021
2979 Clouds 8 1024 49 10000 6.17 320 06:20 03.02.2021
2980 Clouds 8 1026 49 10000 6.17 340 04:45 03.02.2021
2981 Clouds 7 1027 53 10000 5.14 330 03:52 03.02.2021
2982 Clouds 7 1027 53 10000 5.66 350 02:41 03.02.2021
2983 Clouds 5 1027 60 10000 6.69 350 01:47 03.02.2021
2984 Clouds 4 1026 60 10000 3.09 10 00:24 03.02.2021
2985 Clouds 4 1027 60 10000 5.14 330 23:43 02.02.2021
2986 Clouds 4 1027 60 10000 5.14 330 23:25 02.02.2021
2987 Clouds 4 1026 60 10000 5.66 340 22:46 02.02.2021
2988 Clouds 5 1023 60 10000 7.15 310 22:20 02.02.2021
2989 Clouds 5 1023 60 10000 7.15 310 21:46 02.02.2021
2990 Clouds 5 1023 60 10000 7.15 310 21:46 02.02.2021
2991 Clouds 5 1023 60 10000 7.15 310 21:24 02.02.2021
2992 Clouds 5 1023 60 10000 7.15 310 21:24 02.02.2021
2993 Clouds 5 1023 60 10000 7.15 310 20:49 02.02.2021
2994 Clear 5 1023 60 10000 7.15 310 20:21 02.02.2021
2995 Clear 5 1023 60 10000 7.15 310 19:52 02.02.2021
2996 Clear 5 1023 60 10000 7.15 310 19:34 02.02.2021
2997 Clear 5 1023 60 10000 7.15 310 18:57 02.02.2021
2998 Clear 5 1023 60 10000 7.15 310 18:39 02.02.2021
2999 Clear 5 1023 60 10000 7.15 310 18:20 02.02.2021
3000 Clear 5 1023 60 10000 7.15 310 17:38 02.02.2021
3001 Clear 5 1023 60 10000 7.15 310 17:19 02.02.2021
3002 Clear 5 1023 60 10000 7.15 310 16:48 02.02.2021
3003 Clear 5 1023 60 10000 7.15 310 16:27 02.02.2021
3004 Clear 5 1023 60 10000 7.15 310 15:56 02.02.2021
3005 Clear 5 1023 60 10000 7.15 310 15:30 02.02.2021
3006 Clear 5 1023 60 10000 7.15 310 14:53 02.02.2021
3007 Clouds 5 1023 60 10000 7.2 310 14:34 02.02.2021
3008 Clouds 5 1023 60 10000 7.2 310 13:58 02.02.2021
3009 Clouds 5 1023 60 10000 7.2 310 13:40 02.02.2021
3010 Clouds 5 1023 60 10000 7.2 310 13:22 02.02.2021
3011 Clouds 5 1023 60 10000 7.72 300 12:47 02.02.2021
3012 Clouds 5 1022 56 10000 7.2 310 11:46 02.02.2021
3013 Clouds 5 1022 56 10000 7.2 310 11:25 02.02.2021
3014 Clouds 5 1022 56 10000 9.26 310 10:56 02.02.2021
3015 Clouds 5 1022 56 10000 9.26 310 10:37 02.02.2021
3016 Clouds 5 1022 56 10000 9.26 310 10:19 02.02.2021
3017 Clouds 7 1022 49 10000 10.8 320 09:39 02.02.2021
3018 Clouds 7 1022 49 10000 10.8 320 09:19 02.02.2021
3019 Clouds 8 1021 46 10000 10.29 310 08:33 02.02.2021
3020 Clouds 10 1021 37 10000 9.77 300 07:41 02.02.2021
3021 Clouds 11 1021 46 10000 7.2 320 06:45 02.02.2021
3022 Clouds 11 1021 46 10000 7.2 320 06:21 02.02.2021
3023 Clouds 11 1021 30 10000 11.83 310 05:46 02.02.2021
3024 Clear 10 1022 57 10000 7.72 330 02:45 02.02.2021
3025 Clear 10 1022 57 10000 7.72 330 02:23 02.02.2021
3026 Clouds 8 1020 81 9000 6.17 330 00:36 02.02.2021
3027 Clouds 8 1019 87 7000 5.66 330 23:30 01.02.2021
3028 Clouds 8 1019 100 10000 5.66 330 22:51 01.02.2021
3029 Clouds 8 1019 100 10000 5.66 330 22:33 01.02.2021
3030 Clouds 11 1017 100 10000 5.36 320 21:53 01.02.2021
3031 Clouds 11 1017 100 10000 5.36 320 21:34 01.02.2021
3032 Rain 11 1017 100 10000 5.36 320 20:57 01.02.2021
3033 Clouds 11 1017 100 10000 5.36 320 20:37 01.02.2021
3034 Rain 11 1017 100 10000 5.36 320 20:19 01.02.2021
3035 Clouds 11 1017 100 10000 5.36 320 19:38 01.02.2021
3036 Rain 11 1017 100 10000 5.36 320 19:19 01.02.2021
3037 Rain 11 1017 100 10000 5.36 320 18:47 01.02.2021
3038 Rain 11 1017 100 8419 5.36 320 18:27 01.02.2021
3039 Rain 11 1017 100 8419 5.36 320 17:47 01.02.2021
3040 Rain 11 1017 100 6874 5.36 320 17:23 01.02.2021
3041 Rain 11 1017 100 6874 5.36 320 16:47 01.02.2021
3042 Clouds 11 1017 100 10000 5.36 320 16:28 01.02.2021
3043 Rain 11 1017 100 10000 5.36 320 15:43 01.02.2021
3044 Rain 11 1017 100 6193 5.36 320 15:19 01.02.2021
3045 Rain 11 1017 100 6193 5.36 320 14:52 01.02.2021
3046 Rain 11 1017 100 10000 5.66 320 14:27 01.02.2021
3047 Rain 11 1017 100 10000 5.66 320 13:47 01.02.2021
3048 Rain 11 1017 100 10000 5.66 320 13:26 01.02.2021
3049 Rain 11 1017 100 10000 5.66 320 13:26 01.02.2021
3050 Rain 12 1016 100 10000 4.12 10 12:45 01.02.2021
3051 Rain 12 1016 100 10000 4.12 10 12:45 01.02.2021
3052 Rain 12 1016 100 10000 4.12 10 12:25 01.02.2021
3053 Rain 12 1016 94 10000 5.14 360 11:51 01.02.2021
3054 Rain 13 1016 94 10000 5.14 360 11:21 01.02.2021
3055 Rain 15 1015 88 10000 12.35 260 10:53 01.02.2021
3056 Rain 15 1015 88 10000 12.35 260 10:27 01.02.2021
3057 Mist 15 1015 94 3500 12.35 230 09:55 01.02.2021
3058 Rain 15 1015 88 4000 8.75 240 09:36 01.02.2021
3059 Rain 16 1015 82 7000 13.89 200 08:56 01.02.2021
3060 Rain 16 1015 82 6000 12.86 200 08:27 01.02.2021
3061 Rain 17 1015 72 10000 13.89 200 07:32 01.02.2021
3062 Clouds 17 1017 67 10000 11.83 190 05:20 01.02.2021
3063 Clouds 15 1019 67 10000 9.77 160 02:40 01.02.2021
3064 Clouds 12 1021 71 10000 6.69 140 00:25 01.02.2021
3065 Clouds 11 1021 71 10000 5.14 140 23:21 31.01.2021
3066 Clouds 11 1022 71 10000 5.14 150 22:38 31.01.2021
3067 Clouds 11 1022 71 10000 5.14 150 22:19 31.01.2021
3068 Clouds 12 1022 71 10000 7.37 169 21:47 31.01.2021
3069 Clouds 12 1022 71 10000 7.37 169 21:47 31.01.2021
3070 Clear 8 1028 73 10000 4.02 130 21:21 31.01.2021
3071 Clear 8 1028 73 10000 4.02 130 20:43 31.01.2021
3072 Clear 8 1028 72 10000 4.02 130 20:21 31.01.2021
3073 Clear 8 1028 72 10000 4.02 130 19:40 31.01.2021
3074 Clear 8 1028 72 10000 4.02 130 19:40 31.01.2021
3075 Clear 8 1028 72 10000 4.02 130 19:22 31.01.2021
3076 Clear 8 1028 72 10000 4.02 130 18:56 31.01.2021
3077 Clear 8 1028 72 10000 4.02 130 18:38 31.01.2021
3078 Clear 8 1028 71 10000 4.02 130 18:18 31.01.2021
3079 Clear 8 1028 71 10000 4.02 130 17:41 31.01.2021
3080 Clear 8 1028 68 10000 4.02 130 17:21 31.01.2021
3081 Clear 8 1028 68 10000 4.02 130 16:42 31.01.2021
3082 Rain 8 1028 65 10000 4.02 130 16:20 31.01.2021
3083 Clear 8 1028 65 10000 4.02 130 15:49 31.01.2021
3084 Clouds 8 1028 63 10000 4.02 130 15:26 31.01.2021
3085 Clear 8 1028 57 10000 4.12 130 14:39 31.01.2021
3086 Clear 8 1028 57 10000 4.12 130 14:18 31.01.2021
3087 Clear 8 1028 57 10000 4.12 130 13:44 31.01.2021
3088 Clear 8 1028 57 10000 4.12 130 13:19 31.01.2021
3089 Clear 8 1027 66 10000 4.12 130 12:46 31.01.2021
3090 Clear 8 1027 66 10000 4.12 130 12:20 31.01.2021
3091 Clear 8 1027 71 10000 3.6 140 11:40 31.01.2021
3092 Clear 8 1027 71 10000 3.6 140 11:20 31.01.2021
3093 Clouds 10 1027 66 10000 2.57 180 10:46 31.01.2021
3094 Clouds 10 1027 66 10000 2.57 180 10:27 31.01.2021
3095 Clouds 12 1027 54 10000 3.6 140 09:41 31.01.2021
3096 Clear 13 1026 30 10000 0.51 0 08:55 31.01.2021
3097 Clear 13 1026 30 10000 0.51 0 08:31 31.01.2021
3098 Clouds 12 1028 37 10000 1.03 0 06:51 31.01.2021
3099 Clouds 11 1029 62 10000 2.06 0 04:55 31.01.2021
3100 Clear 5 1030 87 10000 3.09 140 00:38 31.01.2021
3101 Clear 5 1030 87 10000 3.09 140 00:38 31.01.2021
3102 Clear 5 1030 87 10000 3.09 140 00:20 31.01.2021
3103 Clear 4 1030 87 10000 1.54 120 23:28 30.01.2021
3104 Clear 4 1029 93 10000 2.06 100 22:45 30.01.2021
3105 Clear 5 1029 93 10000 2.06 100 22:23 30.01.2021
3106 Clouds 6 1028 81 10000 4.02 130 21:39 30.01.2021
3107 Clouds 6 1028 81 10000 4.02 130 21:20 30.01.2021
3108 Clouds 6 1028 81 10000 4.02 130 20:41 30.01.2021
3109 Clouds 6 1028 81 10000 4.02 130 20:23 30.01.2021
3110 Clouds 6 1028 81 10000 4.02 130 19:41 30.01.2021
3111 Clouds 6 1028 81 10000 4.02 130 19:22 30.01.2021
3112 Clouds 6 1028 81 10000 4.02 130 18:40 30.01.2021
3113 Rain 6 1028 81 10000 4.02 130 18:21 30.01.2021
3114 Clouds 6 1028 81 10000 4.02 130 17:49 30.01.2021
3115 Clouds 6 1028 81 10000 4.02 130 17:19 30.01.2021
3116 Clouds 6 1028 81 10000 4.02 130 16:42 30.01.2021
3117 Clouds 6 1028 81 10000 4.02 130 16:23 30.01.2021
3118 Clouds 6 1028 81 10000 4.02 130 15:49 30.01.2021
3119 Clouds 6 1028 81 10000 4.02 130 15:25 30.01.2021
3120 Clouds 6 1028 81 10000 4.02 130 14:58 30.01.2021
3121 Clouds 6 1028 81 10000 4.12 130 14:38 30.01.2021
3122 Clouds 6 1028 81 10000 4.12 130 14:18 30.01.2021
3123 Clouds 6 1028 81 10000 4.12 130 13:23 30.01.2021
3124 Clouds 7 1027 70 10000 2.57 110 12:46 30.01.2021
3125 Clouds 7 1027 70 10000 2.57 110 12:27 30.01.2021
3126 Clouds 8 1027 71 10000 3.09 150 11:47 30.01.2021
3127 Clouds 8 1027 66 10000 2.57 190 10:57 30.01.2021
3128 Clouds 8 1027 66 10000 2.57 190 10:28 30.01.2021
3129 Clouds 9 1026 57 10000 3.6 230 09:42 30.01.2021
3130 Clouds 9 1026 57 10000 3.6 230 09:24 30.01.2021
3131 Clouds 9 1026 49 10000 3.6 230 08:44 30.01.2021
3132 Clouds 10 1026 43 10000 1.03 0 07:42 30.01.2021
3133 Clouds 9 1026 43 10000 1.54 0 06:32 30.01.2021
3134 Clouds 6 1028 52 10000 1.03 0 03:51 30.01.2021
3135 Clouds 6 1028 52 10000 1.03 0 03:31 30.01.2021
3136 Clouds 5 1028 56 10000 1.54 130 02:22 30.01.2021
3137 Clouds 1 1028 75 10000 2.06 120 00:56 30.01.2021
3138 Clouds 1 1028 75 10000 2.06 120 00:26 30.01.2021
3139 Clouds 0 1028 74 10000 3.09 120 23:54 29.01.2021
3140 Clouds 0 1028 74 10000 3.09 120 23:27 29.01.2021
3141 Clouds 0 1027 80 10000 2.06 150 22:46 29.01.2021
3142 Clouds 0 1027 80 10000 2.06 150 22:28 29.01.2021
3143 Clear 2 1025 51 10000 5.36 360 21:56 29.01.2021
3144 Clear 2 1025 51 10000 5.36 360 21:26 29.01.2021
3145 Clear 2 1025 51 10000 5.36 360 20:43 29.01.2021
3146 Clear 2 1025 51 10000 5.36 360 20:22 29.01.2021
3147 Clear 2 1025 51 10000 5.36 360 19:40 29.01.2021
3148 Clear 2 1025 51 10000 5.36 360 19:20 29.01.2021
3149 Clear 2 1025 51 10000 5.36 360 18:53 29.01.2021
3150 Clear 2 1025 51 10000 5.36 360 17:48 29.01.2021
3151 Clear 2 1025 51 10000 5.36 360 17:23 29.01.2021
3152 Clear 2 1025 51 10000 5.36 360 16:52 29.01.2021
3153 Clear 2 1025 51 10000 5.36 360 16:24 29.01.2021
3154 Clear 2 1025 51 10000 5.36 360 16:24 29.01.2021
3155 Clear 2 1025 51 10000 5.36 360 15:55 29.01.2021
3156 Clear 2 1025 51 10000 5.36 360 15:36 29.01.2021
3157 Clear 2 1025 51 10000 5.36 360 15:18 29.01.2021
3158 Clear 2 1025 51 10000 5.66 360 14:22 29.01.2021
3159 Clear 2 1025 51 10000 5.66 360 13:46 29.01.2021
3160 Clear 2 1025 51 10000 5.66 360 13:27 29.01.2021
3161 Clouds 2 1025 51 10000 7.2 340 12:36 29.01.2021
3162 Clouds 2 1025 51 10000 7.2 340 12:18 29.01.2021
3163 Clouds 2 1025 55 10000 7.72 320 11:41 29.01.2021
3164 Clouds 2 1025 55 10000 7.72 320 11:18 29.01.2021
3165 Clouds 2 1024 55 10000 8.75 330 10:42 29.01.2021
3166 Clouds 2 1024 55 10000 8.75 330 10:19 29.01.2021
3167 Clouds 4 1023 48 10000 8.23 330 09:37 29.01.2021
3168 Clouds 4 1023 48 10000 9.26 310 08:50 29.01.2021
3169 Clouds 4 1023 48 10000 9.26 310 08:26 29.01.2021
3170 Clouds 3 1022 56 10000 9.77 320 07:44 29.01.2021
3171 Clouds 3 1022 56 10000 9.77 320 07:23 29.01.2021
3172 Clouds 3 1022 60 10000 9.77 330 06:35 29.01.2021
3173 Clouds 2 1023 60 10000 9.77 340 03:53 29.01.2021
3174 Snow 1 1022 75 7000 9.26 330 00:51 29.01.2021
3175 Snow 1 1022 75 7000 9.26 330 00:23 29.01.2021
3176 Snow 1 1022 86 3500 7.72 340 23:47 28.01.2021
3177 Snow 1 1022 86 3500 7.72 340 23:28 28.01.2021
3178 Clouds 3 1021 65 10000 10.29 300 22:59 28.01.2021
3179 Clouds 3 1021 65 10000 10.29 300 22:39 28.01.2021
3180 Clouds 3 1021 65 10000 10.29 300 22:21 28.01.2021
3181 Clouds 3 1021 65 10000 10.29 300 22:21 28.01.2021
3182 Clouds 2 1022 82 10000 9.2 323 21:42 28.01.2021
3183 Clouds 2 1021 83 10000 9.45 324 21:22 28.01.2021
3184 Clouds 2 1021 83 10000 9.45 324 20:45 28.01.2021
3185 Clouds 3 1020 79 10000 9.53 324 20:19 28.01.2021
3186 Clouds 2 1021 85 9046 9.57 326 19:52 28.01.2021
3187 Clouds 2 1021 81 10000 9.64 324 19:29 28.01.2021
3188 Clouds 2 1021 81 10000 9.64 324 18:50 28.01.2021
3189 Clouds 2 1021 81 10000 9.64 324 18:31 28.01.2021
3190 Clouds 2 1021 80 10000 10.31 321 17:54 28.01.2021
3191 Clouds 2 1021 80 10000 10.31 321 17:34 28.01.2021
3192 Clouds 3 1020 78 10000 10.52 317 16:59 28.01.2021
3193 Clouds 3 1020 78 10000 10.52 317 16:40 28.01.2021
3194 Clouds 4 1018 60 10000 8.75 330 16:20 28.01.2021
3195 Rain 4 1018 60 10000 8.75 330 15:32 28.01.2021
3196 Clouds 6 1017 52 10000 10.29 290 14:48 28.01.2021
3197 Clouds 7 1017 53 10000 13.38 310 14:26 28.01.2021
3198 Clouds 7 1017 53 10000 13.38 310 13:58 28.01.2021
3199 Clouds 7 1017 53 10000 13.38 310 13:23 28.01.2021
3200 Clouds 8 1016 53 10000 11.32 300 12:50 28.01.2021
3201 Clouds 8 1016 53 10000 11.32 300 12:28 28.01.2021
3202 Clouds 9 1015 49 10000 13.89 300 11:55 28.01.2021
3203 Clouds 9 1015 49 10000 13.89 300 11:37 28.01.2021
3204 Clouds 9 1015 49 10000 13.89 300 11:18 28.01.2021
3205 Clouds 10 1014 71 7000 8.75 300 10:40 28.01.2021
3206 Clouds 10 1014 71 7000 8.75 300 10:22 28.01.2021
3207 Clouds 10 1014 66 10000 8.75 290 09:38 28.01.2021
3208 Clouds 10 1014 66 10000 8.75 290 09:19 28.01.2021
3209 Clouds 11 1013 50 10000 10.29 290 08:44 28.01.2021
3210 Clouds 12 1013 54 10000 13.38 310 07:50 28.01.2021
3211 Clouds 12 1013 54 10000 13.38 310 07:18 28.01.2021
3212 Clouds 14 1012 51 10000 3.09 310 06:46 28.01.2021
3213 Clouds 11 1014 58 10000 1.03 0 04:30 28.01.2021
3214 Clouds 8 1015 71 10000 1.03 0 02:33 28.01.2021
3215 Clouds 5 1014 87 10000 2.06 100 00:35 28.01.2021
3216 Clouds 4 1014 87 10000 3.09 90 23:25 27.01.2021
3217 Clouds 9 1016 66 10000 8.49 360 22:44 27.01.2021
3218 Clouds 9 1016 66 10000 8.49 360 22:26 27.01.2021
3219 Clouds 9 1016 66 10000 8.49 360 21:59 27.01.2021
3220 Clouds 9 1016 66 10000 8.49 360 21:40 27.01.2021
3221 Clouds 9 1016 66 10000 8.49 360 21:40 27.01.2021
3222 Clouds 9 1016 66 10000 8.49 360 21:22 27.01.2021
3223 Clouds 9 1016 66 10000 8.49 360 20:41 27.01.2021
3224 Clouds 9 1016 66 10000 8.49 360 19:58 27.01.2021
3225 Clouds 9 1016 66 10000 8.49 360 19:39 27.01.2021
3226 Clear 9 1016 66 10000 8.49 360 19:20 27.01.2021
3227 Clouds 9 1016 66 10000 8.49 360 19:20 27.01.2021
3228 Clear 9 1016 66 10000 8.49 360 18:42 27.01.2021
3229 Clear 9 1016 66 10000 8.49 360 18:23 27.01.2021
3230 Clear 9 1016 66 10000 8.49 360 17:46 27.01.2021
3231 Clear 9 1016 66 10000 8.49 360 17:21 27.01.2021
3232 Clear 9 1016 66 10000 8.49 360 16:48 27.01.2021
3233 Clear 9 1016 66 10000 8.49 360 16:28 27.01.2021
3234 Clear 9 1016 66 10000 8.49 360 15:50 27.01.2021
3235 Clear 9 1016 66 10000 8.49 360 15:31 27.01.2021
3236 Clear 9 1016 66 10000 8.49 360 14:43 27.01.2021
3237 Clear 9 1016 66 10000 8.75 360 14:22 27.01.2021
3238 Clear 9 1016 66 10000 8.75 360 13:45 27.01.2021
3239 Clear 10 1017 62 10000 8.23 360 12:58 27.01.2021
3240 Clear 10 1017 62 10000 8.23 360 12:38 27.01.2021
3241 Clear 10 1017 62 10000 8.23 360 12:18 27.01.2021
3242 Clear 10 1016 71 10000 7.72 360 11:41 27.01.2021
3243 Clear 10 1016 71 10000 7.72 360 11:21 27.01.2021
3244 Clouds 11 1016 62 10000 8.23 350 10:38 27.01.2021
3245 Clouds 11 1016 62 10000 8.23 350 10:19 27.01.2021
3246 Clouds 12 1016 62 10000 8.23 350 09:40 27.01.2021
3247 Clouds 14 1015 54 10000 6.69 350 08:56 27.01.2021
3248 Clouds 15 1015 55 10000 6.17 360 07:59 27.01.2021
3249 Clouds 15 1015 55 10000 6.17 360 07:40 27.01.2021
3250 Clouds 15 1016 55 10000 7.2 350 06:50 27.01.2021
3251 Clouds 15 1016 55 10000 7.2 350 06:18 27.01.2021
3252 Clouds 15 1016 51 10000 4.12 340 05:35 27.01.2021
3253 Clouds 13 1018 62 10000 4.12 360 02:47 27.01.2021
3254 Clouds 13 1018 62 10000 4.12 360 02:23 27.01.2021
3255 Clouds 11 1019 71 10000 4.63 360 01:47 27.01.2021
3256 Clouds 10 1019 81 10000 5.14 350 00:32 27.01.2021
3257 Clouds 9 1018 87 10000 5.66 340 23:44 26.01.2021
3258 Clouds 9 1018 87 10000 5.66 340 23:22 26.01.2021
3259 Clouds 12 1014 87 10000 5.81 340 22:46 26.01.2021
3260 Clouds 12 1014 87 10000 5.81 340 22:20 26.01.2021
3261 Clouds 12 1014 87 10000 5.81 340 21:53 26.01.2021
3262 Clouds 12 1014 87 10000 5.81 340 21:27 26.01.2021
3263 Clouds 12 1014 87 10000 5.81 340 20:57 26.01.2021
3264 Clouds 12 1014 87 10000 5.81 340 20:38 26.01.2021
3265 Clouds 12 1014 87 10000 5.81 340 20:20 26.01.2021
3266 Clouds 12 1014 87 10000 5.81 340 19:43 26.01.2021
3267 Clouds 12 1014 87 10000 5.81 340 19:20 26.01.2021
3268 Clouds 12 1014 87 10000 5.81 340 18:46 26.01.2021
3269 Clouds 12 1014 87 10000 5.81 340 18:23 26.01.2021
3270 Clouds 12 1014 87 10000 5.81 340 18:23 26.01.2021
3271 Clouds 12 1014 87 10000 5.81 340 17:48 26.01.2021
3272 Clear 12 1014 87 10000 5.81 340 17:25 26.01.2021
3273 Clear 12 1014 87 10000 5.81 340 16:53 26.01.2021
3274 Clouds 12 1014 87 10000 5.81 340 16:22 26.01.2021
3275 Clouds 12 1014 87 10000 5.81 340 15:57 26.01.2021
3276 Clouds 12 1014 87 10000 5.81 340 15:36 26.01.2021
3277 Clouds 12 1014 87 10000 5.81 340 14:49 26.01.2021
3278 Clouds 12 1014 87 10000 6.17 340 14:30 26.01.2021
3279 Clouds 12 1014 87 10000 6.17 340 13:59 26.01.2021
3280 Clouds 12 1014 87 10000 6.17 340 13:29 26.01.2021
3281 Clouds 13 1014 94 10000 7.72 340 12:47 26.01.2021
3282 Clouds 13 1014 94 10000 7.72 340 12:26 26.01.2021
3283 Clouds 14 1013 88 10000 2.06 140 11:59 26.01.2021
3284 Clouds 14 1013 88 10000 2.06 140 11:40 26.01.2021
3285 Rain 13 1012 94 10000 3.6 140 10:56 26.01.2021
3286 Clouds 13 1012 94 10000 3.6 140 10:33 26.01.2021
3287 Clouds 16 1012 77 10000 4.92 220 09:50 26.01.2021
3288 Clouds 16 1012 77 10000 5.14 220 09:32 26.01.2021
3289 Clouds 16 1012 77 10000 5.14 220 08:55 26.01.2021
3290 Rain 16 1012 77 10000 5.14 220 08:37 26.01.2021
3291 Clouds 15 1012 94 10000 7.2 210 07:54 26.01.2021
3292 Rain 13 1012 94 10000 6.17 130 06:56 26.01.2021
3293 Clouds 12 1013 94 8000 4.63 140 05:46 26.01.2021
3294 Rain 12 1013 94 8000 4.63 140 05:24 26.01.2021
3295 Rain 10 1017 93 10000 6.69 160 02:58 26.01.2021
3296 Clouds 9 1018 93 10000 2.06 170 00:58 26.01.2021
3297 Rain 9 1018 93 8000 2.06 30 23:44 25.01.2021
3298 Rain 9 1018 93 8000 2.06 30 23:25 25.01.2021
3299 Rain 9 1018 87 10000 0.51 0 22:40 25.01.2021
3300 Rain 9 1018 87 10000 0.51 0 22:18 25.01.2021
3301 Rain 10 1017 88 7358 2.94 90 21:39 25.01.2021
3302 Rain 11 1017 81 10000 0.91 3 20:53 25.01.2021
3303 Rain 11 1017 81 10000 0.91 3 20:33 25.01.2021
3304 Clouds 12 1018 71 10000 1.2 141 19:58 25.01.2021
3305 Clouds 12 1018 71 10000 1.2 141 19:40 25.01.2021
3306 Clouds 12 1018 72 10000 3.24 95 19:20 25.01.2021
3307 Clouds 12 1019 72 10000 2.23 153 18:42 25.01.2021
3308 Clouds 12 1020 70 10000 1.99 115 18:22 25.01.2021
3309 Clouds 12 1020 70 10000 1.99 115 17:43 25.01.2021
3310 Clear 11 1020 72 10000 2.65 114 17:24 25.01.2021
3311 Clear 11 1020 72 10000 2.65 114 16:43 25.01.2021
3312 Clouds 8 1021 81 10000 2.06 350 16:24 25.01.2021
3313 Clouds 8 1021 81 10000 2.06 350 15:53 25.01.2021
3314 Clouds 8 1021 81 10000 2.06 350 15:34 25.01.2021
3315 Clear 9 1021 71 10000 2.57 20 14:51 25.01.2021
3316 Clouds 10 1020 81 10000 2.06 130 14:20 25.01.2021
3317 Clouds 10 1020 81 10000 2.06 130 13:55 25.01.2021
3318 Clouds 10 1020 81 10000 2.06 130 13:35 25.01.2021
3319 Clouds 10 1020 76 10000 2.57 240 12:49 25.01.2021
3320 Clouds 10 1020 76 10000 2.57 240 12:24 25.01.2021
3321 Clouds 11 1020 76 10000 1.03 0 11:58 25.01.2021
3322 Clouds 11 1020 76 10000 1.03 0 11:22 25.01.2021
3323 Clouds 12 1020 50 10000 2.57 280 10:44 25.01.2021
3324 Clouds 12 1020 50 10000 2.57 280 10:21 25.01.2021
3325 Clouds 14 1020 47 10000 1.54 250 09:47 25.01.2021
3326 Clouds 14 1020 47 10000 1.54 250 09:28 25.01.2021
3327 Clouds 15 1020 38 10000 1.54 290 08:33 25.01.2021
3328 Clouds 15 1020 33 10000 2.06 260 07:46 25.01.2021
3329 Clouds 15 1020 33 10000 2.06 260 07:27 25.01.2021
3330 Clear 14 1021 47 10000 3.6 220 06:23 25.01.2021
3331 Clouds 7 1024 81 10000 2.06 130 01:35 25.01.2021
3332 Clouds 5 1024 93 10000 2.57 110 00:31 25.01.2021
3333 Clouds 4 1024 87 10000 1.54 150 23:20 24.01.2021
3334 Clouds 9 1022 70 10000 7.6 20 22:46 24.01.2021
3335 Clouds 9 1022 70 10000 7.6 20 22:27 24.01.2021
3336 Clouds 9 1022 70 10000 7.6 20 22:25 24.01.2021
3337 Clouds 9 1022 70 10000 7.6 20 21:51 24.01.2021
3338 Clouds 9 1022 70 10000 7.6 20 21:24 24.01.2021
3339 Clouds 9 1022 70 10000 7.6 20 20:46 24.01.2021
3340 Clear 9 1022 70 10000 7.6 20 20:22 24.01.2021
3341 Clear 9 1022 70 10000 7.6 20 19:55 24.01.2021
3342 Clouds 9 1022 70 10000 7.6 20 19:28 24.01.2021
3343 Clouds 9 1022 70 10000 7.6 20 18:59 24.01.2021
3344 Clouds 9 1022 70 10000 7.6 20 18:40 24.01.2021
3345 Clouds 9 1022 70 10000 7.6 20 18:21 24.01.2021
3346 Clouds 9 1022 70 10000 7.6 20 17:51 24.01.2021
3347 Clouds 9 1022 70 10000 7.6 20 17:30 24.01.2021
3348 Clouds 9 1022 70 10000 7.6 20 16:59 24.01.2021
3349 Clouds 9 1022 70 10000 7.6 20 16:39 24.01.2021
3350 Clouds 9 1022 70 10000 7.6 20 16:19 24.01.2021
3351 Clouds 9 1022 70 10000 7.6 20 15:44 24.01.2021
3352 Clouds 9 1022 70 10000 7.6 20 15:19 24.01.2021
3353 Clouds 9 1022 70 10000 7.6 20 14:43 24.01.2021
3354 Clouds 9 1022 71 10000 7.72 20 13:52 24.01.2021
3355 Clouds 9 1022 71 10000 7.72 20 13:34 24.01.2021
3356 Clouds 10 1023 66 10000 7.2 10 12:51 24.01.2021
3357 Clouds 10 1023 66 10000 7.2 10 12:22 24.01.2021
3358 Clouds 11 1023 66 10000 7.2 10 11:54 24.01.2021
3359 Clouds 11 1023 66 10000 7.2 10 11:25 24.01.2021
3360 Clouds 11 1021 66 10000 8.75 30 10:54 24.01.2021
3361 Clouds 11 1021 66 10000 8.75 30 10:30 24.01.2021
3362 Clouds 11 1021 66 10000 8.75 30 10:30 24.01.2021
3363 Clouds 12 1020 62 10000 8.23 20 09:44 24.01.2021
3364 Clouds 12 1020 62 10000 8.23 20 09:18 24.01.2021
3365 Clouds 12 1019 62 10000 7.72 30 08:31 24.01.2021
3366 Clouds 13 1019 67 10000 9.26 20 03:48 24.01.2021
3367 Clouds 12 1019 71 10000 8.75 20 02:18 24.01.2021
3368 Clouds 10 1018 87 10000 7.2 340 00:28 24.01.2021
3369 Clouds 10 1018 87 10000 7.2 340 00:28 24.01.2021
3370 Clouds 11 1016 82 10000 6.69 10 23:59 23.01.2021
3371 Clouds 11 1016 82 10000 6.69 10 23:59 23.01.2021
3372 Clouds 11 1016 82 10000 6.69 10 23:33 23.01.2021
3373 Clouds 11 1012 100 10000 4.34 36 22:58 23.01.2021
3374 Clouds 11 1012 100 10000 4.34 36 22:40 23.01.2021
3375 Clouds 11 1012 100 10000 4.43 24 21:58 23.01.2021
3376 Clouds 11 1012 100 10000 4.24 34 21:23 23.01.2021
3377 Clouds 11 1012 100 10000 4.24 34 20:51 23.01.2021
3378 Clouds 11 1012 100 10000 4.24 34 20:30 23.01.2021
3379 Clouds 11 1012 100 10000 3.67 32 19:47 23.01.2021
3380 Clouds 11 1012 100 10000 4.53 32 19:25 23.01.2021
3381 Rain 11 1012 100 10000 4.53 38 18:59 23.01.2021
3382 Rain 11 1012 100 10000 4.53 38 18:40 23.01.2021
3383 Rain 11 1012 100 10000 3.27 31 18:20 23.01.2021
3384 Clouds 11 1012 100 10000 3.35 25 17:29 23.01.2021
3385 Clouds 11 1012 100 10000 3.35 25 16:52 23.01.2021
3386 Rain 11 1012 100 10000 3.35 25 16:32 23.01.2021
3387 Clouds 11 1012 100 10000 4.08 43 15:49 23.01.2021
3388 Clouds 11 1012 100 10000 3.67 34 15:28 23.01.2021
3389 Clouds 11 1012 100 10000 1.03 0 14:38 23.01.2021
3390 Clouds 11 1012 100 10000 1.03 0 14:19 23.01.2021
3391 Clouds 11 1012 100 10000 1.03 0 13:40 23.01.2021
3392 Clouds 11 1012 100 10000 1.03 0 13:22 23.01.2021
3393 Clouds 12 1012 87 10000 5.14 340 12:42 23.01.2021
3394 Clouds 12 1012 87 10000 5.14 340 12:22 23.01.2021
3395 Clouds 12 1011 94 10000 6.69 350 11:35 23.01.2021
3396 Clouds 12 1011 94 10000 6.17 340 10:54 23.01.2021
3397 Clouds 12 1011 94 10000 6.17 340 10:23 23.01.2021
3398 Clouds 14 1009 88 10000 3.09 10 09:51 23.01.2021
3399 Rain 14 1009 88 10000 3.09 10 09:24 23.01.2021
3400 Clouds 14 1010 94 10000 1.03 0 08:42 23.01.2021
3401 Clouds 13 1010 100 8000 5.14 310 07:48 23.01.2021
3402 Clouds 13 1010 100 8000 1.54 350 06:48 23.01.2021
3403 Rain 12 1013 100 2500 1.03 0 01:44 23.01.2021
3404 Rain 12 1013 100 3000 3.09 320 00:23 23.01.2021
3405 Mist 12 1013 94 5000 5.14 330 23:35 22.01.2021
3406 Rain 12 1015 100 10000 2.24 320 22:41 22.01.2021
3407 Rain 12 1015 100 10000 2.24 320 21:56 22.01.2021
3408 Rain 12 1015 100 10000 2.24 320 21:37 22.01.2021
3409 Clouds 12 1015 100 10000 2.24 320 21:19 22.01.2021
3410 Clouds 12 1015 100 10000 2.24 320 20:44 22.01.2021
3411 Rain 12 1015 100 10000 2.24 320 20:25 22.01.2021
3412 Clouds 12 1015 100 10000 2.24 320 19:37 22.01.2021
3413 Rain 12 1015 100 10000 2.24 320 19:18 22.01.2021
3414 Rain 12 1015 100 10000 2.24 320 18:43 22.01.2021
3415 Rain 12 1015 100 10000 2.24 320 18:23 22.01.2021
3416 Clouds 12 1015 100 10000 2.24 320 17:44 22.01.2021
3417 Clouds 12 1015 100 10000 2.24 320 17:24 22.01.2021
3418 Rain 12 1015 100 10000 2.24 320 16:45 22.01.2021
3419 Rain 12 1015 100 10000 2.24 320 16:24 22.01.2021
3420 Rain 12 1015 100 2500 0.51 360 15:41 22.01.2021
3421 Mist 12 1015 100 2500 0.51 360 15:18 22.01.2021
3422 Rain 12 1015 100 8000 2.57 320 14:31 22.01.2021
3423 Clouds 12 1015 100 8000 2.57 320 13:51 22.01.2021
3424 Clouds 12 1015 100 8000 2.57 320 13:31 22.01.2021
3425 Clouds 13 1016 100 7000 1.03 0 12:52 22.01.2021
3426 Rain 13 1016 100 7000 1.03 0 12:23 22.01.2021
3427 Clouds 14 1016 94 10000 1.03 0 11:47 22.01.2021
3428 Clouds 14 1016 94 10000 1.03 0 11:22 22.01.2021
3429 Clouds 14 1015 94 10000 3.6 330 10:45 22.01.2021
3430 Clear 15 1015 88 10000 1.03 0 09:59 22.01.2021
3431 Rain 15 1015 88 10000 1.03 0 09:31 22.01.2021
3432 Clouds 15 1015 88 10000 3.6 360 08:51 22.01.2021
3433 Clouds 15 1015 88 10000 3.6 360 08:30 22.01.2021
3434 Rain 16 1015 77 10000 2.06 330 07:36 22.01.2021
3435 Clouds 15 1018 82 10000 2.06 80 03:40 22.01.2021
3436 Clouds 11 1018 100 10000 2.06 160 00:40 22.01.2021
3437 Clouds 11 1018 100 10000 3.09 140 23:55 21.01.2021
3438 Clouds 11 1018 100 10000 3.09 140 23:32 21.01.2021
3439 Clouds 11 1020 81 10000 1.25 117 22:53 21.01.2021
3440 Clouds 11 1020 81 10000 1.25 117 22:35 21.01.2021
3441 Clouds 11 1020 81 10000 1.7 135 21:44 21.01.2021
3442 Clouds 11 1020 81 10000 2.49 146 21:22 21.01.2021
3443 Rain 11 1020 81 10000 2.49 146 20:51 21.01.2021
3444 Rain 11 1020 81 10000 2.49 146 20:31 21.01.2021
3445 Rain 11 1020 81 10000 2.49 146 20:31 21.01.2021
3446 Rain 11 1020 81 10000 3.05 156 19:52 21.01.2021
3447 Clouds 11 1020 81 10000 3.05 156 19:30 21.01.2021
3448 Clouds 11 1020 81 10000 3.5 159 18:59 21.01.2021
3449 Clouds 11 1020 81 10000 3.5 159 18:40 21.01.2021
3450 Clouds 11 1020 81 10000 3.99 155 18:20 21.01.2021
3451 Clouds 11 1020 81 10000 3.99 155 17:51 21.01.2021
3452 Clouds 11 1020 81 10000 3.69 157 17:20 21.01.2021
3453 Clouds 11 1020 81 10000 3.69 157 16:48 21.01.2021
3454 Clouds 11 1020 81 10000 3.78 153 16:26 21.01.2021
3455 Clouds 11 1020 81 10000 3.78 153 15:59 21.01.2021
3456 Clouds 11 1020 81 10000 3.78 153 15:33 21.01.2021
3457 Clouds 11 1020 81 10000 3.76 147 14:53 21.01.2021
3458 Rain 11 1020 82 10000 1.03 0 14:35 21.01.2021
3459 Clouds 11 1020 82 10000 1.03 0 13:48 21.01.2021
3460 Rain 11 1020 82 10000 1.03 0 13:28 21.01.2021
3461 Clouds 11 1021 76 10000 1.03 0 12:55 21.01.2021
3462 Clouds 11 1021 76 10000 1.03 0 12:37 21.01.2021
3463 Clouds 11 1021 76 10000 1.03 0 12:18 21.01.2021
3464 Clouds 12 1021 71 10000 0.51 0 11:43 21.01.2021
3465 Rain 12 1021 71 10000 0.51 0 11:22 21.01.2021
3466 Clouds 12 1021 71 10000 1.03 280 10:45 21.01.2021
3467 Clouds 12 1021 71 10000 1.03 280 10:24 21.01.2021
3468 Clouds 12 1020 66 10000 1.03 310 09:40 21.01.2021
3469 Clouds 12 1020 66 10000 1.03 310 09:21 21.01.2021
3470 Clouds 12 1021 66 10000 1.54 10 08:35 21.01.2021
3471 Clouds 13 1021 67 10000 1.54 310 07:49 21.01.2021
3472 Clouds 13 1021 67 10000 1.54 310 07:26 21.01.2021
3473 Clouds 14 1022 62 10000 2.06 290 06:37 21.01.2021
3474 Clouds 11 1024 71 10000 1.54 270 04:56 21.01.2021
3475 Clouds 9 1025 81 10000 2.06 100 02:19 21.01.2021
3476 Clouds 7 1025 93 10000 2.06 120 00:42 21.01.2021
3477 Clouds 6 1026 93 10000 3.09 110 23:50 20.01.2021
3478 Clouds 6 1026 93 10000 3.09 110 23:27 20.01.2021
3479 Clear 8 1027 87 10000 1.34 140 22:53 20.01.2021
3480 Clear 8 1027 87 10000 1.34 140 22:30 20.01.2021
3481 Clear 8 1027 87 10000 1.34 140 21:54 20.01.2021
3482 Clear 8 1027 87 10000 1.34 140 21:23 20.01.2021
3483 Clear 8 1027 87 10000 1.34 140 20:52 20.01.2021
3484 Clear 8 1027 87 10000 1.34 140 20:52 20.01.2021
3485 Clear 8 1027 87 10000 1.34 140 20:24 20.01.2021
3486 Clear 8 1027 87 10000 1.34 140 19:49 20.01.2021
3487 Clear 8 1027 87 10000 1.34 140 19:31 20.01.2021
3488 Clear 8 1027 87 10000 1.34 140 19:31 20.01.2021
3489 Clouds 8 1027 87 10000 1.34 140 18:49 20.01.2021
3490 Clouds 8 1027 87 10000 1.34 140 18:30 20.01.2021
3491 Clouds 8 1027 87 10000 1.34 140 17:52 20.01.2021
3492 Clouds 8 1027 87 10000 1.34 140 17:34 20.01.2021
3493 Clouds 8 1027 87 10000 1.34 140 16:51 20.01.2021
3494 Clouds 8 1027 87 10000 1.34 140 16:24 20.01.2021
3495 Clouds 8 1027 87 10000 1.34 140 15:45 20.01.2021
3496 Clouds 8 1027 87 10000 1.34 140 15:19 20.01.2021
3497 Clouds 8 1027 87 10000 1.34 140 14:43 20.01.2021
3498 Clouds 8 1027 87 10000 1.54 140 14:21 20.01.2021
3499 Clouds 8 1027 87 10000 1.54 140 13:40 20.01.2021
3500 Clear 8 1027 81 10000 2.06 150 12:59 20.01.2021
3501 Clear 8 1027 81 10000 2.06 150 12:27 20.01.2021
3502 Clouds 8 1027 81 10000 1.54 130 11:46 20.01.2021
3503 Clouds 8 1027 81 10000 1.54 130 11:22 20.01.2021
3504 Clouds 8 1027 76 10000 1.54 190 10:50 20.01.2021
3505 Clouds 8 1027 76 10000 1.54 190 10:27 20.01.2021
3506 Clouds 11 1026 58 10000 1.54 30 09:41 20.01.2021
3507 Clouds 11 1026 58 10000 1.54 30 09:23 20.01.2021
3508 Clouds 12 1026 50 10000 2.06 30 08:45 20.01.2021
3509 Clouds 12 1026 50 10000 2.06 30 08:23 20.01.2021
3510 Clouds 12 1026 47 10000 1.54 300 07:54 20.01.2021
3511 Clouds 12 1026 47 10000 1.54 300 07:24 20.01.2021
3512 Clouds 9 1028 57 10000 2.57 300 04:44 20.01.2021
3513 Clouds 5 1030 70 10000 0.51 0 02:57 20.01.2021
3514 Clear 2 1029 80 10000 2.57 110 00:58 20.01.2021
3515 Clouds 0 1029 86 10000 2.57 130 23:57 19.01.2021
3516 Clouds 0 1029 86 10000 2.57 130 23:38 19.01.2021
3517 Clear 1 1029 86 10000 3.09 130 22:59 19.01.2021
3518 Clear 1 1029 86 10000 3.09 130 22:40 19.01.2021
3519 Clear 2 1029 86 10000 3.09 130 22:21 19.01.2021
3520 Clear 4 1029 64 10000 3.58 60 21:55 19.01.2021
3521 Clear 4 1029 64 10000 3.58 60 21:35 19.01.2021
3522 Clear 4 1029 64 10000 3.58 60 20:50 19.01.2021
3523 Clear 4 1029 64 10000 3.58 60 20:30 19.01.2021
3524 Clear 4 1029 64 10000 3.58 60 19:56 19.01.2021
3525 Clear 4 1029 64 10000 3.58 60 19:37 19.01.2021
3526 Clear 4 1029 64 10000 3.58 60 19:37 19.01.2021
3527 Clear 4 1029 64 10000 3.58 60 19:18 19.01.2021
3528 Clear 4 1029 64 10000 3.58 60 18:39 19.01.2021
3529 Clear 4 1029 64 10000 3.58 60 18:20 19.01.2021
3530 Clear 4 1029 64 10000 3.58 60 17:42 19.01.2021
3531 Clear 4 1029 64 10000 3.58 60 17:20 19.01.2021
3532 Clear 4 1029 64 10000 3.58 60 16:40 19.01.2021
3533 Clear 4 1029 64 10000 3.58 60 16:21 19.01.2021
3534 Clear 4 1029 64 10000 3.58 60 15:51 19.01.2021
3535 Clear 4 1029 64 10000 3.58 60 15:32 19.01.2021
3536 Clear 4 1029 64 10000 3.58 60 14:47 19.01.2021
3537 Clear 4 1029 65 10000 3.6 60 14:26 19.01.2021
3538 Clear 4 1029 65 10000 3.6 60 13:52 19.01.2021
3539 Clear 4 1029 65 10000 3.6 60 13:23 19.01.2021
3540 Clear 4 1028 65 10000 4.12 30 12:51 19.01.2021
3541 Clear 4 1028 65 10000 4.12 30 12:30 19.01.2021
3542 Clear 6 1028 56 10000 6.69 10 11:52 19.01.2021
3543 Clear 6 1028 56 10000 6.69 10 11:30 19.01.2021
3544 Clouds 7 1028 61 10000 7.2 350 10:59 19.01.2021
3545 Clouds 7 1028 61 10000 7.2 350 10:40 19.01.2021
3546 Clouds 7 1028 61 10000 7.2 350 10:18 19.01.2021
3547 Clouds 8 1027 49 10000 7.2 340 09:42 19.01.2021
3548 Clouds 8 1027 49 10000 7.2 340 09:19 19.01.2021
3549 Clouds 9 1026 46 10000 7.72 340 08:33 19.01.2021
3550 Clouds 10 1026 43 10000 7.72 340 07:51 19.01.2021
3551 Clouds 10 1025 43 10000 6.69 340 06:58 19.01.2021
3552 Clouds 8 1027 46 10000 6.17 20 03:34 19.01.2021
3553 Clouds 7 1027 57 10000 5.14 360 02:21 19.01.2021
3554 Clouds 3 1026 70 10000 3.09 40 00:23 19.01.2021
3555 Clouds 3 1026 70 10000 2.57 40 23:41 18.01.2021
3556 Clouds 3 1026 70 10000 2.57 40 23:22 18.01.2021
3557 Clouds 2 1026 69 10000 3.09 350 22:41 18.01.2021
3558 Clouds 2 1026 69 10000 3.09 350 22:20 18.01.2021
3559 Clear 5 1026 70 10000 4.5 335 21:43 18.01.2021
3560 Clear 5 1026 69 10000 4.86 335 21:22 18.01.2021
3561 Clear 5 1026 69 10000 4.86 335 20:53 18.01.2021
3562 Clear 5 1026 69 10000 4.86 335 20:33 18.01.2021
3563 Clear 5 1025 68 10000 5.24 342 19:52 18.01.2021
3564 Clear 5 1025 68 10000 5.24 342 19:34 18.01.2021
3565 Clouds 6 1025 66 10000 5.67 337 18:48 18.01.2021
3566 Clouds 5 1025 68 10000 6.42 335 18:25 18.01.2021
3567 Clouds 5 1025 68 10000 6.42 335 17:46 18.01.2021
3568 Clouds 6 1025 66 10000 7.38 330 17:26 18.01.2021
3569 Clouds 6 1025 66 10000 7.38 330 16:49 18.01.2021
3570 Clouds 7 1023 53 10000 6.17 280 16:23 18.01.2021
3571 Clouds 7 1023 53 10000 6.17 280 15:51 18.01.2021
3572 Clouds 7 1023 53 10000 6.17 280 15:27 18.01.2021
3573 Clouds 7 1022 57 10000 6.17 310 14:47 18.01.2021
3574 Clouds 10 1022 53 10000 9.77 310 14:28 18.01.2021
3575 Clouds 10 1022 53 10000 9.77 310 13:56 18.01.2021
3576 Clouds 10 1022 53 10000 9.77 310 13:38 18.01.2021
3577 Clouds 10 1022 53 10000 9.77 310 13:20 18.01.2021
3578 Clouds 10 1021 50 10000 9.77 290 12:42 18.01.2021
3579 Clouds 10 1021 50 10000 9.77 290 12:18 18.01.2021
3580 Clouds 10 1021 50 10000 7.72 290 11:41 18.01.2021
3581 Clouds 10 1021 50 10000 7.72 290 11:23 18.01.2021
3582 Clouds 10 1020 53 10000 7.72 280 10:46 18.01.2021
3583 Clouds 10 1020 53 10000 7.72 280 10:20 18.01.2021
3584 Clouds 9 1020 66 10000 6.17 260 09:39 18.01.2021
3585 Clouds 9 1020 66 10000 6.17 260 09:18 18.01.2021
3586 Clouds 9 1019 61 10000 7.2 250 08:25 18.01.2021
3587 Clouds 9 1019 61 10000 8.23 260 07:47 18.01.2021
3588 Clouds 7 1020 71 10000 5.14 220 06:32 18.01.2021
3589 Clouds 6 1021 65 10000 1.54 170 04:41 18.01.2021
3590 Clouds 6 1021 65 10000 1.54 170 04:20 18.01.2021
3591 Clouds 6 1022 61 10000 3.6 130 03:45 18.01.2021
3592 Clouds 6 1022 61 10000 3.6 130 03:23 18.01.2021
3593 Clouds 5 1023 65 10000 4.12 140 02:51 18.01.2021
3594 Clouds 4 1023 70 10000 4.12 100 01:56 18.01.2021
3595 Snow 4 1023 70 10000 2.57 130 00:39 18.01.2021
3596 Clouds 3 1023 70 10000 2.57 110 23:49 17.01.2021
3597 Rain 3 1023 70 10000 2.57 110 23:24 17.01.2021
3598 Clouds 3 1023 70 10000 2.57 20 22:47 17.01.2021
3599 Clouds 3 1025 51 10000 4.92 360 22:22 17.01.2021
3600 Clouds 3 1025 51 10000 4.92 360 21:42 17.01.2021
3601 Clouds 3 1025 51 10000 4.92 360 21:24 17.01.2021
3602 Rain 3 1025 51 10000 4.92 360 20:50 17.01.2021
3603 Clouds 3 1025 51 10000 4.92 360 20:31 17.01.2021
3604 Clouds 3 1025 51 10000 4.92 360 19:44 17.01.2021
3605 Clouds 3 1025 51 10000 4.92 360 19:26 17.01.2021
3606 Clouds 3 1025 51 10000 4.92 360 18:51 17.01.2021
3607 Clouds 3 1025 51 10000 4.92 360 18:28 17.01.2021
3608 Clouds 3 1025 51 10000 4.92 360 17:49 17.01.2021
3609 Clouds 3 1025 51 10000 4.92 360 17:28 17.01.2021
3610 Clouds 3 1025 51 10000 4.92 360 16:45 17.01.2021
3611 Clouds 3 1025 51 10000 4.92 360 16:24 17.01.2021
3612 Clouds 3 1025 51 10000 4.92 360 15:44 17.01.2021
3613 Clouds 3 1025 51 10000 4.92 360 15:26 17.01.2021
3614 Clouds 3 1025 51 10000 4.92 360 14:53 17.01.2021
3615 Clouds 3 1025 52 10000 5.14 360 14:27 17.01.2021
3616 Clouds 3 1025 52 10000 5.14 360 13:58 17.01.2021
3617 Clouds 3 1025 52 10000 5.14 360 13:36 17.01.2021
3618 Clouds 3 1025 52 10000 5.14 360 13:18 17.01.2021
3619 Clouds 3 1025 56 10000 5.66 350 12:37 17.01.2021
3620 Clouds 3 1025 56 10000 5.66 350 12:18 17.01.2021
3621 Clouds 3 1025 52 10000 5.14 330 11:25 17.01.2021
3622 Clouds 4 1024 48 10000 6.17 340 10:50 17.01.2021
3623 Clouds 4 1024 48 10000 6.17 340 10:24 17.01.2021
3624 Clouds 5 1024 48 10000 6.17 360 09:46 17.01.2021
3625 Clouds 6 1023 45 10000 5.14 350 08:48 17.01.2021
3626 Clouds 7 1023 42 10000 8.23 320 07:51 17.01.2021
3627 Clouds 6 1025 49 10000 9.77 320 04:29 17.01.2021
3628 Clouds 6 1026 45 10000 9.77 340 02:50 17.01.2021
3629 Clouds 4 1025 60 10000 8.75 330 00:54 17.01.2021
3630 Clouds 4 1025 60 10000 8.75 330 00:20 17.01.2021
3631 Clouds 5 1025 56 10000 9.26 340 23:52 16.01.2021
3632 Clouds 5 1025 56 10000 9.26 340 23:20 16.01.2021
3633 Clouds 5 1024 60 10000 9.26 320 22:49 16.01.2021
3634 Clear 5 1024 70 10000 8.57 328 21:59 16.01.2021
3635 Clear 5 1024 70 10000 8.57 328 21:40 16.01.2021
3636 Clear 5 1023 72 10000 8.01 326 21:20 16.01.2021
3637 Clear 5 1023 72 10000 8.01 326 20:45 16.01.2021
3638 Clear 6 1023 73 10000 8.07 326 20:22 16.01.2021
3639 Clear 6 1023 73 10000 8.07 326 19:48 16.01.2021
3640 Clouds 8 1021 73 10000 8.05 330 19:29 16.01.2021
3641 Clouds 8 1021 77 10000 8.05 330 18:44 16.01.2021
3642 Clouds 8 1021 74 10000 8.05 330 18:26 16.01.2021
3643 Clouds 8 1021 74 10000 8.05 330 17:49 16.01.2021
3644 Clouds 8 1021 69 10000 8.05 330 17:30 16.01.2021
3645 Clouds 8 1021 69 10000 8.05 330 16:47 16.01.2021
3646 Clouds 8 1021 63 10000 8.05 330 16:29 16.01.2021
3647 Clouds 8 1021 63 10000 8.05 330 15:54 16.01.2021
3648 Clouds 8 1021 61 10000 8.05 330 15:26 16.01.2021
3649 Clouds 8 1021 57 10000 8.23 330 14:25 16.01.2021
3650 Clouds 8 1021 57 10000 8.23 330 13:49 16.01.2021
3651 Clouds 8 1021 57 10000 8.23 330 13:25 16.01.2021
3652 Clouds 8 1021 61 10000 6.69 330 12:46 16.01.2021
3653 Clouds 8 1021 61 10000 6.69 330 12:20 16.01.2021
3654 Clear 8 1021 61 10000 7.72 320 11:48 16.01.2021
3655 Clear 8 1021 61 10000 7.72 320 11:25 16.01.2021
3656 Clouds 9 1020 61 10000 8.23 300 10:47 16.01.2021
3657 Clouds 9 1020 61 10000 8.23 300 10:22 16.01.2021
3658 Clouds 10 1019 57 10000 9.77 310 09:36 16.01.2021
3659 Clouds 11 1019 62 10000 8.75 310 08:47 16.01.2021
3660 Clouds 12 1018 58 10000 8.75 310 07:48 16.01.2021
3661 Clouds 13 1018 54 10000 7.72 310 06:43 16.01.2021
3662 Clouds 12 1019 54 10000 6.69 300 04:39 16.01.2021
3663 Clouds 10 1020 76 10000 7.2 330 02:56 16.01.2021
3664 Clouds 11 1018 87 8000 3.09 290 00:50 16.01.2021
3665 Clouds 11 1018 87 8000 3.09 290 00:28 16.01.2021
3666 Clouds 10 1017 93 9000 3.09 30 23:58 15.01.2021
3667 Clouds 10 1017 93 9000 3.09 30 23:21 15.01.2021
3668 Clouds 12 1017 94 10000 6.69 320 22:25 15.01.2021
3669 Clear 11 1016 87 10000 4.47 140 21:46 15.01.2021
3670 Clear 11 1016 87 10000 4.47 140 21:21 15.01.2021
3671 Clear 11 1016 87 10000 4.47 140 20:41 15.01.2021
3672 Clouds 11 1016 87 10000 4.47 140 20:22 15.01.2021
3673 Clouds 14 1016 78 10000 6.29 281 19:41 15.01.2021
3674 Clouds 15 1016 79 10000 4.86 276 19:22 15.01.2021
3675 Clouds 15 1016 79 10000 4.86 276 18:44 15.01.2021
3676 Clouds 15 1016 80 10000 4.01 244 18:19 15.01.2021
3677 Rain 15 1016 80 10000 4.01 244 17:52 15.01.2021
3678 Rain 11 1016 87 10000 4.47 140 17:26 15.01.2021
3679 Clouds 11 1016 87 10000 4.47 140 16:54 15.01.2021
3680 Clouds 11 1016 87 10000 4.47 140 16:25 15.01.2021
3681 Rain 11 1016 87 10000 4.47 140 15:43 15.01.2021
3682 Clouds 11 1016 87 10000 4.47 140 15:23 15.01.2021
3683 Clouds 11 1016 87 10000 4.47 140 14:51 15.01.2021
3684 Clouds 11 1016 87 10000 4.63 140 14:28 15.01.2021
3685 Clouds 11 1016 87 10000 4.63 140 13:46 15.01.2021
3686 Clouds 11 1016 87 10000 4.63 140 13:24 15.01.2021
3687 Clouds 11 1017 82 10000 3.6 120 12:59 15.01.2021
3688 Clouds 11 1017 82 10000 3.6 120 12:37 15.01.2021
3689 Clouds 11 1017 82 10000 3.6 120 12:18 15.01.2021
3690 Clouds 11 1017 82 10000 4.12 140 11:42 15.01.2021
3691 Clouds 12 1017 76 10000 2.06 160 10:58 15.01.2021
3692 Clouds 12 1017 76 10000 2.06 160 10:39 15.01.2021
3693 Clouds 13 1017 76 10000 2.06 160 10:19 15.01.2021
3694 Clouds 14 1017 67 10000 1.54 210 09:47 15.01.2021
3695 Clouds 14 1017 67 10000 1.54 210 09:47 15.01.2021
3696 Clouds 14 1017 67 10000 1.54 210 09:27 15.01.2021
3697 Clouds 15 1016 58 10000 2.57 160 08:27 15.01.2021
3698 Clouds 17 1016 51 10000 2.06 210 07:42 15.01.2021
3699 Clouds 17 1016 51 10000 2.06 210 07:21 15.01.2021
3700 Clouds 16 1017 55 10000 6.17 140 05:56 15.01.2021
3701 Clouds 10 1021 81 10000 6.69 130 02:26 15.01.2021
3702 Clouds 7 1021 93 10000 6.17 140 00:32 15.01.2021
3703 Clouds 7 1021 93 10000 5.66 130 23:30 14.01.2021
3704 Clear 7 1021 93 10000 3.6 150 22:50 14.01.2021
3705 Clear 7 1021 93 10000 3.6 150 22:27 14.01.2021
3706 Clouds 9 1021 81 10000 4.47 130 21:56 14.01.2021
3707 Clouds 9 1021 81 10000 4.47 130 21:38 14.01.2021
3708 Clouds 9 1021 81 10000 4.47 130 21:19 14.01.2021
3709 Clouds 9 1021 81 10000 4.47 130 20:42 14.01.2021
3710 Clouds 9 1021 81 10000 4.47 130 19:57 14.01.2021
3711 Clouds 9 1021 81 10000 4.47 130 19:36 14.01.2021
3712 Clouds 9 1021 81 10000 4.47 130 19:36 14.01.2021
3713 Clouds 9 1022 81 10000 4.47 130 18:57 14.01.2021
3714 Clouds 9 1022 81 10000 4.47 130 18:57 14.01.2021
3715 Clouds 9 1022 81 10000 4.47 130 18:36 14.01.2021
3716 Clouds 9 1022 81 10000 4.47 130 17:55 14.01.2021
3717 Clouds 9 1022 81 10000 4.47 130 17:29 14.01.2021
3718 Clouds 9 1021 81 10000 4.47 130 16:54 14.01.2021
3719 Clouds 9 1022 81 10000 4.47 130 16:30 14.01.2021
3720 Clouds 9 1021 81 10000 4.47 130 15:54 14.01.2021
3721 Clouds 9 1022 81 10000 4.47 130 15:28 14.01.2021
3722 Clouds 9 1022 81 10000 4.47 130 14:44 14.01.2021
3723 Clouds 9 1021 81 10000 4.63 130 14:22 14.01.2021
3724 Clouds 9 1021 81 10000 4.63 130 13:55 14.01.2021
3725 Clouds 9 1021 81 10000 4.63 130 13:24 14.01.2021
3726 Clouds 10 1021 81 10000 4.12 130 12:56 14.01.2021
3727 Clouds 10 1021 81 10000 4.12 130 12:21 14.01.2021
3728 Clouds 10 1021 81 10000 1.54 140 11:55 14.01.2021
3729 Clouds 11 1021 81 10000 1.54 140 11:28 14.01.2021
3730 Clouds 12 1021 66 10000 2.06 150 10:58 14.01.2021
3731 Clouds 12 1021 66 10000 2.06 150 10:40 14.01.2021
3732 Clouds 12 1021 66 10000 2.06 150 10:40 14.01.2021
3733 Clouds 12 1021 66 10000 2.06 150 10:18 14.01.2021
3734 Clouds 13 1020 67 10000 2.06 150 09:42 14.01.2021
3735 Clouds 13 1020 67 10000 2.06 150 09:20 14.01.2021
3736 Clouds 14 1020 62 10000 2.06 180 08:30 14.01.2021
3737 Clouds 14 1020 67 10000 2.57 180 07:57 14.01.2021
3738 Clouds 14 1020 67 10000 2.57 180 07:30 14.01.2021
3739 Clouds 14 1020 67 10000 1.03 0 06:33 14.01.2021
3740 Clouds 14 1021 62 10000 2.57 40 04:56 14.01.2021
3741 Clouds 6 1021 93 10000 5.66 130 23:59 13.01.2021
3742 Clouds 6 1021 93 10000 5.66 130 23:27 13.01.2021
3743 Clouds 6 1021 93 10000 6.17 130 22:48 13.01.2021
3744 Clear 7 1020 87 10000 4.47 130 22:20 13.01.2021
3745 Clear 7 1020 87 10000 4.47 130 21:43 13.01.2021
3746 Clear 10 1021 70 10000 3.27 277 21:20 13.01.2021
3747 Clear 10 1021 70 10000 3.27 277 20:48 13.01.2021
3748 Clear 11 1021 71 10000 3.56 274 20:22 13.01.2021
3749 Clear 11 1021 71 10000 3.56 274 19:47 13.01.2021
3750 Clouds 11 1021 71 10000 3.62 271 19:23 13.01.2021
3751 Clouds 11 1021 71 10000 3.62 271 18:45 13.01.2021
3752 Clear 7 1020 87 10000 4.47 130 18:23 13.01.2021
3753 Clear 7 1020 87 10000 4.47 130 17:41 13.01.2021
3754 Clear 7 1020 87 10000 4.47 130 17:18 13.01.2021
3755 Clear 7 1020 87 10000 4.47 130 16:41 13.01.2021
3756 Clear 7 1020 87 10000 4.47 130 16:21 13.01.2021
3757 Clear 7 1020 87 10000 4.47 130 15:40 13.01.2021
3758 Clear 7 1020 87 10000 4.47 130 14:59 13.01.2021
3759 Clouds 7 1020 87 10000 4.63 130 14:27 13.01.2021
3760 Clouds 7 1020 87 10000 4.63 130 13:38 13.01.2021
3761 Clouds 7 1020 87 10000 4.63 130 13:19 13.01.2021
3762 Clouds 8 1019 87 10000 3.6 120 12:44 13.01.2021
3763 Clouds 8 1019 87 10000 3.6 120 12:22 13.01.2021
3764 Clouds 9 1019 81 10000 2.57 110 11:49 13.01.2021
3765 Clouds 9 1019 81 10000 2.57 110 11:31 13.01.2021
3766 Clouds 10 1019 71 10000 2.06 130 10:48 13.01.2021
3767 Clouds 10 1019 71 10000 2.06 130 10:26 13.01.2021
3768 Clouds 12 1018 58 10000 4.12 240 09:40 13.01.2021
3769 Clouds 12 1018 54 10000 5.14 230 08:58 13.01.2021
3770 Clouds 12 1018 54 10000 5.14 230 08:58 13.01.2021
3771 Clouds 12 1018 54 10000 5.14 230 08:34 13.01.2021
3772 Clouds 12 1018 54 10000 6.69 220 07:57 13.01.2021
3773 Clouds 12 1018 54 10000 6.69 220 07:27 13.01.2021
3774 Clouds 11 1018 66 10000 4.63 130 05:27 13.01.2021
3775 Clouds 10 1018 66 10000 3.6 140 04:18 13.01.2021
3776 Clouds 8 1019 76 10000 4.63 130 03:41 13.01.2021
3777 Clouds 8 1019 76 10000 4.63 130 03:19 13.01.2021
3778 Clouds 3 1019 93 10000 3.6 130 00:44 13.01.2021
3779 Clouds 3 1019 87 10000 1.54 130 23:37 12.01.2021
3780 Clouds 3 1019 87 10000 0.51 0 22:47 12.01.2021
3781 Clouds 3 1019 87 10000 0.51 0 22:26 12.01.2021
3782 Clouds 4 1018 86 10000 3.58 140 21:58 12.01.2021
3783 Clouds 4 1018 86 10000 3.58 140 21:40 12.01.2021
3784 Clouds 4 1018 86 10000 3.58 140 21:20 12.01.2021
3785 Clouds 4 1019 86 10000 3.58 140 20:44 12.01.2021
3786 Clouds 4 1019 86 10000 3.58 140 20:25 12.01.2021
3787 Clouds 4 1018 86 10000 3.58 140 19:39 12.01.2021
3788 Clouds 4 1018 86 10000 3.58 140 18:54 12.01.2021
3789 Clouds 4 1018 86 10000 3.58 140 18:25 12.01.2021
3790 Clouds 4 1018 86 10000 3.58 140 17:57 12.01.2021
3791 Clouds 4 1019 86 10000 3.58 140 17:33 12.01.2021
3792 Clouds 4 1019 86 8646 3.58 140 16:45 12.01.2021
3793 Clouds 4 1019 86 9729 3.58 140 16:27 12.01.2021
3794 Clouds 4 1019 86 9729 3.58 140 15:50 12.01.2021
3795 Clouds 4 1019 86 10000 3.58 140 15:27 12.01.2021
3796 Clouds 4 1019 86 10000 3.58 140 14:50 12.01.2021
3797 Clouds 4 1019 87 10000 3.6 140 14:30 12.01.2021
3798 Clouds 4 1019 87 10000 3.6 140 13:56 12.01.2021
3799 Clouds 4 1019 87 10000 3.6 140 13:37 12.01.2021
3800 Clouds 4 1019 81 10000 2.57 130 12:38 12.01.2021
3801 Clouds 5 1018 70 10000 2.57 80 11:45 12.01.2021
3802 Clouds 5 1018 70 10000 2.57 80 11:45 12.01.2021
3803 Clouds 5 1018 70 10000 2.57 80 11:27 12.01.2021
3804 Clouds 4 1018 65 10000 2.57 350 10:44 12.01.2021
3805 Clouds 5 1018 65 10000 2.57 350 10:20 12.01.2021
3806 Clouds 6 1017 61 10000 2.57 10 09:52 12.01.2021
3807 Clouds 6 1017 61 10000 2.57 10 09:23 12.01.2021
3808 Clouds 6 1017 65 10000 4.63 30 08:27 12.01.2021
3809 Clouds 7 1017 61 10000 6.17 310 07:52 12.01.2021
3810 Clouds 7 1017 61 10000 6.17 310 07:32 12.01.2021
3811 Clouds 6 1018 65 10000 6.17 350 05:45 12.01.2021
3812 Clouds 6 1019 70 10000 5.14 350 03:46 12.01.2021
3813 Clouds 6 1019 70 10000 5.14 350 03:22 12.01.2021
3814 Clouds 5 1019 81 10000 4.63 10 01:51 12.01.2021
3815 Clouds 4 1018 81 10000 5.14 10 00:33 12.01.2021
3816 Clouds 4 1018 81 10000 5.66 10 23:41 11.01.2021
3817 Clouds 4 1018 81 10000 5.66 10 23:19 11.01.2021
3818 Clouds 4 1018 81 10000 5.14 10 22:45 11.01.2021
3819 Clouds 4 1018 81 10000 5.14 10 22:27 11.01.2021
3820 Clouds 5 1021 88 10000 1.79 150 21:46 11.01.2021
3821 Clouds 5 1021 91 10000 1.79 150 21:25 11.01.2021
3822 Clouds 5 1021 91 10000 1.79 150 20:58 11.01.2021
3823 Clouds 5 1021 92 8206 1.79 150 20:37 11.01.2021
3824 Clouds 5 1021 94 2949 1.79 150 20:19 11.01.2021
3825 Clouds 5 1021 94 2949 1.79 150 19:42 11.01.2021
3826 Clouds 5 1021 92 4707 1.79 150 19:21 11.01.2021
3827 Clouds 5 1021 92 4707 1.79 150 18:42 11.01.2021
3828 Clouds 5 1021 87 10000 1.79 150 18:23 11.01.2021
3829 Clouds 5 1021 87 10000 1.79 150 17:42 11.01.2021
3830 Clouds 5 1021 85 10000 1.79 150 17:24 11.01.2021
3831 Clouds 5 1021 85 10000 1.79 150 16:48 11.01.2021
3832 Clouds 5 1021 85 10000 1.79 150 16:29 11.01.2021
3833 Clouds 5 1021 85 10000 1.79 150 15:54 11.01.2021
3834 Clouds 5 1021 85 10000 1.79 150 15:34 11.01.2021
3835 Clouds 5 1021 81 10000 1.79 150 14:51 11.01.2021
3836 Clouds 5 1021 70 10000 2.06 150 14:32 11.01.2021
3837 Clouds 5 1021 70 10000 2.06 150 13:45 11.01.2021
3838 Clouds 5 1021 70 10000 2.06 150 13:22 11.01.2021
3839 Clouds 5 1021 70 10000 2.57 140 12:42 11.01.2021
3840 Clouds 5 1021 70 10000 2.57 140 12:24 11.01.2021
3841 Clouds 5 1021 65 10000 4.12 140 11:45 11.01.2021
3842 Clouds 6 1021 61 10000 2.57 150 10:58 11.01.2021
3843 Clouds 6 1021 61 10000 2.57 150 10:38 11.01.2021
3844 Clouds 6 1021 56 10000 3.09 120 09:54 11.01.2021
3845 Clouds 6 1021 56 10000 3.09 120 09:36 11.01.2021
3846 Clouds 6 1022 61 10000 4.63 150 08:52 11.01.2021
3847 Clouds 6 1022 61 10000 4.63 150 08:33 11.01.2021
3848 Clouds 7 1022 57 10000 5.14 150 07:45 11.01.2021
3849 Clouds 7 1022 57 10000 5.14 150 07:25 11.01.2021
3850 Clouds 6 1023 61 10000 1.03 0 06:49 11.01.2021
3851 Clouds 5 1025 81 10000 6.17 140 02:30 11.01.2021
3852 Clouds 3 1026 87 10000 3.09 130 00:41 11.01.2021
3853 Clouds 3 1027 93 10000 2.57 130 23:48 10.01.2021
3854 Clouds 2 1027 93 10000 3.09 130 22:57 10.01.2021
3855 Clouds 2 1027 93 10000 3.09 130 22:38 10.01.2021
3856 Clouds 3 1027 75 10000 2.72 32 22:18 10.01.2021
3857 Clouds 3 1027 75 10000 2.72 32 21:40 10.01.2021
3858 Clouds 4 1027 75 10000 2.9 18 21:18 10.01.2021
3859 Clouds 4 1027 75 10000 2.9 18 20:47 10.01.2021
3860 Clouds 4 1026 76 10000 2.88 7 20:26 10.01.2021
3861 Clouds 4 1026 76 10000 2.88 7 20:26 10.01.2021
3862 Clouds 4 1026 76 10000 2.88 7 19:38 10.01.2021
3863 Clouds 4 1026 76 10000 3.52 7 19:20 10.01.2021
3864 Clouds 4 1026 76 10000 3.52 7 18:44 10.01.2021
3865 Clouds 4 1026 69 8048 1.34 60 18:20 10.01.2021
3866 Clouds 4 1026 69 634 1.34 60 17:26 10.01.2021
3867 Clouds 4 1026 69 634 1.34 60 16:49 10.01.2021
3868 Clouds 4 1026 69 130 1.34 60 16:28 10.01.2021
3869 Clouds 4 1026 69 130 1.34 60 15:40 10.01.2021
3870 Clouds 4 1026 69 115 1.34 60 15:21 10.01.2021
3871 Clouds 4 1026 69 115 1.34 60 14:40 10.01.2021
3872 Clouds 4 1026 70 8000 1.54 60 14:22 10.01.2021
3873 Clouds 3 1026 70 8000 1.54 60 13:42 10.01.2021
3874 Clouds 3 1026 70 8000 1.54 60 13:24 10.01.2021
3875 Clouds 3 1026 75 10000 1.54 90 12:51 10.01.2021
3876 Clouds 3 1026 75 10000 1.54 90 12:33 10.01.2021
3877 Clouds 4 1025 70 10000 2.57 50 11:55 10.01.2021
3878 Clouds 4 1025 70 10000 2.57 50 11:20 10.01.2021
3879 Clouds 2 1025 75 10000 3.09 340 10:51 10.01.2021
3880 Clouds 2 1025 75 10000 3.09 340 10:22 10.01.2021
3881 Clouds 5 1025 60 10000 4.63 310 09:39 10.01.2021
3882 Clouds 5 1025 56 10000 1.54 160 08:27 10.01.2021
3883 Clouds 4 1025 60 10000 1.54 160 07:38 10.01.2021
3884 Clouds 4 1024 65 10000 2.57 200 06:21 10.01.2021
3885 Clouds 4 1025 60 10000 1.54 80 05:45 10.01.2021
3886 Clouds 3 1025 60 10000 1.54 80 05:27 10.01.2021
3887 Clouds 1 1026 64 10000 4.12 20 01:30 10.01.2021
3888 Clouds 1 1026 64 10000 4.63 360 00:19 10.01.2021
3889 Clouds 1 1025 64 10000 7.2 340 23:41 09.01.2021
3890 Clouds 2 1025 60 10000 6.69 350 22:59 09.01.2021
3891 Clouds 2 1025 60 10000 6.69 350 22:20 09.01.2021
3892 Clouds 1 1025 82 10000 4.83 358 21:58 09.01.2021
3893 Clouds 1 1025 82 10000 4.83 358 21:39 09.01.2021
3894 Clouds 1 1025 82 10000 4.83 358 21:39 09.01.2021
3895 Clouds 1 1025 82 10000 5.12 356 21:20 09.01.2021
3896 Clouds 1 1025 82 10000 5.12 356 20:46 09.01.2021
3897 Clear 1 1025 82 10000 5.2 351 20:27 09.01.2021
3898 Clear 1 1022 86 10000 6.71 350 19:39 09.01.2021
3899 Clouds 1 1022 86 10000 6.71 350 19:19 09.01.2021
3900 Clouds 1 1022 86 10000 6.71 350 18:36 09.01.2021
3901 Clouds 1 1022 86 10000 6.71 350 17:51 09.01.2021
3902 Clouds 1 1021 86 10000 6.71 350 17:32 09.01.2021
3903 Clouds 1 1021 86 10000 6.71 350 16:55 09.01.2021
3904 Clouds 1 1021 86 10000 6.71 350 16:22 09.01.2021
3905 Clouds 1 1022 86 10000 6.71 350 15:41 09.01.2021
3906 Snow 1 1022 86 5000 6.69 350 14:56 09.01.2021
3907 Snow 1 1022 86 5000 6.69 350 14:36 09.01.2021
3908 Snow 1 1022 86 5000 6.69 350 14:18 09.01.2021
3909 Snow 1 1022 86 5000 6.69 350 13:43 09.01.2021
3910 Snow 1 1022 86 4000 10.8 330 13:24 09.01.2021
3911 Snow 2 1021 69 10000 6.17 350 12:28 09.01.2021
3912 Snow 2 1021 69 10000 7.2 360 11:58 09.01.2021
3913 Snow 1 1021 69 10000 7.2 360 11:37 09.01.2021
3914 Snow 1 1020 75 10000 7.72 350 10:57 09.01.2021
3915 Snow 1 1020 75 10000 7.72 350 10:38 09.01.2021
3916 Snow 1 1020 75 10000 7.72 350 10:19 09.01.2021
3917 Snow 1 1020 80 10000 7.2 350 09:43 09.01.2021
3918 Snow 1 1020 80 10000 7.2 350 09:19 09.01.2021
3919 Snow 1 1020 80 7000 5.66 350 07:48 09.01.2021
3920 Snow 1 1020 86 6000 4.12 360 06:42 09.01.2021
3921 Snow 1 1020 86 6000 4.12 360 06:23 09.01.2021
3922 Snow 0 1022 74 10000 3.09 350 03:49 09.01.2021
3923 Clouds -1 1022 69 10000 5.66 360 02:40 09.01.2021
3924 Clouds -1 1022 69 10000 5.66 360 02:22 09.01.2021
3925 Snow -1 1022 80 10000 4.12 290 01:24 09.01.2021
3926 Snow -1 1021 69 10000 4.63 340 00:28 09.01.2021
3927 Clouds -1 1021 59 10000 6.69 340 23:41 08.01.2021
3928 Clouds -1 1022 92 10000 4.18 351 22:39 08.01.2021
3929 Clouds 0 1022 90 10000 5.49 339 21:52 08.01.2021
3930 Clouds 0 1022 90 10000 6.81 334 20:59 08.01.2021
3931 Clouds 0 1022 90 10000 6.81 334 20:33 08.01.2021
3932 Clouds 0 1021 88 10000 7.56 334 19:57 08.01.2021
3933 Clouds 1 1021 88 10000 7.99 333 19:24 08.01.2021
3934 Snow 0 1021 93 8385 6.6 335 18:53 08.01.2021
3935 Snow 0 1021 93 8385 6.6 335 18:31 08.01.2021
3936 Snow 0 1021 94 7363 5.55 344 17:50 08.01.2021
3937 Snow 0 1021 94 4139 5.18 335 17:24 08.01.2021
3938 Snow 0 1021 94 4139 5.18 335 16:47 08.01.2021
3939 Snow -3 1020 93 2500 1.54 360 15:45 08.01.2021
3940 Snow -3 1020 93 2500 1.54 360 15:25 08.01.2021
3941 Snow -1 1020 86 4000 4.63 340 14:36 08.01.2021
3942 Snow -1 1020 86 4000 4.63 340 13:47 08.01.2021
3943 Snow -1 1020 86 4000 4.63 340 13:18 08.01.2021
3944 Snow 0 1020 59 10000 4.63 360 12:49 08.01.2021
3945 Snow 0 1020 59 10000 4.63 360 12:20 08.01.2021
3946 Snow 0 1020 64 10000 6.69 350 11:45 08.01.2021
3947 Snow 0 1020 64 10000 6.69 350 11:27 08.01.2021
3948 Snow 0 1020 69 10000 8.23 350 10:52 08.01.2021
3949 Snow 0 1020 69 10000 8.23 350 10:32 08.01.2021
3950 Snow 0 1020 69 10000 7.72 340 09:45 08.01.2021
3951 Snow 0 1020 69 10000 7.72 340 09:27 08.01.2021
3952 Snow 1 1020 55 10000 8.23 310 08:33 08.01.2021
3953 Clouds 2 1020 44 10000 9.77 340 07:26 08.01.2021
3954 Snow 1 1020 55 10000 11.32 330 05:51 08.01.2021
3955 Snow -1 1021 74 10000 7.72 350 23:47 07.01.2021
3956 Snow -1 1021 74 10000 7.72 350 23:29 07.01.2021
3957 Snow -1 1022 68 1053 10.73 310 22:46 07.01.2021
3958 Snow -1 1022 96 4120 5.11 351 22:26 07.01.2021
3959 Snow -1 1022 96 4120 5.11 351 21:44 07.01.2021
3960 Snow -1 1022 92 10000 5.59 343 21:26 07.01.2021
3961 Snow -1 1022 92 10000 5.59 343 20:47 07.01.2021
3962 Snow -1 1022 92 10000 5.59 343 20:47 07.01.2021
3963 Clouds -1 1022 92 10000 5.76 353 20:28 07.01.2021
3964 Clouds -1 1022 92 10000 5.76 353 19:44 07.01.2021
3965 Clouds -1 1022 93 10000 6.67 344 19:21 07.01.2021
3966 Snow -1 1022 94 6247 5.63 344 18:30 07.01.2021
3967 Snow -1 1022 94 6247 5.63 344 18:30 07.01.2021
3968 Snow -1 1023 94 5407 6.09 345 17:47 07.01.2021
3969 Clouds -1 1023 92 10000 6.76 344 17:27 07.01.2021
3970 Clouds -1 1023 92 10000 6.76 344 16:53 07.01.2021
3971 Clouds -1 1023 92 10000 6.76 344 16:53 07.01.2021
3972 Clouds -2 1022 74 10000 5.14 280 16:27 07.01.2021
3973 Clouds -2 1022 74 10000 5.14 280 15:40 07.01.2021
3974 Clouds -2 1023 69 10000 5.14 310 14:55 07.01.2021
3975 Snow -1 1022 69 10000 10.8 310 14:27 07.01.2021
3976 Snow -1 1022 69 10000 10.8 310 13:43 07.01.2021
3977 Snow -1 1022 69 10000 10.8 310 13:18 07.01.2021
3978 Clouds -1 1021 68 10000 8.94 350 12:42 07.01.2021
3979 Snow -1 1022 68 10000 9.3 350 11:54 07.01.2021
3980 Snow -1 1022 68 10000 9.3 350 11:35 07.01.2021
3981 Clouds -1 1022 68 10000 9.3 340 10:50 07.01.2021
3982 Clouds -1 1021 63 10000 10.8 340 10:20 07.01.2021
3983 Clouds -1 1021 63 10000 10.8 340 09:47 07.01.2021
3984 Snow -1 1022 63 10000 10.3 340 09:19 07.01.2021
3985 Snow 0 1022 63 10000 10.3 340 08:29 07.01.2021
3986 Snow 0 1021 90 8000 12.3 330 07:48 07.01.2021
3987 Snow 0 1021 89 8000 12.3 330 07:22 07.01.2021
3988 Snow 1 1021 69 10000 11.8 320 04:30 07.01.2021
3989 Clouds 3 1020 86 8000 10.3 310 00:29 07.01.2021
3990 Clouds 5 1019 65 10000 11.3 300 23:45 06.01.2021
3991 Clouds 5 1021 56 10000 5.36 340 22:39 06.01.2021
3992 Clouds 5 1021 56 10000 5.36 340 21:44 06.01.2021
3993 Clouds 5 1021 56 10000 5.36 340 21:23 06.01.2021
3994 Clouds 5 1021 56 10000 5.36 340 20:53 06.01.2021
3995 Clouds 5 1021 56 8243 5.36 340 20:24 06.01.2021
3996 Clouds 5 1021 56 8243 5.36 340 20:24 06.01.2021
3997 Clouds 5 1021 56 8243 5.36 340 19:54 06.01.2021
3998 Rain 5 1021 56 8243 5.36 340 19:36 06.01.2021
3999 Clouds 5 1021 56 10000 5.36 340 19:18 06.01.2021
4000 Clouds 5 1021 56 10000 5.36 340 18:40 06.01.2021
4001 Rain 5 1021 56 10000 5.36 340 18:21 06.01.2021
4002 Clouds 5 1021 56 10000 5.36 340 17:42 06.01.2021
4003 Clouds 5 1021 56 10000 5.36 340 17:22 06.01.2021
4004 Clouds 5 1021 56 10000 5.36 340 16:41 06.01.2021
4005 Clouds 5 1021 56 8127 5.36 340 16:19 06.01.2021
4006 Clouds 5 1021 56 8127 5.36 340 15:50 06.01.2021
4007 Clouds 5 1021 56 10000 5.36 340 15:28 06.01.2021
4008 Rain 5 1021 56 10000 5.36 340 14:44 06.01.2021
4009 Clouds 5 1021 56 10000 5.7 340 14:20 06.01.2021
4010 Clouds 5 1021 56 10000 5.7 340 13:42 06.01.2021
4011 Clouds 5 1020 60 10000 5.1 360 13:20 06.01.2021
4012 Clouds 5 1020 60 10000 5.1 360 12:46 06.01.2021
4013 Clouds 5 1021 56 10000 4.6 360 11:51 06.01.2021
4014 Clouds 5 1021 56 10000 5.1 340 11:24 06.01.2021
4015 Clouds 5 1021 56 10000 5.1 340 10:46 06.01.2021
4016 Clouds 5 1021 52 10000 8.7 320 09:58 06.01.2021
4017 Clouds 5 1021 52 10000 8.7 320 09:40 06.01.2021
4018 Clouds 5 1021 52 10000 6.2 330 08:56 06.01.2021
4019 Clouds 5 1021 52 10000 6.7 330 08:21 06.01.2021
4020 Clouds 6 1021 52 10000 6.7 330 07:54 06.01.2021
4021 Clouds 5 1021 56 10000 7.2 350 06:45 06.01.2021
4022 Clouds 5 1022 56 10000 8.7 330 05:32 06.01.2021
4023 Clouds 5 1023 56 10000 9.8 330 04:31 06.01.2021
4024 Clouds 5 1023 56 10000 7.7 320 02:45 06.01.2021
4025 Clouds 5 1024 52 10000 9.3 300 02:22 06.01.2021
4026 Clouds 5 1023 60 10000 8.7 330 00:22 06.01.2021
4027 Clouds 7 1023 65 10000 2.68 30 22:59 05.01.2021
4028 Clouds 7 1023 65 10000 2.68 30 22:40 05.01.2021
4029 Clouds 7 1023 65 10000 2.68 30 22:20 05.01.2021
4030 Clouds 7 1023 65 10000 2.68 30 21:37 05.01.2021
4031 Clouds 7 1022 65 10000 2.68 30 20:37 05.01.2021
4032 Clouds 7 1022 65 10000 2.68 30 20:18 05.01.2021
4033 Clouds 7 1022 65 10000 2.68 30 19:41 05.01.2021
4034 Rain 7 1022 65 10000 2.68 30 19:21 05.01.2021
4035 Clouds 7 1022 65 10000 2.68 30 18:42 05.01.2021
4036 Clouds 7 1022 65 10000 2.68 30 18:21 05.01.2021
4037 Rain 7 1023 65 10000 2.68 30 17:47 05.01.2021
4038 Clouds 7 1022 65 10000 2.68 30 17:26 05.01.2021
4039 Clouds 7 1022 65 10000 2.68 30 16:51 05.01.2021
4040 Clouds 7 1023 65 10000 2.68 30 16:21 05.01.2021
4041 Clouds 7 1023 65 10000 2.68 30 15:50 05.01.2021
4042 Clouds 7 1022 65 10000 2.68 30 14:50 05.01.2021
4043 Clouds 7 1023 65 10000 3.1 30 14:25 05.01.2021
4044 Clouds 7 1023 65 10000 3.1 30 13:46 05.01.2021
4045 Clouds 6 1023 70 10000 2.1 50 13:22 05.01.2021
4046 Clouds 6 1023 70 10000 2.1 50 12:47 05.01.2021
4047 Clouds 7 1023 65 10000 5.1 10 12:24 05.01.2021
4048 Clouds 8 1023 65 10000 5.1 10 11:39 05.01.2021
4049 Clouds 8 1023 65 10000 5.1 10 11:39 05.01.2021
4050 Clouds 8 1023 65 10000 5.1 10 11:39 05.01.2021
4051 Clouds 8 1023 65 10000 5.1 10 11:39 05.01.2021
4052 Clouds 8 1023 65 10000 5.1 10 11:39 05.01.2021
4053 Clouds 9 1022 61 10000 6.7 10 10:46 05.01.2021
4054 Clouds 9 1022 61 10000 6.7 10 10:26 05.01.2021
4055 Clouds 10 1021 53 10000 7.2 10 09:48 05.01.2021
4056 Clouds 10 1021 53 10000 7.2 10 09:28 05.01.2021
4057 Clouds 11 1022 53 10000 5.7 350 08:25 05.01.2021
4058 Rain 11 1022 53 10000 6.7 350 06:46 05.01.2021
4059 Clouds 9 1024 66 10000 4.1 340 03:56 05.01.2021
4060 Clouds 6 1024 75 10000 4.6 340 00:48 05.01.2021
4061 Clear 6 1025 70 10000 1 100 23:45 04.01.2021
4062 Rain 7 1025 64 10000 3.88 35 23:25 04.01.2021
4063 Clouds 7 1025 64 10000 3.88 35 22:49 04.01.2021
4064 Clouds 7 1025 62 10000 3.73 16 22:27 04.01.2021
4065 Clouds 7 1025 62 10000 3.73 16 21:45 04.01.2021
4066 Rain 7 1025 62 10000 4.11 11 21:25 04.01.2021
4067 Clouds 7 1025 62 10000 4.11 11 20:43 04.01.2021
4068 Rain 7 1025 60 10000 2.89 351 20:22 04.01.2021
4069 Clouds 7 1025 60 10000 2.89 351 19:48 04.01.2021
4070 Rain 7 1025 60 10000 3.11 1 19:24 04.01.2021
4071 Clouds 7 1025 60 10000 2.4 15 18:48 04.01.2021
4072 Rain 7 1025 58 10000 2.67 22 18:19 04.01.2021
4073 Clouds 7 1025 58 10000 2.67 22 17:41 04.01.2021
4074 Clouds 7 1026 58 10000 2.54 33 17:22 04.01.2021
4075 Clouds 7 1026 58 10000 2.54 33 16:45 04.01.2021
4076 Clouds 4 1027 57 10000 2.6 310 16:26 04.01.2021
4077 Clouds 4 1027 57 10000 2.6 310 15:49 04.01.2021
4078 Clouds 3 1026 58 10000 2.1 320 15:25 04.01.2021
4079 Clouds 6 1026 58 10000 1.5 70 14:34 04.01.2021
4080 Clouds 6 1026 58 10000 1.5 70 13:44 04.01.2021
4081 Clouds 6 1026 70 10000 3.1 130 13:22 04.01.2021
4082 Clouds 6 1026 70 10000 3.1 130 12:32 04.01.2021
4083 Clouds 7 1026 58 10000 1 0 11:55 04.01.2021
4084 Clouds 7 1025 56 10000 1.5 80 11:20 04.01.2021
4085 Clouds 7 1025 56 10000 1.5 80 10:47 04.01.2021
4086 Clouds 7 1025 56 10000 1.5 80 10:24 04.01.2021
4087 Clouds 10 1026 54 10000 2.1 0 09:49 04.01.2021
4088 Clouds 10 1026 53 10000 6.2 10 09:18 04.01.2021
4089 Clouds 10 1026 53 10000 6.2 10 08:41 04.01.2021
4090 Clouds 11 1026 43 10000 7.2 20 07:48 04.01.2021
4091 Clouds 11 1027 37 10000 6.7 360 06:56 04.01.2021
4092 Clouds 9 1028 45 10000 2.1 260 05:21 04.01.2021
4093 Clouds 5 1030 65 10000 2.1 150 02:34 04.01.2021
4094 Clear 2 1030 80 10000 2.6 120 00:29 04.01.2021
4095 Clouds 3 1030 68 10000 4.6 10 23:47 03.01.2021
4096 Clouds 3 1029 69 10000 4.47 10 23:19 03.01.2021
4097 Clouds 4 1030 64 10000 5.81 360 22:42 03.01.2021
4098 Clouds 4 1030 64 10000 5.81 360 22:23 03.01.2021
4099 Clouds 4 1030 64 10000 5.81 360 21:46 03.01.2021
4100 Clouds 4 1030 64 10000 5.81 360 21:24 03.01.2021
4101 Clouds 4 1030 64 10000 5.81 360 20:42 03.01.2021
4102 Clouds 4 1030 64 10000 5.81 360 20:20 03.01.2021
4103 Clouds 4 1030 64 10000 5.81 360 19:52 03.01.2021
4104 Clouds 4 1030 64 10000 5.81 360 19:33 03.01.2021
4105 Clouds 4 1030 64 10000 5.81 360 18:52 03.01.2021
4106 Clouds 4 1030 64 10000 5.81 360 18:33 03.01.2021
4107 Clouds 4 1030 64 10000 5.81 360 17:53 03.01.2021
4108 Clouds 4 1030 64 10000 5.81 360 17:29 03.01.2021
4109 Clouds 4 1030 64 10000 5.81 360 16:57 03.01.2021
4110 Clouds 4 1030 64 10000 5.81 360 16:38 03.01.2021
4111 Clouds 4 1030 64 10000 5.81 360 16:19 03.01.2021
4112 Clouds 4 1030 64 10000 5.81 360 15:41 03.01.2021
4113 Clouds 4 1030 64 10000 5.81 360 15:19 03.01.2021
4114 Clouds 4 1030 64 10000 5.81 360 14:41 03.01.2021
4115 Clouds 4 1030 64 10000 6.2 360 13:55 03.01.2021
4116 Clouds 4 1030 64 10000 6.2 360 13:26 03.01.2021
4117 Clouds 4 1029 60 10000 4.6 30 12:58 03.01.2021
4118 Clouds 5 1030 52 10000 3.6 40 11:46 03.01.2021
4119 Clouds 5 1030 52 10000 3.6 40 11:27 03.01.2021
4120 Clouds 6 1029 45 10000 6.2 360 10:57 03.01.2021
4121 Clouds 6 1029 45 10000 6.2 360 10:32 03.01.2021
4122 Clouds 6 1029 38 10000 9.3 340 09:45 03.01.2021
4123 Clouds 6 1029 38 10000 9.3 340 09:24 03.01.2021
4124 Clouds 9 1028 39 10000 7.2 350 07:59 03.01.2021
4125 Clouds 9 1028 29 10000 6.2 350 06:51 03.01.2021
4126 Clouds 7 1031 39 10000 5.1 20 02:59 03.01.2021
4127 Clouds 6 1031 41 10000 5.1 20 02:22 03.01.2021
4128 Clouds 3 1030 59 10000 3.1 40 00:25 03.01.2021
4129 Clouds 3 1030 59 10000 3.1 40 23:32 02.01.2021
4130 Clouds 6 1027 70 10000 6.71 340 22:59 02.01.2021
4131 Clouds 6 1027 70 10000 6.71 340 22:33 02.01.2021
4132 Clouds 6 1027 70 10000 6.71 340 21:59 02.01.2021
4133 Clouds 6 1027 70 10000 6.71 340 21:37 02.01.2021
4134 Clouds 6 1027 70 10000 6.71 340 21:19 02.01.2021
4135 Clouds 6 1027 70 10000 6.71 340 20:40 02.01.2021
4136 Clouds 6 1027 70 10000 6.71 340 20:20 02.01.2021
4137 Clouds 6 1027 70 10000 6.71 340 19:43 02.01.2021
4138 Clouds 6 1027 70 10000 6.71 340 19:19 02.01.2021
4139 Clouds 6 1027 70 10000 6.71 340 18:42 02.01.2021
4140 Clouds 6 1027 70 10000 6.71 340 18:24 02.01.2021
4141 Clouds 6 1027 70 10000 6.71 340 17:45 02.01.2021
4142 Clear 6 1027 70 10000 6.71 340 17:22 02.01.2021
4143 Clear 6 1027 70 10000 6.71 340 16:38 02.01.2021
4144 Clear 6 1027 70 10000 6.71 340 16:19 02.01.2021
4145 Clear 6 1027 70 10000 6.71 340 15:41 02.01.2021
4146 Clear 6 1027 70 10000 6.71 340 15:21 02.01.2021
4147 Clouds 6 1027 70 10000 6.7 340 14:37 02.01.2021
4148 Clouds 6 1027 70 10000 6.7 340 13:58 02.01.2021
4149 Clouds 6 1027 70 10000 6.7 340 13:32 02.01.2021
4150 Clouds 6 1027 70 10000 6.7 350 12:53 02.01.2021
4151 Clouds 6 1027 70 10000 6.7 350 12:32 02.01.2021
4152 Clouds 6 1026 67 10000 6.7 350 11:45 02.01.2021
4153 Clouds 7 1026 65 10000 7.7 340 11:22 02.01.2021
4154 Clouds 8 1026 65 10000 7.7 340 10:49 02.01.2021
4155 Clouds 8 1026 65 10000 7.7 340 10:28 02.01.2021
4156 Clouds 8 1025 65 10000 7.7 330 09:45 02.01.2021
4157 Clouds 8 1024 66 10000 2.6 330 09:23 02.01.2021
4158 Clouds 9 1024 66 10000 2.6 330 08:50 02.01.2021
4159 Clouds 9 1024 66 10000 2.6 330 08:25 02.01.2021
4160 Clouds 8 1024 70 10000 3.6 350 07:44 02.01.2021
4161 Clouds 8 1024 75 10000 4.1 350 07:21 02.01.2021
4162 Clouds 8 1024 75 10000 4.1 350 06:40 02.01.2021
4163 Clouds 7 1024 87 10000 4.1 340 05:28 02.01.2021
4164 Clouds 5 1024 86 10000 3.1 130 00:56 02.01.2021
4165 Clouds 5 1024 86 10000 3.1 130 00:35 02.01.2021
4166 Clouds 6 1024 81 10000 3.1 150 23:51 01.01.2021
4167 Clouds 6 1024 81 10000 2.68 150 23:20 01.01.2021
4168 Clouds 6 1024 84 10000 1.34 30 22:47 01.01.2021
4169 Clouds 6 1024 84 10000 1.34 30 22:24 01.01.2021
4170 Clouds 6 1024 84 10000 1.34 30 21:44 01.01.2021
4171 Clouds 6 1024 84 10000 1.34 30 21:22 01.01.2021
4172 Clouds 6 1024 84 10000 1.34 30 20:53 01.01.2021
4173 Clouds 6 1024 84 10000 1.34 30 20:22 01.01.2021
4174 Clouds 6 1024 84 10000 1.34 30 19:43 01.01.2021
4175 Clouds 6 1024 86 10000 1.34 30 19:24 01.01.2021
4176 Clouds 6 1024 86 10000 3.16 358 18:57 01.01.2021
4177 Clouds 5 1024 87 10000 1.22 5 18:39 01.01.2021
4178 Clouds 5 1024 86 10000 1.3 89 18:19 01.01.2021
4179 Clouds 5 1024 86 10000 1.3 89 17:41 01.01.2021
4180 Clouds 5 1024 85 10000 1.4 116 17:18 01.01.2021
4181 Clouds 4 1024 80 10000 1.5 10 16:38 01.01.2021
4182 Clouds 4 1024 80 10000 1.5 10 15:56 01.01.2021
4183 Clouds 4 1024 80 10000 1.5 10 15:36 01.01.2021
4184 Clouds 4 1024 72 10000 2.1 20 14:41 01.01.2021
4185 Clouds 6 1024 70 10000 1.5 30 13:54 01.01.2021
4186 Clouds 6 1024 70 10000 1.5 30 13:54 01.01.2021
4187 Clouds 6 1024 70 10000 1.5 30 13:36 01.01.2021
4188 Clouds 5 1024 65 10000 0.5 0 12:47 01.01.2021
4189 Clouds 6 1024 56 10000 3.6 30 12:25 01.01.2021
4190 Clouds 6 1024 56 10000 3.6 30 11:39 01.01.2021
4191 Clouds 6 1024 56 10000 3.6 20 11:18 01.01.2021
4192 Clouds 6 1024 56 10000 3.6 20 10:50 01.01.2021
4193 Clouds 6 1024 52 10000 1 330 09:50 01.01.2021
4194 Clouds 6 1024 52 10000 4.1 350 09:23 01.01.2021
4195 Clouds 6 1024 52 10000 4.1 350 08:30 01.01.2021
4196 Clouds 6 1024 52 10000 4.1 350 08:30 01.01.2021
4197 Clouds 8 1025 42 10000 8.2 300 05:50 01.01.2021
4198 Clouds 7 1025 48 10000 7.7 320 04:47 01.01.2021
4199 Clouds 5 1026 56 10000 7.2 340 01:39 01.01.2021
4200 Clouds 5 1026 56 10000 4.1 350 00:32 01.01.2021
4201 Clouds 5 1025 52 10000 6.7 340 23:38 31.12.2020
4202 Clouds 5 1023 52 10000 6.71 340 23:20 31.12.2020
4203 Clouds 2 1024 93 10000 1.79 80 22:41 31.12.2020
4204 Clouds 2 1024 93 10000 1.79 80 22:21 31.12.2020
4205 Clouds 5 1025 73 10000 5.09 339 21:50 31.12.2020
4206 Clouds 5 1025 73 10000 5.09 339 21:31 31.12.2020
4207 Clouds 5 1025 72 10000 5.14 336 20:57 31.12.2020
4208 Clouds 5 1024 69 10000 5.34 333 20:24 31.12.2020
4209 Clouds 5 1024 69 10000 5.34 333 19:49 31.12.2020
4210 Clouds 5 1024 69 10000 5.34 333 19:31 31.12.2020
4211 Clouds 5 1024 68 10000 5.76 332 18:50 31.12.2020
4212 Clouds 5 1024 72 10000 6.43 334 18:25 31.12.2020
4213 Clouds 5 1024 72 10000 6.43 334 17:45 31.12.2020
4214 Clouds 5 1024 72 10000 6.49 329 17:25 31.12.2020
4215 Clouds 5 1024 72 10000 6.49 329 16:44 31.12.2020
4216 Clouds 0 1024 68 10000 1.5 350 16:26 31.12.2020
4217 Clouds 0 1024 68 10000 1.5 350 15:55 31.12.2020
4218 Clouds 0 1024 68 10000 1.5 350 15:36 31.12.2020
4219 Clouds 1 1024 67 10000 3.1 270 15:18 31.12.2020
4220 Clouds 2 1024 93 10000 2.1 80 14:39 31.12.2020
4221 Clouds 2 1024 93 10000 2.1 80 14:21 31.12.2020
4222 Clouds 2 1024 93 10000 2.1 80 13:42 31.12.2020
4223 Clouds 2 1024 76 8000 4.6 340 13:24 31.12.2020
4224 Clouds 2 1024 76 8000 4.6 340 12:55 31.12.2020
4225 Clouds 2 1024 77 8000 4.6 340 12:55 31.12.2020
4226 Clouds 2 1024 76 8000 4.6 340 12:36 31.12.2020
4227 Clouds 3 1024 73 10000 2.6 360 11:53 31.12.2020
4228 Clouds 3 1024 73 10000 2.6 360 11:32 31.12.2020
4229 Clouds 4 1024 60 10000 4.1 320 10:50 31.12.2020
4230 Clouds 4 1024 60 10000 4.1 320 10:30 31.12.2020
4231 Clouds 4 1023 60 10000 7.2 320 09:58 31.12.2020
4232 Clouds 4 1023 60 10000 7.2 320 09:39 31.12.2020
4233 Clouds 4 1023 55 10000 7.2 340 09:20 31.12.2020
4234 Clouds 4 1023 55 10000 7.2 340 08:45 31.12.2020
4235 Clouds 4 1023 55 10000 7.2 340 08:27 31.12.2020
4236 Clouds 4 1023 55 10000 9.3 310 07:51 31.12.2020
4237 Clouds 5 1023 52 10000 6.2 300 06:46 31.12.2020
4238 Clouds 4 1023 48 10000 6.2 330 05:29 31.12.2020
4239 Clouds 3 1024 64 10000 7.2 350 02:59 31.12.2020
4240 Clouds 3 1024 64 10000 7.2 350 02:26 31.12.2020
4241 Rain 2 1024 59 10000 10.3 330 01:48 31.12.2020
4242 Rain 2 1024 59 10000 10.3 330 01:28 31.12.2020
4243 Rain 0 1023 75 10000 5.7 350 00:48 31.12.2020
4244 Snow 0 1023 79 10000 7.7 330 23:53 30.12.2020
4245 Snow 1 1019 74 10000 12.07 330 23:20 30.12.2020
4246 Snow 1 1019 74 10000 12.07 330 22:51 30.12.2020
4247 Snow 1 1019 74 10000 12.07 330 22:31 30.12.2020
4248 Snow 1 1015 74 5908 12.07 330 21:47 30.12.2020
4249 Snow 1 1015 74 3032 12.07 330 21:25 30.12.2020
4250 Snow 1 1015 74 3032 12.07 330 20:51 30.12.2020
4251 Clouds 1 1015 74 10000 12.07 330 20:22 30.12.2020
4252 Clouds 1 1015 74 10000 12.07 330 19:42 30.12.2020
4253 Clouds 1 1015 74 10000 12.07 330 19:23 30.12.2020
4254 Clouds 1 1015 74 10000 12.07 330 18:49 30.12.2020
4255 Snow 1 1015 74 9951 12.07 330 18:30 30.12.2020
4256 Clouds 1 1019 74 9706 12.07 330 17:52 30.12.2020
4257 Clouds 1 1019 74 9706 12.07 330 17:33 30.12.2020
4258 Clouds 1 1019 74 10000 12.07 330 16:59 30.12.2020
4259 Clouds 1 1015 74 10000 12.07 330 16:35 30.12.2020
4260 Clouds 1 1019 74 10000 12.07 330 15:48 30.12.2020
4261 Clouds 0 1019 80 10000 7.2 340 15:26 30.12.2020
4262 Clouds 1 1019 74 9494 12.07 330 14:44 30.12.2020
4263 Snow 1 1019 74 7000 12.3 330 14:25 30.12.2020
4264 Snow 1 1019 74 7000 12.3 330 13:48 30.12.2020
4265 Rain 2 1018 55 10000 14.9 310 12:44 30.12.2020
4266 Snow 1 1018 69 7000 15.4 310 12:22 30.12.2020
4267 Snow 1 1018 69 7000 15.4 310 11:38 30.12.2020
4268 Snow 1 1018 80 5000 11.3 310 11:19 30.12.2020
4269 Snow 1 1018 80 5000 11.3 310 10:49 30.12.2020
4270 Snow 1 1018 80 5000 11.3 310 10:29 30.12.2020
4271 Snow 2 1017 64 10000 13.4 320 09:50 30.12.2020
4272 Snow 2 1017 64 10000 13.4 320 09:29 30.12.2020
4273 Clouds 3 1017 64 10000 12.9 310 08:34 30.12.2020
4274 Snow 2 1017 80 9000 10.3 330 07:30 30.12.2020
4275 Snow 2 1017 80 9000 10.3 330 07:30 30.12.2020
4276 Clouds 2 1016 69 9000 14.9 310 06:52 30.12.2020
4277 Clouds 2 1016 69 9000 14.9 310 06:31 30.12.2020
4278 Clouds 4 1016 64 10000 13.9 310 05:44 30.12.2020
4279 Clouds 4 1016 64 10000 13.9 310 05:25 30.12.2020
4280 Clouds 3 1017 77 10000 12.3 320 03:28 30.12.2020
4281 Clouds 3 1017 77 10000 12.3 320 03:28 30.12.2020
4282 Clouds 3 1017 77 10000 15.4 320 02:42 30.12.2020
4283 Clouds 5 1016 75 10000 12.3 300 01:56 30.12.2020
4284 Clouds 5 1016 75 10000 12.3 300 01:33 30.12.2020
4285 Clouds 6 1015 77 10000 13.4 310 00:50 30.12.2020
4286 Clouds 6 1015 76 10000 13.4 310 00:50 30.12.2020
4287 Clouds 6 1015 77 10000 13.4 310 00:30 30.12.2020
4288 Clouds 6 1014 70 10000 15.9 310 23:54 29.12.2020
4289 Clouds 6 1014 70 10000 15.9 310 23:36 29.12.2020
4290 Clouds 6 1014 77 10000 11.46 319 22:58 29.12.2020
4291 Clouds 6 1014 77 10000 11.46 319 22:40 29.12.2020
4292 Clouds 8 1013 80 10000 11.49 318 22:20 29.12.2020
4293 Clouds 8 1013 80 10000 11.49 318 22:20 29.12.2020
4294 Clouds 8 1013 80 10000 11.49 318 21:46 29.12.2020
4295 Clouds 12 1009 100 10000 5.36 350 21:24 29.12.2020
4296 Clouds 12 1009 100 10000 5.36 350 20:46 29.12.2020
4297 Clouds 12 1009 100 10000 5.36 350 20:25 29.12.2020
4298 Clouds 12 1009 100 10000 5.36 350 19:47 29.12.2020
4299 Clouds 12 1009 100 10000 5.36 350 19:23 29.12.2020
4300 Clouds 11 1010 85 10000 9.79 335 18:54 29.12.2020
4301 Clouds 11 1010 85 10000 9.79 335 18:54 29.12.2020
4302 Clouds 12 1010 85 10000 7.03 345 18:29 29.12.2020
4303 Clouds 12 1010 85 10000 7.03 345 17:55 29.12.2020
4304 Clouds 12 1010 85 10000 7.03 345 17:36 29.12.2020
4305 Clouds 12 1010 85 10000 7.03 345 17:36 29.12.2020
4306 Clouds 12 1010 87 10000 6.02 348 17:18 29.12.2020
4307 Clouds 12 1009 100 10000 5.36 350 16:34 29.12.2020
4308 Clouds 12 1009 100 10000 5.36 350 15:52 29.12.2020
4309 Clouds 12 1009 100 10000 5.36 350 15:33 29.12.2020
4310 Rain 12 1009 100 10000 5.36 350 14:46 29.12.2020
4311 Rain 12 1010 100 5000 5.7 350 14:28 29.12.2020
4312 Mist 12 1010 100 5000 5.7 350 13:59 29.12.2020
4313 Rain 12 1010 81 7000 3.1 360 13:25 29.12.2020
4314 Clouds 12 1010 81 7000 3.1 360 12:56 29.12.2020
4315 Clouds 12 1010 81 7000 3.1 360 12:36 29.12.2020
4316 Clouds 13 1011 71 10000 7.7 290 12:18 29.12.2020
4317 Clouds 13 1011 71 10000 7.7 290 11:45 29.12.2020
4318 Clouds 13 1011 66 10000 4.6 130 11:24 29.12.2020
4319 Rain 13 1012 76 10000 3.6 120 10:21 29.12.2020
4320 Clouds 14 1012 76 10000 3.6 120 09:41 29.12.2020
4321 Clouds 15 1012 67 10000 3.1 130 09:19 29.12.2020
4322 Clouds 15 1012 67 10000 3.1 130 08:49 29.12.2020
4323 Clouds 15 1013 62 10000 3.1 130 07:40 29.12.2020
4324 Clouds 15 1013 67 10000 3.6 150 07:18 29.12.2020
4325 Clouds 13 1015 71 10000 6.2 150 05:44 29.12.2020
4326 Clouds 8 1021 87 10000 3.6 140 01:58 29.12.2020
4327 Clouds 8 1021 87 10000 3.6 130 00:26 29.12.2020
4328 Clouds 6 1020 93 10000 4.1 130 23:38 28.12.2020
4329 Clouds 11 1021 70 10000 2.19 56 22:48 28.12.2020
4330 Clouds 11 1020 67 10000 2.15 63 21:57 28.12.2020
4331 Clouds 11 1020 67 10000 2.15 63 21:39 28.12.2020
4332 Clouds 11 1020 64 10000 2.44 56 21:19 28.12.2020
4333 Clouds 11 1020 64 10000 2.44 56 20:40 28.12.2020
4334 Clouds 11 1020 63 10000 2.72 55 20:20 28.12.2020
4335 Clouds 10 1021 81 10000 1.79 180 19:41 28.12.2020
4336 Clouds 10 1021 81 10000 1.79 180 19:22 28.12.2020
4337 Clouds 10 1021 81 10000 1.79 180 18:49 28.12.2020
4338 Clouds 10 1021 81 10000 1.79 180 18:27 28.12.2020
4339 Clouds 11 1021 63 10000 1.4 53 17:41 28.12.2020
4340 Clouds 11 1021 63 10000 0.4 17 17:18 28.12.2020
4341 Clear 7 1020 87 10000 3.6 40 16:33 28.12.2020
4342 Clear 7 1020 87 10000 3.6 40 15:59 28.12.2020
4343 Clear 7 1020 87 10000 3.6 40 15:40 28.12.2020
4344 Clear 6 1022 87 10000 2.1 20 14:47 28.12.2020
4345 Clear 10 1021 81 10000 2.1 180 13:51 28.12.2020
4346 Clear 9 1021 87 10000 1 0 13:23 28.12.2020
4347 Clear 9 1021 87 10000 1 0 12:38 28.12.2020
4348 Clear 10 1021 81 10000 1 0 12:19 28.12.2020
4349 Clear 10 1021 81 10000 1 0 11:44 28.12.2020
4350 Clear 12 1021 71 10000 0.5 0 11:18 28.12.2020
4351 Clear 12 1021 71 10000 0.5 0 10:41 28.12.2020
4352 Clear 14 1020 67 10000 1 0 10:23 28.12.2020
4353 Clear 14 1020 67 10000 1 0 09:45 28.12.2020
4354 Clouds 15 1020 58 10000 1.5 0 09:18 28.12.2020
4355 Clouds 17 1019 51 10000 5.7 350 06:55 28.12.2020
4356 Clouds 16 1020 55 10000 5.1 10 05:57 28.12.2020
4357 Clouds 13 1021 76 10000 6.2 360 03:59 28.12.2020
4358 Clouds 11 1021 87 10000 5.7 340 01:56 28.12.2020
4359 Clouds 11 1020 87 10000 6.2 360 00:29 28.12.2020
4360 Clouds 10 1020 87 10000 6.2 340 23:37 27.12.2020
4361 Clouds 10 1020 87 10000 5.81 340 23:18 27.12.2020
4362 Clouds 10 1018 93 10000 3.84 359 21:56 27.12.2020
4363 Clouds 10 1017 93 10000 3.05 29 21:25 27.12.2020
4364 Clouds 10 1017 93 10000 3.05 29 20:40 27.12.2020
4365 Clouds 10 1018 93 10000 3.37 4 19:25 27.12.2020
4366 Clouds 10 1018 93 10000 3.37 4 18:54 27.12.2020
4367 Clouds 10 1018 93 10000 3.74 26 18:36 27.12.2020
4368 Clouds 10 1018 93 10000 4.67 28 18:18 27.12.2020
4369 Rain 10 1017 93 10000 4.67 28 17:42 27.12.2020
4370 Clouds 10 1018 93 10000 5.11 34 17:21 27.12.2020
4371 Clouds 10 1017 93 10000 4.7 41 16:26 27.12.2020
4372 Clouds 10 1018 93 10000 4.7 41 15:37 27.12.2020
4373 Clouds 10 1017 93 10000 4.61 54 14:57 27.12.2020
4374 Clouds 10 1017 93 10000 1 0 14:38 27.12.2020
4375 Clouds 10 1017 93 10000 1 0 13:42 27.12.2020
4376 Clouds 9 1017 93 9000 3.1 70 12:59 27.12.2020
4377 Clouds 9 1017 93 9000 3.1 70 12:38 27.12.2020
4378 Clouds 9 1017 93 10000 7.7 340 11:43 27.12.2020
4379 Clouds 9 1017 87 10000 1 0 11:23 27.12.2020
4380 Clouds 9 1017 87 10000 1 0 10:49 27.12.2020
4381 Clouds 8 1017 93 9000 3.6 160 10:23 27.12.2020
4382 Clouds 8 1017 93 9000 3.6 160 09:39 27.12.2020
4383 Clouds 9 1018 87 10000 3.1 150 08:29 27.12.2020
4384 Clouds 10 1018 71 10000 1 0 07:47 27.12.2020
4385 Clouds 10 1019 61 10000 1.5 340 07:18 27.12.2020
4386 Clouds 11 1019 57 10000 2.6 150 05:39 27.12.2020
4387 Clouds 9 1022 66 10000 4.1 130 03:26 27.12.2020
4388 Clouds 8 1022 75 10000 3.6 150 02:30 27.12.2020
4389 Clouds 6 1023 81 10000 1.5 100 00:58 27.12.2020
4390 Clouds 6 1023 87 10000 3.6 130 23:44 26.12.2020
4391 Clouds 6 1023 87 10000 3.6 130 23:26 26.12.2020
4392 Clouds 6 1024 75 10000 2.24 70 22:46 26.12.2020
4393 Clouds 6 1024 75 10000 2.24 70 22:19 26.12.2020
4394 Clouds 6 1024 75 10000 2.24 70 21:54 26.12.2020
4395 Clouds 6 1024 75 10000 2.24 70 21:29 26.12.2020
4396 Clouds 6 1024 75 10000 2.24 70 20:46 26.12.2020
4397 Clouds 6 1024 75 10000 2.24 70 20:24 26.12.2020
4398 Clouds 6 1024 75 10000 2.24 70 19:42 26.12.2020
4399 Clouds 6 1024 75 10000 2.24 70 19:20 26.12.2020
4400 Clear 6 1024 75 10000 2.24 70 18:35 26.12.2020
4401 Clear 6 1024 75 10000 2.24 70 17:48 26.12.2020
4402 Clear 6 1024 75 10000 2.24 70 17:29 26.12.2020
4403 Clear 6 1024 75 10000 2.24 70 16:40 26.12.2020
4404 Clear 6 1024 75 10000 2.24 70 16:19 26.12.2020
4405 Clear 6 1024 75 10000 2.24 70 15:23 26.12.2020
4406 Clear 6 1024 75 10000 2.24 70 14:41 26.12.2020
4407 Clouds 6 1024 75 10000 2.6 70 14:20 26.12.2020
4408 Clouds 6 1024 75 10000 2.6 70 13:38 26.12.2020
4409 Clouds 6 1024 87 10000 2.6 130 13:18 26.12.2020
4410 Clouds 6 1024 87 10000 2.6 130 12:41 26.12.2020
4411 Clouds 7 1024 81 10000 3.1 130 12:19 26.12.2020
4412 Clouds 7 1024 81 10000 3.1 130 11:42 26.12.2020
4413 Clouds 7 1023 70 10000 3.6 140 11:20 26.12.2020
4414 Clouds 8 1023 70 10000 3.6 140 10:47 26.12.2020
4415 Clouds 8 1023 70 10000 3.6 140 10:26 26.12.2020
4416 Clouds 9 1023 61 10000 0.5 0 09:47 26.12.2020
4417 Clouds 11 1023 50 10000 0.5 0 08:55 26.12.2020
4418 Clouds 11 1023 50 10000 1 0 08:20 26.12.2020
4419 Clouds 11 1024 50 10000 1 0 07:21 26.12.2020
4420 Clouds 10 1025 43 10000 1 0 05:38 26.12.2020
4421 Clouds 7 1027 81 10000 2.1 130 02:48 26.12.2020
4422 Clouds 4 1026 86 10000 3.6 130 00:40 26.12.2020
4423 Clouds 4 1026 86 10000 3.6 120 23:56 25.12.2020
4424 Clouds 4 1026 86 10000 3.6 120 23:37 25.12.2020
4425 Clouds 4 1026 86 10000 3.58 120 23:19 25.12.2020
4426 Clouds 5 1024 75 10000 1.79 90 22:26 25.12.2020
4427 Clouds 5 1024 75 10000 1.79 90 21:44 25.12.2020
4428 Clouds 5 1024 75 10000 1.79 90 21:25 25.12.2020
4429 Clouds 5 1024 75 10000 1.79 90 20:45 25.12.2020
4430 Clouds 5 1024 75 10000 1.79 90 20:27 25.12.2020
4431 Clouds 5 1024 75 10000 1.79 90 19:43 25.12.2020
4432 Clouds 5 1024 75 10000 1.79 90 18:49 25.12.2020
4433 Clouds 5 1024 75 10000 1.79 90 18:30 25.12.2020
4434 Clouds 5 1024 75 10000 1.79 90 17:35 25.12.2020
4435 Clouds 5 1024 75 10000 1.79 90 16:55 25.12.2020
4436 Clear 5 1024 75 10000 1.79 90 16:25 25.12.2020
4437 Clear 5 1024 75 10000 1.79 90 15:50 25.12.2020
4438 Clear 5 1024 75 10000 1.79 90 15:31 25.12.2020
4439 Clouds 5 1024 75 10000 2.1 90 14:32 25.12.2020
4440 Clouds 5 1024 75 10000 2.1 90 13:49 25.12.2020
4441 Clouds 5 1024 75 10000 2.1 90 13:26 25.12.2020
4442 Clouds 5 1023 62 10000 3.1 80 12:58 25.12.2020
4443 Clouds 5 1023 62 10000 3.1 80 12:27 25.12.2020
4444 Clouds 6 1023 62 10000 3.6 60 11:47 25.12.2020
4445 Clouds 6 1022 62 10000 5.7 330 11:24 25.12.2020
4446 Clouds 7 1022 62 10000 5.7 330 10:43 25.12.2020
4447 Clouds 8 1022 52 10000 6.7 350 09:49 25.12.2020
4448 Clouds 8 1022 52 10000 6.7 350 09:26 25.12.2020
4449 Clouds 9 1021 57 10000 7.7 340 08:37 25.12.2020
4450 Clouds 9 1021 57 10000 6.7 330 06:52 25.12.2020
4451 Clouds 9 1021 57 10000 7.2 330 06:21 25.12.2020
4452 Clouds 8 1022 60 10000 8.7 340 02:23 25.12.2020
4453 Clouds 7 1021 56 10000 9.3 330 00:32 25.12.2020
4454 Clouds 7 1020 56 10000 9.3 330 23:32 24.12.2020
4455 Clouds 8 1017 93 10000 2.68 330 22:55 24.12.2020
4456 Clouds 8 1017 93 10000 2.68 330 22:25 24.12.2020
4457 Clouds 8 1017 93 10000 2.68 330 21:48 24.12.2020
4458 Clouds 8 1017 93 10000 2.68 330 20:59 24.12.2020
4459 Clouds 8 1017 93 10000 2.68 330 19:54 24.12.2020
4460 Clouds 8 1017 93 10000 2.68 330 18:22 24.12.2020
4461 Clouds 8 1017 93 10000 2.68 330 17:39 24.12.2020
4462 Clouds 8 1017 93 10000 2.68 330 17:21 24.12.2020
4463 Clouds 8 1017 93 10000 2.68 330 16:25 24.12.2020
4464 Clouds 8 1017 93 10000 2.68 330 15:49 24.12.2020
4465 Clouds 8 1017 93 10000 2.68 330 15:25 24.12.2020
4466 Clouds 8 1017 93 10000 2.68 330 14:56 24.12.2020
4467 Clear 8 1017 93 10000 3.1 330 14:37 24.12.2020
4468 Clear 8 1017 93 10000 3.1 330 14:18 24.12.2020
4469 Clear 7 1017 93 10000 3.1 330 13:38 24.12.2020
4470 Clear 7 1016 87 10000 1.5 100 13:18 24.12.2020
4471 Clear 7 1016 87 10000 1.5 100 12:39 24.12.2020
4472 Clear 8 1015 81 10000 1.5 70 12:18 24.12.2020
4473 Clear 9 1015 81 10000 1.5 70 11:38 24.12.2020
4474 Clouds 9 1016 81 10000 5.1 340 11:19 24.12.2020
4475 Clouds 9 1016 81 10000 5.1 340 10:43 24.12.2020
4476 Clouds 9 1015 87 10000 2.6 350 10:18 24.12.2020
4477 Clouds 10 1015 87 10000 2.6 350 09:49 24.12.2020
4478 Clouds 11 1015 87 10000 3.1 360 08:50 24.12.2020
4479 Clouds 10 1014 87 10000 0.5 0 07:54 24.12.2020
4480 Clouds 10 1014 87 10000 0.5 0 07:35 24.12.2020
4481 Clouds 10 1014 100 6000 2.6 130 06:23 24.12.2020
4482 Clouds 10 1017 87 10000 2.1 110 03:29 24.12.2020
4483 Clouds 9 1017 93 7000 3.6 120 01:48 24.12.2020
4484 Clouds 9 1016 93 7000 4.6 140 01:19 24.12.2020
4485 Clouds 9 1016 87 6000 3.6 140 00:23 24.12.2020
4486 Rain 9 1016 87 6000 3.6 140 23:57 23.12.2020
4487 Clouds 9 1016 87 6000 3.6 140 23:38 23.12.2020
4488 Rain 9 1016 87 10000 3.58 140 23:19 23.12.2020
4489 Clouds 9 1022 70 10000 4.02 140 22:42 23.12.2020
4490 Rain 9 1022 70 10000 4.02 140 22:21 23.12.2020
4491 Rain 12 1016 69 10000 4.73 121 21:42 23.12.2020
4492 Rain 11 1016 70 10000 3.59 114 21:21 23.12.2020
4493 Clouds 9 1022 70 10000 4.02 140 20:38 23.12.2020
4494 Clouds 9 1022 70 10000 4.02 140 20:19 23.12.2020
4495 Clouds 9 1022 70 10000 4.02 140 19:44 23.12.2020
4496 Clouds 9 1022 70 10000 4.02 140 19:23 23.12.2020
4497 Rain 9 1022 70 10000 4.02 140 18:54 23.12.2020
4498 Clouds 9 1022 70 10000 4.02 140 18:35 23.12.2020
4499 Clouds 9 1021 70 10000 4.02 140 17:44 23.12.2020
4500 Clouds 9 1022 70 10000 4.02 140 17:23 23.12.2020
4501 Clouds 9 1022 70 10000 4.02 140 16:56 23.12.2020
4502 Clouds 9 1022 70 10000 4.02 140 16:36 23.12.2020
4503 Clouds 9 1022 70 10000 4.02 140 16:36 23.12.2020
4504 Clouds 9 1022 70 10000 4.02 140 16:18 23.12.2020
4505 Clouds 9 1022 70 10000 4.02 140 15:39 23.12.2020
4506 Clouds 9 1022 70 10000 4.02 140 15:21 23.12.2020
4507 Rain 9 1022 70 10000 4.02 140 14:46 23.12.2020
4508 Clouds 9 1021 70 10000 4.1 140 14:25 23.12.2020
4509 Clouds 9 1021 70 10000 4.1 140 13:47 23.12.2020
4510 Clouds 9 1022 76 10000 3.6 130 13:21 23.12.2020
4511 Clouds 9 1022 76 10000 3.6 130 12:58 23.12.2020
4512 Clouds 9 1022 76 10000 3.6 130 12:37 23.12.2020
4513 Clear 9 1023 70 10000 3.6 120 12:18 23.12.2020
4514 Clear 9 1023 70 10000 3.6 120 11:43 23.12.2020
4515 Clear 9 1022 70 10000 3.6 130 10:57 23.12.2020
4516 Clear 9 1022 70 10000 3.6 130 10:57 23.12.2020
4517 Clear 9 1022 70 10000 3.6 130 10:39 23.12.2020
4518 Clear 10 1021 61 10000 3.1 140 09:45 23.12.2020
4519 Clear 11 1021 54 10000 2.6 140 09:25 23.12.2020
4520 Clear 12 1021 54 10000 2.6 140 08:42 23.12.2020
4521 Clear 12 1022 50 10000 2.6 140 07:51 23.12.2020
4522 Clear 13 1022 50 10000 3.6 150 06:59 23.12.2020
4523 Clear 13 1022 50 10000 3.6 150 06:37 23.12.2020
4524 Clouds 11 1025 66 9000 3.1 170 05:25 23.12.2020
4525 Clouds 10 1025 76 9000 4.6 140 03:56 23.12.2020
4526 Clouds 6 1026 93 6000 4.1 130 00:33 23.12.2020
4527 Clouds 5 1026 93 6000 3.1 120 23:45 22.12.2020
4528 Clouds 5 1026 93 6000 3.1 120 23:25 22.12.2020
4529 Clear 8 1025 75 10000 3.58 170 22:43 22.12.2020
4530 Clouds 8 1025 75 10000 3.58 170 22:25 22.12.2020
4531 Clouds 8 1025 75 10000 3.58 170 21:54 22.12.2020
4532 Clouds 8 1025 75 10000 3.58 170 21:22 22.12.2020
4533 Clouds 8 1025 75 10000 3.58 170 20:55 22.12.2020
4534 Clouds 8 1025 75 10000 3.58 170 20:37 22.12.2020
4535 Clouds 8 1025 75 10000 3.58 170 20:18 22.12.2020
4536 Clouds 8 1025 75 10000 3.58 170 19:41 22.12.2020
4537 Clouds 8 1025 75 10000 3.58 170 19:20 22.12.2020
4538 Clouds 8 1025 75 10000 3.58 170 18:47 22.12.2020
4539 Clouds 8 1025 75 10000 3.58 170 18:27 22.12.2020
4540 Clouds 8 1025 75 10000 3.58 170 17:41 22.12.2020
4541 Clouds 8 1025 75 10000 3.58 170 17:18 22.12.2020
4542 Clouds 8 1025 75 10000 3.58 170 16:48 22.12.2020
4543 Clouds 8 1025 75 10000 3.58 170 16:22 22.12.2020
4544 Clouds 8 1025 75 10000 3.58 170 15:49 22.12.2020
4545 Clouds 8 1025 75 10000 3.58 170 15:31 22.12.2020
4546 Clouds 8 1025 75 10000 3.58 170 14:58 22.12.2020
4547 Clouds 8 1025 75 10000 3.58 170 14:40 22.12.2020
4548 Clouds 8 1025 75 10000 3.6 170 14:21 22.12.2020
4549 Clouds 8 1025 75 10000 3.6 170 13:45 22.12.2020
4550 Clouds 8 1026 75 10000 4.1 140 13:19 22.12.2020
4551 Clouds 8 1026 75 10000 4.1 140 12:52 22.12.2020
4552 Clouds 8 1026 75 10000 4.1 140 12:33 22.12.2020
4553 Clouds 8 1026 70 10000 4.1 130 11:57 22.12.2020
4554 Clouds 8 1026 70 10000 4.1 130 11:39 22.12.2020
4555 Clouds 8 1025 70 10000 2.1 150 11:20 22.12.2020
4556 Clouds 8 1025 70 10000 2.1 150 10:51 22.12.2020
4557 Clouds 9 1025 53 10000 2.1 310 10:24 22.12.2020
4558 Clouds 10 1025 53 10000 2.1 310 09:56 22.12.2020
4559 Clouds 10 1025 50 10000 4.6 300 09:23 22.12.2020
4560 Clouds 11 1025 50 10000 4.6 300 08:53 22.12.2020
4561 Clouds 11 1025 50 10000 4.6 300 08:30 22.12.2020
4562 Clouds 12 1025 53 10000 3.1 330 07:55 22.12.2020
4563 Clouds 12 1025 53 10000 3.1 330 07:55 22.12.2020
4564 Clouds 11 1024 51 10000 2.1 360 06:58 22.12.2020
4565 Clouds 11 1025 51 10000 2.1 340 05:48 22.12.2020
4566 Clouds 10 1027 53 10000 2.6 10 03:46 22.12.2020
4567 Clouds 7 1027 75 10000 2.6 130 01:35 22.12.2020
4568 Clouds 5 1027 75 10000 3.6 140 23:55 21.12.2020
4569 Clouds 5 1027 75 10000 3.6 140 23:37 21.12.2020
4570 Clouds 4 1026 86 10000 2.6 140 22:39 21.12.2020
4571 Clouds 8 1027 61 10000 2.24 110 22:20 21.12.2020
4572 Clouds 8 1027 61 10000 2.24 110 21:59 21.12.2020
4573 Clouds 8 1027 61 10000 2.24 110 21:40 21.12.2020
4574 Clouds 8 1027 61 10000 2.24 110 21:22 21.12.2020
4575 Clouds 8 1027 61 10000 2.24 110 20:36 21.12.2020
4576 Clouds 8 1027 61 10000 2.24 110 20:18 21.12.2020
4577 Clouds 8 1027 61 10000 2.24 110 20:18 21.12.2020
4578 Clouds 8 1027 61 10000 2.24 110 19:44 21.12.2020
4579 Clouds 8 1027 61 10000 2.24 110 19:19 21.12.2020
4580 Clouds 8 1027 61 10000 2.24 110 18:51 21.12.2020
4581 Clouds 8 1027 61 10000 2.24 110 18:33 21.12.2020
4582 Clouds 8 1027 61 10000 2.24 110 17:43 21.12.2020
4583 Clouds 8 1027 61 10000 2.24 110 17:24 21.12.2020
4584 Clouds 8 1027 61 10000 2.24 110 16:47 21.12.2020
4585 Clouds 8 1027 61 10000 2.24 110 16:27 21.12.2020
4586 Clouds 8 1027 61 10000 2.24 110 15:54 21.12.2020
4587 Clouds 8 1027 61 10000 2.24 110 15:35 21.12.2020
4588 Clouds 8 1027 61 10000 2.24 110 14:57 21.12.2020
4589 Clouds 8 1027 61 10000 2.6 110 14:21 21.12.2020
4590 Clouds 8 1027 61 10000 2.6 110 13:43 21.12.2020
4591 Clouds 8 1028 52 10000 2.1 120 13:24 21.12.2020
4592 Clouds 8 1028 52 10000 2.1 120 12:44 21.12.2020
4593 Clouds 8 1028 52 10000 2.1 120 12:44 21.12.2020
4594 Clouds 8 1028 52 10000 2.1 120 12:25 21.12.2020
4595 Clouds 8 1028 52 10000 0.5 0 11:56 21.12.2020
4596 Clouds 8 1028 52 10000 0.5 0 11:37 21.12.2020
4597 Clouds 8 1027 49 10000 1.5 360 11:19 21.12.2020
4598 Clouds 8 1027 49 10000 1.5 360 10:41 21.12.2020
4599 Clouds 8 1027 52 10000 3.6 340 10:22 21.12.2020
4600 Clouds 8 1027 52 10000 3.6 340 09:43 21.12.2020
4601 Clouds 8 1027 52 10000 3.6 340 09:24 21.12.2020
4602 Clouds 9 1027 42 10000 4.6 340 08:50 21.12.2020
4603 Clouds 9 1027 45 10000 7.2 310 07:51 21.12.2020
4604 Clouds 9 1027 46 10000 5.1 340 06:22 21.12.2020
4605 Clouds 9 1028 49 10000 2.6 330 04:32 21.12.2020
4606 Clouds 6 1028 56 10000 6.7 20 01:22 21.12.2020
4607 Clouds 6 1028 56 10000 6.7 20 00:31 21.12.2020
4608 Clouds 7 1028 56 10000 6.2 40 23:34 20.12.2020
4609 Clouds 7 1028 56 10000 4.1 350 22:58 20.12.2020
4610 Clouds 6 1028 56 10000 4.1 350 22:40 20.12.2020
4611 Clouds 6 1029 56 10000 4.47 340 22:21 20.12.2020
4612 Clouds 6 1029 56 10000 4.47 340 21:39 20.12.2020
4613 Clouds 6 1029 56 10000 4.47 340 21:20 20.12.2020
4614 Clouds 6 1029 56 10000 4.47 340 20:48 20.12.2020
4615 Clouds 6 1029 56 10000 4.47 340 20:23 20.12.2020
4616 Clouds 6 1029 56 10000 4.47 340 19:46 20.12.2020
4617 Clouds 6 1029 56 10000 4.47 340 19:26 20.12.2020
4618 Clouds 6 1029 56 10000 4.47 340 18:56 20.12.2020
4619 Clouds 6 1029 56 10000 4.47 340 18:38 20.12.2020
4620 Clouds 6 1029 56 10000 4.47 340 18:19 20.12.2020
4621 Clouds 6 1029 56 10000 4.47 340 17:42 20.12.2020
4622 Clouds 6 1029 56 10000 4.47 340 17:19 20.12.2020
4623 Clouds 6 1029 56 10000 4.47 340 16:44 20.12.2020
4624 Clouds 6 1029 56 10000 4.47 340 16:24 20.12.2020
4625 Clouds 6 1029 56 10000 4.47 340 15:41 20.12.2020
4626 Clear 6 1029 56 10000 4.47 340 15:23 20.12.2020
4627 Clear 6 1029 56 10000 4.47 340 14:49 20.12.2020
4628 Clouds 6 1029 56 10000 4.6 340 14:29 20.12.2020
4629 Clouds 6 1029 56 10000 4.6 340 13:46 20.12.2020
4630 Clouds 6 1029 56 10000 4.6 340 13:23 20.12.2020
4631 Clouds 6 1029 52 10000 6.2 330 12:54 20.12.2020
4632 Clouds 6 1029 52 10000 6.2 330 12:27 20.12.2020
4633 Clouds 6 1029 52 10000 6.2 340 11:57 20.12.2020
4634 Clouds 6 1029 52 10000 6.2 340 11:38 20.12.2020
4635 Clouds 6 1028 48 10000 7.7 320 10:50 20.12.2020
4636 Clouds 7 1028 45 10000 8.2 320 10:23 20.12.2020
4637 Clouds 7 1028 45 10000 8.2 320 09:57 20.12.2020
4638 Clouds 7 1028 45 10000 8.2 320 09:39 20.12.2020
4639 Clouds 7 1028 45 10000 7.2 310 09:20 20.12.2020
4640 Clouds 8 1028 45 10000 7.2 310 08:48 20.12.2020
4641 Clouds 8 1028 45 10000 7.2 310 08:30 20.12.2020
4642 Clouds 9 1027 45 10000 8.2 310 07:22 20.12.2020
4643 Clouds 9 1028 42 10000 4.6 320 05:33 20.12.2020
4644 Clouds 6 1029 56 10000 3.6 20 01:31 20.12.2020
4645 Clouds 4 1029 64 10000 4.1 10 00:22 20.12.2020
4646 Clouds 4 1029 64 10000 6.7 340 23:18 19.12.2020
4647 Clouds 5 1029 64 10000 6.7 340 22:44 19.12.2020
4648 Clouds 5 1029 64 10000 6.7 340 22:25 19.12.2020
4649 Clouds 5 1028 44 10000 3.58 70 21:58 19.12.2020
4650 Clouds 5 1028 44 10000 3.58 70 21:58 19.12.2020
4651 Clouds 5 1028 44 10000 3.58 70 21:39 19.12.2020
4652 Clear 5 1028 44 10000 3.58 70 21:21 19.12.2020
4653 Clear 5 1028 44 10000 3.58 70 20:39 19.12.2020
4654 Clear 5 1028 44 10000 3.58 70 20:18 19.12.2020
4655 Clear 5 1028 44 10000 3.58 70 19:49 19.12.2020
4656 Clear 5 1028 44 10000 3.58 70 19:24 19.12.2020
4657 Clear 5 1027 44 10000 3.58 70 18:34 19.12.2020
4658 Clear 5 1027 44 10000 3.58 70 17:58 19.12.2020
4659 Clear 5 1027 44 10000 3.58 70 17:40 19.12.2020
4660 Clear 5 1027 44 10000 3.58 70 17:20 19.12.2020
4661 Clear 5 1027 44 10000 3.58 70 16:42 19.12.2020
4662 Clear 5 1027 44 10000 3.58 70 16:24 19.12.2020
4663 Clear 5 1027 44 10000 3.58 70 15:54 19.12.2020
4664 Clear 5 1027 44 10000 3.58 70 15:30 19.12.2020
4665 Clear 5 1027 44 10000 3.58 70 14:40 19.12.2020
4666 Clouds 5 1028 44 10000 3.6 70 13:59 19.12.2020
4667 Clouds 5 1028 44 10000 3.6 70 13:41 19.12.2020
4668 Clear 5 1028 44 10000 7.7 360 13:19 19.12.2020
4669 Clear 5 1028 44 10000 7.7 360 12:42 19.12.2020
4670 Clear 5 1028 44 10000 7.7 360 12:24 19.12.2020
4671 Clouds 6 1027 45 10000 7.7 360 11:56 19.12.2020
4672 Clouds 6 1027 45 10000 7.7 360 11:35 19.12.2020
4673 Clouds 6 1027 41 10000 8.2 360 10:42 19.12.2020
4674 Clouds 6 1026 42 10000 8.7 340 10:20 19.12.2020
4675 Clouds 7 1026 42 10000 8.7 340 09:42 19.12.2020
4676 Clouds 8 1025 33 10000 7.7 360 08:59 19.12.2020
4677 Clouds 8 1025 36 10000 8.2 350 08:24 19.12.2020
4678 Clouds 10 1025 36 10000 8.2 350 07:23 19.12.2020
4679 Clouds 10 1025 37 10000 7.2 360 06:51 19.12.2020
4680 Clouds 10 1026 42 10000 8.2 320 05:25 19.12.2020
4681 Clouds 9 1027 42 10000 7.7 330 03:55 19.12.2020
4682 Clouds 7 1026 60 10000 7.7 330 01:21 19.12.2020
4683 Clouds 8 1026 58 10000 7.7 330 00:36 19.12.2020
4684 Clouds 8 1026 61 10000 9.3 330 00:18 19.12.2020
4685 Clouds 8 1026 61 10000 9.3 330 23:44 18.12.2020
4686 Clouds 8 1026 61 10000 7.7 300 23:21 18.12.2020
4687 Clouds 8 1026 61 10000 7.7 300 22:43 18.12.2020
4688 Clouds 7 1025 64 10000 4.92 340 22:20 18.12.2020
4689 Clouds 7 1025 64 10000 4.92 340 21:47 18.12.2020
4690 Clouds 7 1025 58 10000 4.92 340 21:28 18.12.2020
4691 Clouds 7 1025 58 10000 4.92 340 20:38 18.12.2020
4692 Clouds 7 1025 58 10000 4.92 340 20:19 18.12.2020
4693 Clouds 7 1025 58 10000 4.92 340 19:41 18.12.2020
4694 Clouds 7 1025 60 10000 4.92 340 18:54 18.12.2020
4695 Clouds 7 1025 60 10000 4.92 340 18:36 18.12.2020
4696 Clouds 7 1025 60 10000 4.92 340 18:18 18.12.2020
4697 Clouds 7 1025 57 10000 4.92 340 17:22 18.12.2020
4698 Clouds 7 1025 57 10000 4.92 340 16:49 18.12.2020
4699 Clouds 7 1025 58 10000 4.92 340 16:26 18.12.2020
4700 Clouds 7 1025 58 10000 4.92 340 15:54 18.12.2020
4701 Clouds 7 1025 58 10000 4.92 340 15:36 18.12.2020
4702 Clouds 7 1025 60 10000 4.92 340 15:18 18.12.2020
4703 Clouds 7 1025 60 10000 4.92 340 14:51 18.12.2020
4704 Clouds 7 1025 63 10000 5.1 340 14:19 18.12.2020
4705 Clouds 7 1025 63 10000 5.1 340 13:45 18.12.2020
4706 Clouds 7 1025 60 10000 4.6 360 13:23 18.12.2020
4707 Clouds 8 1025 60 10000 4.6 360 12:46 18.12.2020
4708 Clouds 8 1025 60 10000 4.6 360 12:46 18.12.2020
4709 Clouds 8 1025 61 10000 6.7 320 11:38 18.12.2020
4710 Clouds 8 1025 49 10000 6.2 330 11:19 18.12.2020
4711 Clouds 9 1025 49 10000 6.2 330 10:38 18.12.2020
4712 Clouds 9 1025 62 10000 5.7 330 10:20 18.12.2020
4713 Clouds 9 1025 62 10000 5.7 330 10:20 18.12.2020
4714 Clouds 9 1025 62 10000 5.7 330 09:38 18.12.2020
4715 Clouds 9 1025 49 10000 7.2 310 09:20 18.12.2020
4716 Clouds 9 1025 49 10000 7.2 310 08:52 18.12.2020
4717 Clouds 9 1025 49 10000 7.2 310 08:26 18.12.2020
4718 Clouds 10 1024 43 10000 6.7 320 07:20 18.12.2020
4719 Clouds 11 1024 43 10000 6.7 320 06:59 18.12.2020
4720 Clouds 11 1025 50 10000 5.7 320 06:22 18.12.2020
4721 Clouds 11 1025 50 10000 5.7 320 05:33 18.12.2020
4722 Clouds 10 1026 51 10000 5.1 300 04:50 18.12.2020
4723 Clouds 7 1028 70 10000 2.1 110 01:49 18.12.2020
4724 Clouds 5 1027 80 10000 3.6 140 01:22 18.12.2020
4725 Clouds 5 1027 75 10000 3.1 140 23:57 17.12.2020
4726 Clouds 5 1027 75 10000 3.1 140 23:25 17.12.2020
4727 Clouds 5 1027 75 10000 3.1 140 22:50 17.12.2020
4728 Clouds 5 1027 75 10000 2.68 140 22:28 17.12.2020
4729 Clouds 5 1027 75 10000 3.1 140 22:28 17.12.2020
4730 Clouds 3 1028 60 10000 2.24 100 21:47 17.12.2020
4731 Clear 3 1028 60 10000 2.24 100 21:26 17.12.2020
4732 Clear 3 1028 60 10000 2.24 100 20:59 17.12.2020
4733 Clear 3 1028 60 10000 2.24 100 20:41 17.12.2020
4734 Clear 3 1028 60 10000 2.24 100 20:18 17.12.2020
4735 Clear 3 1028 60 10000 2.24 100 19:45 17.12.2020
4736 Clear 3 1028 60 10000 2.24 100 19:23 17.12.2020
4737 Clear 3 1028 60 10000 2.24 100 18:41 17.12.2020
4738 Clear 3 1028 60 10000 2.24 100 18:23 17.12.2020
4739 Clear 3 1028 60 10000 2.24 100 18:23 17.12.2020
4740 Clear 3 1028 60 10000 2.24 100 17:53 17.12.2020
4741 Clear 3 1028 60 10000 2.24 100 17:32 17.12.2020
4742 Clear 3 1028 60 10000 2.24 100 16:45 17.12.2020
4743 Clouds 3 1028 60 10000 2.24 100 16:26 17.12.2020
4744 Clouds 3 1028 60 10000 2.24 100 15:52 17.12.2020
4745 Clouds 3 1028 60 10000 2.24 100 15:32 17.12.2020
4746 Clouds 3 1028 60 10000 2.24 100 14:55 17.12.2020
4747 Clouds 3 1028 59 10000 2.6 100 14:34 17.12.2020
4748 Clouds 3 1028 59 10000 2.6 100 13:58 17.12.2020
4749 Clouds 3 1028 59 10000 2.6 100 13:58 17.12.2020
4750 Clouds 3 1028 59 10000 2.6 100 13:35 17.12.2020
4751 Clouds 4 1027 60 10000 3.6 60 12:48 17.12.2020
4752 Clouds 4 1027 56 10000 4.6 40 12:25 17.12.2020
4753 Clouds 5 1027 56 10000 4.6 40 11:45 17.12.2020
4754 Clouds 5 1027 56 10000 4.6 40 11:25 17.12.2020
4755 Clouds 6 1027 52 10000 3.6 10 10:55 17.12.2020
4756 Clouds 6 1027 48 10000 5.1 330 10:21 17.12.2020
4757 Clouds 6 1027 48 10000 5.1 330 09:29 17.12.2020
4758 Clouds 8 1026 36 10000 6.2 330 07:54 17.12.2020
4759 Clouds 8 1026 36 10000 6.2 330 07:35 17.12.2020
4760 Clouds 8 1027 39 10000 7.2 320 06:54 17.12.2020
4761 Clouds 8 1027 39 10000 7.2 320 06:32 17.12.2020
4762 Clouds 7 1027 39 10000 5.7 360 05:58 17.12.2020
4763 Clouds 3 1028 55 10000 6.2 30 00:38 17.12.2020
4764 Clouds 2 1028 64 10000 5.7 40 23:54 16.12.2020
4765 Clouds 2 1028 59 10000 5.7 50 23:21 16.12.2020
4766 Clouds 2 1028 59 10000 5.7 50 22:55 16.12.2020
4767 Clouds 2 1028 59 10000 5.7 50 22:35 16.12.2020
4768 Clear 5 1026 56 10000 5.36 20 21:52 16.12.2020
4769 Clear 5 1026 56 10000 5.36 20 21:34 16.12.2020
4770 Clear 5 1026 56 10000 5.36 20 20:55 16.12.2020
4771 Clear 5 1026 56 10000 5.36 20 20:37 16.12.2020
4772 Clear 5 1026 56 10000 5.36 20 20:37 16.12.2020
4773 Clear 5 1026 56 10000 5.36 20 20:18 16.12.2020
4774 Clouds 4 1027 71 10000 4.53 5 19:20 16.12.2020
4775 Clouds 4 1027 71 10000 4.53 5 18:54 16.12.2020
4776 Clouds 3 1028 74 10000 4.02 357 18:29 16.12.2020
4777 Clouds 3 1028 74 10000 4.02 357 17:47 16.12.2020
4778 Clear 5 1026 56 10000 5.36 20 17:28 16.12.2020
4779 Clear 5 1026 56 10000 5.36 20 16:39 16.12.2020
4780 Clear 5 1026 56 10000 5.36 20 16:21 16.12.2020
4781 Clear 5 1026 56 10000 5.36 20 15:50 16.12.2020
4782 Clear 5 1026 56 10000 5.36 20 15:26 16.12.2020
4783 Clear 5 1026 56 10000 5.36 20 14:47 16.12.2020
4784 Clouds 5 1026 56 10000 5.7 20 14:28 16.12.2020
4785 Clouds 5 1026 56 10000 5.7 20 13:49 16.12.2020
4786 Clouds 5 1026 56 10000 5.7 20 13:28 16.12.2020
4787 Clouds 5 1027 60 10000 6.7 350 12:55 16.12.2020
4788 Clouds 5 1027 60 10000 6.7 350 12:34 16.12.2020
4789 Clouds 5 1026 52 10000 9.3 330 11:40 16.12.2020
4790 Clouds 5 1026 48 10000 11.3 320 11:22 16.12.2020
4791 Clouds 5 1026 48 10000 11.3 320 10:46 16.12.2020
4792 Clouds 5 1026 60 10000 9.8 330 10:22 16.12.2020
4793 Clouds 5 1026 60 10000 9.8 330 09:42 16.12.2020
4794 Clouds 5 1026 60 10000 8.2 320 08:36 16.12.2020
4795 Clouds 6 1026 62 10000 7.7 300 07:52 16.12.2020
4796 Clouds 6 1026 62 10000 7.7 300 07:33 16.12.2020
4797 Clouds 5 1026 65 10000 9.3 320 06:41 16.12.2020
4798 Clouds 7 1027 62 10000 6.2 310 02:26 16.12.2020
4799 Clouds 5 1026 56 10000 8.7 340 00:23 16.12.2020
4800 Clouds 5 1026 56 10000 8.7 340 23:44 15.12.2020
4801 Clouds 5 1026 56 10000 8.7 340 22:46 15.12.2020
4802 Clouds 4 1026 56 10000 8.7 340 22:24 15.12.2020
4803 Clouds 3 1027 55 10000 4.02 20 21:51 15.12.2020
4804 Clouds 3 1027 55 10000 4.02 20 21:25 15.12.2020
4805 Clouds 3 1027 55 10000 4.02 20 20:58 15.12.2020
4806 Clouds 3 1027 55 10000 4.02 20 20:39 15.12.2020
4807 Clouds 3 1027 55 10000 4.02 20 20:21 15.12.2020
4808 Clouds 3 1027 55 10000 4.02 20 19:41 15.12.2020
4809 Clouds 3 1027 55 10000 4.02 20 19:23 15.12.2020
4810 Clouds 3 1027 55 10000 4.02 20 18:39 15.12.2020
4811 Clouds 3 1027 55 10000 4.02 20 18:20 15.12.2020
4812 Clouds 3 1027 72 10000 3.99 356 17:43 15.12.2020
4813 Clouds 3 1027 72 10000 3.99 356 17:43 15.12.2020
4814 Clouds 3 1026 55 10000 4.02 20 17:22 15.12.2020
4815 Clouds 3 1026 55 10000 4.02 20 16:38 15.12.2020
4816 Clouds 3 1026 55 10000 4.02 20 16:19 15.12.2020
4817 Clouds 3 1027 55 10000 4.02 20 15:37 15.12.2020
4818 Clouds 3 1027 55 10000 4.02 20 14:59 15.12.2020
4819 Clouds 3 1027 55 10000 4.02 20 14:41 15.12.2020
4820 Clouds 3 1027 55 10000 4.1 20 14:19 15.12.2020
4821 Clouds 3 1027 55 10000 4.1 20 13:47 15.12.2020
4822 Clouds 3 1027 51 10000 7.7 340 13:22 15.12.2020
4823 Clouds 3 1027 51 10000 7.7 340 12:44 15.12.2020
4824 Clouds 3 1027 51 10000 8.7 330 12:19 15.12.2020
4825 Clouds 3 1027 51 10000 8.7 330 11:49 15.12.2020
4826 Clouds 3 1027 48 10000 8.7 340 11:21 15.12.2020
4827 Clouds 4 1027 48 10000 8.7 340 10:45 15.12.2020
4828 Clouds 4 1026 51 10000 8.7 340 10:19 15.12.2020
4829 Clouds 4 1026 51 10000 8.7 340 09:41 15.12.2020
4830 Clouds 4 1026 44 10000 8.2 330 09:22 15.12.2020
4831 Clouds 5 1026 44 10000 8.2 330 08:39 15.12.2020
4832 Clouds 5 1026 45 10000 8.7 340 08:20 15.12.2020
4833 Clouds 6 1026 45 10000 8.7 340 07:41 15.12.2020
4834 Clouds 6 1025 52 10000 7.7 330 06:53 15.12.2020
4835 Clouds 5 1026 69 10000 7.2 10 05:34 15.12.2020
4836 Clouds 3 1027 59 10000 7.2 10 00:39 15.12.2020
4837 Clouds 3 1026 55 10000 6.7 20 23:48 14.12.2020
4838 Clouds 3 1027 55 10000 6.2 360 23:19 14.12.2020
4839 Clouds 3 1027 55 10000 6.2 360 22:40 14.12.2020
4840 Clouds 4 1024 51 10000 8.94 340 21:56 14.12.2020
4841 Clouds 4 1023 51 10000 8.94 340 21:36 14.12.2020
4842 Clouds 4 1023 51 10000 8.94 340 20:57 14.12.2020
4843 Clouds 4 1023 51 10000 8.94 340 20:39 14.12.2020
4844 Clouds 4 1023 51 10000 8.94 340 20:18 14.12.2020
4845 Clouds 4 1023 51 10000 8.94 340 19:39 14.12.2020
4846 Clouds 4 1023 51 10000 8.94 340 19:21 14.12.2020
4847 Clouds 4 1023 51 10000 8.94 340 18:42 14.12.2020
4848 Clouds 4 1023 51 10000 8.94 340 18:22 14.12.2020
4849 Clouds 4 1023 51 10000 8.94 340 17:34 14.12.2020
4850 Clouds 4 1024 51 10000 8.94 340 16:57 14.12.2020
4851 Clouds 4 1023 51 10000 8.94 340 16:38 14.12.2020
4852 Clouds 4 1024 51 10000 8.94 340 16:18 14.12.2020
4853 Clouds 4 1024 51 10000 8.94 340 15:33 14.12.2020
4854 Clouds 4 1024 51 10000 8.94 340 14:48 14.12.2020
4855 Clouds 4 1024 51 10000 9.3 340 14:29 14.12.2020
4856 Clouds 4 1024 51 10000 9.3 340 13:55 14.12.2020
4857 Clouds 4 1024 51 10000 9.3 340 13:34 14.12.2020
4858 Clouds 4 1024 51 10000 9.3 330 12:56 14.12.2020
4859 Clouds 4 1024 51 10000 9.3 330 12:31 14.12.2020
4860 Clouds 4 1023 51 10000 10.3 330 11:54 14.12.2020
4861 Clouds 4 1023 51 10000 9.8 330 11:23 14.12.2020
4862 Clouds 4 1023 51 10000 9.8 330 10:27 14.12.2020
4863 Clouds 5 1022 48 10000 9.3 340 09:52 14.12.2020
4864 Clouds 6 1022 45 10000 9.8 330 08:56 14.12.2020
4865 Clouds 6 1022 45 10000 9.8 330 08:38 14.12.2020
4866 Clouds 8 1021 39 10000 8.7 330 07:53 14.12.2020
4867 Clouds 7 1021 45 10000 8.2 330 07:19 14.12.2020
4868 Clouds 7 1021 45 10000 8.2 330 06:33 14.12.2020
4869 Clouds 7 1022 45 10000 9.8 320 03:55 14.12.2020
4870 Clouds 6 1021 60 10000 9.3 360 00:57 14.12.2020
4871 Clouds 6 1021 60 10000 9.3 360 00:37 14.12.2020
4872 Clouds 6 1021 52 10000 10.3 330 00:18 14.12.2020
4873 Clouds 7 1021 52 10000 10.3 330 23:42 13.12.2020
4874 Clouds 7 1021 60 10000 6.86 350 22:52 13.12.2020
4875 Clouds 8 1020 65 10000 7.86 350 22:21 13.12.2020
4876 Clouds 8 1020 65 10000 7.86 350 21:56 13.12.2020
4877 Clouds 8 1020 65 10000 7.86 350 21:36 13.12.2020
4878 Clouds 10 1016 76 10000 2.68 130 20:49 13.12.2020
4879 Clouds 10 1016 76 10000 2.68 130 20:25 13.12.2020
4880 Clouds 10 1016 76 10000 2.68 130 19:46 13.12.2020
4881 Clouds 10 1016 76 10000 2.68 130 19:23 13.12.2020
4882 Clouds 10 1016 76 10000 2.68 130 18:54 13.12.2020
4883 Clouds 10 1016 76 10000 2.68 130 18:36 13.12.2020
4884 Clouds 10 1016 76 10000 2.68 130 18:18 13.12.2020
4885 Clouds 10 1016 76 10000 2.68 130 17:43 13.12.2020
4886 Clouds 10 1016 76 10000 2.68 130 17:18 13.12.2020
4887 Clouds 10 1016 76 10000 2.68 130 16:42 13.12.2020
4888 Clouds 10 1016 76 10000 2.68 130 16:21 13.12.2020
4889 Clouds 10 1016 76 10000 2.68 130 15:45 13.12.2020
4890 Clouds 10 1016 76 10000 2.68 130 15:45 13.12.2020
4891 Clouds 10 1016 76 10000 2.68 130 15:45 13.12.2020
4892 Clouds 10 1016 76 10000 2.68 130 15:45 13.12.2020
4893 Clouds 10 1016 76 10000 2.68 130 15:45 13.12.2020
4894 Clouds 10 1016 76 10000 2.68 130 15:45 13.12.2020
4895 Clouds 10 1016 76 10000 2.68 130 15:25 13.12.2020
4896 Clouds 10 1016 76 10000 2.68 130 14:45 13.12.2020
4897 Clear 10 1016 76 10000 3.1 130 14:27 13.12.2020
4898 Clear 10 1016 76 10000 3.1 130 13:45 13.12.2020
4899 Clear 10 1016 76 10000 3.1 130 13:27 13.12.2020
4900 Clear 10 1017 76 10000 2.1 130 12:55 13.12.2020
4901 Clear 10 1017 76 10000 2.1 130 12:24 13.12.2020
4902 Clouds 9 1016 70 10000 1.5 280 11:51 13.12.2020
4903 Clouds 11 1016 66 10000 3.1 300 11:23 13.12.2020
4904 Clouds 11 1016 66 10000 3.1 300 10:41 13.12.2020
4905 Clouds 12 1016 58 10000 3.1 320 09:59 13.12.2020
4906 Clouds 12 1016 58 10000 3.1 320 09:31 13.12.2020
4907 Clouds 13 1016 50 10000 1.5 220 08:36 13.12.2020
4908 Clouds 14 1015 44 10000 3.1 310 07:52 13.12.2020
4909 Clouds 13 1015 43 10000 2.6 360 05:49 13.12.2020
4910 Clear 11 1017 66 10000 4.1 130 02:43 13.12.2020
4911 Clear 10 1019 76 10000 4.6 130 01:58 13.12.2020
4912 Clear 9 1019 81 10000 3.1 120 01:33 13.12.2020
4913 Clear 7 1019 81 10000 3.1 120 00:33 13.12.2020
4914 Clear 5 1019 86 10000 1 120 23:33 12.12.2020
4915 Clear 9 1016 53 10000 2.68 40 22:58 12.12.2020
4916 Clear 9 1016 53 10000 2.68 40 22:27 12.12.2020
4917 Clear 9 1016 53 10000 2.68 40 21:45 12.12.2020
4918 Clear 9 1016 52 10000 2.68 40 21:18 12.12.2020
4919 Clear 9 1016 52 10000 2.68 40 20:43 12.12.2020
4920 Clear 9 1016 52 10000 2.68 40 20:19 12.12.2020
4921 Clear 9 1016 52 10000 2.68 40 19:47 12.12.2020
4922 Clear 9 1016 52 10000 2.68 40 19:29 12.12.2020
4923 Clear 9 1016 53 10000 2.68 40 18:48 12.12.2020
4924 Clear 9 1016 53 10000 2.68 40 18:30 12.12.2020
4925 Clear 9 1016 52 10000 2.68 40 17:51 12.12.2020
4926 Clear 9 1016 52 10000 2.68 40 17:32 12.12.2020
4927 Clear 9 1016 52 10000 2.68 40 16:24 12.12.2020
4928 Clear 9 1016 52 10000 2.68 40 15:52 12.12.2020
4929 Clear 9 1016 52 10000 2.68 40 15:34 12.12.2020
4930 Clear 9 1016 53 10000 2.68 40 14:50 12.12.2020
4931 Clear 9 1016 53 10000 3.1 40 13:58 12.12.2020
4932 Clear 9 1016 53 10000 3.1 40 13:38 12.12.2020
4933 Clear 9 1016 54 10000 3.1 40 13:19 12.12.2020
4934 Clear 10 1016 54 10000 3.1 40 12:29 12.12.2020
4935 Clear 12 1016 57 10000 6.7 360 10:55 12.12.2020
4936 Clouds 12 1015 54 10000 8.7 350 09:50 12.12.2020
4937 Clouds 14 1014 47 10000 9.3 340 08:57 12.12.2020
4938 Clouds 14 1015 47 10000 5.7 320 03:31 12.12.2020
4939 Clouds 12 1015 76 10000 4.6 20 23:58 11.12.2020
4940 Clouds 11 1017 71 10000 3.27 23 22:39 11.12.2020
4941 Clouds 11 1017 71 10000 2.96 14 20:50 11.12.2020
4942 Clouds 11 1017 71 10000 3.07 7 18:46 11.12.2020
4943 Clouds 11 1017 71 10000 2.39 350 16:34 11.12.2020
4944 Clear 11 1017 71 10000 1 0 14:18 11.12.2020
4945 Clear 11 1017 71 10000 1 0 13:25 11.12.2020
4946 Clear 12 1017 71 10000 1.5 100 12:19 11.12.2020
4947 Clear 12 1017 71 10000 1.5 100 11:51 11.12.2020
4948 Clouds 12 1017 66 10000 2.1 140 10:46 11.12.2020
4949 Clouds 14 1016 54 10000 2.6 150 08:53 11.12.2020
4950 Clouds 14 1017 67 10000 1 0 05:43 11.12.2020
4951 Clouds 13 1018 71 10000 0.5 0 05:18 11.12.2020
4952 Clouds 11 1019 76 10000 2.1 120 02:18 11.12.2020
4953 Clouds 7 1019 81 10000 2.1 110 00:23 11.12.2020
4954 Clear 11 1019 66 10000 1.34 50 22:52 10.12.2020
4955 Clear 11 1019 66 10000 1.34 50 21:36 10.12.2020
4956 Clear 11 1019 66 10000 1.34 50 20:42 10.12.2020
4957 Clouds 11 1019 66 10000 1.34 50 19:43 10.12.2020
4958 Clouds 11 1019 66 10000 1.34 50 18:57 10.12.2020
4959 Clouds 11 1019 66 10000 1.34 50 18:21 10.12.2020
4960 Clouds 9 1020 70 10000 2.6 330 16:32 10.12.2020
4961 Clouds 9 1020 70 10000 2.6 330 15:27 10.12.2020
4962 Clouds 9 1019 76 10000 2.1 30 14:51 10.12.2020
4963 Clear 11 1019 66 10000 1.5 50 14:27 10.12.2020
4964 Clear 12 1019 62 10000 3.6 340 12:54 10.12.2020
4965 Clear 13 1019 58 10000 3.6 330 11:39 10.12.2020
4966 Clouds 15 1018 47 10000 3.1 310 08:52 10.12.2020
4967 Clouds 16 1018 48 10000 3.1 300 07:48 10.12.2020
4968 Clouds 16 1018 51 10000 1.5 330 06:41 10.12.2020
4969 Clouds 12 1021 71 10000 1 250 02:56 10.12.2020
4970 Clouds 11 1021 71 10000 0.5 0 02:00 10.12.2020
4971 Clouds 8 1021 70 10000 1.5 50 23:52 09.12.2020
4972 Clouds 10 1021 58 10000 1.54 14 20:59 09.12.2020
4973 Clear 10 1021 57 10000 1.73 6 20:28 09.12.2020
4974 Clear 10 1021 55 10000 1.35 49 19:21 09.12.2020
4975 Clear 10 1021 56 10000 1.36 44 17:43 09.12.2020
4976 Clear 10 1021 55 10000 1.15 43 16:41 09.12.2020
4977 Clear 4 1022 86 10000 2.1 340 16:20 09.12.2020
4978 Clear 4 1022 86 10000 2.1 340 16:20 09.12.2020
4979 Clear 4 1022 86 10000 2.1 340 16:20 09.12.2020
4980 Clear 5 1022 86 10000 3.6 300 14:58 09.12.2020
4981 Clear 8 1021 75 10000 2.1 120 14:27 09.12.2020
4982 Clear 8 1021 75 10000 2.1 120 13:58 09.12.2020
4983 Clear 8 1021 75 10000 2.1 70 13:19 09.12.2020
4984 Clear 8 1021 75 10000 2.1 70 12:43 09.12.2020
4985 Clear 9 1021 70 10000 1.5 120 11:49 09.12.2020
4986 Clear 11 1021 53 10000 2.6 150 10:39 09.12.2020
4987 Clear 13 1021 50 10000 3.1 160 08:46 09.12.2020
4988 Clear 14 1020 41 10000 2.1 340 07:43 09.12.2020
4989 Clear 13 1022 50 10000 2.6 300 05:48 09.12.2020
4990 Clear 10 1024 61 10000 1 0 03:21 09.12.2020
4991 Clear 8 1024 81 10000 1.5 130 01:21 09.12.2020
4992 Clouds 7 1024 81 10000 2.6 130 23:41 08.12.2020
4993 Clouds 8 1025 81 10000 2.1 130 22:43 08.12.2020
4994 Clouds 9 1025 62 10000 3.4 29 20:50 08.12.2020
4995 Clouds 8 1025 62 10000 2.32 29 19:32 08.12.2020
4996 Clouds 8 1025 62 10000 3.05 24 18:57 08.12.2020
4997 Clouds 9 1025 60 10000 3.17 17 17:31 08.12.2020
4998 Clouds 6 1025 81 10000 1.5 60 15:43 08.12.2020
4999 Clouds 9 1025 61 10000 6.2 340 13:59 08.12.2020
5000 Clouds 9 1025 61 10000 6.2 340 13:24 08.12.2020
5001 Clouds 9 1025 57 10000 5.7 340 12:23 08.12.2020
5002 Clouds 10 1024 53 10000 8.2 340 11:28 08.12.2020
5003 Clouds 10 1024 53 10000 8.2 340 10:42 08.12.2020
5004 Clouds 10 1024 57 10000 7.7 310 09:46 08.12.2020
5005 Clouds 12 1023 46 10000 5.7 320 07:47 08.12.2020
5006 Clouds 12 1024 54 10000 4.1 360 05:43 08.12.2020
5007 Clouds 12 1026 50 10000 8.7 330 02:59 08.12.2020
5008 Clouds 11 1025 62 10000 8.2 340 00:45 08.12.2020
5009 Clouds 11 1025 62 10000 7.7 330 23:50 07.12.2020
5010 Clouds 12 1025 58 10000 8.2 340 22:32 07.12.2020
5011 Clouds 11 1025 70 10000 5.28 339 21:48 07.12.2020
5012 Clear 11 1024 68 10000 4.07 346 19:45 07.12.2020
5013 Clear 11 1025 68 10000 3.73 349 18:19 07.12.2020
5014 Clear 12 1025 62 10000 5.36 350 17:23 07.12.2020
5015 Clear 12 1025 62 10000 5.36 350 16:47 07.12.2020
5016 Clouds 6 1025 87 10000 1.5 320 15:25 07.12.2020
5017 Clear 12 1025 62 10000 5.7 350 14:36 07.12.2020
5018 Clear 12 1025 62 10000 5.7 350 13:37 07.12.2020
5019 Clouds 11 1025 71 10000 6.2 340 12:31 07.12.2020
5020 Clouds 11 1024 66 10000 4.1 20 11:42 07.12.2020
5021 Clouds 13 1024 62 10000 5.7 10 10:36 07.12.2020
5022 Clouds 14 1023 62 10000 6.7 350 09:24 07.12.2020
5023 Clouds 16 1022 51 10000 5.1 330 07:49 07.12.2020
5024 Clouds 15 1023 54 10000 4.6 340 05:29 07.12.2020
5025 Clouds 15 1024 58 10000 2.1 210 04:40 07.12.2020
5026 Clear 8 1025 87 10000 2.1 130 01:23 07.12.2020
5027 Clear 8 1025 87 10000 3.1 160 22:53 06.12.2020
5028 Clear 10 1024 78 10000 3.02 21 21:53 06.12.2020
5029 Clear 10 1024 77 10000 3.13 23 20:47 06.12.2020
5030 Clear 10 1024 76 10000 3.17 21 20:26 06.12.2020
5031 Clear 10 1024 76 10000 3.17 21 19:39 06.12.2020
5032 Clear 10 1025 70 10000 2.59 10 17:45 06.12.2020
5033 Clear 5 1025 86 10000 2.6 350 16:34 06.12.2020
5034 Clear 6 1025 87 10000 2.6 340 14:49 06.12.2020
5035 Clear 9 1025 87 10000 2.1 60 13:23 06.12.2020
5036 Clear 10 1025 76 10000 3.6 350 12:33 06.12.2020
5037 Clear 11 1024 71 10000 4.1 20 11:53 06.12.2020
5038 Clear 11 1024 71 10000 4.1 20 11:25 06.12.2020
5039 Clear 12 1024 66 10000 7.2 20 10:35 06.12.2020
5040 Clouds 15 1024 54 10000 5.7 340 09:23 06.12.2020
5041 Clear 15 1023 51 10000 4.1 320 07:29 06.12.2020
5042 Clouds 14 1025 47 10000 5.1 350 04:47 06.12.2020
5043 Clouds 7 1026 81 10000 2.6 110 00:45 06.12.2020
5044 Clouds 7 1026 81 10000 2.6 110 00:26 06.12.2020
5045 Clouds 7 1026 81 10000 2.6 130 23:55 05.12.2020
5046 Clear 7 1026 75 10000 2.1 0 22:24 05.12.2020
5047 Clear 8 1026 64 10000 2.97 13 21:55 05.12.2020
5048 Clear 9 1025 64 10000 3.05 11 21:28 05.12.2020
5049 Clear 9 1025 63 10000 3.36 9 19:54 05.12.2020
5050 Clear 9 1026 65 10000 2.93 15 18:46 05.12.2020
5051 Clear 9 1027 65 10000 2.92 10 17:39 05.12.2020
5052 Clear 9 1027 64 10000 2.93 4 16:45 05.12.2020
5053 Clear 3 1026 86 10000 2.1 30 16:25 05.12.2020
5054 Clear 9 1026 66 10000 7.2 350 14:39 05.12.2020
5055 Clear 8 1026 65 10000 1.5 60 12:35 05.12.2020
5056 Clear 9 1025 61 10000 7.2 360 11:50 05.12.2020
5057 Clouds 10 1025 61 10000 7.7 10 10:34 05.12.2020
5058 Clouds 13 1025 47 10000 7.7 350 08:27 05.12.2020
5059 Clouds 14 1025 44 10000 7.2 350 07:47 05.12.2020
5060 Clouds 14 1026 35 10000 4.6 20 05:30 05.12.2020
5061 Clouds 6 1027 81 10000 3.1 40 23:57 04.12.2020
5062 Clear 6 1026 75 10000 1 0 22:47 04.12.2020
5063 Clear 9 1026 57 10000 3.36 12 20:35 04.12.2020
5064 Clear 9 1026 58 10000 3.55 357 18:54 04.12.2020
5065 Clear 9 1027 66 10000 3.23 349 18:21 04.12.2020
5066 Clear 9 1027 66 10000 3.23 349 17:41 04.12.2020
5067 Clouds 8 1026 75 10000 2.6 290 15:54 04.12.2020
5068 Clouds 8 1026 75 10000 2.6 320 15:20 04.12.2020
5069 Clouds 10 1026 61 10000 5.7 340 13:35 04.12.2020
5070 Clouds 10 1026 66 10000 7.2 330 12:55 04.12.2020
5071 Clouds 10 1025 71 10000 6.7 330 11:41 04.12.2020
5072 Clouds 11 1025 66 10000 5.7 340 10:30 04.12.2020
5073 Clouds 13 1023 43 10000 5.7 320 07:53 04.12.2020
5074 Clouds 13 1023 45 10000 4.6 320 06:40 04.12.2020
5075 Clouds 14 1024 41 10000 3.1 340 04:50 04.12.2020
5076 Clouds 8 1025 81 10000 2.6 130 23:51 03.12.2020
5077 Clouds 6 1025 81 10000 2.6 120 22:47 03.12.2020
5078 Clear 8 1025 55 10000 3.28 20 21:20 03.12.2020
5079 Clear 9 1025 54 10000 3.21 20 19:49 03.12.2020
5080 Clear 9 1025 54 10000 3.44 21 19:20 03.12.2020
5081 Clear 9 1025 54 10000 3.44 21 18:39 03.12.2020
5082 Clear 9 1026 52 10000 4.21 14 17:21 03.12.2020
5083 Clouds 3 1025 86 10000 2.1 330 15:59 03.12.2020
5084 Clouds 3 1025 86 10000 2.1 330 15:31 03.12.2020
5085 Clouds 5 1025 75 10000 2.1 350 14:48 03.12.2020
5086 Clouds 8 1025 65 10000 4.6 360 13:50 03.12.2020
5087 Clouds 9 1025 66 10000 4.1 20 12:33 03.12.2020
5088 Clouds 11 1025 53 10000 6.7 360 11:55 03.12.2020
5089 Clouds 11 1024 53 10000 6.7 360 10:36 03.12.2020
5090 Clouds 13 1022 50 10000 8.7 20 08:21 03.12.2020
5091 Clouds 15 1024 47 10000 7.2 350 03:41 03.12.2020
5092 Clouds 13 1024 62 10000 8.2 340 01:39 03.12.2020
5093 Clouds 11 1023 71 10000 7.2 340 23:41 02.12.2020
5094 Clouds 10 1024 81 10000 4.1 360 22:29 02.12.2020
5095 Clear 11 1023 73 10000 3.26 0 21:29 02.12.2020
5096 Clear 11 1023 73 10000 3.26 0 20:48 02.12.2020
5097 Clear 11 1023 74 10000 2.93 358 20:29 02.12.2020
5098 Clear 11 1023 74 10000 2.93 358 19:39 02.12.2020
5099 Clear 11 1024 72 10000 3.28 26 17:48 02.12.2020
5100 Clear 11 1024 72 10000 3.65 27 17:29 02.12.2020
5101 Clouds 8 1024 75 10000 2.1 10 15:43 02.12.2020
5102 Clouds 13 1024 58 10000 4.1 20 13:20 02.12.2020
5103 Clouds 12 1023 71 10000 3.1 40 11:20 02.12.2020
5104 Clouds 12 1023 71 10000 3.1 40 10:24 02.12.2020
5105 Clouds 16 1022 48 10000 3.6 300 07:42 02.12.2020
5106 Clouds 6 1025 87 10000 2.6 100 23:20 01.12.2020
5107 Clear 10 1025 74 10000 2.29 33 22:20 01.12.2020
5108 Clear 10 1026 72 10000 2.63 41 19:36 01.12.2020
5109 Clear 10 1026 71 10000 2.38 46 18:46 01.12.2020
5110 Clear 10 1026 69 10000 2.71 36 16:47 01.12.2020
5111 Clouds 8 1027 81 10000 3.1 70 14:21 01.12.2020
5112 Clear 11 1027 57 10000 4.1 70 12:29 01.12.2020
5113 Clouds 12 1027 50 10000 3.6 20 11:28 01.12.2020
5114 Clouds 13 1027 50 10000 6.2 30 10:44 01.12.2020
5115 Clouds 13 1027 50 10000 6.2 30 10:25 01.12.2020
5116 Clouds 15 1027 44 10000 6.2 10 07:26 01.12.2020
5117 Clouds 11 1030 62 10000 0.5 0 02:41 01.12.2020
5118 Clouds 7 1031 87 10000 2.6 130 00:57 01.12.2020
5119 Clouds 5 1031 93 10000 1 100 23:22 30.11.2020
5120 Clouds 5 1031 93 10000 1 100 22:45 30.11.2020
5121 Clouds 5 1031 93 10000 1 100 22:26 30.11.2020
5122 Clear 8 1030 63 10000 3.45 29 21:56 30.11.2020
5123 Clear 8 1032 61 10000 4.02 70 19:45 30.11.2020
5124 Clear 8 1030 62 10000 3.49 11 18:40 30.11.2020
5125 Clear 8 1030 61 10000 3.37 18 18:20 30.11.2020
5126 Clear 8 1030 61 10000 3.37 18 17:42 30.11.2020
5127 Clear 8 1031 60 10000 3.49 27 16:44 30.11.2020
5128 Clear 8 1032 61 10000 4.02 70 14:47 30.11.2020
5129 Clouds 8 1032 61 10000 4.1 70 13:55 30.11.2020
5130 Clouds 8 1031 61 10000 6.7 350 12:35 30.11.2020
5131 Clouds 8 1030 61 10000 3.6 20 11:59 30.11.2020
5132 Clouds 9 1030 57 10000 5.7 10 10:31 30.11.2020
5133 Clouds 10 1029 53 10000 5.7 360 09:52 30.11.2020
5134 Clouds 11 1029 50 10000 5.7 350 07:58 30.11.2020
5135 Clouds 10 1030 66 10000 6.7 350 01:21 30.11.2020
5136 Clear 9 1029 70 10000 4.11 9 22:20 29.11.2020
5137 Clear 9 1029 70 10000 4.11 9 21:43 29.11.2020
5138 Clear 9 1028 69 10000 3.93 4 21:25 29.11.2020
5139 Clear 9 1028 68 10000 4.07 339 17:48 29.11.2020
5140 Clear 9 1028 67 10000 4.04 339 16:59 29.11.2020
5141 Clouds 10 1028 61 10000 5.1 350 13:35 29.11.2020
5142 Clouds 10 1027 57 10000 6.7 340 12:34 29.11.2020
5143 Clouds 10 1027 57 10000 5.7 350 11:22 29.11.2020
5144 Clouds 11 1026 50 10000 8.2 330 08:52 29.11.2020
5145 Clouds 11 1026 50 10000 8.2 330 08:34 29.11.2020
5146 Clouds 11 1026 62 10000 5.1 350 01:43 29.11.2020
5147 Clouds 9 1025 70 10000 2.6 130 22:57 28.11.2020
5148 Clear 9 1025 58 10000 2.34 357 20:56 28.11.2020
5149 Clear 9 1025 56 10000 1.9 5 19:53 28.11.2020
5150 Clouds 9 1025 56 10000 2.23 18 19:25 28.11.2020
5151 Clouds 9 1025 55 10000 2.38 18 18:52 28.11.2020
5152 Clouds 9 1025 55 10000 2.6 17 17:52 28.11.2020
5153 Clouds 9 1025 54 10000 2.58 6 16:52 28.11.2020
5154 Clouds 6 1024 87 10000 3.1 300 14:58 28.11.2020
5155 Clouds 8 1024 70 10000 3.6 50 13:30 28.11.2020
5156 Clouds 10 1024 57 10000 5.7 340 11:23 28.11.2020
5157 Clouds 12 1023 50 10000 6.7 320 07:55 28.11.2020
5158 Clouds 12 1025 46 10000 7.2 330 03:33 28.11.2020
5159 Clouds 11 1025 50 10000 6.7 340 01:51 28.11.2020
5160 Clouds 10 1024 57 10000 9.3 340 23:19 27.11.2020
5161 Clouds 10 1024 61 10000 5.42 356 21:51 27.11.2020
5162 Clouds 10 1024 62 10000 6.49 350 20:37 27.11.2020
5163 Clouds 10 1023 65 10000 6.52 346 19:30 27.11.2020
5164 Clouds 10 1023 74 10000 7.15 325 18:51 27.11.2020
5165 Clouds 13 1022 62 10000 4.6 280 15:21 27.11.2020
5166 Clouds 13 1022 66 10000 8.2 300 13:57 27.11.2020
5167 Clouds 14 1022 62 10000 11.3 310 12:48 27.11.2020
5168 Clouds 14 1022 67 10000 7.7 310 11:55 27.11.2020
5169 Clouds 14 1022 67 10000 7.7 310 10:51 27.11.2020
5170 Clouds 14 1022 67 10000 7.7 310 10:25 27.11.2020
5171 Clouds 14 1022 71 10000 7.68 316 07:30 27.11.2020
5172 Clear 13 1023 77 10000 1.35 34 22:43 26.11.2020
5173 Clouds 13 1022 76 10000 1.65 28 22:22 26.11.2020
5174 Clouds 13 1022 76 10000 1.65 28 21:39 26.11.2020
5175 Clouds 13 1022 75 10000 2.35 6 19:41 26.11.2020
5176 Clouds 13 1023 75 10000 2.36 11 18:31 26.11.2020
5177 Clouds 10 1023 87 10000 1.5 300 16:32 26.11.2020
5178 Clouds 12 1023 93 10000 2.1 60 13:43 26.11.2020
5179 Clouds 13 1023 87 10000 1.5 70 12:45 26.11.2020
5180 Clouds 13 1023 87 10000 1.5 70 12:23 26.11.2020
5181 Clouds 16 1022 72 10000 1.5 330 10:38 26.11.2020
5182 Clouds 16 1021 67 10000 1.5 250 09:49 26.11.2020
5183 Clouds 16 1021 67 10000 1.5 250 09:31 26.11.2020
5184 Clouds 17 1021 63 10000 1.5 210 08:40 26.11.2020
5185 Clouds 16 1021 72 10000 2.1 300 06:56 26.11.2020
5186 Clouds 15 1024 73 10000 2.23 353 00:46 26.11.2020
5187 Clouds 13 1022 79 10000 2.79 31 21:29 25.11.2020
5188 Clouds 13 1022 81 10000 2.61 32 19:58 25.11.2020
5189 Clouds 13 1022 83 10000 2.79 19 18:50 25.11.2020
5190 Clouds 13 1023 81 10000 2.47 349 17:24 25.11.2020
5191 Clouds 9 1022 93 10000 2.6 290 15:42 25.11.2020
5192 Clouds 12 1023 71 10000 2.1 60 14:19 25.11.2020
5193 Clouds 12 1023 71 10000 2.1 60 13:43 25.11.2020
5194 Clouds 13 1023 71 10000 2.6 350 12:26 25.11.2020
5195 Clouds 15 1022 62 10000 6.2 340 11:20 25.11.2020
5196 Clouds 17 1022 59 10000 6.7 310 09:19 25.11.2020
5197 Clouds 17 1022 59 10000 6.7 310 08:47 25.11.2020
5198 Clouds 18 1023 59 10000 3.6 300 05:18 25.11.2020
5199 Clouds 16 1024 72 10000 0.5 0 02:53 25.11.2020
5200 Clouds 12 1024 87 10000 2.1 110 00:28 25.11.2020
5201 Clouds 11 1023 93 10000 1.5 110 23:52 24.11.2020
5202 Clouds 11 1023 93 10000 1.5 110 23:34 24.11.2020
5203 Clouds 13 1023 72 10000 2.4 337 21:51 24.11.2020
5204 Clouds 13 1023 72 10000 2.4 337 21:30 24.11.2020
5205 Clouds 13 1023 68 10000 1.91 346 20:42 24.11.2020
5206 Clouds 14 1023 66 10000 1.86 356 18:56 24.11.2020
5207 Clouds 13 1024 66 10000 1.96 1 17:31 24.11.2020
5208 Clouds 13 1024 66 10000 2.35 358 16:50 24.11.2020
5209 Clouds 13 1024 66 10000 2.35 358 16:50 24.11.2020
5210 Clouds 10 1024 81 10000 2.1 30 16:31 24.11.2020
5211 Clouds 10 1024 81 10000 2.1 30 15:54 24.11.2020
5212 Clouds 10 1023 81 10000 2.1 30 15:18 24.11.2020
5213 Clouds 13 1023 71 10000 2.1 110 14:34 24.11.2020
5214 Clouds 13 1023 76 10000 2.1 90 12:50 24.11.2020
5215 Clouds 13 1023 71 10000 2.6 50 12:22 24.11.2020
5216 Clouds 13 1023 71 10000 2.6 50 11:39 24.11.2020
5217 Clouds 15 1023 67 10000 4.6 320 10:41 24.11.2020
5218 Clouds 15 1022 62 10000 3.1 320 10:22 24.11.2020
5219 Clouds 15 1022 62 10000 3.1 320 09:35 24.11.2020
5220 Clouds 17 1022 51 10000 2.6 290 07:57 24.11.2020
5221 Clouds 16 1024 59 10000 1 0 04:21 24.11.2020
5222 Clear 10 1024 87 10000 1.5 120 22:34 23.11.2020
5223 Clear 12 1024 75 10000 2.27 351 21:37 23.11.2020
5224 Clear 12 1024 75 10000 2.64 13 20:50 23.11.2020
5225 Clear 12 1023 74 10000 3.01 14 20:26 23.11.2020
5226 Clear 12 1023 73 10000 2.42 13 19:20 23.11.2020
5227 Clear 12 1024 70 10000 2.56 360 17:25 23.11.2020
5228 Clear 8 1023 87 10000 3.1 290 16:28 23.11.2020
5229 Clear 8 1023 87 10000 2.1 300 14:48 23.11.2020
5230 Clear 12 1023 66 10000 4.6 10 13:20 23.11.2020
5231 Clear 12 1023 66 10000 4.6 10 12:37 23.11.2020
5232 Clear 12 1023 62 10000 4.6 30 11:48 23.11.2020
5233 Clouds 12 1022 62 10000 6.2 360 11:19 23.11.2020
5234 Clouds 13 1022 58 10000 6.7 10 09:31 23.11.2020
5235 Clouds 14 1022 54 10000 6.7 340 08:47 23.11.2020
5236 Clouds 15 1021 51 10000 6.2 330 07:27 23.11.2020
5237 Clouds 14 1023 67 10000 7.2 330 00:34 23.11.2020
5238 Clouds 13 1022 71 10000 8.2 320 23:35 22.11.2020
5239 Clouds 13 1022 78 10000 6.15 323 22:18 22.11.2020
5240 Clouds 13 1022 75 10000 6.34 327 20:53 22.11.2020
5241 Clouds 16 1020 82 10000 9.39 320 19:53 22.11.2020
5242 Clouds 13 1021 77 10000 7.83 328 18:40 22.11.2020
5243 Clouds 16 1020 82 10000 9.39 320 16:52 22.11.2020
5244 Clouds 16 1019 82 10000 9.39 320 15:44 22.11.2020
5245 Clouds 16 1020 82 10000 9.8 320 14:29 22.11.2020
5246 Clouds 16 1020 93 8000 9.3 320 12:49 22.11.2020
5247 Clouds 17 1019 93 6000 7.7 320 11:56 22.11.2020
5248 Clouds 17 1019 93 6000 3.1 330 11:20 22.11.2020
5249 Clouds 17 1019 93 6000 3.1 330 10:39 22.11.2020
5250 Clouds 18 1017 88 10000 2.1 20 08:51 22.11.2020
5251 Clouds 16 1019 82 10000 6.7 130 01:48 22.11.2020
5252 Clouds 15 1019 87 10000 5.1 150 23:35 21.11.2020
5253 Clouds 16 1020 74 10000 2.21 125 21:57 21.11.2020
5254 Clouds 16 1019 76 10000 2.77 128 21:19 21.11.2020
5255 Clouds 16 1019 76 10000 2.77 128 20:33 21.11.2020
5256 Clouds 16 1019 77 10000 2.91 141 19:53 21.11.2020
5257 Clouds 17 1020 76 10000 3.2 156 19:26 21.11.2020
5258 Clouds 17 1021 75 10000 3.81 164 17:57 21.11.2020
5259 Clear 17 1021 74 10000 3.36 187 16:48 21.11.2020
5260 Clear 17 1021 74 10000 3.36 187 16:48 21.11.2020
5261 Clear 10 1020 93 10000 2.6 310 15:51 21.11.2020
5262 Clear 10 1020 87 10000 2.1 330 15:21 21.11.2020
5263 Clear 10 1020 87 10000 2.1 330 14:43 21.11.2020
5264 Clear 13 1020 82 10000 2.1 110 13:48 21.11.2020
5265 Clear 14 1020 82 10000 2.1 110 12:26 21.11.2020
5266 Clear 15 1020 77 10000 2.6 130 11:56 21.11.2020
5267 Clear 16 1019 67 10000 3.1 160 10:39 21.11.2020
5268 Clear 17 1019 55 10000 3.1 130 09:32 21.11.2020
5269 Clear 19 1018 48 10000 4.6 140 08:51 21.11.2020
5270 Clouds 18 1018 48 10000 5.1 360 05:43 21.11.2020
5271 Clouds 18 1019 52 10000 2.1 0 04:27 21.11.2020
5272 Clouds 12 1019 76 10000 2.1 40 00:27 21.11.2020
5273 Clouds 12 1019 76 10000 2.1 40 23:25 20.11.2020
5274 Clear 14 1016 67 10000 4.92 350 21:48 20.11.2020
5275 Clear 14 1016 67 10000 4.92 350 21:26 20.11.2020
5276 Clear 14 1018 67 10000 4.92 350 20:55 20.11.2020
5277 Clear 14 1016 67 10000 4.92 350 19:43 20.11.2020
5278 Clear 14 1016 67 10000 4.92 350 18:29 20.11.2020
5279 Clear 14 1018 67 10000 4.92 350 17:34 20.11.2020
5280 Clear 14 1018 67 10000 4.92 350 16:57 20.11.2020
5281 Clear 14 1018 67 10000 4.92 350 16:37 20.11.2020
5282 Clear 14 1016 67 10000 4.92 350 15:48 20.11.2020
5283 Clouds 14 1018 67 10000 5.1 350 14:23 20.11.2020
5284 Clouds 14 1018 67 10000 5.1 350 13:43 20.11.2020
5285 Clouds 15 1017 67 10000 6.7 340 12:59 20.11.2020
5286 Clouds 15 1017 67 10000 6.7 340 12:28 20.11.2020
5287 Clouds 15 1017 72 10000 7.2 330 11:36 20.11.2020
5288 Clouds 15 1016 72 10000 7.2 320 09:56 20.11.2020
5289 Clouds 16 1015 72 10000 6.2 310 08:35 20.11.2020
5290 Clouds 17 1015 67 10000 7.2 310 07:52 20.11.2020
5291 Clouds 17 1015 63 10000 5.7 320 05:19 20.11.2020
5292 Clouds 17 1014 72 10000 3.1 290 00:41 20.11.2020
5293 Clouds 17 1013 82 10000 5.7 290 22:31 19.11.2020
5294 Clouds 17 1013 82 10000 6.17 324 21:54 19.11.2020
5295 Clouds 20 1011 93 10000 4.02 320 20:58 19.11.2020
5296 Rain 20 1011 93 10000 4.02 320 20:20 19.11.2020
5297 Rain 20 1011 93 10000 4.02 320 19:27 19.11.2020
5298 Clouds 20 1011 93 10000 4.02 320 18:54 19.11.2020
5299 Rain 20 1011 93 10000 4.02 320 17:27 19.11.2020
5300 Rain 20 1011 93 6846 4.02 320 16:33 19.11.2020
5301 Rain 20 1011 93 10000 4.02 320 15:29 19.11.2020
5302 Thunderstorm 20 1011 94 4500 6.2 300 13:51 19.11.2020
5303 Mist 21 1011 94 4500 6.2 300 13:33 19.11.2020
5304 Rain 21 1010 88 3000 8.2 170 12:52 19.11.2020
5305 Rain 22 1010 88 3000 8.2 170 12:33 19.11.2020
5306 Rain 21 1009 94 6000 8.7 130 11:40 19.11.2020
5307 Rain 21 1009 94 6000 8.7 130 11:21 19.11.2020
5308 Rain 22 1009 88 6000 9.8 160 10:31 19.11.2020
5309 Rain 23 1010 83 8000 12.9 170 09:47 19.11.2020
5310 Rain 23 1011 78 10000 10.8 170 09:27 19.11.2020
5311 Rain 23 1011 78 10000 10.8 170 08:24 19.11.2020
5312 Clouds 24 1011 73 10000 9.8 170 07:35 19.11.2020
5313 Clouds 22 1015 73 10000 7.7 150 01:46 19.11.2020
5314 Clouds 22 1015 73 10000 6.7 150 00:32 19.11.2020
5315 Clouds 21 1015 77 10000 5.7 130 23:31 18.11.2020
5316 Clouds 21 1016 77 10000 5.1 140 22:58 18.11.2020
5317 Clouds 21 1016 77 10000 5.1 140 22:27 18.11.2020
5318 Clouds 21 1018 73 10000 4.02 130 21:43 18.11.2020
5319 Clouds 21 1018 73 10000 4.02 130 21:24 18.11.2020
5320 Clouds 21 1018 73 10000 4.02 130 20:31 18.11.2020
5321 Clouds 21 1018 73 10000 4.02 130 19:37 18.11.2020
5322 Clouds 21 1018 73 10000 4.02 130 18:57 18.11.2020
5323 Clouds 21 1018 73 10000 4.02 130 18:38 18.11.2020
5324 Clouds 21 1019 73 10000 4.02 130 17:38 18.11.2020
5325 Clouds 21 1019 73 10000 4.02 130 16:25 18.11.2020
5326 Clouds 21 1019 73 10000 4.02 130 15:57 18.11.2020
5327 Clouds 21 1019 73 10000 4.02 130 14:41 18.11.2020
5328 Clouds 21 1018 73 10000 4.1 130 13:46 18.11.2020
5329 Clouds 20 1018 82 10000 3.1 130 13:21 18.11.2020
5330 Clouds 20 1018 82 10000 3.1 130 12:42 18.11.2020
5331 Clouds 20 1018 82 10000 3.1 150 11:41 18.11.2020
5332 Clear 22 1017 64 10000 2.1 180 10:36 18.11.2020
5333 Clear 22 1017 68 10000 4.6 130 10:18 18.11.2020
5334 Clear 24 1017 53 10000 4.6 170 07:58 18.11.2020
5335 Clear 24 1018 50 10000 4.1 140 06:35 18.11.2020
5336 Clouds 17 1022 93 10000 5.1 150 00:33 18.11.2020
5337 Clouds 17 1022 93 10000 2.1 160 23:37 17.11.2020
5338 Clouds 15 1022 100 10000 2.1 80 22:49 17.11.2020
5339 Clouds 15 1022 100 10000 2.1 80 22:29 17.11.2020
5340 Clear 18 1023 88 10000 2.24 130 21:50 17.11.2020
5341 Clear 18 1024 88 10000 2.24 130 21:30 17.11.2020
5342 Clear 18 1023 88 10000 2.24 130 20:50 17.11.2020
5343 Clear 18 1024 88 10000 2.24 130 20:25 17.11.2020
5344 Clear 18 1023 88 10000 2.24 130 19:54 17.11.2020
5345 Clear 18 1024 88 10000 2.24 130 18:25 17.11.2020
5346 Clear 18 1024 88 10000 2.24 130 17:40 17.11.2020
5347 Clear 18 1023 88 10000 2.24 130 16:54 17.11.2020
5348 Clouds 16 1024 93 10000 2.1 360 16:18 17.11.2020
5349 Clouds 16 1024 93 10000 2.1 360 16:18 17.11.2020
5350 Clouds 16 1024 93 10000 2.1 360 15:40 17.11.2020
5351 Clouds 16 1023 93 10000 1.5 290 15:22 17.11.2020
5352 Clouds 18 1023 88 10000 2.24 130 14:53 17.11.2020
5353 Clouds 18 1023 88 10000 2.6 130 13:59 17.11.2020
5354 Clouds 18 1023 88 10000 2.6 130 13:30 17.11.2020
5355 Clouds 18 1023 88 10000 1.5 210 12:43 17.11.2020
5356 Clouds 17 1023 88 10000 1 0 11:46 17.11.2020
5357 Clouds 17 1023 88 10000 1 0 11:28 17.11.2020
5358 Clouds 20 1022 77 10000 1 40 10:39 17.11.2020
5359 Clouds 21 1022 77 10000 2.6 340 10:20 17.11.2020
5360 Clouds 21 1022 77 10000 2.6 340 09:43 17.11.2020
5361 Clouds 23 1022 64 10000 1.5 320 08:46 17.11.2020
5362 Clouds 23 1022 64 10000 1 300 07:59 17.11.2020
5363 Clouds 23 1022 64 10000 1 300 07:32 17.11.2020
5364 Clouds 23 1023 64 10000 2.1 300 04:31 17.11.2020
5365 Clouds 21 1024 73 10000 1.5 50 03:25 17.11.2020
5366 Clouds 20 1024 77 10000 1.5 190 02:29 17.11.2020
5367 Clouds 17 1024 93 10000 1.5 120 00:56 17.11.2020
5368 Clouds 17 1024 88 10000 1.5 110 23:54 16.11.2020
5369 Clouds 17 1024 88 10000 1.5 110 23:31 16.11.2020
5370 Clouds 17 1024 88 10000 2.6 120 22:55 16.11.2020
5371 Clouds 17 1024 88 10000 2.6 120 22:23 16.11.2020
5372 Clouds 18 1024 82 10000 1.34 220 21:56 16.11.2020
5373 Clouds 18 1024 82 10000 1.34 220 21:37 16.11.2020
5374 Clouds 18 1024 82 10000 1.34 220 21:18 16.11.2020
5375 Clouds 18 1024 82 10000 1.34 220 20:26 16.11.2020
5376 Clouds 18 1024 82 10000 1.34 220 19:50 16.11.2020
5377 Clouds 18 1024 82 10000 1.34 220 19:28 16.11.2020
5378 Clouds 18 1024 82 10000 1.34 220 18:48 16.11.2020
5379 Clouds 18 1024 82 10000 1.34 220 17:57 16.11.2020
5380 Clouds 18 1024 82 10000 1.34 220 17:26 16.11.2020
5381 Clouds 19 1024 70 10000 2.05 78 16:57 16.11.2020
5382 Clouds 16 1024 93 10000 1.5 330 16:38 16.11.2020
5383 Clouds 18 1024 82 10000 1.34 220 16:18 16.11.2020
5384 Clouds 18 1024 82 10000 1.34 220 15:41 16.11.2020
5385 Clouds 18 1024 82 10000 1.34 220 15:22 16.11.2020
5386 Clouds 18 1024 82 10000 1.34 220 14:42 16.11.2020
5387 Rain 18 1024 82 10000 1.5 220 13:35 16.11.2020
5388 Rain 19 1023 77 10000 1 0 12:34 16.11.2020
5389 Rain 19 1023 77 10000 1.5 210 11:55 16.11.2020
5390 Rain 19 1023 77 10000 1.5 210 11:37 16.11.2020
5391 Clouds 19 1022 77 10000 2.1 120 11:18 16.11.2020
5392 Clouds 19 1022 77 10000 2.1 120 10:40 16.11.2020
5393 Clouds 19 1022 72 10000 1 0 10:22 16.11.2020
5394 Clouds 20 1022 72 10000 1 0 09:41 16.11.2020
5395 Clouds 21 1022 68 10000 1 0 08:59 16.11.2020
5396 Clouds 21 1022 68 10000 1 0 08:38 16.11.2020
5397 Clouds 21 1022 64 10000 3.6 160 07:44 16.11.2020
5398 Rain 21 1022 68 10000 1 0 06:47 16.11.2020
5399 Clouds 20 1023 72 10000 2.1 30 05:53 16.11.2020
5400 Rain 20 1024 72 10000 1.5 360 04:36 16.11.2020
5401 Clear 18 1025 77 10000 1 0 01:49 16.11.2020
5402 Clear 18 1025 77 10000 1 0 01:27 16.11.2020
5403 Clouds 17 1024 82 10000 3.6 130 23:49 15.11.2020
5404 Clouds 17 1024 77 10000 3.1 130 23:21 15.11.2020
5405 Clouds 17 1024 77 10000 3.1 130 23:21 15.11.2020
5406 Clouds 17 1024 77 10000 3.1 130 22:40 15.11.2020
5407 Clouds 18 1025 82 10000 2.24 130 22:18 15.11.2020
5408 Clouds 18 1025 82 10000 2.24 130 21:43 15.11.2020
5409 Clouds 18 1025 82 10000 2.24 130 21:22 15.11.2020
5410 Clouds 18 1025 82 10000 2.24 130 20:41 15.11.2020
5411 Clouds 18 1025 82 10000 2.24 130 20:18 15.11.2020
5412 Clouds 18 1024 82 10000 2.24 130 19:47 15.11.2020
5413 Clouds 18 1024 82 10000 2.24 130 19:22 15.11.2020
5414 Clouds 18 1024 82 10000 2.24 130 18:56 15.11.2020
5415 Clouds 18 1024 82 10000 2.24 130 18:37 15.11.2020
5416 Clouds 18 1024 82 10000 2.24 130 18:19 15.11.2020
5417 Clouds 18 1024 82 10000 2.24 130 17:43 15.11.2020
5418 Clouds 18 1024 82 10000 2.24 130 17:23 15.11.2020
5419 Clouds 18 1024 82 10000 2.24 130 16:45 15.11.2020
5420 Clouds 18 1024 82 10000 2.24 130 16:20 15.11.2020
5421 Clouds 18 1024 82 10000 2.24 130 15:49 15.11.2020
5422 Clouds 18 1024 82 10000 2.24 130 15:26 15.11.2020
5423 Clouds 18 1024 82 10000 2.24 130 14:54 15.11.2020
5424 Clouds 18 1024 82 10000 2.6 130 14:28 15.11.2020
5425 Clouds 18 1024 82 10000 2.6 130 13:53 15.11.2020
5426 Clouds 18 1024 82 10000 2.6 130 13:34 15.11.2020
5427 Clouds 18 1025 82 10000 2.1 320 12:50 15.11.2020
5428 Clouds 18 1024 82 10000 1 320 12:20 15.11.2020
5429 Clouds 18 1024 82 10000 1 320 11:45 15.11.2020
5430 Clouds 19 1024 77 10000 1 10 11:19 15.11.2020
5431 Clouds 19 1024 77 10000 1 10 10:53 15.11.2020
5432 Clouds 19 1024 77 10000 1 10 10:31 15.11.2020
5433 Clouds 19 1024 72 10000 2.1 340 09:56 15.11.2020
5434 Clouds 19 1024 72 10000 2.1 340 09:33 15.11.2020
5435 Clouds 20 1024 72 10000 2.1 310 08:59 15.11.2020
5436 Clouds 20 1024 72 10000 2.1 310 08:41 15.11.2020
5437 Clouds 21 1024 56 10000 1.5 350 07:46 15.11.2020
5438 Clouds 20 1025 68 10000 2.6 310 06:42 15.11.2020
5439 Clouds 20 1026 60 10000 1 0 04:54 15.11.2020
5440 Clouds 16 1027 77 10000 3.1 130 02:21 15.11.2020
5441 Clouds 14 1027 82 10000 3.6 140 00:31 15.11.2020
5442 Clouds 13 1026 82 10000 3.6 120 23:54 14.11.2020
5443 Clouds 13 1026 87 10000 3.1 130 22:59 14.11.2020
5444 Clouds 13 1026 87 10000 3.1 130 22:41 14.11.2020
5445 Clear 16 1026 73 10000 1.89 78 22:19 14.11.2020
5446 Clear 16 1026 73 10000 1.89 78 21:39 14.11.2020
5447 Clear 16 1026 73 10000 1.73 68 21:20 14.11.2020
5448 Clear 16 1026 73 10000 1.73 68 20:47 14.11.2020
5449 Clear 16 1026 72 10000 1.71 81 20:24 14.11.2020
5450 Clear 16 1026 72 10000 1.71 81 19:36 14.11.2020
5451 Clear 16 1026 70 10000 1.94 73 18:59 14.11.2020
5452 Clear 16 1026 71 10000 1.75 73 18:39 14.11.2020
5453 Clear 16 1026 69 10000 1.89 75 18:21 14.11.2020
5454 Clear 16 1026 69 10000 1.89 75 17:44 14.11.2020
5455 Clear 16 1026 66 10000 1.78 78 17:26 14.11.2020
5456 Clear 16 1026 66 10000 1.78 78 16:52 14.11.2020
5457 Clear 10 1026 81 10000 2.6 300 16:31 14.11.2020
5458 Clear 10 1026 81 10000 2.6 300 15:53 14.11.2020
5459 Clear 10 1026 81 10000 2.6 300 15:31 14.11.2020
5460 Clear 13 1026 66 10000 3.1 40 14:54 14.11.2020
5461 Clear 14 1026 76 10000 3.1 130 14:29 14.11.2020
5462 Clear 14 1026 76 10000 3.1 130 13:51 14.11.2020
5463 Clear 14 1026 76 10000 3.1 130 13:29 14.11.2020
5464 Clear 15 1025 72 10000 3.6 130 12:49 14.11.2020
5465 Clear 15 1025 72 10000 3.6 130 12:30 14.11.2020
5466 Clear 15 1025 72 10000 1.5 120 11:55 14.11.2020
5467 Clear 17 1025 72 10000 1.5 120 11:36 14.11.2020
5468 Clear 18 1025 63 10000 1.5 120 10:51 14.11.2020
5469 Clear 18 1025 63 10000 1.5 120 10:27 14.11.2020
5470 Clear 19 1024 59 10000 1.5 150 09:58 14.11.2020
5471 Clear 19 1024 59 10000 1.5 150 09:40 14.11.2020
5472 Clear 19 1024 59 10000 1.5 150 09:22 14.11.2020
5473 Clear 22 1024 35 10000 3.1 160 08:40 14.11.2020
5474 Clear 22 1024 40 10000 4.6 360 08:18 14.11.2020
5475 Clear 22 1024 40 10000 4.6 360 07:41 14.11.2020
5476 Clear 22 1024 33 10000 4.1 360 06:43 14.11.2020
5477 Clear 22 1024 40 10000 4.6 10 06:20 14.11.2020
5478 Clear 21 1025 43 10000 2.6 340 04:45 14.11.2020
5479 Clouds 17 1026 55 10000 4.6 90 01:42 14.11.2020
5480 Clouds 15 1026 67 10000 5.1 70 00:24 14.11.2020
5481 Clouds 16 1025 51 10000 2.1 110 23:33 13.11.2020
5482 Clear 15 1025 58 10000 2.6 90 22:58 13.11.2020
5483 Clear 15 1025 58 10000 2.6 90 22:39 13.11.2020
5484 Clear 14 1025 65 10000 5.05 33 22:20 13.11.2020
5485 Clear 14 1025 65 10000 5.05 33 21:44 13.11.2020
5486 Clear 14 1025 66 10000 5.03 32 21:23 13.11.2020
5487 Clear 14 1025 66 10000 5.03 32 20:51 13.11.2020
5488 Clear 15 1025 65 10000 5.11 29 20:29 13.11.2020
5489 Clear 15 1025 65 10000 5.11 29 19:47 13.11.2020
5490 Clear 15 1025 64 10000 5.18 28 19:24 13.11.2020
5491 Clear 15 1025 64 10000 5.18 28 18:59 13.11.2020
5492 Clear 15 1025 64 10000 5.53 33 18:32 13.11.2020
5493 Clear 15 1025 63 10000 5.28 30 17:43 13.11.2020
5494 Clear 15 1025 62 10000 5.24 27 17:21 13.11.2020
5495 Clear 15 1025 62 10000 5.24 27 16:50 13.11.2020
5496 Clear 10 1025 87 10000 2.6 10 16:25 13.11.2020
5497 Clear 10 1025 87 10000 2.6 10 15:58 13.11.2020
5498 Clear 10 1025 87 10000 2.6 10 15:33 13.11.2020
5499 Clear 9 1025 93 10000 1 340 14:52 13.11.2020
5500 Clear 14 1024 71 10000 7.2 360 14:28 13.11.2020
5501 Clear 14 1024 71 10000 7.2 360 13:54 13.11.2020
5502 Clear 14 1024 71 10000 7.2 360 13:31 13.11.2020
5503 Clear 15 1024 72 10000 7.7 10 12:52 13.11.2020
5504 Clear 15 1024 72 10000 7.7 10 12:27 13.11.2020
5505 Clear 16 1023 72 10000 8.7 360 11:56 13.11.2020
5506 Clear 16 1023 72 10000 8.7 360 11:37 13.11.2020
5507 Clouds 17 1023 67 10000 6.7 10 10:59 13.11.2020
5508 Clouds 17 1023 67 10000 6.7 10 10:40 13.11.2020
5509 Clouds 17 1023 67 10000 6.7 10 10:40 13.11.2020
5510 Clouds 18 1022 59 10000 7.7 360 10:22 13.11.2020
5511 Clouds 18 1022 59 10000 7.7 360 09:44 13.11.2020
5512 Clouds 18 1022 59 10000 7.7 360 09:24 13.11.2020
5513 Clouds 20 1022 52 10000 7.7 350 08:52 13.11.2020
5514 Clouds 21 1022 49 10000 7.2 340 08:21 13.11.2020
5515 Clouds 21 1022 49 10000 7.2 340 07:47 13.11.2020
5516 Clouds 21 1022 49 10000 7.2 340 07:26 13.11.2020
5517 Clouds 21 1022 46 10000 6.2 340 06:50 13.11.2020
5518 Clouds 21 1023 46 10000 5.1 340 06:19 13.11.2020
5519 Clouds 21 1023 46 10000 5.1 340 05:39 13.11.2020
5520 Clear 15 1026 77 10000 1 0 02:22 13.11.2020
5521 Clouds 14 1026 82 10000 1.5 120 01:32 13.11.2020
5522 Clouds 12 1026 87 10000 1 80 00:33 13.11.2020
5523 Clouds 10 1025 93 10000 2.6 120 23:39 12.11.2020
5524 Clear 11 1025 93 10000 4.1 140 23:19 12.11.2020
5525 Clear 11 1025 93 10000 4.1 140 22:52 12.11.2020
5526 Clear 11 1025 93 10000 4.1 140 22:33 12.11.2020
5527 Clear 14 1026 66 10000 2.3 20 21:56 12.11.2020
5528 Clear 14 1026 66 10000 2.3 20 21:37 12.11.2020
5529 Clear 14 1026 66 10000 2.3 20 21:37 12.11.2020
5530 Clear 14 1026 66 10000 2.46 26 21:18 12.11.2020
5531 Clear 14 1026 66 10000 2.46 26 20:39 12.11.2020
5532 Clear 14 1026 65 10000 2.3 31 20:21 12.11.2020
5533 Clear 14 1026 65 10000 2.3 31 19:47 12.11.2020
5534 Clear 14 1026 65 10000 2.39 36 19:29 12.11.2020
5535 Clear 14 1026 65 10000 2.39 36 18:52 12.11.2020
5536 Clear 14 1027 66 10000 2.22 43 18:24 12.11.2020
5537 Clear 14 1027 66 10000 2.22 43 18:24 12.11.2020
5538 Clear 14 1027 66 10000 2.22 43 17:48 12.11.2020
5539 Clear 14 1027 64 10000 2.09 50 17:29 12.11.2020
5540 Clear 14 1027 64 10000 2.09 50 16:47 12.11.2020
5541 Clear 9 1026 87 10000 3.1 330 16:27 12.11.2020
5542 Clear 9 1026 87 10000 3.1 330 15:59 12.11.2020
5543 Clear 9 1026 87 10000 3.1 330 15:41 12.11.2020
5544 Clear 9 1027 93 10000 1.5 310 15:21 12.11.2020
5545 Clear 9 1027 93 10000 1.5 310 14:46 12.11.2020
5546 Clear 12 1026 81 10000 2.1 110 14:25 12.11.2020
5547 Clear 12 1026 81 10000 2.1 110 13:55 12.11.2020
5548 Clear 12 1026 81 10000 2.1 110 13:36 12.11.2020
5549 Clear 12 1026 87 10000 2.1 100 13:18 12.11.2020
5550 Clear 12 1026 87 10000 2.1 100 12:42 12.11.2020
5551 Clear 14 1026 71 10000 1 0 12:19 12.11.2020
5552 Clear 14 1026 71 10000 1 0 11:46 12.11.2020
5553 Clear 14 1026 71 10000 1 0 11:26 12.11.2020
5554 Clear 15 1026 67 10000 2.6 140 10:41 12.11.2020
5555 Clear 15 1026 67 10000 2.6 140 10:23 12.11.2020
5556 Clear 15 1026 67 10000 2.6 140 10:23 12.11.2020
5557 Clear 16 1025 63 10000 1.27 303 09:46 12.11.2020
5558 Clear 16 1025 63 10000 1.12 293 09:22 12.11.2020
5559 Clear 19 1025 48 10000 1.5 280 08:56 12.11.2020
5560 Clear 19 1025 48 10000 1.5 280 08:37 12.11.2020
5561 Clear 19 1025 48 10000 1 0 08:19 12.11.2020
5562 Clear 19 1025 48 10000 1 0 07:42 12.11.2020
5563 Clouds 19 1026 48 10000 1.5 280 07:18 12.11.2020
5564 Clouds 19 1026 48 10000 1.5 280 06:47 12.11.2020
5565 Clouds 17 1028 55 10000 1.5 240 05:19 12.11.2020
5566 Clear 15 1029 67 10000 0.5 0 03:21 12.11.2020
5567 Clear 13 1029 76 10000 1.5 150 01:23 12.11.2020
5568 Clear 9 1029 87 10000 2.6 110 23:47 11.11.2020
5569 Clear 9 1029 87 10000 2.6 110 23:25 11.11.2020
5570 Clear 9 1029 87 10000 2.1 90 22:58 11.11.2020
5571 Clear 9 1029 87 10000 2.1 90 22:39 11.11.2020
5572 Clear 13 1029 65 10000 2.53 48 22:19 11.11.2020
5573 Clear 13 1029 65 10000 2.53 48 21:41 11.11.2020
5574 Clear 13 1029 64 10000 2.52 41 21:23 11.11.2020
5575 Clear 13 1029 64 10000 2.52 41 20:55 11.11.2020
5576 Clear 13 1029 64 10000 2.52 41 20:37 11.11.2020
5577 Clear 13 1029 63 10000 2.79 39 20:19 11.11.2020
5578 Clear 13 1029 63 10000 2.79 39 19:48 11.11.2020
5579 Clear 13 1029 63 10000 2.79 39 19:30 11.11.2020
5580 Clear 13 1029 63 10000 2.79 39 19:30 11.11.2020
5581 Clear 13 1029 61 10000 2.54 46 18:49 11.11.2020
5582 Clear 13 1029 62 10000 2.23 52 18:28 11.11.2020
5583 Clear 13 1029 62 10000 2.23 52 17:41 11.11.2020
5584 Clear 13 1029 61 10000 2.73 54 17:22 11.11.2020
5585 Clear 13 1029 61 10000 2.73 54 16:49 11.11.2020
5586 Clear 11 1029 66 10000 3.1 30 16:31 11.11.2020
5587 Clear 11 1029 66 10000 3.1 30 15:50 11.11.2020
5588 Clear 11 1029 66 10000 3.1 30 15:27 11.11.2020
5589 Clear 10 1030 66 10000 3.1 30 14:55 11.11.2020
5590 Clear 12 1029 76 10000 2.6 140 14:35 11.11.2020
5591 Clear 12 1029 76 10000 2.6 140 13:57 11.11.2020
5592 Clear 12 1029 76 10000 2.6 140 13:33 11.11.2020
5593 Clear 13 1029 71 10000 2.6 60 12:44 11.11.2020
5594 Clouds 14 1029 54 10000 4.1 30 12:20 11.11.2020
5595 Clouds 14 1029 54 10000 4.1 30 11:49 11.11.2020
5596 Clouds 14 1029 54 10000 4.1 30 11:30 11.11.2020
5597 Clouds 15 1028 51 10000 3.1 50 10:42 11.11.2020
5598 Clouds 15 1028 51 10000 3.1 50 10:24 11.11.2020
5599 Clouds 16 1028 48 10000 4.1 50 09:48 11.11.2020
5600 Clouds 16 1028 48 10000 4.1 50 09:28 11.11.2020
5601 Clouds 18 1027 39 10000 5.7 30 08:47 11.11.2020
5602 Clouds 18 1027 39 10000 5.7 30 08:28 11.11.2020
5603 Clouds 19 1027 37 10000 7.2 10 07:52 11.11.2020
5604 Clouds 19 1027 37 10000 7.2 10 07:32 11.11.2020
5605 Clouds 18 1027 39 10000 7.7 10 06:28 11.11.2020
5606 Clouds 18 1029 39 10000 2.1 250 04:32 11.11.2020
5607 Clouds 14 1029 71 10000 1 0 01:32 11.11.2020
5608 Clouds 12 1029 76 10000 1.5 110 00:36 11.11.2020
5609 Clouds 8 1028 93 10000 2.1 110 23:55 10.11.2020
5610 Clouds 8 1028 93 10000 2.1 110 23:24 10.11.2020
5611 Clouds 8 1028 93 10000 2.6 110 22:57 10.11.2020
5612 Clouds 8 1028 93 10000 2.6 110 22:28 10.11.2020
5613 Clear 12 1028 62 10000 3.57 30 21:54 10.11.2020
5614 Clear 12 1028 62 10000 3.57 30 21:36 10.11.2020
5615 Clear 12 1027 63 10000 3.56 27 21:18 10.11.2020
5616 Clear 12 1027 63 10000 3.56 27 20:42 10.11.2020
5617 Clear 12 1027 64 10000 3.71 25 20:23 10.11.2020
5618 Clear 12 1027 64 10000 3.71 25 19:50 10.11.2020
5619 Clear 12 1027 64 10000 3.71 25 19:32 10.11.2020
5620 Clear 12 1027 64 10000 3.38 23 18:59 10.11.2020
5621 Clear 12 1027 64 10000 3.38 23 18:40 10.11.2020
5622 Clear 12 1027 62 10000 3.32 26 18:19 10.11.2020
5623 Clear 12 1027 62 10000 3.32 26 17:44 10.11.2020
5624 Clear 12 1027 62 10000 3.71 25 17:26 10.11.2020
5625 Clear 12 1027 62 10000 3.71 25 16:57 10.11.2020
5626 Clear 12 1027 62 10000 3.71 25 16:57 10.11.2020
5627 Clear 7 1027 87 10000 2.1 350 16:37 10.11.2020
5628 Clear 7 1027 87 10000 2.1 350 16:18 10.11.2020
5629 Clear 7 1027 87 10000 2.1 350 15:45 10.11.2020
5630 Clear 7 1027 87 10000 2.1 350 15:23 10.11.2020
5631 Clear 7 1027 87 10000 2.6 350 14:41 10.11.2020
5632 Clouds 12 1027 71 10000 3.1 100 14:22 10.11.2020
5633 Clouds 12 1027 71 10000 3.1 100 13:54 10.11.2020
5634 Clouds 12 1027 71 10000 3.1 100 13:36 10.11.2020
5635 Clouds 12 1026 66 10000 3.1 50 13:18 10.11.2020
5636 Clouds 12 1026 66 10000 3.1 50 12:44 10.11.2020
5637 Clouds 12 1026 66 10000 3.1 50 12:23 10.11.2020
5638 Clouds 13 1026 62 10000 3.1 50 11:39 10.11.2020
5639 Clouds 15 1026 51 10000 5.7 360 11:20 10.11.2020
5640 Clouds 15 1026 51 10000 5.7 360 10:44 10.11.2020
5641 Clouds 15 1026 51 10000 5.7 360 10:26 10.11.2020
5642 Clouds 15 1025 47 10000 5.7 330 09:51 10.11.2020
5643 Clouds 15 1025 47 10000 5.7 330 09:26 10.11.2020
5644 Clouds 16 1024 48 10000 4.6 350 08:59 10.11.2020
5645 Clouds 16 1024 48 10000 4.6 350 08:30 10.11.2020
5646 Clouds 16 1024 48 10000 4.6 350 08:30 10.11.2020
5647 Clouds 17 1024 42 10000 4.6 350 07:56 10.11.2020
5648 Clouds 17 1024 42 10000 4.6 350 07:37 10.11.2020
5649 Clouds 18 1024 45 10000 3.1 330 07:18 10.11.2020
5650 Clouds 18 1024 45 10000 3.1 330 06:38 10.11.2020
5651 Clouds 17 1025 48 10000 3.6 360 05:27 10.11.2020
5652 Clouds 14 1026 58 10000 1 0 02:59 10.11.2020
5653 Clouds 12 1026 76 10000 2.6 140 01:41 10.11.2020
5654 Clouds 10 1025 81 10000 3.1 130 00:30 10.11.2020
5655 Clouds 9 1025 81 10000 3.6 130 23:42 09.11.2020
5656 Clear 8 1025 75 10000 2.1 100 22:58 09.11.2020
5657 Clear 8 1025 75 10000 2.1 100 22:40 09.11.2020
5658 Clouds 11 1025 56 10000 4.33 16 22:20 09.11.2020
5659 Clouds 11 1025 56 10000 4.33 16 21:40 09.11.2020
5660 Clouds 12 1025 53 10000 4.52 16 21:21 09.11.2020
5661 Clouds 12 1025 53 10000 4.52 16 20:41 09.11.2020
5662 Clear 11 1025 52 10000 4.3 12 20:21 09.11.2020
5663 Clear 11 1025 52 10000 4.3 12 19:46 09.11.2020
5664 Clear 11 1025 49 10000 4.19 8 19:23 09.11.2020
5665 Clear 11 1025 49 10000 4.19 8 18:57 09.11.2020
5666 Clear 11 1025 51 10000 4.41 13 18:38 09.11.2020
5667 Clear 11 1025 50 10000 4.22 13 18:18 09.11.2020
5668 Clear 11 1025 50 10000 4.22 13 17:43 09.11.2020
5669 Clear 12 1025 49 10000 4.23 14 17:25 09.11.2020
5670 Clear 12 1025 49 10000 4.23 14 16:44 09.11.2020
5671 Clear 6 1024 81 10000 2.6 360 16:20 09.11.2020
5672 Clear 6 1024 81 10000 2.6 360 15:44 09.11.2020
5673 Clear 6 1024 81 10000 2.6 360 15:25 09.11.2020
5674 Clear 5 1024 86 10000 2.1 10 14:46 09.11.2020
5675 Clear 9 1024 66 10000 3.1 90 14:28 09.11.2020
5676 Clear 9 1024 66 10000 3.1 90 13:52 09.11.2020
5677 Clear 9 1024 66 10000 3.1 90 13:24 09.11.2020
5678 Clear 11 1023 57 10000 4.1 20 12:57 09.11.2020
5679 Clear 11 1023 57 10000 4.1 20 12:37 09.11.2020
5680 Clear 12 1023 54 10000 5.7 10 12:19 09.11.2020
5681 Clear 12 1023 54 10000 5.7 10 11:41 09.11.2020
5682 Clear 13 1022 47 10000 6.7 30 11:22 09.11.2020
5683 Clear 13 1022 47 10000 6.7 30 10:43 09.11.2020
5684 Clear 13 1022 47 10000 6.7 30 10:25 09.11.2020
5685 Clear 15 1021 47 10000 5.7 20 09:52 09.11.2020
5686 Clear 15 1021 47 10000 5.7 20 09:28 09.11.2020
5687 Clear 16 1021 44 10000 5.7 350 08:44 09.11.2020
5688 Clear 16 1021 44 10000 5.7 350 08:26 09.11.2020
5689 Clouds 17 1020 45 10000 6.7 340 07:41 09.11.2020
5690 Clouds 17 1020 45 10000 6.7 340 07:41 09.11.2020
5691 Clouds 17 1020 45 10000 6.7 340 07:21 09.11.2020
5692 Clouds 17 1020 45 10000 6.2 340 06:42 09.11.2020
5693 Clouds 16 1022 44 10000 5.7 350 03:32 09.11.2020
5694 Clouds 14 1022 47 10000 6.2 350 01:55 09.11.2020
5695 Clouds 14 1022 47 10000 6.2 350 01:36 09.11.2020
5696 Clouds 11 1021 53 10000 5.7 360 23:54 08.11.2020
5697 Clouds 11 1021 53 10000 5.7 360 23:30 08.11.2020
5698 Clear 12 1021 46 10000 5.7 360 22:58 08.11.2020
5699 Clear 12 1021 46 10000 5.7 360 22:40 08.11.2020
5700 Clear 12 1021 56 10000 5.18 357 22:19 08.11.2020
5701 Clear 12 1021 56 10000 5.18 357 21:39 08.11.2020
5702 Clear 12 1020 56 10000 5.35 355 21:19 08.11.2020
5703 Clear 12 1020 56 10000 5.35 355 20:54 08.11.2020
5704 Clear 12 1020 56 10000 5.35 355 20:36 08.11.2020
5705 Clear 13 1020 57 10000 5.65 352 20:18 08.11.2020
5706 Clear 13 1020 57 10000 5.65 352 19:42 08.11.2020
5707 Clear 15 1019 58 10000 2.68 80 19:21 08.11.2020
5708 Clear 15 1019 58 10000 2.68 80 18:48 08.11.2020
5709 Clear 15 1019 58 10000 2.68 80 18:48 08.11.2020
5710 Clear 15 1019 58 10000 2.68 80 18:22 08.11.2020
5711 Clear 15 1019 58 10000 2.68 80 17:57 08.11.2020
5712 Clear 15 1019 58 10000 2.68 80 17:38 08.11.2020
5713 Clear 15 1019 58 10000 2.68 80 17:19 08.11.2020
5714 Clear 15 1019 58 10000 2.68 80 16:48 08.11.2020
5715 Clear 15 1019 58 10000 2.68 80 16:48 08.11.2020
5716 Clear 15 1019 58 10000 2.68 80 16:22 08.11.2020
5717 Clear 15 1019 58 10000 2.68 80 15:57 08.11.2020
5718 Clear 15 1019 58 10000 2.68 80 15:38 08.11.2020
5719 Clear 15 1019 58 10000 2.68 80 15:20 08.11.2020
5720 Clear 15 1019 58 10000 2.68 80 14:40 08.11.2020
5721 Clouds 15 1019 58 10000 3.1 80 14:21 08.11.2020
5722 Clouds 15 1019 58 10000 3.1 80 13:46 08.11.2020
5723 Clouds 15 1019 58 10000 3.1 80 13:22 08.11.2020
5724 Clouds 15 1020 54 10000 6.2 340 12:43 08.11.2020
5725 Clouds 15 1020 54 10000 6.2 340 12:25 08.11.2020
5726 Clouds 16 1019 51 10000 8.2 320 11:57 08.11.2020
5727 Clouds 16 1019 51 10000 8.2 320 11:39 08.11.2020
5728 Clouds 16 1019 55 10000 8.2 310 11:20 08.11.2020
5729 Clouds 17 1019 55 10000 8.2 310 10:49 08.11.2020
5730 Clouds 17 1018 51 10000 8.7 310 10:18 08.11.2020
5731 Clouds 17 1018 51 10000 8.7 310 09:42 08.11.2020
5732 Clouds 17 1018 51 10000 8.7 310 09:24 08.11.2020
5733 Clouds 18 1018 52 10000 6.7 310 08:55 08.11.2020
5734 Clouds 18 1018 52 10000 6.7 310 08:36 08.11.2020
5735 Clouds 19 1018 42 10000 8.7 320 07:58 08.11.2020
5736 Clouds 20 1018 42 10000 8.7 320 07:39 08.11.2020
5737 Clouds 20 1018 40 10000 8.7 320 07:18 08.11.2020
5738 Clouds 21 1018 37 10000 8.2 320 05:55 08.11.2020
5739 Clouds 21 1018 37 10000 8.2 320 05:26 08.11.2020
5740 Clouds 20 1019 42 10000 6.2 320 03:46 08.11.2020
5741 Clear 17 1019 67 10000 3.1 360 01:49 08.11.2020
5742 Clear 15 1019 82 10000 1.5 40 01:18 08.11.2020
5743 Clear 14 1019 82 10000 1.5 40 00:24 08.11.2020
5744 Clear 14 1019 87 10000 2.1 40 23:45 07.11.2020
5745 Clear 14 1019 87 10000 2.1 40 23:27 07.11.2020
5746 Clear 16 1019 82 10000 1.5 80 22:41 07.11.2020
5747 Clear 16 1019 82 10000 1.5 80 22:23 07.11.2020
5748 Clouds 18 1018 82 10000 2.24 290 21:45 07.11.2020
5749 Clouds 18 1018 82 10000 2.24 290 21:22 07.11.2020
5750 Clouds 18 1018 82 10000 2.24 290 20:50 07.11.2020
5751 Clouds 18 1018 82 10000 2.24 290 20:32 07.11.2020
5752 Clear 18 1018 82 10000 2.24 290 19:52 07.11.2020
5753 Clouds 18 1018 82 10000 2.24 290 19:29 07.11.2020
5754 Clouds 18 1018 82 10000 2.24 290 18:58 07.11.2020
5755 Clouds 18 1018 82 10000 2.24 290 18:38 07.11.2020
5756 Clouds 18 1018 82 10000 2.24 290 18:19 07.11.2020
5757 Clouds 18 1018 82 10000 2.24 290 17:40 07.11.2020
5758 Clouds 18 1018 82 10000 2.24 290 17:22 07.11.2020
5759 Clouds 18 1018 82 10000 2.24 290 16:41 07.11.2020
5760 Clouds 18 1018 82 10000 2.24 290 16:23 07.11.2020
5761 Clouds 18 1018 82 10000 2.24 290 15:43 07.11.2020
5762 Clear 18 1018 82 10000 2.24 290 15:23 07.11.2020
5763 Clear 18 1018 82 10000 2.24 290 14:48 07.11.2020
5764 Clouds 18 1018 82 10000 2.6 290 14:29 07.11.2020
5765 Clouds 18 1018 82 10000 2.6 290 13:56 07.11.2020
5766 Clouds 18 1018 82 10000 2.6 290 13:31 07.11.2020
5767 Clouds 19 1018 82 10000 3.6 290 12:55 07.11.2020
5768 Clouds 19 1018 82 10000 3.6 290 12:30 07.11.2020
5769 Clouds 19 1017 82 10000 4.1 320 11:45 07.11.2020
5770 Clouds 19 1017 82 10000 4.1 320 11:45 07.11.2020
5771 Clouds 19 1017 82 10000 4.1 320 11:24 07.11.2020
5772 Clouds 20 1017 82 10000 2.6 310 10:46 07.11.2020
5773 Clouds 20 1017 82 10000 2.6 310 10:27 07.11.2020
5774 Clouds 20 1016 82 10000 1.5 320 09:57 07.11.2020
5775 Rain 20 1016 82 10000 1.5 320 09:37 07.11.2020
5776 Clouds 20 1016 88 10000 3.1 290 08:55 07.11.2020
5777 Rain 20 1016 88 10000 3.1 290 08:36 07.11.2020
5778 Rain 20 1016 88 10000 3.1 290 08:36 07.11.2020
5779 Clouds 20 1016 94 10000 3.1 330 07:55 07.11.2020
5780 Clouds 20 1016 94 10000 3.1 330 07:31 07.11.2020
5781 Rain 20 1015 94 10000 4.1 330 06:47 07.11.2020
5782 Clouds 20 1015 94 10000 3.1 340 05:34 07.11.2020
5783 Mist 19 1017 100 3500 2.1 330 03:24 07.11.2020
5784 Mist 19 1018 93 5000 1.5 140 01:29 07.11.2020
5785 Mist 18 1017 100 3000 1.5 120 00:59 07.11.2020
5786 Mist 18 1017 100 2500 1.5 130 23:56 06.11.2020
5787 Mist 18 1017 100 3500 2.1 140 23:22 06.11.2020
5788 Mist 18 1017 100 3500 2.1 140 22:42 06.11.2020
5789 Clouds 19 1017 89 10000 1.16 60 22:19 06.11.2020
5790 Clouds 19 1017 89 10000 1.16 60 21:46 06.11.2020
5791 Clouds 19 1017 89 10000 1.51 65 21:22 06.11.2020
5792 Clouds 19 1017 89 10000 1.51 65 20:56 06.11.2020
5793 Clouds 19 1017 89 10000 1.51 65 20:38 06.11.2020
5794 Clouds 19 1017 90 10000 1.56 55 20:18 06.11.2020
5795 Clouds 19 1017 90 10000 1.56 55 19:44 06.11.2020
5796 Clouds 19 1017 90 10000 1.78 63 19:26 06.11.2020
5797 Clouds 19 1017 90 10000 1.78 63 18:46 06.11.2020
5798 Rain 18 1018 91 10000 2.47 68 18:23 06.11.2020
5799 Clouds 18 1018 91 10000 2.47 68 17:51 06.11.2020
5800 Rain 18 1019 91 10000 2.23 73 17:27 06.11.2020
5801 Clouds 18 1019 91 10000 2.23 73 16:50 06.11.2020
5802 Clouds 17 1019 93 6000 1.5 10 16:32 06.11.2020
5803 Clouds 17 1019 93 6000 1.5 10 16:32 06.11.2020
5804 Clouds 17 1019 93 6000 1.5 10 15:54 06.11.2020
5805 Clouds 17 1019 93 6000 1.5 10 15:33 06.11.2020
5806 Rain 18 1020 88 10000 0.5 0 14:54 06.11.2020
5807 Rain 19 1019 72 10000 3.1 150 14:28 06.11.2020
5808 Rain 19 1019 72 10000 3.1 150 13:49 06.11.2020
5809 Clouds 19 1019 72 10000 3.1 150 13:25 06.11.2020
5810 Clouds 19 1019 68 10000 4.1 130 12:47 06.11.2020
5811 Rain 19 1019 68 10000 4.1 130 12:27 06.11.2020
5812 Clouds 19 1020 68 10000 4.1 150 11:59 06.11.2020
5813 Rain 19 1020 68 10000 4.1 150 11:36 06.11.2020
5814 Clouds 19 1019 63 10000 3.1 160 10:51 06.11.2020
5815 Rain 19 1019 63 10000 3.1 160 10:30 06.11.2020
5816 Clouds 20 1019 56 10000 4.6 160 09:50 06.11.2020
5817 Clouds 20 1019 56 10000 4.6 160 09:27 06.11.2020
5818 Clouds 20 1020 60 10000 4.1 150 08:53 06.11.2020
5819 Clouds 20 1020 60 10000 4.1 150 08:31 06.11.2020
5820 Clouds 21 1020 64 10000 3.6 130 07:56 06.11.2020
5821 Clouds 21 1020 64 10000 3.6 130 07:37 06.11.2020
5822 Clouds 21 1020 64 10000 3.6 120 07:18 06.11.2020
5823 Clouds 21 1020 64 10000 3.6 120 06:32 06.11.2020
5824 Clouds 21 1021 60 10000 4.1 120 05:36 06.11.2020
5825 Clouds 17 1024 77 10000 4.1 160 01:45 06.11.2020
5826 Clouds 16 1023 77 10000 5.1 150 00:23 06.11.2020
5827 Clear 16 1023 72 10000 4.1 160 23:39 05.11.2020
5828 Clear 15 1024 77 10000 4.1 140 22:59 05.11.2020
5829 Clear 15 1024 77 10000 4.1 140 22:41 05.11.2020
5830 Clouds 17 1025 55 10000 1.06 105 22:22 05.11.2020
5831 Clouds 17 1025 55 10000 1.06 105 21:44 05.11.2020
5832 Clouds 17 1025 55 10000 1.18 146 21:23 05.11.2020
5833 Clouds 17 1025 55 10000 1.18 146 20:58 05.11.2020
5834 Clouds 17 1025 55 10000 1.18 146 20:40 05.11.2020
5835 Clouds 16 1024 55 10000 1.19 155 20:21 05.11.2020
5836 Clouds 16 1024 55 10000 1.19 155 19:43 05.11.2020
5837 Clouds 17 1025 51 10000 1.14 134 19:23 05.11.2020
5838 Clouds 17 1025 51 10000 1.14 134 18:49 05.11.2020
5839 Clouds 17 1025 48 10000 1.4 130 18:30 05.11.2020
5840 Clouds 16 1025 46 10000 1.55 121 17:54 05.11.2020
5841 Clouds 16 1025 46 10000 1.55 121 17:36 05.11.2020
5842 Clouds 16 1026 43 10000 1.11 98 17:18 05.11.2020
5843 Clouds 16 1026 43 10000 1.11 98 16:41 05.11.2020
5844 Clouds 12 1026 87 10000 1.5 330 16:21 05.11.2020
5845 Clouds 12 1026 87 10000 1.5 330 15:49 05.11.2020
5846 Clouds 12 1026 87 10000 1.5 330 15:24 05.11.2020
5847 Clear 12 1026 93 10000 1.5 310 14:47 05.11.2020
5848 Clear 14 1025 71 10000 2.1 100 14:29 05.11.2020
5849 Clear 14 1025 71 10000 2.1 100 13:49 05.11.2020
5850 Clear 14 1025 71 10000 2.1 100 13:30 05.11.2020
5851 Clear 15 1025 67 10000 2.6 140 12:53 05.11.2020
5852 Clear 15 1025 67 10000 2.6 140 12:29 05.11.2020
5853 Clear 15 1025 62 10000 1.5 140 11:55 05.11.2020
5854 Clear 15 1025 62 10000 1.5 140 11:37 05.11.2020
5855 Clear 16 1024 59 10000 2.6 150 11:18 05.11.2020
5856 Clear 16 1024 59 10000 2.6 150 10:41 05.11.2020
5857 Clear 16 1024 59 10000 2.6 150 10:22 05.11.2020
5858 Clear 18 1024 42 10000 1.5 150 09:45 05.11.2020
5859 Clear 18 1024 42 10000 1.5 150 09:22 05.11.2020
5860 Clear 18 1024 45 10000 1 0 08:44 05.11.2020
5861 Clear 18 1024 45 10000 1 0 08:26 05.11.2020
5862 Clear 18 1024 42 10000 1.5 240 07:40 05.11.2020
5863 Clear 17 1024 42 10000 1 0 07:20 05.11.2020
5864 Clear 17 1024 42 10000 1 0 06:34 05.11.2020
5865 Clear 18 1024 42 10000 4.1 180 05:23 05.11.2020
5866 Clear 12 1027 62 10000 1.5 100 01:24 05.11.2020
5867 Clear 10 1026 81 10000 2.6 140 00:32 05.11.2020
5868 Clear 8 1026 81 10000 2.6 100 23:44 04.11.2020
5869 Clear 8 1026 81 10000 2.6 100 23:26 04.11.2020
5870 Clear 8 1025 81 10000 2.6 110 22:52 04.11.2020
5871 Clear 8 1025 81 10000 2.6 110 22:26 04.11.2020
5872 Clouds 10 1025 51 10000 1.77 43 21:57 04.11.2020
5873 Clouds 10 1025 51 10000 1.77 43 21:37 04.11.2020
5874 Clouds 11 1025 50 10000 2.58 32 21:18 04.11.2020
5875 Clouds 11 1025 50 10000 2.58 32 20:42 04.11.2020
5876 Clear 11 1024 51 10000 2.61 24 20:24 04.11.2020
5877 Clear 11 1024 51 10000 2.61 24 19:48 04.11.2020
5878 Clear 11 1024 51 10000 2.33 34 19:29 04.11.2020
5879 Clear 11 1024 52 10000 2.37 34 18:45 04.11.2020
5880 Clear 11 1024 53 10000 2.85 25 18:27 04.11.2020
5881 Clear 11 1024 53 10000 2.85 25 17:59 04.11.2020
5882 Clear 11 1024 53 10000 2.85 25 17:40 04.11.2020
5883 Clear 11 1024 53 10000 3.04 17 17:20 04.11.2020
5884 Clear 5 1024 86 10000 2.1 360 16:38 04.11.2020
5885 Clear 5 1024 86 10000 2.1 360 16:20 04.11.2020
5886 Clear 5 1024 86 10000 2.1 360 15:47 04.11.2020
5887 Clear 5 1024 86 10000 2.1 360 15:25 04.11.2020
5888 Clear 7 1024 81 10000 2.6 350 14:57 04.11.2020
5889 Clear 9 1023 70 10000 2.1 70 14:39 04.11.2020
5890 Clear 9 1023 70 10000 2.1 70 14:18 04.11.2020
5891 Clear 9 1023 70 10000 2.1 70 13:41 04.11.2020
5892 Clear 11 1023 62 10000 4.1 10 13:19 04.11.2020
5893 Clear 11 1023 62 10000 4.1 10 12:50 04.11.2020
5894 Clear 11 1023 62 10000 4.1 10 12:26 04.11.2020
5895 Clear 11 1023 62 10000 4.1 20 11:56 04.11.2020
5896 Clear 11 1023 62 10000 4.1 20 11:56 04.11.2020
5897 Clear 12 1023 62 10000 4.1 20 11:36 04.11.2020
5898 Clear 14 1022 47 10000 5.1 40 11:18 04.11.2020
5899 Clear 14 1022 47 10000 5.1 40 10:41 04.11.2020
5900 Clear 14 1022 47 10000 5.1 40 10:22 04.11.2020
5901 Clear 14 1021 44 10000 4.1 350 09:47 04.11.2020
5902 Clear 14 1021 44 10000 4.1 350 09:22 04.11.2020
5903 Clear 16 1021 44 10000 3.1 310 08:44 04.11.2020
5904 Clear 16 1021 41 10000 2.6 320 08:18 04.11.2020
5905 Clear 16 1021 41 10000 2.6 320 07:44 04.11.2020
5906 Clear 16 1021 41 10000 2.6 320 07:26 04.11.2020
5907 Clear 16 1021 38 10000 3.6 310 06:41 04.11.2020
5908 Clouds 15 1021 41 10000 3.6 350 05:59 04.11.2020
5909 Clouds 13 1023 50 10000 6.2 20 02:32 04.11.2020
5910 Clouds 11 1023 50 10000 6.2 20 01:40 04.11.2020
5911 Clouds 11 1023 53 10000 4.1 20 00:40 04.11.2020
5912 Clouds 10 1022 61 10000 6.2 20 23:34 03.11.2020
5913 Clouds 10 1022 61 10000 4.6 30 22:59 03.11.2020
5914 Clouds 10 1022 61 10000 4.6 30 22:40 03.11.2020
5915 Clear 10 1022 57 10000 4.96 6 22:20 03.11.2020
5916 Clear 10 1022 57 10000 4.96 6 21:55 03.11.2020
5917 Clear 10 1022 57 10000 4.96 6 21:36 03.11.2020
5918 Clear 11 1022 55 10000 5.6 355 21:18 03.11.2020
5919 Clear 11 1022 55 10000 5.6 355 20:41 03.11.2020
5920 Clear 11 1021 54 10000 5.79 351 20:19 03.11.2020
5921 Clear 11 1021 54 10000 5.79 351 19:42 03.11.2020
5922 Clouds 11 1021 52 10000 5.54 351 19:19 03.11.2020
5923 Clouds 11 1021 52 10000 5.54 351 18:41 03.11.2020
5924 Clouds 11 1021 52 10000 5.54 351 18:41 03.11.2020
5925 Clouds 11 1021 53 10000 4.58 350 18:20 03.11.2020
5926 Clouds 11 1021 53 10000 4.58 350 17:54 03.11.2020
5927 Clouds 13 1019 47 10000 7.6 330 17:36 03.11.2020
5928 Clouds 13 1019 47 10000 7.6 330 16:52 03.11.2020
5929 Clouds 13 1019 47 10000 7.6 330 16:31 03.11.2020
5930 Clouds 13 1019 47 10000 7.6 330 15:59 03.11.2020
5931 Clouds 13 1019 47 10000 7.6 330 15:40 03.11.2020
5932 Clouds 13 1019 47 10000 7.6 330 15:20 03.11.2020
5933 Clouds 13 1019 47 10000 7.6 330 14:46 03.11.2020
5934 Clouds 13 1019 47 10000 7.7 330 14:27 03.11.2020
5935 Clouds 13 1019 47 10000 7.7 330 13:42 03.11.2020
5936 Clouds 13 1019 47 10000 7.7 330 13:22 03.11.2020
5937 Clouds 13 1019 50 10000 7.2 330 12:48 03.11.2020
5938 Clouds 13 1019 50 10000 7.2 330 12:27 03.11.2020
5939 Clouds 13 1019 50 10000 8.2 330 11:55 03.11.2020
5940 Clouds 13 1019 50 10000 8.2 330 11:36 03.11.2020
5941 Clouds 13 1018 50 10000 10.3 320 11:18 03.11.2020
5942 Clouds 14 1018 50 10000 10.3 320 10:39 03.11.2020
5943 Clouds 14 1017 54 10000 9.8 330 10:19 03.11.2020
5944 Clouds 14 1017 54 10000 9.8 330 09:47 03.11.2020
5945 Clouds 14 1017 54 10000 9.8 330 09:26 03.11.2020
5946 Clouds 16 1017 55 10000 8.7 300 08:51 03.11.2020
5947 Clouds 16 1017 55 10000 8.7 300 08:33 03.11.2020
5948 Clouds 16 1016 48 10000 11.8 300 07:48 03.11.2020
5949 Clouds 16 1016 55 10000 11.8 310 07:20 03.11.2020
5950 Clouds 17 1016 55 10000 11.8 310 06:34 03.11.2020
5951 Clouds 19 1016 42 10000 7.7 310 04:37 03.11.2020
5952 Clear 14 1017 67 10000 2.6 120 00:46 03.11.2020
5953 Clear 14 1017 67 10000 2.6 120 00:24 03.11.2020
5954 Clear 13 1017 71 10000 6.7 350 23:46 02.11.2020
5955 Clear 13 1017 71 10000 6.7 350 23:28 02.11.2020
5956 Clear 12 1017 76 10000 4.6 10 22:44 02.11.2020
5957 Clear 14 1017 76 10000 4.6 10 22:25 02.11.2020
5958 Clear 16 1016 82 10000 5.36 350 21:39 02.11.2020
5959 Clear 16 1016 82 10000 5.36 350 21:21 02.11.2020
5960 Clear 16 1016 82 10000 5.36 350 20:56 02.11.2020
5961 Clear 16 1016 82 10000 5.36 350 20:38 02.11.2020
5962 Clear 16 1016 82 10000 5.36 350 20:18 02.11.2020
5963 Clear 16 1016 82 10000 5.36 350 20:18 02.11.2020
5964 Clear 16 1016 82 10000 5.36 350 19:43 02.11.2020
5965 Clouds 16 1016 82 10000 5.36 350 19:25 02.11.2020
5966 Clouds 16 1016 82 10000 5.36 350 18:43 02.11.2020
5967 Clouds 16 1016 82 10000 5.36 350 18:43 02.11.2020
5968 Clouds 15 1017 70 10000 4.43 6 18:22 02.11.2020
5969 Clouds 15 1017 70 10000 4.43 6 17:58 02.11.2020
5970 Clouds 15 1017 70 10000 4.43 6 17:40 02.11.2020
5971 Clouds 15 1017 74 10000 4.47 8 17:20 02.11.2020
5972 Clouds 15 1017 74 10000 4.47 8 16:42 02.11.2020
5973 Clear 13 1017 93 10000 1.5 360 16:23 02.11.2020
5974 Clear 13 1017 93 10000 1.5 360 15:42 02.11.2020
5975 Clear 13 1017 93 10000 1.5 360 15:24 02.11.2020
5976 Clouds 13 1017 100 10000 1 360 14:54 02.11.2020
5977 Clouds 16 1016 82 10000 5.7 350 14:20 02.11.2020
5978 Clouds 16 1016 82 10000 5.7 350 13:56 02.11.2020
5979 Clouds 16 1016 82 10000 5.7 350 13:38 02.11.2020
5980 Clouds 16 1016 82 10000 6.2 340 13:19 02.11.2020
5981 Clouds 16 1016 82 10000 6.2 340 12:31 02.11.2020
5982 Clouds 16 1016 87 10000 5.1 350 11:58 02.11.2020
5983 Clouds 16 1016 87 10000 5.1 350 11:38 02.11.2020
5984 Clouds 17 1016 82 10000 5.1 350 11:19 02.11.2020
5985 Clouds 17 1016 82 10000 5.1 350 10:42 02.11.2020
5986 Clouds 17 1016 82 10000 5.1 350 10:21 02.11.2020
5987 Clouds 17 1016 88 10000 6.7 10 09:49 02.11.2020
5988 Clouds 17 1016 88 10000 6.7 10 09:24 02.11.2020
5989 Clouds 17 1015 88 10000 6.2 350 08:42 02.11.2020
5990 Clouds 17 1015 88 10000 6.2 350 08:22 02.11.2020
5991 Rain 17 1016 93 8000 3.1 10 07:50 02.11.2020
5992 Rain 17 1016 93 8000 3.1 10 07:50 02.11.2020
5993 Rain 17 1016 93 9000 5.1 330 06:52 02.11.2020
5994 Clouds 17 1016 93 9000 5.1 330 06:34 02.11.2020
5995 Rain 17 1018 88 8000 4.6 340 03:23 02.11.2020
5996 Rain 18 1019 93 8000 2.1 20 01:22 02.11.2020
5997 Rain 17 1019 93 7000 6.2 360 00:33 02.11.2020
5998 Rain 18 1018 93 7000 3.1 330 23:41 01.11.2020
5999 Rain 18 1018 93 7000 3.1 330 23:23 01.11.2020
6000 Rain 18 1018 93 8000 2.6 70 22:46 01.11.2020
6001 Rain 18 1018 93 8000 2.6 70 22:25 01.11.2020
6002 Rain 19 1019 84 10000 2.14 22 21:58 01.11.2020
6003 Rain 19 1019 84 10000 2.14 22 21:38 01.11.2020
6004 Rain 19 1019 84 10000 2.14 22 21:38 01.11.2020
6005 Rain 19 1018 84 10000 1.98 11 21:20 01.11.2020
6006 Rain 19 1018 84 10000 1.98 11 20:40 01.11.2020
6007 Rain 19 1018 84 10000 2.1 15 20:20 01.11.2020
6008 Rain 19 1018 84 10000 2.1 15 19:41 01.11.2020
6009 Rain 18 1019 86 10000 1.46 16 19:23 01.11.2020
6010 Clouds 18 1019 86 10000 1.46 16 18:43 01.11.2020
6011 Rain 19 1019 86 10000 0.62 34 18:20 01.11.2020
6012 Clouds 19 1019 86 10000 0.62 34 17:58 01.11.2020
6013 Clouds 19 1019 86 10000 0.62 34 17:40 01.11.2020
6014 Rain 19 1019 87 10000 1.4 105 17:21 01.11.2020
6015 Rain 19 1019 87 10000 1.4 105 17:21 01.11.2020
6016 Clouds 19 1019 87 10000 1.4 105 16:40 01.11.2020
6017 Clouds 17 1019 82 10000 2.1 360 16:19 01.11.2020
6018 Clouds 17 1019 82 10000 2.1 360 15:41 01.11.2020
6019 Clouds 17 1019 82 10000 2.1 360 15:22 01.11.2020
6020 Clouds 18 1019 88 10000 1.5 110 14:58 01.11.2020
6021 Clouds 19 1019 82 10000 4.1 140 14:39 01.11.2020
6022 Clouds 19 1019 82 10000 4.1 140 14:21 01.11.2020
6023 Clouds 19 1019 82 10000 4.1 140 13:47 01.11.2020
6024 Clouds 19 1019 82 10000 4.1 140 13:28 01.11.2020
6025 Clouds 19 1019 82 10000 4.1 140 12:43 01.11.2020
6026 Clouds 19 1019 82 10000 4.1 140 12:23 01.11.2020
6027 Clouds 20 1019 72 10000 3.1 130 11:51 01.11.2020
6028 Clouds 20 1019 77 10000 2.6 150 11:19 01.11.2020
6029 Clouds 20 1019 77 10000 2.6 150 10:43 01.11.2020
6030 Clouds 20 1019 77 10000 2.6 150 10:24 01.11.2020
6031 Clouds 22 1019 68 10000 2.6 220 09:55 01.11.2020
6032 Clouds 22 1019 68 10000 2.6 220 09:35 01.11.2020
6033 Clouds 22 1019 64 10000 2.1 140 08:46 01.11.2020
6034 Rain 23 1018 60 10000 5.1 140 08:20 01.11.2020
6035 Clouds 23 1018 60 10000 5.1 140 07:39 01.11.2020
6036 Clouds 22 1021 56 10000 6.2 130 03:54 01.11.2020
6037 Clouds 18 1022 77 10000 4.1 140 01:47 01.11.2020
6038 Clouds 16 1022 77 10000 4.6 130 00:23 01.11.2020
6039 Clouds 16 1022 82 10000 3.6 150 23:25 31.10.2020
6040 Clouds 15 1022 82 10000 3.1 160 22:56 31.10.2020
6041 Clouds 15 1022 82 10000 3.1 160 22:36 31.10.2020
6042 Clouds 16 1022 71 10000 1.95 94 22:18 31.10.2020
6043 Clouds 16 1022 71 10000 1.95 94 21:43 31.10.2020
6044 Clouds 17 1022 70 10000 2.12 110 21:18 31.10.2020
6045 Clouds 17 1022 70 10000 2.12 110 20:38 31.10.2020
6046 Clouds 17 1022 71 10000 2.13 150 20:18 31.10.2020
6047 Clouds 17 1022 71 10000 2.13 150 19:40 31.10.2020
6048 Clouds 18 1022 67 10000 2.2 160 19:20 31.10.2020
6049 Clouds 16 1023 66 10000 1.25 83 18:47 31.10.2020
6050 Clouds 17 1023 63 10000 0.86 142 18:23 31.10.2020
6051 Clouds 17 1023 63 10000 0.86 142 17:40 31.10.2020
6052 Clear 16 1023 64 10000 1.48 148 17:22 31.10.2020
6053 Clear 16 1023 64 10000 1.48 148 16:42 31.10.2020
6054 Clouds 11 1023 87 10000 2.6 30 16:20 31.10.2020
6055 Clouds 11 1023 87 10000 2.6 30 15:43 31.10.2020
6056 Clouds 11 1023 87 10000 2.6 30 15:23 31.10.2020
6057 Clouds 12 1023 81 10000 3.1 70 14:47 31.10.2020
6058 Clouds 15 1023 77 10000 3.6 130 14:28 31.10.2020
6059 Clouds 15 1023 77 10000 3.6 130 13:50 31.10.2020
6060 Clouds 15 1023 77 10000 3.6 130 13:26 31.10.2020
6061 Clear 15 1023 77 10000 1.5 0 12:42 31.10.2020
6062 Clear 16 1022 72 10000 4.1 130 11:48 31.10.2020
6063 Clear 16 1022 72 10000 4.1 130 11:29 31.10.2020
6064 Clear 16 1022 63 10000 0.5 0 10:58 31.10.2020
6065 Clear 16 1022 63 10000 0.5 0 10:36 31.10.2020
6066 Clouds 18 1021 55 10000 1.5 270 09:45 31.10.2020
6067 Clouds 18 1021 55 10000 1.5 270 09:27 31.10.2020
6068 Clouds 20 1021 45 10000 2.1 230 08:40 31.10.2020
6069 Clouds 20 1021 42 10000 2.1 290 07:59 31.10.2020
6070 Clouds 20 1021 42 10000 2.1 290 07:27 31.10.2020
6071 Clouds 19 1021 48 10000 2.6 300 06:42 31.10.2020
6072 Clouds 19 1022 45 10000 2.6 300 06:19 31.10.2020
6073 Clear 18 1023 42 10000 3.6 280 03:46 31.10.2020
6074 Clouds 14 1023 47 10000 3.1 110 01:30 31.10.2020
6075 Clouds 14 1023 47 10000 3.1 110 01:30 31.10.2020
6076 Clouds 14 1024 50 10000 6.2 70 00:47 31.10.2020
6077 Clear 13 1023 54 10000 7.7 50 23:53 30.10.2020
6078 Clear 13 1023 54 10000 7.7 50 23:26 30.10.2020
6079 Clear 13 1023 54 10000 8.7 70 22:53 30.10.2020
6080 Clear 13 1023 54 10000 8.7 70 22:27 30.10.2020
6081 Clear 13 1024 65 10000 4.73 33 21:58 30.10.2020
6082 Clear 13 1024 65 10000 4.73 33 21:39 30.10.2020
6083 Clear 13 1023 65 10000 5.38 36 21:20 30.10.2020
6084 Clear 13 1023 65 10000 5.38 36 20:42 30.10.2020
6085 Clear 14 1023 64 10000 5.63 35 20:24 30.10.2020
6086 Clear 14 1023 64 10000 5.63 35 19:49 30.10.2020
6087 Clear 16 1023 59 10000 8.05 40 19:19 30.10.2020
6088 Clear 16 1023 59 10000 8.05 40 18:50 30.10.2020
6089 Clear 16 1023 59 10000 8.05 40 18:28 30.10.2020
6090 Clear 16 1023 59 10000 8.05 40 17:54 30.10.2020
6091 Clear 16 1023 59 10000 8.05 40 17:36 30.10.2020
6092 Clear 16 1023 59 10000 8.05 40 17:18 30.10.2020
6093 Clear 16 1023 59 10000 8.05 40 16:48 30.10.2020
6094 Clear 16 1023 59 10000 8.05 40 16:19 30.10.2020
6095 Clear 16 1023 59 10000 8.05 40 15:40 30.10.2020
6096 Clear 16 1023 59 10000 8.05 40 15:20 30.10.2020
6097 Clear 16 1023 59 10000 8.05 40 14:45 30.10.2020
6098 Clouds 16 1023 59 10000 8.2 40 14:25 30.10.2020
6099 Clouds 16 1023 59 10000 8.2 40 13:47 30.10.2020
6100 Clouds 16 1023 59 10000 8.2 40 13:23 30.10.2020
6101 Clouds 17 1022 59 10000 7.2 50 12:56 30.10.2020
6102 Clouds 17 1022 59 10000 7.2 50 12:23 30.10.2020
6103 Clouds 18 1021 59 10000 7.2 20 11:57 30.10.2020
6104 Clouds 18 1021 59 10000 7.2 20 11:57 30.10.2020
6105 Clouds 18 1021 59 10000 7.2 20 11:57 30.10.2020
6106 Clouds 18 1021 59 10000 7.2 20 11:57 30.10.2020
6107 Clouds 18 1021 59 10000 7.2 20 11:38 30.10.2020
6108 Clouds 18 1020 55 10000 6.7 20 11:18 30.10.2020
6109 Clouds 19 1020 55 10000 6.7 20 10:40 30.10.2020
6110 Clouds 19 1019 55 10000 7.7 10 10:21 30.10.2020
6111 Clouds 19 1019 55 10000 7.7 10 09:43 30.10.2020
6112 Clouds 20 1019 55 10000 7.7 10 09:22 30.10.2020
6113 Clouds 21 1019 46 10000 8.2 360 08:39 30.10.2020
6114 Clouds 21 1019 46 10000 8.2 360 08:21 30.10.2020
6115 Clouds 21 1018 49 10000 8.7 350 07:47 30.10.2020
6116 Clouds 21 1018 49 10000 8.7 350 07:27 30.10.2020
6117 Clouds 22 1018 40 10000 7.7 360 06:34 30.10.2020
6118 Clouds 21 1019 40 10000 8.2 10 04:28 30.10.2020
6119 Clouds 19 1020 52 10000 6.2 30 01:43 30.10.2020
6120 Clouds 16 1020 63 10000 5.7 10 00:38 30.10.2020
6121 Clouds 16 1019 63 10000 4.1 50 23:48 29.10.2020
6122 Clouds 16 1019 63 10000 4.1 50 23:30 29.10.2020
6123 Clouds 16 1019 72 10000 4.1 30 22:50 29.10.2020
6124 Clouds 16 1019 72 10000 4.1 30 22:27 29.10.2020
6125 Clouds 16 1019 72 10000 4.89 29 21:51 29.10.2020
6126 Clouds 16 1019 73 10000 4.37 34 21:28 29.10.2020
6127 Clouds 16 1019 73 10000 4.37 34 20:59 29.10.2020
6128 Clouds 16 1019 73 10000 4.37 34 20:40 29.10.2020
6129 Clouds 16 1019 73 10000 4.37 34 20:40 29.10.2020
6130 Clouds 16 1018 75 10000 4.24 24 20:18 29.10.2020
6131 Clouds 18 1019 67 10000 4.92 10 19:40 29.10.2020
6132 Clouds 18 1019 67 10000 4.92 10 19:21 29.10.2020
6133 Clouds 18 1019 67 10000 4.92 10 18:47 29.10.2020
6134 Clouds 18 1019 67 10000 4.92 10 18:27 29.10.2020
6135 Clouds 18 1019 67 10000 4.92 10 17:43 29.10.2020
6136 Clouds 16 1019 74 10000 3.17 13 17:25 29.10.2020
6137 Clouds 16 1019 74 10000 3.17 13 16:58 29.10.2020
6138 Clear 15 1019 77 10000 2.1 330 16:37 29.10.2020
6139 Clear 15 1019 77 10000 2.1 330 16:18 29.10.2020
6140 Clear 15 1019 77 10000 2.1 330 15:41 29.10.2020
6141 Clear 15 1019 77 10000 2.1 330 15:22 29.10.2020
6142 Clear 14 1019 87 10000 1.5 20 14:59 29.10.2020
6143 Clear 14 1019 87 10000 1.5 20 14:40 29.10.2020
6144 Clear 18 1019 68 10000 5.1 10 14:19 29.10.2020
6145 Clear 18 1019 68 10000 5.1 10 13:45 29.10.2020
6146 Clear 18 1019 68 10000 5.1 10 13:24 29.10.2020
6147 Clear 18 1019 68 10000 5.1 10 12:43 29.10.2020
6148 Clear 19 1018 59 10000 4.6 10 12:19 29.10.2020
6149 Clear 19 1018 59 10000 4.6 10 11:48 29.10.2020
6150 Clear 19 1018 59 10000 4.6 10 11:26 29.10.2020
6151 Clear 19 1018 55 10000 5.7 20 10:57 29.10.2020
6152 Clear 20 1018 55 10000 5.7 20 10:36 29.10.2020
6153 Clouds 20 1018 60 10000 7.2 340 10:18 29.10.2020
6154 Clouds 20 1018 60 10000 7.2 340 09:42 29.10.2020
6155 Clouds 22 1018 49 10000 5.7 340 09:19 29.10.2020
6156 Clouds 22 1018 49 10000 5.7 340 08:40 29.10.2020
6157 Clouds 22 1017 43 10000 5.1 340 08:19 29.10.2020
6158 Clouds 23 1017 43 10000 5.1 340 07:48 29.10.2020
6159 Clouds 23 1018 46 10000 2.1 300 06:58 29.10.2020
6160 Clouds 23 1018 46 10000 2.1 300 06:22 29.10.2020
6161 Clouds 21 1019 56 10000 2.1 290 04:46 29.10.2020
6162 Clouds 18 1020 77 10000 2.24 130 01:37 29.10.2020
6163 Clouds 16 1020 87 10000 2.24 130 00:31 29.10.2020
6164 Clouds 16 1020 82 10000 1.79 120 23:59 28.10.2020
6165 Clouds 16 1020 82 10000 1.79 120 23:22 28.10.2020
6166 Clouds 17 1020 77 10000 1.79 70 22:46 28.10.2020
6167 Clouds 17 1020 77 10000 1.79 70 22:28 28.10.2020
6168 Clouds 17 1020 77 10000 1.79 70 22:00 28.10.2020
6169 Clouds 17 1020 77 10000 1.79 70 21:41 28.10.2020
6170 Clouds 17 1020 77 10000 1.79 70 21:23 28.10.2020
6171 Clouds 17 1020 77 10000 1.79 70 20:42 28.10.2020
6172 Clouds 17 1020 77 10000 1.79 70 20:22 28.10.2020
6173 Clouds 17 1020 77 10000 1.79 70 19:51 28.10.2020
6174 Clouds 17 1020 77 10000 1.79 70 19:30 28.10.2020
6175 Clouds 17 1020 77 10000 1.79 70 18:50 28.10.2020
6176 Clear 17 1020 77 10000 1.79 70 18:22 28.10.2020
6177 Clear 17 1020 77 10000 1.79 70 17:57 28.10.2020
6178 Clear 17 1020 77 10000 1.79 70 17:39 28.10.2020
6179 Clear 17 1020 77 10000 1.79 70 17:18 28.10.2020
6180 Clear 17 1020 77 10000 1.79 70 17:18 28.10.2020
6181 Clear 17 1020 77 10000 1.79 70 16:44 28.10.2020
6182 Clear 17 1020 77 10000 1.79 70 16:22 28.10.2020
6183 Clear 17 1020 77 10000 1.79 70 15:38 28.10.2020
6184 Clear 17 1020 77 10000 1.79 70 15:19 28.10.2020
6185 Clear 17 1020 77 10000 1.79 70 14:43 28.10.2020
6186 Clear 17 1020 77 10000 2.1 70 14:24 28.10.2020
6187 Clouds 19 1019 68 10000 3.58 320 12:49 28.10.2020
6188 Clouds 19 1019 68 10000 3.58 320 12:27 28.10.2020
6189 Clouds 20 1019 68 10000 2.68 320 11:58 28.10.2020
6190 Clouds 20 1019 68 10000 2.68 320 11:39 28.10.2020
6191 Clouds 20 1019 68 10000 2.68 320 11:19 28.10.2020
6192 Rain 20 1019 68 10000 2.68 320 10:48 28.10.2020
6193 Clear 20 1019 68 10000 3.1 320 10:29 28.10.2020
6194 Clear 20 1019 68 10000 3.1 320 09:45 28.10.2020
6195 Clear 20 1019 68 10000 3.1 320 09:24 28.10.2020
6196 Clear 22 1019 49 10000 2.1 340 08:51 28.10.2020
6197 Clear 21 1019 49 10000 2.1 340 08:31 28.10.2020
6198 Clear 21 1019 60 10000 3.1 350 07:54 28.10.2020
6199 Clear 21 1019 60 10000 3.1 350 07:31 28.10.2020
6200 Clear 21 1019 64 10000 2.6 340 06:56 28.10.2020
6201 Clear 21 1019 64 10000 2.6 340 06:37 28.10.2020
6202 Clear 21 1020 60 10000 1 0 05:23 28.10.2020
6203 Clear 21 1020 60 10000 1 0 04:50 28.10.2020
6204 Clear 19 1021 63 10000 1.5 240 03:31 28.10.2020
6205 Clouds 17 1021 82 10000 2.6 130 01:55 28.10.2020
6206 Clear 16 1021 87 10000 2.6 100 00:33 28.10.2020
6207 Clear 16 1020 82 10000 2.1 100 23:47 27.10.2020
6208 Clouds 16 1020 87 10000 2.6 140 23:21 27.10.2020
6209 Clouds 16 1020 87 10000 2.6 140 22:44 27.10.2020
6210 Clouds 15 1019 82 10000 0.89 120 22:19 27.10.2020
6211 Clouds 15 1019 82 10000 0.89 120 21:57 27.10.2020
6212 Clouds 15 1019 82 10000 0.89 120 21:57 27.10.2020
6213 Clouds 15 1019 82 10000 0.89 120 21:37 27.10.2020
6214 Clouds 15 1019 82 10000 0.89 120 21:19 27.10.2020
6215 Clouds 15 1019 82 10000 0.89 120 20:50 27.10.2020
6216 Clouds 15 1019 82 10000 0.89 120 20:24 27.10.2020
6217 Clouds 15 1019 82 10000 0.89 120 19:57 27.10.2020
6218 Clouds 15 1019 82 10000 0.89 120 19:37 27.10.2020
6219 Clouds 15 1019 82 10000 0.89 120 19:18 27.10.2020
6220 Clouds 15 1019 82 10000 0.89 120 18:44 27.10.2020
6221 Clouds 15 1019 82 10000 0.89 120 18:22 27.10.2020
6222 Clouds 15 1019 82 10000 0.89 120 17:57 27.10.2020
6223 Clouds 15 1019 82 10000 0.89 120 17:38 27.10.2020
6224 Clouds 15 1019 82 10000 0.89 120 17:18 27.10.2020
6225 Clouds 15 1019 82 10000 0.89 120 16:42 27.10.2020
6226 Clouds 15 1019 82 10000 0.89 120 16:23 27.10.2020
6227 Clouds 15 1019 82 10000 0.89 120 15:42 27.10.2020
6228 Clouds 15 1019 82 10000 0.89 120 15:23 27.10.2020
6229 Clouds 15 1019 82 10000 0.89 120 14:49 27.10.2020
6230 Clear 15 1019 82 10000 1 120 14:29 27.10.2020
6231 Clear 15 1019 82 10000 1 120 13:58 27.10.2020
6232 Clear 15 1019 82 10000 1 120 13:28 27.10.2020
6233 Clear 17 1019 77 10000 1 50 12:44 27.10.2020
6234 Clear 17 1019 77 10000 1 50 12:25 27.10.2020
6235 Clear 17 1018 77 10000 3.1 40 11:59 27.10.2020
6236 Clear 17 1018 77 10000 3.1 40 11:41 27.10.2020
6237 Clear 18 1018 68 10000 2.1 360 11:21 27.10.2020
6238 Clear 20 1018 68 10000 2.1 360 10:43 27.10.2020
6239 Clouds 20 1018 56 10000 1 0 10:20 27.10.2020
6240 Clouds 20 1018 56 10000 1 0 09:28 27.10.2020
6241 Clouds 21 1018 49 10000 0.5 0 08:58 27.10.2020
6242 Clouds 21 1018 49 10000 0.5 0 08:30 27.10.2020
6243 Clouds 22 1018 46 10000 1 230 07:53 27.10.2020
6244 Clouds 22 1018 46 10000 1 230 07:35 27.10.2020
6245 Clouds 22 1018 35 10000 2.1 270 06:54 27.10.2020
6246 Clouds 22 1018 37 10000 1.5 220 06:20 27.10.2020
6247 Clouds 22 1018 37 10000 1.5 220 05:45 27.10.2020
6248 Clouds 21 1019 60 10000 2.1 240 05:24 27.10.2020
6249 Clouds 18 1020 68 10000 1 0 03:19 27.10.2020
6250 Clouds 15 1019 77 10000 1.5 80 01:20 27.10.2020
6251 Clouds 15 1019 77 10000 1.5 80 00:38 27.10.2020
6252 Clouds 12 1018 87 10000 2.1 90 23:37 26.10.2020
6253 Clear 12 1018 93 10000 2.1 110 22:58 26.10.2020
6254 Clear 12 1018 93 10000 2.1 110 22:39 26.10.2020
6255 Clear 15 1018 77 10000 1.94 47 22:18 26.10.2020
6256 Clear 15 1018 77 10000 1.94 47 21:37 26.10.2020
6257 Clear 15 1018 77 10000 2.22 50 21:18 26.10.2020
6258 Clear 15 1018 77 10000 2.22 50 20:49 26.10.2020
6259 Clear 15 1018 77 10000 2.09 42 20:27 26.10.2020
6260 Clear 15 1018 77 10000 2.09 42 19:49 26.10.2020
6261 Clouds 15 1018 77 10000 2.19 50 19:29 26.10.2020
6262 Clouds 15 1018 77 10000 2.27 37 18:59 26.10.2020
6263 Clouds 15 1018 77 10000 2.27 37 18:39 26.10.2020
6264 Clouds 15 1018 77 10000 2.05 53 18:20 26.10.2020
6265 Clouds 15 1018 77 10000 2.05 53 17:44 26.10.2020
6266 Clouds 15 1018 77 10000 2.1 37 17:23 26.10.2020
6267 Clouds 15 1018 77 10000 2.1 37 16:45 26.10.2020
6268 Clouds 15 1018 77 10000 1.91 15 16:22 26.10.2020
6269 Clouds 15 1018 77 10000 1.91 15 15:56 26.10.2020
6270 Clouds 15 1018 77 10000 1.91 15 15:38 26.10.2020
6271 Clouds 15 1018 77 10000 1.9 21 15:18 26.10.2020
6272 Clouds 15 1018 77 10000 1.9 21 14:44 26.10.2020
6273 Clear 15 1018 77 10000 1 0 14:18 26.10.2020
6274 Clear 15 1018 77 10000 1 0 13:41 26.10.2020
6275 Clear 15 1017 77 10000 1.5 70 13:22 26.10.2020
6276 Clear 16 1017 77 10000 1.5 70 12:45 26.10.2020
6277 Clear 16 1017 77 10000 1.5 70 12:26 26.10.2020
6278 Clear 17 1017 72 10000 2.6 70 11:48 26.10.2020
6279 Clear 17 1017 72 10000 2.6 70 11:27 26.10.2020
6280 Clear 18 1017 63 10000 4.1 320 10:58 26.10.2020
6281 Clear 18 1017 63 10000 4.1 320 10:58 26.10.2020
6282 Clear 18 1017 63 10000 4.1 320 10:40 26.10.2020
6283 Clear 19 1017 49 10000 1 0 10:19 26.10.2020
6284 Clear 20 1017 49 10000 1 0 09:43 26.10.2020
6285 Clouds 21 1016 40 10000 1 0 09:21 26.10.2020
6286 Clouds 21 1016 40 10000 1 0 08:29 26.10.2020
6287 Clouds 22 1016 30 10000 1 290 07:53 26.10.2020
6288 Clouds 22 1016 30 10000 1 290 07:34 26.10.2020
6289 Clouds 21 1016 49 10000 2.6 270 06:37 26.10.2020
6290 Clouds 20 1018 40 10000 1 0 04:22 26.10.2020
6291 Clouds 20 1018 60 10000 1.5 250 03:33 26.10.2020
6292 Clouds 16 1019 87 10000 2.6 110 01:38 26.10.2020
6293 Clouds 15 1019 87 10000 4.1 140 00:54 26.10.2020
6294 Clouds 15 1019 87 10000 4.1 140 00:31 26.10.2020
6295 Clouds 14 1018 93 10000 3.6 130 23:38 25.10.2020
6296 Clouds 14 1019 93 10000 3.6 130 23:19 25.10.2020
6297 Clouds 14 1019 93 10000 3.6 130 22:40 25.10.2020
6298 Clouds 14 1019 93 10000 3.6 130 22:40 25.10.2020
6299 Clear 16 1018 77 10000 2.68 320 22:20 25.10.2020
6300 Clear 16 1018 77 10000 2.68 320 21:40 25.10.2020
6301 Clear 16 1018 77 10000 2.68 320 21:21 25.10.2020
6302 Clear 15 1018 68 10000 1.58 59 20:46 25.10.2020
6303 Clear 15 1018 69 10000 1.59 41 20:27 25.10.2020
6304 Clear 15 1018 69 10000 1.59 41 19:59 25.10.2020
6305 Clear 15 1018 69 10000 1.59 41 19:41 25.10.2020
6306 Clouds 15 1018 66 10000 1.84 21 19:21 25.10.2020
6307 Clouds 16 1018 77 10000 2.68 320 18:42 25.10.2020
6308 Clouds 16 1018 77 10000 2.68 320 18:23 25.10.2020
6309 Clouds 16 1018 77 10000 2.68 320 17:59 25.10.2020
6310 Clouds 16 1018 77 10000 2.68 320 17:38 25.10.2020
6311 Clouds 16 1018 77 10000 2.68 320 17:20 25.10.2020
6312 Clouds 15 1018 67 10000 2.05 22 16:52 25.10.2020
6313 Clouds 16 1018 77 10000 2.68 320 16:31 25.10.2020
6314 Clouds 16 1018 77 10000 2.68 320 15:52 25.10.2020
6315 Clouds 16 1018 77 10000 2.68 320 15:32 25.10.2020
6316 Clouds 16 1018 77 10000 2.68 320 14:59 25.10.2020
6317 Clouds 16 1018 77 10000 3.1 320 14:38 25.10.2020
6318 Clouds 16 1018 77 10000 3.1 320 14:19 25.10.2020
6319 Clouds 16 1018 77 10000 3.1 320 13:42 25.10.2020
6320 Clouds 16 1018 77 10000 1.5 270 13:19 25.10.2020
6321 Clouds 16 1018 77 10000 1.5 270 12:46 25.10.2020
6322 Clouds 16 1018 77 10000 1.5 270 12:26 25.10.2020
6323 Clouds 17 1018 72 10000 5.1 300 11:44 25.10.2020
6324 Clouds 17 1018 72 10000 5.1 300 11:22 25.10.2020
6325 Clouds 17 1017 67 10000 4.1 320 10:57 25.10.2020
6326 Clouds 17 1017 67 10000 4.1 320 10:38 25.10.2020
6327 Clouds 17 1017 67 10000 4.1 320 10:20 25.10.2020
6328 Clear 18 1017 63 10000 4.1 320 09:40 25.10.2020
6329 Clouds 19 1017 56 10000 5.1 320 09:19 25.10.2020
6330 Clouds 20 1017 56 10000 5.1 320 08:44 25.10.2020
6331 Clouds 20 1017 56 10000 5.1 320 08:25 25.10.2020
6332 Clouds 20 1017 56 10000 1.5 270 07:48 25.10.2020
6333 Clouds 20 1017 56 10000 1.5 270 07:25 25.10.2020
6334 Clouds 20 1017 52 10000 2.1 220 06:46 25.10.2020
6335 Clouds 19 1018 52 10000 1.5 260 05:43 25.10.2020
6336 Clouds 19 1019 55 10000 1 0 04:52 25.10.2020
6337 Clouds 16 1020 67 10000 1.5 120 02:56 25.10.2020
6338 Clear 11 1019 87 10000 1.5 100 01:20 25.10.2020
6339 Clear 11 1019 87 10000 1.5 100 00:40 25.10.2020
6340 Clear 11 1019 87 10000 2.6 110 00:18 25.10.2020
6341 Clear 11 1019 87 10000 2.6 110 23:43 24.10.2020
6342 Clear 13 1019 87 10000 2.6 110 23:22 24.10.2020
6343 Clear 15 1017 62 10000 2.68 80 22:42 24.10.2020
6344 Clear 15 1017 62 10000 2.68 80 22:23 24.10.2020
6345 Clear 15 1017 62 10000 2.68 80 21:56 24.10.2020
6346 Clear 15 1017 62 10000 2.68 80 21:38 24.10.2020
6347 Clear 15 1017 62 10000 2.68 80 21:19 24.10.2020
6348 Clear 15 1017 62 10000 2.68 80 20:45 24.10.2020
6349 Clear 15 1017 62 10000 2.68 80 20:21 24.10.2020
6350 Clear 15 1017 62 10000 2.68 80 19:44 24.10.2020
6351 Clear 15 1017 62 10000 2.68 80 19:25 24.10.2020
6352 Clear 15 1017 62 10000 2.68 80 18:54 24.10.2020
6353 Clear 15 1017 62 10000 2.68 80 18:31 24.10.2020
6354 Clear 15 1017 62 10000 2.68 80 17:55 24.10.2020
6355 Clear 15 1017 62 10000 2.68 80 17:27 24.10.2020
6356 Clear 15 1017 62 10000 2.68 80 16:58 24.10.2020
6357 Clear 15 1017 62 10000 2.68 80 16:40 24.10.2020
6358 Clear 15 1017 62 10000 2.68 80 15:59 24.10.2020
6359 Clouds 15 1017 62 10000 3.1 80 15:38 24.10.2020
6360 Clouds 15 1017 62 10000 3.1 80 15:19 24.10.2020
6361 Clouds 15 1017 62 10000 3.1 80 14:40 24.10.2020
6362 Clouds 15 1017 71 10000 3.1 40 14:22 24.10.2020
6363 Clouds 15 1017 71 10000 3.1 40 13:44 24.10.2020
6364 Clouds 16 1017 59 10000 4.6 350 13:20 24.10.2020
6365 Clouds 16 1017 59 10000 4.6 350 12:41 24.10.2020
6366 Clouds 16 1017 59 10000 6.7 310 12:20 24.10.2020
6367 Clouds 16 1017 59 10000 6.7 310 11:50 24.10.2020
6368 Clouds 16 1017 59 10000 6.7 310 11:23 24.10.2020
6369 Clouds 16 1016 59 10000 7.7 310 10:47 24.10.2020
6370 Clouds 16 1016 59 10000 7.7 310 10:27 24.10.2020
6371 Clouds 17 1016 55 10000 8.2 300 09:48 24.10.2020
6372 Clouds 17 1016 55 10000 8.2 300 09:26 24.10.2020
6373 Clouds 18 1016 52 10000 8.2 310 08:57 24.10.2020
6374 Clouds 18 1016 52 10000 7.7 300 08:19 24.10.2020
6375 Clouds 18 1016 52 10000 7.7 300 07:51 24.10.2020
6376 Clouds 18 1016 48 10000 5.7 310 07:21 24.10.2020
6377 Clouds 18 1016 48 10000 5.7 310 06:50 24.10.2020
6378 Clouds 18 1017 48 10000 6.2 310 05:46 24.10.2020
6379 Clouds 15 1017 54 10000 6.2 350 02:26 24.10.2020
6380 Clouds 14 1016 58 10000 7.7 340 00:56 24.10.2020
6381 Clouds 14 1016 58 10000 7.7 340 00:37 24.10.2020
6382 Clouds 14 1016 54 10000 6.7 340 00:19 24.10.2020
6383 Clouds 14 1016 54 10000 6.7 340 23:40 23.10.2020
6384 Clouds 13 1016 54 10000 6.7 340 23:22 23.10.2020
6385 Clear 13 1013 62 10000 2.68 60 22:42 23.10.2020
6386 Clear 13 1013 62 10000 2.68 60 22:22 23.10.2020
6387 Clear 13 1013 62 10000 2.68 60 21:56 23.10.2020
6388 Clear 13 1013 62 10000 2.68 60 21:38 23.10.2020
6389 Clear 13 1013 62 10000 2.68 60 21:20 23.10.2020
6390 Clear 13 1013 62 10000 2.68 60 20:39 23.10.2020
6391 Clear 13 1013 62 10000 2.68 60 20:19 23.10.2020
6392 Clear 13 1013 62 10000 2.68 60 19:45 23.10.2020
6393 Clouds 13 1013 62 10000 2.68 60 19:26 23.10.2020
6394 Clouds 13 1013 62 10000 2.68 60 18:47 23.10.2020
6395 Clear 13 1013 62 10000 2.68 60 18:29 23.10.2020
6396 Clear 13 1013 62 10000 2.68 60 17:47 23.10.2020
6397 Clear 13 1013 62 10000 2.68 60 17:22 23.10.2020
6398 Clear 13 1013 62 10000 2.68 60 16:51 23.10.2020
6399 Clear 13 1013 62 10000 2.68 60 16:33 23.10.2020
6400 Clear 13 1013 62 10000 2.68 60 15:58 23.10.2020
6401 Clear 13 1013 62 10000 3.1 60 15:39 23.10.2020
6402 Clear 13 1013 62 10000 3.1 60 15:19 23.10.2020
6403 Clear 13 1013 62 10000 3.1 60 14:47 23.10.2020
6404 Clear 13 1013 62 10000 3.1 60 14:29 23.10.2020
6405 Clear 14 1013 62 10000 6.2 340 13:42 23.10.2020
6406 Clear 14 1013 62 10000 6.2 340 13:23 23.10.2020
6407 Clouds 15 1012 51 10000 7.2 340 12:50 23.10.2020
6408 Clouds 15 1012 51 10000 7.2 340 12:30 23.10.2020
6409 Clouds 15 1012 51 10000 7.7 330 11:50 23.10.2020
6410 Clouds 15 1012 51 10000 7.7 330 11:26 23.10.2020
6411 Clouds 16 1011 48 10000 6.2 330 10:52 23.10.2020
6412 Clouds 16 1011 48 10000 6.2 330 10:26 23.10.2020
6413 Clouds 18 1011 45 10000 7.2 330 09:57 23.10.2020
6414 Clouds 18 1011 45 10000 7.2 330 09:38 23.10.2020
6415 Clouds 18 1010 45 10000 7.2 320 09:19 23.10.2020
6416 Clouds 18 1010 45 10000 7.2 320 08:49 23.10.2020
6417 Clouds 18 1010 45 10000 7.2 320 08:23 23.10.2020
6418 Clouds 19 1010 42 10000 8.2 320 07:26 23.10.2020
6419 Clouds 19 1010 45 10000 8.7 320 06:48 23.10.2020
6420 Clouds 19 1011 45 10000 8.2 330 06:19 23.10.2020
6421 Clouds 18 1011 55 10000 8.2 340 03:37 23.10.2020
6422 Clouds 17 1011 59 10000 9.3 340 02:26 23.10.2020
6423 Clouds 16 1010 72 10000 10.3 320 00:49 23.10.2020
6424 Clouds 16 1010 63 10000 11.8 330 00:21 23.10.2020
6425 Clouds 16 1010 63 10000 11.8 330 23:37 22.10.2020
6426 Clouds 15 1011 71 10000 7.26 342 23:18 22.10.2020
6427 Clouds 15 1011 71 10000 7.26 342 22:42 22.10.2020
6428 Clouds 18 1009 93 10000 8.49 310 22:21 22.10.2020
6429 Clouds 18 1009 93 10000 8.49 310 21:47 22.10.2020
6430 Clouds 18 1009 93 10000 8.49 310 21:28 22.10.2020
6431 Clouds 18 1009 93 10000 8.49 310 20:58 22.10.2020
6432 Clouds 18 1009 93 10000 8.49 310 20:40 22.10.2020
6433 Clouds 18 1009 93 10000 8.49 310 20:20 22.10.2020
6434 Rain 18 1009 93 10000 8.49 310 19:41 22.10.2020
6435 Rain 18 1009 93 10000 8.49 310 19:20 22.10.2020
6436 Rain 18 1009 93 10000 8.49 310 18:43 22.10.2020
6437 Rain 18 1009 93 10000 8.49 310 18:21 22.10.2020
6438 Rain 18 1009 93 10000 8.49 310 17:47 22.10.2020
6439 Rain 18 1009 93 10000 8.49 310 17:26 22.10.2020
6440 Clouds 18 1009 93 10000 8.49 310 16:58 22.10.2020
6441 Rain 18 1009 93 10000 8.49 310 16:40 22.10.2020
6442 Rain 18 1009 93 10000 8.49 310 16:22 22.10.2020
6443 Rain 18 1010 93 10000 8.7 310 15:44 22.10.2020
6444 Rain 18 1010 93 10000 8.7 310 15:25 22.10.2020
6445 Rain 18 1010 93 8000 8.2 300 14:49 22.10.2020
6446 Rain 18 1010 93 8000 8.2 300 14:49 22.10.2020
6447 Rain 19 1010 93 8000 8.2 300 14:25 22.10.2020
6448 Rain 19 1010 93 10000 1 0 13:49 22.10.2020
6449 Rain 19 1010 93 10000 1 0 13:24 22.10.2020
6450 Rain 19 1010 93 10000 1 330 12:54 22.10.2020
6451 Rain 19 1010 93 10000 1 330 12:24 22.10.2020
6452 Rain 19 1010 93 10000 2.6 340 11:50 22.10.2020
6453 Rain 19 1010 93 10000 4.6 340 11:20 22.10.2020
6454 Rain 19 1010 93 10000 4.6 340 10:51 22.10.2020
6455 Rain 19 1010 93 10000 4.6 340 10:29 22.10.2020
6456 Rain 20 1010 94 10000 6.2 330 09:54 22.10.2020
6457 Rain 19 1009 94 8000 7.7 300 09:35 22.10.2020
6458 Rain 20 1009 94 6000 5.1 320 08:53 22.10.2020
6459 Rain 20 1009 94 10000 4.6 310 08:32 22.10.2020
6460 Mist 20 1009 94 5000 4.6 310 07:58 22.10.2020
6461 Mist 20 1009 94 5000 4.6 310 07:40 22.10.2020
6462 Clouds 20 1009 94 10000 2.1 330 06:58 22.10.2020
6463 Rain 20 1009 100 5000 2.6 340 06:35 22.10.2020
6464 Mist 21 1010 94 5000 4.1 300 05:42 22.10.2020
6465 Rain 21 1010 94 4000 4.6 240 05:19 22.10.2020
6466 Rain 20 1011 94 8000 5.1 140 01:50 22.10.2020
6467 Rain 19 1011 100 6000 6.7 160 00:27 22.10.2020
6468 Rain 19 1011 93 4000 6.2 130 23:57 21.10.2020
6469 Rain 21 1011 93 4000 3.1 180 23:33 21.10.2020
6470 Rain 23 1014 56 3354 1.79 170 22:44 21.10.2020
6471 Rain 23 1014 56 3073 1.79 170 22:20 21.10.2020
6472 Rain 23 1014 56 3073 1.79 170 22:20 21.10.2020
6473 Rain 23 1013 56 3073 1.79 170 21:57 21.10.2020
6474 Rain 21 1010 94 3073 4.87 167 21:38 21.10.2020
6475 Rain 21 1010 90 2107 6.17 166 21:18 21.10.2020
6476 Rain 21 1010 90 2107 6.17 166 20:48 21.10.2020
6477 Rain 22 1011 84 3436 8.04 152 20:19 21.10.2020
6478 Rain 22 1011 84 3436 8.04 152 19:47 21.10.2020
6479 Rain 20 1012 83 6281 2.67 86 19:26 21.10.2020
6480 Rain 20 1012 83 6281 2.67 86 18:54 21.10.2020
6481 Clouds 20 1012 83 6281 2.67 86 18:36 21.10.2020
6482 Rain 21 1013 73 10000 3.84 123 18:18 21.10.2020
6483 Rain 23 1013 56 10000 1.79 170 17:41 21.10.2020
6484 Rain 23 1013 56 10000 1.79 170 17:19 21.10.2020
6485 Rain 23 1013 56 10000 1.79 170 16:41 21.10.2020
6486 Rain 23 1013 56 10000 1.79 170 16:21 21.10.2020
6487 Rain 23 1013 56 10000 1.79 170 15:55 21.10.2020
6488 Clouds 23 1013 56 10000 2.1 170 15:36 21.10.2020
6489 Rain 23 1013 56 10000 2.1 170 15:18 21.10.2020
6490 Rain 23 1013 56 10000 2.1 170 14:42 21.10.2020
6491 Clouds 23 1013 56 10000 2.1 170 14:22 21.10.2020
6492 Clouds 23 1014 60 10000 4.6 130 13:42 21.10.2020
6493 Clouds 23 1014 60 10000 4.6 130 13:23 21.10.2020
6494 Clouds 23 1014 56 10000 4.6 130 12:43 21.10.2020
6495 Clouds 23 1014 56 10000 4.6 130 12:23 21.10.2020
6496 Clouds 23 1014 56 10000 4.6 150 11:56 21.10.2020
6497 Clouds 23 1014 56 10000 4.6 150 11:37 21.10.2020
6498 Clouds 23 1014 56 10000 4.6 150 11:18 21.10.2020
6499 Clouds 24 1014 60 10000 2.1 170 10:40 21.10.2020
6500 Clouds 24 1014 60 10000 2.1 170 10:21 21.10.2020
6501 Clouds 25 1015 53 10000 2.6 130 09:49 21.10.2020
6502 Clouds 25 1015 53 10000 2.6 130 09:28 21.10.2020
6503 Clouds 26 1015 47 10000 4.6 120 08:42 21.10.2020
6504 Clouds 26 1015 47 10000 4.6 120 08:23 21.10.2020
6505 Clouds 25 1016 50 10000 6.2 130 07:56 21.10.2020
6506 Clouds 25 1016 50 10000 6.2 130 07:24 21.10.2020
6507 Clouds 24 1017 47 10000 5.7 120 06:46 21.10.2020
6508 Clouds 24 1017 47 10000 5.7 120 06:24 21.10.2020
6509 Clouds 20 1020 56 10000 1 0 03:38 21.10.2020
6510 Clouds 15 1020 72 10000 2.6 150 00:31 21.10.2020
6511 Clouds 16 1020 72 10000 2.1 170 23:35 20.10.2020
6512 Clouds 17 1021 63 10000 2.68 50 22:47 20.10.2020
6513 Clear 17 1021 63 10000 2.68 50 22:25 20.10.2020
6514 Clear 17 1021 63 10000 2.68 50 21:47 20.10.2020
6515 Clear 17 1021 63 10000 2.68 50 21:19 20.10.2020
6516 Clear 17 1021 63 10000 2.68 50 20:43 20.10.2020
6517 Clear 17 1021 63 10000 2.68 50 20:24 20.10.2020
6518 Clear 17 1021 63 10000 2.68 50 19:55 20.10.2020
6519 Clear 17 1021 63 10000 2.68 50 19:37 20.10.2020
6520 Clear 17 1021 63 10000 2.68 50 19:19 20.10.2020
6521 Clear 17 1021 63 10000 2.68 50 18:38 20.10.2020
6522 Clear 17 1021 63 10000 2.68 50 17:59 20.10.2020
6523 Clear 17 1021 63 10000 2.68 50 17:40 20.10.2020
6524 Clear 17 1021 63 10000 2.68 50 17:22 20.10.2020
6525 Clear 17 1021 63 10000 2.68 50 16:42 20.10.2020
6526 Clear 17 1021 63 10000 2.68 50 16:24 20.10.2020
6527 Clear 17 1021 63 10000 2.68 50 15:49 20.10.2020
6528 Clear 17 1021 63 10000 3.1 50 15:29 20.10.2020
6529 Clear 17 1021 63 10000 3.1 50 14:47 20.10.2020
6530 Clear 17 1021 63 10000 3.1 50 14:26 20.10.2020
6531 Clear 18 1021 59 10000 4.1 70 13:59 20.10.2020
6532 Clear 18 1021 59 10000 4.1 70 13:41 20.10.2020
6533 Clear 18 1021 59 10000 4.1 70 13:20 20.10.2020
6534 Clear 20 1021 32 10000 5.7 10 12:51 20.10.2020
6535 Clear 20 1021 32 10000 5.7 10 12:31 20.10.2020
6536 Clear 21 1020 37 10000 4.6 40 11:48 20.10.2020
6537 Clear 21 1020 37 10000 4.6 40 11:29 20.10.2020
6538 Clear 23 1020 31 10000 5.1 50 10:49 20.10.2020
6539 Clear 23 1020 31 10000 5.1 50 10:26 20.10.2020
6540 Clear 24 1020 33 10000 5.7 30 09:46 20.10.2020
6541 Clear 24 1020 33 10000 5.7 30 09:20 20.10.2020
6542 Clear 24 1020 38 10000 7.2 10 08:40 20.10.2020
6543 Clear 24 1020 38 10000 7.2 10 08:22 20.10.2020
6544 Clear 23 1020 38 10000 2.6 0 07:44 20.10.2020
6545 Clear 23 1020 38 10000 2.6 0 07:22 20.10.2020
6546 Clouds 23 1022 43 10000 6.2 10 06:20 20.10.2020
6547 Clouds 22 1023 43 10000 2.1 0 04:51 20.10.2020
6548 Clouds 20 1023 64 10000 4.1 10 02:31 20.10.2020
6549 Clouds 18 1023 72 10000 2.1 110 01:27 20.10.2020
6550 Clouds 13 1023 87 10000 4.6 40 00:51 20.10.2020
6551 Clouds 13 1023 87 10000 4.6 40 00:27 20.10.2020
6552 Clouds 15 1023 82 10000 4.6 80 23:51 19.10.2020
6553 Clouds 15 1023 82 10000 4.6 80 23:26 19.10.2020
6554 Clouds 17 1023 72 10000 3.29 37 22:54 19.10.2020
6555 Clouds 17 1022 71 10000 3.43 39 22:28 19.10.2020
6556 Clouds 17 1022 71 10000 3.43 39 21:57 19.10.2020
6557 Clouds 17 1022 71 10000 3.43 39 21:39 19.10.2020
6558 Clouds 17 1022 70 10000 3.42 40 21:18 19.10.2020
6559 Clouds 17 1022 70 10000 3.42 40 20:42 19.10.2020
6560 Clouds 18 1022 68 10000 4.01 35 20:24 19.10.2020
6561 Clouds 17 1022 69 10000 4.2 32 19:45 19.10.2020
6562 Clouds 19 1022 68 10000 5.36 360 19:19 19.10.2020
6563 Clouds 19 1022 68 10000 5.36 360 18:50 19.10.2020
6564 Clouds 19 1022 68 10000 5.36 360 18:28 19.10.2020
6565 Clouds 19 1022 68 10000 5.36 360 17:47 19.10.2020
6566 Clouds 19 1022 68 10000 5.36 360 17:27 19.10.2020
6567 Clouds 19 1022 68 10000 5.36 360 16:54 19.10.2020
6568 Clouds 19 1022 68 10000 5.36 360 16:30 19.10.2020
6569 Clouds 19 1023 57 10000 4.28 45 15:50 19.10.2020
6570 Clouds 19 1022 58 10000 4.53 42 15:26 19.10.2020
6571 Clouds 19 1022 58 10000 4.53 42 14:58 19.10.2020
6572 Clouds 19 1022 58 10000 4.53 42 14:38 19.10.2020
6573 Clouds 19 1022 59 10000 5.03 29 14:19 19.10.2020
6574 Clouds 19 1022 59 10000 5.03 29 13:42 19.10.2020
6575 Clouds 20 1022 55 10000 5.53 30 13:22 19.10.2020
6576 Clouds 20 1022 55 10000 5.53 30 12:45 19.10.2020
6577 Clouds 20 1021 55 10000 5.26 26 12:25 19.10.2020
6578 Clouds 19 1020 49 10000 1.79 39 11:49 19.10.2020
6579 Clouds 21 1019 46 10000 6.2 360 11:22 19.10.2020
6580 Clouds 21 1019 46 10000 6.2 360 10:45 19.10.2020
6581 Clouds 22 1019 46 10000 6.2 360 10:24 19.10.2020
6582 Clouds 22 1019 46 10000 5.1 20 09:57 19.10.2020
6583 Clouds 22 1019 46 10000 5.1 20 09:36 19.10.2020
6584 Clouds 22 1019 46 10000 4.6 10 09:18 19.10.2020
6585 Clouds 23 1019 46 10000 4.6 10 08:41 19.10.2020
6586 Clouds 23 1019 44 10000 4.6 40 08:20 19.10.2020
6587 Clouds 23 1019 35 10000 6.2 40 07:21 19.10.2020
6588 Clouds 23 1019 35 10000 6.2 40 06:40 19.10.2020
6589 Clouds 23 1021 38 10000 3.1 20 05:20 19.10.2020
6590 Clouds 21 1021 49 10000 6.2 10 03:45 19.10.2020
6591 Clouds 19 1021 63 10000 6.2 350 01:43 19.10.2020
6592 Clouds 18 1020 68 10000 6.2 10 00:42 19.10.2020
6593 Clouds 18 1021 72 10000 7.2 360 23:56 18.10.2020
6594 Clouds 18 1021 72 10000 7.2 360 23:38 18.10.2020
6595 Clouds 18 1020 72 10000 6.71 350 23:18 18.10.2020
6596 Clouds 18 1020 72 10000 6.71 350 23:18 18.10.2020
6597 Clouds 18 1020 72 10000 6.71 350 22:43 18.10.2020
6598 Clouds 18 1020 72 10000 6.71 350 22:18 18.10.2020
6599 Clouds 18 1020 72 10000 6.71 350 21:41 18.10.2020
6600 Clouds 18 1020 72 10000 6.71 350 21:21 18.10.2020
6601 Clouds 18 1020 72 10000 6.71 350 20:44 18.10.2020
6602 Clouds 18 1020 72 10000 6.71 350 20:23 18.10.2020
6603 Rain 18 1020 72 10000 6.71 350 19:50 18.10.2020
6604 Rain 18 1020 72 10000 6.71 350 19:27 18.10.2020
6605 Clouds 18 1020 72 10000 6.71 350 18:51 18.10.2020
6606 Clouds 18 1020 72 10000 6.71 350 18:30 18.10.2020
6607 Clouds 18 1020 72 10000 6.71 350 17:59 18.10.2020
6608 Clouds 18 1020 72 10000 6.71 350 17:40 18.10.2020
6609 Clouds 18 1020 72 10000 6.71 350 17:21 18.10.2020
6610 Clouds 18 1020 72 10000 6.71 350 17:21 18.10.2020
6611 Clouds 18 1020 72 10000 6.71 350 16:41 18.10.2020
6612 Clouds 18 1020 72 10000 6.71 350 16:21 18.10.2020
6613 Clouds 18 1020 72 10000 6.71 350 15:42 18.10.2020
6614 Clouds 18 1020 72 10000 6.7 350 15:19 18.10.2020
6615 Clouds 18 1020 72 10000 6.7 350 14:57 18.10.2020
6616 Clouds 18 1020 72 10000 6.7 350 14:31 18.10.2020
6617 Clear 19 1020 72 10000 6.7 10 13:58 18.10.2020
6618 Clear 19 1020 72 10000 6.7 10 13:40 18.10.2020
6619 Clear 19 1019 68 10000 7.7 10 13:21 18.10.2020
6620 Clear 19 1019 68 10000 7.7 10 12:43 18.10.2020
6621 Clear 19 1019 64 10000 6.2 360 12:21 18.10.2020
6622 Clear 21 1019 64 10000 6.2 360 11:42 18.10.2020
6623 Clear 21 1019 64 10000 6.2 360 11:23 18.10.2020
6624 Clouds 22 1019 49 10000 5.7 10 10:44 18.10.2020
6625 Clouds 22 1018 46 10000 4.6 340 10:21 18.10.2020
6626 Clouds 23 1018 46 10000 4.6 340 09:57 18.10.2020
6627 Clouds 23 1018 46 10000 4.6 340 09:38 18.10.2020
6628 Clouds 23 1018 44 10000 4.1 10 09:19 18.10.2020
6629 Clouds 24 1018 44 10000 4.1 10 08:43 18.10.2020
6630 Clouds 24 1018 44 10000 4.1 10 08:22 18.10.2020
6631 Clouds 23 1018 46 10000 4.6 360 07:36 18.10.2020
6632 Clouds 23 1020 38 10000 6.7 10 05:33 18.10.2020
6633 Clouds 20 1021 56 10000 5.7 350 03:21 18.10.2020
6634 Clouds 18 1020 59 10000 3.6 70 02:19 18.10.2020
6635 Clouds 18 1020 59 10000 3.6 70 01:23 18.10.2020
6636 Clouds 16 1021 82 10000 5.7 340 00:35 18.10.2020
6637 Clouds 16 1020 87 10000 1.5 120 23:57 17.10.2020
6638 Clouds 16 1020 87 10000 1.5 120 23:38 17.10.2020
6639 Clouds 17 1021 68 10000 3.69 36 23:20 17.10.2020
6640 Clouds 17 1021 68 10000 3.69 36 22:45 17.10.2020
6641 Clouds 17 1021 68 10000 3.67 27 22:20 17.10.2020
6642 Clouds 17 1021 68 10000 3.67 27 21:58 17.10.2020
6643 Clouds 17 1021 68 10000 3.67 27 21:39 17.10.2020
6644 Clouds 17 1020 67 10000 3.35 22 21:19 17.10.2020
6645 Clouds 17 1020 67 10000 3.35 22 20:43 17.10.2020
6646 Clouds 16 1020 69 10000 4.03 27 20:19 17.10.2020
6647 Clouds 16 1021 68 10000 3.77 27 19:43 17.10.2020
6648 Clouds 16 1021 68 10000 3.7 21 19:20 17.10.2020
6649 Clouds 16 1021 68 10000 3.7 21 18:45 17.10.2020
6650 Clouds 16 1021 68 10000 3.84 21 18:25 17.10.2020
6651 Clouds 16 1021 68 10000 3.84 21 17:50 17.10.2020
6652 Clouds 12 1021 93 10000 1.5 40 17:23 17.10.2020
6653 Clouds 1